<?xml version="1.0" encoding="UTF-8" standalone="no" ?>
<gpx xmlns="http://www.topografix.com/GPX/1/1" xmlns:xsi="http://www.w3.org/2001/XMLSchema-instance" xsi:schemaLocation="http://www.topografix.com/GPX/1/1 http://www.topografix.com/GPX/1/1/gpx.xsd" version="1.1" creator="VisuGPX - https://www.visugpx.com">
  <metadata>
    <name>mardi 23 février 2021 : La Postée (à 2)</name>
    <desc><![CDATA[Une petite douleur persistante à l'épaule, mais pour le vélo ça va. 
Avec Jacky, un parcours calculé pour éviter les gadoues éventuelles : 80 % de route mais avec du dénivelé parfois (= on est passé à la Postée).
Très beau temps, j'étais en cuissard court.]]></desc>
  </metadata>
  <wpt lat="47.64423" lon="6.1832">
    <ele>228.2</ele>
    <name><![CDATA[0000196]]></name>
    <type><![CDATA[Point de départ]]></type>
  </wpt>
  <wpt lat="47.64436" lon="6.18327">
    <ele>231.2</ele>
    <name><![CDATA[0000197]]></name>
    <type><![CDATA[Point d'arrivée]]></type>
  </wpt>
  <trk>
    <name><![CDATA[2021-02-23 09:50]]></name>
    <desc><![CDATA[<p>Heure de départ: 02/23/2021 09:50<br/>Heure d'arrivée: 02/23/2021 11:39<br/>Distance: 24,2 km (01:48)<br/>Temps déplacement: 01:45<br/>Vitesse moyenne: 13,32 km/h<br/>Vitesse moyenne mouv.: 13,76 km/h<br/>Vitesse Max.: 38,33 km/h<br/>Altitude minimale: 144 m<br/>Altitude maximale: 293 m<br/>Vitesse de montée: 441,9 m/h<br/>Vitesse de descente: -456,8 m/h<br/>Gain d'altitude: 245 m<br/>Perte d'altitude: -195 m<br/>Temps de montée: 00:33<br/>Temps de descente: 00:25<br/></p><hr align="center" width="480" style="height: 2px; width: 517px"/>]]></desc>
    <trkseg>
      <trkpt lat="47.64423" lon="6.1832">
        <ele>228.2</ele>
        <time>2021-02-23T08:50:53Z</time>
      </trkpt>
      <trkpt lat="47.64446" lon="6.18311">
        <ele>231.4</ele>
        <time>2021-02-23T08:50:53Z</time>
      </trkpt>
      <trkpt lat="47.64461" lon="6.18308">
        <ele>233.5</ele>
        <time>2021-02-23T08:50:54Z</time>
      </trkpt>
      <trkpt lat="47.64457" lon="6.18315">
        <ele>233.7</ele>
        <time>2021-02-23T08:50:57Z</time>
      </trkpt>
      <trkpt lat="47.64448" lon="6.18316">
        <ele>232.1</ele>
        <time>2021-02-23T08:51:00Z</time>
      </trkpt>
      <trkpt lat="47.64443" lon="6.18316">
        <ele>231.2</ele>
        <time>2021-02-23T08:51:01Z</time>
      </trkpt>
      <trkpt lat="47.64437" lon="6.18316">
        <ele>230.3</ele>
        <time>2021-02-23T08:51:03Z</time>
      </trkpt>
      <trkpt lat="47.64439" lon="6.18308">
        <ele>229.8</ele>
        <time>2021-02-23T08:51:15Z</time>
      </trkpt>
      <trkpt lat="47.64438" lon="6.183">
        <ele>229</ele>
        <time>2021-02-23T08:51:19Z</time>
      </trkpt>
      <trkpt lat="47.64434" lon="6.18294">
        <ele>227.9</ele>
        <time>2021-02-23T08:51:22Z</time>
      </trkpt>
      <trkpt lat="47.64431" lon="6.18289">
        <ele>226.9</ele>
        <time>2021-02-23T08:51:24Z</time>
      </trkpt>
      <trkpt lat="47.64427" lon="6.18283">
        <ele>225.9</ele>
        <time>2021-02-23T08:51:26Z</time>
      </trkpt>
      <trkpt lat="47.64425" lon="6.18277">
        <ele>225.1</ele>
        <time>2021-02-23T08:51:28Z</time>
      </trkpt>
      <trkpt lat="47.64423" lon="6.18271">
        <ele>224.3</ele>
        <time>2021-02-23T08:51:32Z</time>
      </trkpt>
      <trkpt lat="47.64419" lon="6.18275">
        <ele>224</ele>
        <time>2021-02-23T08:51:33Z</time>
      </trkpt>
      <trkpt lat="47.6442" lon="6.18282">
        <ele>224.7</ele>
        <time>2021-02-23T08:51:35Z</time>
      </trkpt>
      <trkpt lat="47.64423" lon="6.18288">
        <ele>225.7</ele>
        <time>2021-02-23T08:51:37Z</time>
      </trkpt>
      <trkpt lat="47.64428" lon="6.18295">
        <ele>226.9</ele>
        <time>2021-02-23T08:51:39Z</time>
      </trkpt>
      <trkpt lat="47.64432" lon="6.183">
        <ele>228</ele>
        <time>2021-02-23T08:51:41Z</time>
      </trkpt>
      <trkpt lat="47.64437" lon="6.18305">
        <ele>229.3</ele>
        <time>2021-02-23T08:51:44Z</time>
      </trkpt>
      <trkpt lat="47.64444" lon="6.18302">
        <ele>230.1</ele>
        <time>2021-02-23T08:51:47Z</time>
      </trkpt>
      <trkpt lat="47.64448" lon="6.18297">
        <ele>230.2</ele>
        <time>2021-02-23T08:51:49Z</time>
      </trkpt>
      <trkpt lat="47.64451" lon="6.18291">
        <ele>230.2</ele>
        <time>2021-02-23T08:51:51Z</time>
      </trkpt>
      <trkpt lat="47.64455" lon="6.18286">
        <ele>230.1</ele>
        <time>2021-02-23T08:51:53Z</time>
      </trkpt>
      <trkpt lat="47.64459" lon="6.18278">
        <ele>229.8</ele>
        <time>2021-02-23T08:51:55Z</time>
      </trkpt>
      <trkpt lat="47.64463" lon="6.18272">
        <ele>229.6</ele>
        <time>2021-02-23T08:51:58Z</time>
      </trkpt>
      <trkpt lat="47.64466" lon="6.18266">
        <ele>229.4</ele>
        <time>2021-02-23T08:52:00Z</time>
      </trkpt>
      <trkpt lat="47.6447" lon="6.18261">
        <ele>229.1</ele>
        <time>2021-02-23T08:52:02Z</time>
      </trkpt>
      <trkpt lat="47.64475" lon="6.18252">
        <ele>228.6</ele>
        <time>2021-02-23T08:52:04Z</time>
      </trkpt>
      <trkpt lat="47.6448" lon="6.18244">
        <ele>228.5</ele>
        <time>2021-02-23T08:52:06Z</time>
      </trkpt>
      <trkpt lat="47.64483" lon="6.18238">
        <ele>228.5</ele>
        <time>2021-02-23T08:52:07Z</time>
      </trkpt>
      <trkpt lat="47.64487" lon="6.18229">
        <ele>228.4</ele>
        <time>2021-02-23T08:52:09Z</time>
      </trkpt>
      <trkpt lat="47.64491" lon="6.18221">
        <ele>228.2</ele>
        <time>2021-02-23T08:52:11Z</time>
      </trkpt>
      <trkpt lat="47.64494" lon="6.18213">
        <ele>227.9</ele>
        <time>2021-02-23T08:52:13Z</time>
      </trkpt>
      <trkpt lat="47.64496" lon="6.18207">
        <ele>227.6</ele>
        <time>2021-02-23T08:52:16Z</time>
      </trkpt>
      <trkpt lat="47.64499" lon="6.18196">
        <ele>227.1</ele>
        <time>2021-02-23T08:52:17Z</time>
      </trkpt>
      <trkpt lat="47.64501" lon="6.18186">
        <ele>226.6</ele>
        <time>2021-02-23T08:52:19Z</time>
      </trkpt>
      <trkpt lat="47.64501" lon="6.18175">
        <ele>225.7</ele>
        <time>2021-02-23T08:52:21Z</time>
      </trkpt>
      <trkpt lat="47.645" lon="6.18168">
        <ele>225.1</ele>
        <time>2021-02-23T08:52:22Z</time>
      </trkpt>
      <trkpt lat="47.64496" lon="6.18156">
        <ele>224.7</ele>
        <time>2021-02-23T08:52:24Z</time>
      </trkpt>
      <trkpt lat="47.64494" lon="6.18144">
        <ele>224.3</ele>
        <time>2021-02-23T08:52:26Z</time>
      </trkpt>
      <trkpt lat="47.64493" lon="6.18133">
        <ele>224.1</ele>
        <time>2021-02-23T08:52:28Z</time>
      </trkpt>
      <trkpt lat="47.64494" lon="6.18123">
        <ele>223.9</ele>
        <time>2021-02-23T08:52:30Z</time>
      </trkpt>
      <trkpt lat="47.64496" lon="6.18114">
        <ele>223.7</ele>
        <time>2021-02-23T08:52:32Z</time>
      </trkpt>
      <trkpt lat="47.64497" lon="6.18105">
        <ele>223.5</ele>
        <time>2021-02-23T08:52:34Z</time>
      </trkpt>
      <trkpt lat="47.64499" lon="6.18097">
        <ele>223.3</ele>
        <time>2021-02-23T08:52:36Z</time>
      </trkpt>
      <trkpt lat="47.64501" lon="6.18089">
        <ele>223.4</ele>
        <time>2021-02-23T08:52:38Z</time>
      </trkpt>
      <trkpt lat="47.64503" lon="6.18083">
        <ele>223.6</ele>
        <time>2021-02-23T08:52:40Z</time>
      </trkpt>
      <trkpt lat="47.64504" lon="6.18076">
        <ele>223.9</ele>
        <time>2021-02-23T08:52:42Z</time>
      </trkpt>
      <trkpt lat="47.64507" lon="6.18067">
        <ele>224.2</ele>
        <time>2021-02-23T08:52:45Z</time>
      </trkpt>
      <trkpt lat="47.64509" lon="6.18059">
        <ele>224.6</ele>
        <time>2021-02-23T08:52:48Z</time>
      </trkpt>
      <trkpt lat="47.64511" lon="6.18053">
        <ele>224.8</ele>
        <time>2021-02-23T08:52:51Z</time>
      </trkpt>
      <trkpt lat="47.64515" lon="6.18046">
        <ele>225.5</ele>
        <time>2021-02-23T08:53:27Z</time>
      </trkpt>
      <trkpt lat="47.64519" lon="6.18041">
        <ele>226</ele>
        <time>2021-02-23T08:53:29Z</time>
      </trkpt>
      <trkpt lat="47.64523" lon="6.18037">
        <ele>226.6</ele>
        <time>2021-02-23T08:53:31Z</time>
      </trkpt>
      <trkpt lat="47.64527" lon="6.18033">
        <ele>227.1</ele>
        <time>2021-02-23T08:53:33Z</time>
      </trkpt>
      <trkpt lat="47.64531" lon="6.18028">
        <ele>227.7</ele>
        <time>2021-02-23T08:53:36Z</time>
      </trkpt>
      <trkpt lat="47.64536" lon="6.18024">
        <ele>228.2</ele>
        <time>2021-02-23T08:53:39Z</time>
      </trkpt>
      <trkpt lat="47.64541" lon="6.18015">
        <ele>228.5</ele>
        <time>2021-02-23T08:53:42Z</time>
      </trkpt>
      <trkpt lat="47.64544" lon="6.18006">
        <ele>228.6</ele>
        <time>2021-02-23T08:53:46Z</time>
      </trkpt>
      <trkpt lat="47.64547" lon="6.18001">
        <ele>228.7</ele>
        <time>2021-02-23T08:53:48Z</time>
      </trkpt>
      <trkpt lat="47.6455" lon="6.17994">
        <ele>228.5</ele>
        <time>2021-02-23T08:53:50Z</time>
      </trkpt>
      <trkpt lat="47.64553" lon="6.17984">
        <ele>228.2</ele>
        <time>2021-02-23T08:53:52Z</time>
      </trkpt>
      <trkpt lat="47.64555" lon="6.17977">
        <ele>227.8</ele>
        <time>2021-02-23T08:53:54Z</time>
      </trkpt>
      <trkpt lat="47.64557" lon="6.17968">
        <ele>227.3</ele>
        <time>2021-02-23T08:53:56Z</time>
      </trkpt>
      <trkpt lat="47.6456" lon="6.17957">
        <ele>226.7</ele>
        <time>2021-02-23T08:53:58Z</time>
      </trkpt>
      <trkpt lat="47.64564" lon="6.17945">
        <ele>226</ele>
        <time>2021-02-23T08:54:00Z</time>
      </trkpt>
      <trkpt lat="47.64569" lon="6.17933">
        <ele>225.1</ele>
        <time>2021-02-23T08:54:02Z</time>
      </trkpt>
      <trkpt lat="47.64573" lon="6.17927">
        <ele>224.7</ele>
        <time>2021-02-23T08:54:04Z</time>
      </trkpt>
      <trkpt lat="47.6458" lon="6.17919">
        <ele>224.2</ele>
        <time>2021-02-23T08:54:06Z</time>
      </trkpt>
      <trkpt lat="47.64587" lon="6.17911">
        <ele>224</ele>
        <time>2021-02-23T08:54:08Z</time>
      </trkpt>
      <trkpt lat="47.64594" lon="6.17904">
        <ele>223.9</ele>
        <time>2021-02-23T08:54:10Z</time>
      </trkpt>
      <trkpt lat="47.64598" lon="6.179">
        <ele>223.8</ele>
        <time>2021-02-23T08:54:11Z</time>
      </trkpt>
      <trkpt lat="47.64604" lon="6.17895">
        <ele>223.6</ele>
        <time>2021-02-23T08:54:12Z</time>
      </trkpt>
      <trkpt lat="47.6461" lon="6.17892">
        <ele>223.5</ele>
        <time>2021-02-23T08:54:14Z</time>
      </trkpt>
      <trkpt lat="47.64617" lon="6.17891">
        <ele>223.2</ele>
        <time>2021-02-23T08:54:16Z</time>
      </trkpt>
      <trkpt lat="47.64624" lon="6.17891">
        <ele>223</ele>
        <time>2021-02-23T08:54:18Z</time>
      </trkpt>
      <trkpt lat="47.64631" lon="6.17893">
        <ele>222.8</ele>
        <time>2021-02-23T08:54:20Z</time>
      </trkpt>
      <trkpt lat="47.64639" lon="6.17896">
        <ele>222.6</ele>
        <time>2021-02-23T08:54:22Z</time>
      </trkpt>
      <trkpt lat="47.64644" lon="6.17898">
        <ele>222.4</ele>
        <time>2021-02-23T08:54:26Z</time>
      </trkpt>
      <trkpt lat="47.64655" lon="6.17903">
        <ele>222.2</ele>
        <time>2021-02-23T08:54:28Z</time>
      </trkpt>
      <trkpt lat="47.64661" lon="6.17907">
        <ele>222</ele>
        <time>2021-02-23T08:54:30Z</time>
      </trkpt>
      <trkpt lat="47.64671" lon="6.17913">
        <ele>221.8</ele>
        <time>2021-02-23T08:54:32Z</time>
      </trkpt>
      <trkpt lat="47.64677" lon="6.17917">
        <ele>221.7</ele>
        <time>2021-02-23T08:54:36Z</time>
      </trkpt>
      <trkpt lat="47.64687" lon="6.17927">
        <ele>222.5</ele>
        <time>2021-02-23T08:54:38Z</time>
      </trkpt>
      <trkpt lat="47.64693" lon="6.17933">
        <ele>223</ele>
        <time>2021-02-23T08:54:40Z</time>
      </trkpt>
      <trkpt lat="47.64699" lon="6.1794">
        <ele>223.3</ele>
        <time>2021-02-23T08:54:42Z</time>
      </trkpt>
      <trkpt lat="47.64703" lon="6.17946">
        <ele>223.5</ele>
        <time>2021-02-23T08:54:43Z</time>
      </trkpt>
      <trkpt lat="47.64707" lon="6.17952">
        <ele>223.8</ele>
        <time>2021-02-23T08:54:45Z</time>
      </trkpt>
      <trkpt lat="47.64711" lon="6.17959">
        <ele>224.1</ele>
        <time>2021-02-23T08:54:47Z</time>
      </trkpt>
      <trkpt lat="47.64716" lon="6.17967">
        <ele>224.1</ele>
        <time>2021-02-23T08:54:49Z</time>
      </trkpt>
      <trkpt lat="47.64721" lon="6.17974">
        <ele>224.1</ele>
        <time>2021-02-23T08:54:51Z</time>
      </trkpt>
      <trkpt lat="47.64725" lon="6.17981">
        <ele>224</ele>
        <time>2021-02-23T08:54:53Z</time>
      </trkpt>
      <trkpt lat="47.6473" lon="6.17989">
        <ele>223.8</ele>
        <time>2021-02-23T08:54:55Z</time>
      </trkpt>
      <trkpt lat="47.64734" lon="6.17996">
        <ele>223.5</ele>
        <time>2021-02-23T08:54:57Z</time>
      </trkpt>
      <trkpt lat="47.64739" lon="6.18003">
        <ele>223.5</ele>
        <time>2021-02-23T08:54:59Z</time>
      </trkpt>
      <trkpt lat="47.64744" lon="6.18011">
        <ele>224</ele>
        <time>2021-02-23T08:55:01Z</time>
      </trkpt>
      <trkpt lat="47.64749" lon="6.18019">
        <ele>224.5</ele>
        <time>2021-02-23T08:55:03Z</time>
      </trkpt>
      <trkpt lat="47.64754" lon="6.18026">
        <ele>225.5</ele>
        <time>2021-02-23T08:55:05Z</time>
      </trkpt>
      <trkpt lat="47.64759" lon="6.18032">
        <ele>226.5</ele>
        <time>2021-02-23T08:55:07Z</time>
      </trkpt>
      <trkpt lat="47.64764" lon="6.18039">
        <ele>227.4</ele>
        <time>2021-02-23T08:55:09Z</time>
      </trkpt>
      <trkpt lat="47.6477" lon="6.18046">
        <ele>228.1</ele>
        <time>2021-02-23T08:55:11Z</time>
      </trkpt>
      <trkpt lat="47.64776" lon="6.18052">
        <ele>228.5</ele>
        <time>2021-02-23T08:55:13Z</time>
      </trkpt>
      <trkpt lat="47.64782" lon="6.18057">
        <ele>228.7</ele>
        <time>2021-02-23T08:55:15Z</time>
      </trkpt>
      <trkpt lat="47.64788" lon="6.18062">
        <ele>228.6</ele>
        <time>2021-02-23T08:55:17Z</time>
      </trkpt>
      <trkpt lat="47.64794" lon="6.18064">
        <ele>228.4</ele>
        <time>2021-02-23T08:55:19Z</time>
      </trkpt>
      <trkpt lat="47.64799" lon="6.18066">
        <ele>228.1</ele>
        <time>2021-02-23T08:55:22Z</time>
      </trkpt>
      <trkpt lat="47.64809" lon="6.18069">
        <ele>227.3</ele>
        <time>2021-02-23T08:55:24Z</time>
      </trkpt>
      <trkpt lat="47.64814" lon="6.18071">
        <ele>226.8</ele>
        <time>2021-02-23T08:55:26Z</time>
      </trkpt>
      <trkpt lat="47.6482" lon="6.18073">
        <ele>226.2</ele>
        <time>2021-02-23T08:55:28Z</time>
      </trkpt>
      <trkpt lat="47.64826" lon="6.18074">
        <ele>225.6</ele>
        <time>2021-02-23T08:55:30Z</time>
      </trkpt>
      <trkpt lat="47.64831" lon="6.18075">
        <ele>225.1</ele>
        <time>2021-02-23T08:55:32Z</time>
      </trkpt>
      <trkpt lat="47.64836" lon="6.18075">
        <ele>224.9</ele>
        <time>2021-02-23T08:55:34Z</time>
      </trkpt>
      <trkpt lat="47.64842" lon="6.18077">
        <ele>225.1</ele>
        <time>2021-02-23T08:55:37Z</time>
      </trkpt>
      <trkpt lat="47.64847" lon="6.18077">
        <ele>225.2</ele>
        <time>2021-02-23T08:55:38Z</time>
      </trkpt>
      <trkpt lat="47.64854" lon="6.18079">
        <ele>225.4</ele>
        <time>2021-02-23T08:55:42Z</time>
      </trkpt>
      <trkpt lat="47.64859" lon="6.18081">
        <ele>225.6</ele>
        <time>2021-02-23T08:55:44Z</time>
      </trkpt>
      <trkpt lat="47.64865" lon="6.18083">
        <ele>225.8</ele>
        <time>2021-02-23T08:55:46Z</time>
      </trkpt>
      <trkpt lat="47.64872" lon="6.18084">
        <ele>226</ele>
        <time>2021-02-23T08:55:48Z</time>
      </trkpt>
      <trkpt lat="47.64879" lon="6.18085">
        <ele>226.3</ele>
        <time>2021-02-23T08:55:50Z</time>
      </trkpt>
      <trkpt lat="47.64886" lon="6.18087">
        <ele>226.7</ele>
        <time>2021-02-23T08:55:52Z</time>
      </trkpt>
      <trkpt lat="47.64893" lon="6.18088">
        <ele>227</ele>
        <time>2021-02-23T08:55:54Z</time>
      </trkpt>
      <trkpt lat="47.64899" lon="6.1809">
        <ele>227.3</ele>
        <time>2021-02-23T08:55:56Z</time>
      </trkpt>
      <trkpt lat="47.64906" lon="6.18091">
        <ele>227.6</ele>
        <time>2021-02-23T08:55:58Z</time>
      </trkpt>
      <trkpt lat="47.64913" lon="6.18092">
        <ele>227.9</ele>
        <time>2021-02-23T08:56:00Z</time>
      </trkpt>
      <trkpt lat="47.64918" lon="6.18093">
        <ele>228.1</ele>
        <time>2021-02-23T08:56:02Z</time>
      </trkpt>
      <trkpt lat="47.64924" lon="6.18094">
        <ele>228.5</ele>
        <time>2021-02-23T08:56:04Z</time>
      </trkpt>
      <trkpt lat="47.6493" lon="6.18095">
        <ele>228.8</ele>
        <time>2021-02-23T08:56:06Z</time>
      </trkpt>
      <trkpt lat="47.64937" lon="6.18096">
        <ele>229.3</ele>
        <time>2021-02-23T08:56:08Z</time>
      </trkpt>
      <trkpt lat="47.64943" lon="6.18098">
        <ele>229.7</ele>
        <time>2021-02-23T08:56:10Z</time>
      </trkpt>
      <trkpt lat="47.6495" lon="6.18099">
        <ele>230.1</ele>
        <time>2021-02-23T08:56:12Z</time>
      </trkpt>
      <trkpt lat="47.64955" lon="6.181">
        <ele>230.5</ele>
        <time>2021-02-23T08:56:14Z</time>
      </trkpt>
      <trkpt lat="47.64961" lon="6.181">
        <ele>230.7</ele>
        <time>2021-02-23T08:56:16Z</time>
      </trkpt>
      <trkpt lat="47.64967" lon="6.18099">
        <ele>230.9</ele>
        <time>2021-02-23T08:56:18Z</time>
      </trkpt>
      <trkpt lat="47.64974" lon="6.18098">
        <ele>231</ele>
        <time>2021-02-23T08:56:20Z</time>
      </trkpt>
      <trkpt lat="47.64981" lon="6.18097">
        <ele>231.2</ele>
        <time>2021-02-23T08:56:22Z</time>
      </trkpt>
      <trkpt lat="47.64987" lon="6.18096">
        <ele>231.3</ele>
        <time>2021-02-23T08:56:24Z</time>
      </trkpt>
      <trkpt lat="47.64994" lon="6.18095">
        <ele>231.5</ele>
        <time>2021-02-23T08:56:26Z</time>
      </trkpt>
      <trkpt lat="47.65001" lon="6.18094">
        <ele>231.6</ele>
        <time>2021-02-23T08:56:28Z</time>
      </trkpt>
      <trkpt lat="47.65008" lon="6.18094">
        <ele>231.7</ele>
        <time>2021-02-23T08:56:30Z</time>
      </trkpt>
      <trkpt lat="47.65013" lon="6.18094">
        <ele>231.8</ele>
        <time>2021-02-23T08:56:33Z</time>
      </trkpt>
      <trkpt lat="47.65025" lon="6.18094">
        <ele>232</ele>
        <time>2021-02-23T08:56:35Z</time>
      </trkpt>
      <trkpt lat="47.65032" lon="6.18094">
        <ele>232.2</ele>
        <time>2021-02-23T08:56:37Z</time>
      </trkpt>
      <trkpt lat="47.65041" lon="6.18095">
        <ele>232.5</ele>
        <time>2021-02-23T08:56:39Z</time>
      </trkpt>
      <trkpt lat="47.65047" lon="6.18095">
        <ele>232.5</ele>
        <time>2021-02-23T08:56:43Z</time>
      </trkpt>
      <trkpt lat="47.65054" lon="6.18096">
        <ele>232.9</ele>
        <time>2021-02-23T08:56:44Z</time>
      </trkpt>
      <trkpt lat="47.65059" lon="6.18097">
        <ele>233.1</ele>
        <time>2021-02-23T08:56:46Z</time>
      </trkpt>
      <trkpt lat="47.65065" lon="6.18098">
        <ele>233.4</ele>
        <time>2021-02-23T08:56:48Z</time>
      </trkpt>
      <trkpt lat="47.65071" lon="6.18099">
        <ele>233.8</ele>
        <time>2021-02-23T08:56:50Z</time>
      </trkpt>
      <trkpt lat="47.65077" lon="6.18101">
        <ele>234.3</ele>
        <time>2021-02-23T08:56:53Z</time>
      </trkpt>
      <trkpt lat="47.6509" lon="6.18104">
        <ele>235.1</ele>
        <time>2021-02-23T08:56:55Z</time>
      </trkpt>
      <trkpt lat="47.65097" lon="6.18104">
        <ele>235.5</ele>
        <time>2021-02-23T08:56:57Z</time>
      </trkpt>
      <trkpt lat="47.65105" lon="6.18104">
        <ele>235.7</ele>
        <time>2021-02-23T08:56:59Z</time>
      </trkpt>
      <trkpt lat="47.65113" lon="6.18102">
        <ele>235.6</ele>
        <time>2021-02-23T08:57:01Z</time>
      </trkpt>
      <trkpt lat="47.6512" lon="6.181">
        <ele>235.4</ele>
        <time>2021-02-23T08:57:03Z</time>
      </trkpt>
      <trkpt lat="47.65127" lon="6.18097">
        <ele>235.1</ele>
        <time>2021-02-23T08:57:05Z</time>
      </trkpt>
      <trkpt lat="47.65134" lon="6.18093">
        <ele>234.7</ele>
        <time>2021-02-23T08:57:07Z</time>
      </trkpt>
      <trkpt lat="47.65141" lon="6.18089">
        <ele>234.1</ele>
        <time>2021-02-23T08:57:09Z</time>
      </trkpt>
      <trkpt lat="47.65146" lon="6.18085">
        <ele>233.6</ele>
        <time>2021-02-23T08:57:10Z</time>
      </trkpt>
      <trkpt lat="47.65151" lon="6.1808">
        <ele>233.2</ele>
        <time>2021-02-23T08:57:12Z</time>
      </trkpt>
      <trkpt lat="47.65157" lon="6.18073">
        <ele>232.6</ele>
        <time>2021-02-23T08:57:14Z</time>
      </trkpt>
      <trkpt lat="47.65161" lon="6.18067">
        <ele>232</ele>
        <time>2021-02-23T08:57:16Z</time>
      </trkpt>
      <trkpt lat="47.65166" lon="6.18059">
        <ele>231.1</ele>
        <time>2021-02-23T08:57:18Z</time>
      </trkpt>
      <trkpt lat="47.65172" lon="6.18051">
        <ele>230.5</ele>
        <time>2021-02-23T08:57:20Z</time>
      </trkpt>
      <trkpt lat="47.65175" lon="6.18045">
        <ele>230.1</ele>
        <time>2021-02-23T08:57:22Z</time>
      </trkpt>
      <trkpt lat="47.65179" lon="6.18039">
        <ele>229.6</ele>
        <time>2021-02-23T08:57:24Z</time>
      </trkpt>
      <trkpt lat="47.65183" lon="6.18031">
        <ele>229</ele>
        <time>2021-02-23T08:57:26Z</time>
      </trkpt>
      <trkpt lat="47.65187" lon="6.18026">
        <ele>228.5</ele>
        <time>2021-02-23T08:57:28Z</time>
      </trkpt>
      <trkpt lat="47.65191" lon="6.18018">
        <ele>227.9</ele>
        <time>2021-02-23T08:57:30Z</time>
      </trkpt>
      <trkpt lat="47.65197" lon="6.18011">
        <ele>227.3</ele>
        <time>2021-02-23T08:57:33Z</time>
      </trkpt>
      <trkpt lat="47.65201" lon="6.18006">
        <ele>226.8</ele>
        <time>2021-02-23T08:57:35Z</time>
      </trkpt>
      <trkpt lat="47.65206" lon="6.18">
        <ele>226.4</ele>
        <time>2021-02-23T08:57:37Z</time>
      </trkpt>
      <trkpt lat="47.6521" lon="6.17994">
        <ele>226.5</ele>
        <time>2021-02-23T08:57:39Z</time>
      </trkpt>
      <trkpt lat="47.65214" lon="6.1799">
        <ele>226.7</ele>
        <time>2021-02-23T08:57:40Z</time>
      </trkpt>
      <trkpt lat="47.65218" lon="6.17986">
        <ele>226.8</ele>
        <time>2021-02-23T08:57:42Z</time>
      </trkpt>
      <trkpt lat="47.65223" lon="6.17981">
        <ele>226.9</ele>
        <time>2021-02-23T08:57:44Z</time>
      </trkpt>
      <trkpt lat="47.65228" lon="6.17978">
        <ele>227.1</ele>
        <time>2021-02-23T08:57:46Z</time>
      </trkpt>
      <trkpt lat="47.65234" lon="6.17976">
        <ele>227.2</ele>
        <time>2021-02-23T08:57:48Z</time>
      </trkpt>
      <trkpt lat="47.65243" lon="6.17974">
        <ele>227.5</ele>
        <time>2021-02-23T08:57:50Z</time>
      </trkpt>
      <trkpt lat="47.65249" lon="6.17975">
        <ele>227.7</ele>
        <time>2021-02-23T08:57:54Z</time>
      </trkpt>
      <trkpt lat="47.6526" lon="6.17979">
        <ele>227.5</ele>
        <time>2021-02-23T08:57:56Z</time>
      </trkpt>
      <trkpt lat="47.65266" lon="6.17984">
        <ele>227.4</ele>
        <time>2021-02-23T08:57:58Z</time>
      </trkpt>
      <trkpt lat="47.65276" lon="6.17992">
        <ele>227.2</ele>
        <time>2021-02-23T08:58:00Z</time>
      </trkpt>
      <trkpt lat="47.65281" lon="6.17998">
        <ele>227.1</ele>
        <time>2021-02-23T08:58:02Z</time>
      </trkpt>
      <trkpt lat="47.65285" lon="6.18005">
        <ele>227.5</ele>
        <time>2021-02-23T08:58:04Z</time>
      </trkpt>
      <trkpt lat="47.65291" lon="6.18014">
        <ele>227.9</ele>
        <time>2021-02-23T08:58:06Z</time>
      </trkpt>
      <trkpt lat="47.65294" lon="6.18019">
        <ele>228</ele>
        <time>2021-02-23T08:58:07Z</time>
      </trkpt>
      <trkpt lat="47.65299" lon="6.18028">
        <ele>228.2</ele>
        <time>2021-02-23T08:58:09Z</time>
      </trkpt>
      <trkpt lat="47.65303" lon="6.18039">
        <ele>228.7</ele>
        <time>2021-02-23T08:58:11Z</time>
      </trkpt>
      <trkpt lat="47.65304" lon="6.18047">
        <ele>229.1</ele>
        <time>2021-02-23T08:58:13Z</time>
      </trkpt>
      <trkpt lat="47.65304" lon="6.18056">
        <ele>229.7</ele>
        <time>2021-02-23T08:58:15Z</time>
      </trkpt>
      <trkpt lat="47.65306" lon="6.18066">
        <ele>230.2</ele>
        <time>2021-02-23T08:58:17Z</time>
      </trkpt>
      <trkpt lat="47.65307" lon="6.18077">
        <ele>230.7</ele>
        <time>2021-02-23T08:58:19Z</time>
      </trkpt>
      <trkpt lat="47.65309" lon="6.18091">
        <ele>231.2</ele>
        <time>2021-02-23T08:58:21Z</time>
      </trkpt>
      <trkpt lat="47.6531" lon="6.18099">
        <ele>231.6</ele>
        <time>2021-02-23T08:58:22Z</time>
      </trkpt>
      <trkpt lat="47.65312" lon="6.1811">
        <ele>231.8</ele>
        <time>2021-02-23T08:58:24Z</time>
      </trkpt>
      <trkpt lat="47.65315" lon="6.18121">
        <ele>231.8</ele>
        <time>2021-02-23T08:58:26Z</time>
      </trkpt>
      <trkpt lat="47.65318" lon="6.18132">
        <ele>231.9</ele>
        <time>2021-02-23T08:58:28Z</time>
      </trkpt>
      <trkpt lat="47.65321" lon="6.18146">
        <ele>232</ele>
        <time>2021-02-23T08:58:30Z</time>
      </trkpt>
      <trkpt lat="47.65322" lon="6.18153">
        <ele>232</ele>
        <time>2021-02-23T08:58:32Z</time>
      </trkpt>
      <trkpt lat="47.65326" lon="6.18162">
        <ele>231.7</ele>
        <time>2021-02-23T08:58:34Z</time>
      </trkpt>
      <trkpt lat="47.65329" lon="6.18171">
        <ele>231.6</ele>
        <time>2021-02-23T08:58:36Z</time>
      </trkpt>
      <trkpt lat="47.65334" lon="6.18178">
        <ele>231.6</ele>
        <time>2021-02-23T08:58:38Z</time>
      </trkpt>
      <trkpt lat="47.65341" lon="6.18186">
        <ele>232.2</ele>
        <time>2021-02-23T08:58:40Z</time>
      </trkpt>
      <trkpt lat="47.65345" lon="6.18191">
        <ele>232.5</ele>
        <time>2021-02-23T08:58:42Z</time>
      </trkpt>
      <trkpt lat="47.6535" lon="6.18196">
        <ele>232.7</ele>
        <time>2021-02-23T08:58:44Z</time>
      </trkpt>
      <trkpt lat="47.65357" lon="6.18203">
        <ele>232.8</ele>
        <time>2021-02-23T08:58:46Z</time>
      </trkpt>
      <trkpt lat="47.65361" lon="6.18206">
        <ele>232.8</ele>
        <time>2021-02-23T08:58:50Z</time>
      </trkpt>
      <trkpt lat="47.65371" lon="6.18216">
        <ele>232.7</ele>
        <time>2021-02-23T08:58:51Z</time>
      </trkpt>
      <trkpt lat="47.65377" lon="6.18221">
        <ele>232.5</ele>
        <time>2021-02-23T08:58:53Z</time>
      </trkpt>
      <trkpt lat="47.65384" lon="6.18226">
        <ele>232.1</ele>
        <time>2021-02-23T08:58:55Z</time>
      </trkpt>
      <trkpt lat="47.65389" lon="6.1823">
        <ele>231.7</ele>
        <time>2021-02-23T08:58:57Z</time>
      </trkpt>
      <trkpt lat="47.65394" lon="6.18234">
        <ele>231.3</ele>
        <time>2021-02-23T08:58:59Z</time>
      </trkpt>
      <trkpt lat="47.65401" lon="6.18239">
        <ele>230.8</ele>
        <time>2021-02-23T08:59:01Z</time>
      </trkpt>
      <trkpt lat="47.65406" lon="6.18243">
        <ele>230.3</ele>
        <time>2021-02-23T08:59:03Z</time>
      </trkpt>
      <trkpt lat="47.65413" lon="6.18248">
        <ele>229.5</ele>
        <time>2021-02-23T08:59:05Z</time>
      </trkpt>
      <trkpt lat="47.65419" lon="6.18251">
        <ele>229.3</ele>
        <time>2021-02-23T08:59:10Z</time>
      </trkpt>
      <trkpt lat="47.65423" lon="6.18255">
        <ele>230.3</ele>
        <time>2021-02-23T08:59:10Z</time>
      </trkpt>
      <trkpt lat="47.65428" lon="6.18257">
        <ele>231.1</ele>
        <time>2021-02-23T08:59:12Z</time>
      </trkpt>
      <trkpt lat="47.65435" lon="6.1826">
        <ele>231.9</ele>
        <time>2021-02-23T08:59:15Z</time>
      </trkpt>
      <trkpt lat="47.65441" lon="6.18261">
        <ele>232.4</ele>
        <time>2021-02-23T08:59:18Z</time>
      </trkpt>
      <trkpt lat="47.65446" lon="6.18262">
        <ele>232.9</ele>
        <time>2021-02-23T08:59:20Z</time>
      </trkpt>
      <trkpt lat="47.65452" lon="6.18263">
        <ele>233.2</ele>
        <time>2021-02-23T08:59:22Z</time>
      </trkpt>
      <trkpt lat="47.65457" lon="6.18264">
        <ele>233.6</ele>
        <time>2021-02-23T08:59:24Z</time>
      </trkpt>
      <trkpt lat="47.65463" lon="6.18265">
        <ele>234.2</ele>
        <time>2021-02-23T08:59:26Z</time>
      </trkpt>
      <trkpt lat="47.65467" lon="6.18265">
        <ele>234.3</ele>
        <time>2021-02-23T08:59:29Z</time>
      </trkpt>
      <trkpt lat="47.65474" lon="6.18265">
        <ele>234.5</ele>
        <time>2021-02-23T08:59:32Z</time>
      </trkpt>
      <trkpt lat="47.65479" lon="6.18266">
        <ele>234.8</ele>
        <time>2021-02-23T08:59:35Z</time>
      </trkpt>
      <trkpt lat="47.65484" lon="6.18265">
        <ele>234.9</ele>
        <time>2021-02-23T08:59:37Z</time>
      </trkpt>
      <trkpt lat="47.6549" lon="6.18264">
        <ele>234.9</ele>
        <time>2021-02-23T08:59:40Z</time>
      </trkpt>
      <trkpt lat="47.65497" lon="6.18262">
        <ele>234.7</ele>
        <time>2021-02-23T08:59:43Z</time>
      </trkpt>
      <trkpt lat="47.65501" lon="6.18261">
        <ele>234.6</ele>
        <time>2021-02-23T08:59:45Z</time>
      </trkpt>
      <trkpt lat="47.65507" lon="6.18258">
        <ele>234.6</ele>
        <time>2021-02-23T08:59:48Z</time>
      </trkpt>
      <trkpt lat="47.65514" lon="6.18255">
        <ele>234.5</ele>
        <time>2021-02-23T08:59:51Z</time>
      </trkpt>
      <trkpt lat="47.6552" lon="6.18252">
        <ele>234.6</ele>
        <time>2021-02-23T08:59:54Z</time>
      </trkpt>
      <trkpt lat="47.65526" lon="6.18249">
        <ele>234.8</ele>
        <time>2021-02-23T08:59:56Z</time>
      </trkpt>
      <trkpt lat="47.65531" lon="6.18248">
        <ele>235.2</ele>
        <time>2021-02-23T08:59:59Z</time>
      </trkpt>
      <trkpt lat="47.65538" lon="6.18246">
        <ele>235.6</ele>
        <time>2021-02-23T09:00:02Z</time>
      </trkpt>
      <trkpt lat="47.65542" lon="6.18244">
        <ele>235.8</ele>
        <time>2021-02-23T09:00:04Z</time>
      </trkpt>
      <trkpt lat="47.65548" lon="6.18241">
        <ele>236.1</ele>
        <time>2021-02-23T09:00:06Z</time>
      </trkpt>
      <trkpt lat="47.65554" lon="6.18238">
        <ele>236.4</ele>
        <time>2021-02-23T09:00:10Z</time>
      </trkpt>
      <trkpt lat="47.6556" lon="6.18235">
        <ele>236.5</ele>
        <time>2021-02-23T09:00:13Z</time>
      </trkpt>
      <trkpt lat="47.65568" lon="6.18228">
        <ele>236.2</ele>
        <time>2021-02-23T09:00:16Z</time>
      </trkpt>
      <trkpt lat="47.65573" lon="6.18221">
        <ele>235.7</ele>
        <time>2021-02-23T09:00:20Z</time>
      </trkpt>
      <trkpt lat="47.65578" lon="6.18215">
        <ele>235.2</ele>
        <time>2021-02-23T09:00:22Z</time>
      </trkpt>
      <trkpt lat="47.65582" lon="6.18209">
        <ele>234.6</ele>
        <time>2021-02-23T09:00:24Z</time>
      </trkpt>
      <trkpt lat="47.65588" lon="6.18202">
        <ele>234</ele>
        <time>2021-02-23T09:00:26Z</time>
      </trkpt>
      <trkpt lat="47.65592" lon="6.18195">
        <ele>233.4</ele>
        <time>2021-02-23T09:00:28Z</time>
      </trkpt>
      <trkpt lat="47.65597" lon="6.18185">
        <ele>232.5</ele>
        <time>2021-02-23T09:00:30Z</time>
      </trkpt>
      <trkpt lat="47.65604" lon="6.18178">
        <ele>231.9</ele>
        <time>2021-02-23T09:00:32Z</time>
      </trkpt>
      <trkpt lat="47.65611" lon="6.1817">
        <ele>231.6</ele>
        <time>2021-02-23T09:00:34Z</time>
      </trkpt>
      <trkpt lat="47.65616" lon="6.18168">
        <ele>231.7</ele>
        <time>2021-02-23T09:00:35Z</time>
      </trkpt>
      <trkpt lat="47.6562" lon="6.18167">
        <ele>232</ele>
        <time>2021-02-23T09:00:36Z</time>
      </trkpt>
      <trkpt lat="47.65628" lon="6.18167">
        <ele>232.9</ele>
        <time>2021-02-23T09:00:38Z</time>
      </trkpt>
      <trkpt lat="47.65635" lon="6.18168">
        <ele>233.8</ele>
        <time>2021-02-23T09:00:40Z</time>
      </trkpt>
      <trkpt lat="47.65641" lon="6.18167">
        <ele>234.2</ele>
        <time>2021-02-23T09:00:42Z</time>
      </trkpt>
      <trkpt lat="47.65646" lon="6.18164">
        <ele>234.5</ele>
        <time>2021-02-23T09:00:44Z</time>
      </trkpt>
      <trkpt lat="47.65652" lon="6.18159">
        <ele>234.8</ele>
        <time>2021-02-23T09:00:47Z</time>
      </trkpt>
      <trkpt lat="47.65658" lon="6.18153">
        <ele>234.9</ele>
        <time>2021-02-23T09:00:50Z</time>
      </trkpt>
      <trkpt lat="47.65662" lon="6.1815">
        <ele>235</ele>
        <time>2021-02-23T09:00:52Z</time>
      </trkpt>
      <trkpt lat="47.65668" lon="6.18145">
        <ele>235.2</ele>
        <time>2021-02-23T09:00:55Z</time>
      </trkpt>
      <trkpt lat="47.65674" lon="6.1814">
        <ele>235.5</ele>
        <time>2021-02-23T09:00:57Z</time>
      </trkpt>
      <trkpt lat="47.65678" lon="6.18135">
        <ele>235.7</ele>
        <time>2021-02-23T09:01:00Z</time>
      </trkpt>
      <trkpt lat="47.65682" lon="6.1813">
        <ele>235.8</ele>
        <time>2021-02-23T09:01:02Z</time>
      </trkpt>
      <trkpt lat="47.65686" lon="6.18123">
        <ele>235.6</ele>
        <time>2021-02-23T09:01:04Z</time>
      </trkpt>
      <trkpt lat="47.65689" lon="6.18115">
        <ele>235.3</ele>
        <time>2021-02-23T09:01:06Z</time>
      </trkpt>
      <trkpt lat="47.65693" lon="6.18107">
        <ele>235</ele>
        <time>2021-02-23T09:01:07Z</time>
      </trkpt>
      <trkpt lat="47.65696" lon="6.18099">
        <ele>234.5</ele>
        <time>2021-02-23T09:01:10Z</time>
      </trkpt>
      <trkpt lat="47.65699" lon="6.18091">
        <ele>234.2</ele>
        <time>2021-02-23T09:01:12Z</time>
      </trkpt>
      <trkpt lat="47.65703" lon="6.18085">
        <ele>234</ele>
        <time>2021-02-23T09:01:14Z</time>
      </trkpt>
      <trkpt lat="47.65707" lon="6.1808">
        <ele>234.1</ele>
        <time>2021-02-23T09:01:16Z</time>
      </trkpt>
      <trkpt lat="47.65712" lon="6.18074">
        <ele>234.3</ele>
        <time>2021-02-23T09:01:17Z</time>
      </trkpt>
      <trkpt lat="47.65718" lon="6.18068">
        <ele>234.7</ele>
        <time>2021-02-23T09:01:21Z</time>
      </trkpt>
      <trkpt lat="47.65722" lon="6.18064">
        <ele>234.8</ele>
        <time>2021-02-23T09:01:23Z</time>
      </trkpt>
      <trkpt lat="47.65727" lon="6.18059">
        <ele>235.1</ele>
        <time>2021-02-23T09:01:25Z</time>
      </trkpt>
      <trkpt lat="47.65733" lon="6.18054">
        <ele>235.3</ele>
        <time>2021-02-23T09:01:27Z</time>
      </trkpt>
      <trkpt lat="47.65739" lon="6.18049">
        <ele>235.5</ele>
        <time>2021-02-23T09:01:31Z</time>
      </trkpt>
      <trkpt lat="47.65743" lon="6.18046">
        <ele>235.7</ele>
        <time>2021-02-23T09:01:33Z</time>
      </trkpt>
      <trkpt lat="47.65749" lon="6.18043">
        <ele>235.9</ele>
        <time>2021-02-23T09:01:36Z</time>
      </trkpt>
      <trkpt lat="47.65753" lon="6.1804">
        <ele>236.1</ele>
        <time>2021-02-23T09:01:38Z</time>
      </trkpt>
      <trkpt lat="47.65758" lon="6.18039">
        <ele>236.7</ele>
        <time>2021-02-23T09:02:06Z</time>
      </trkpt>
      <trkpt lat="47.65763" lon="6.18039">
        <ele>237.2</ele>
        <time>2021-02-23T09:02:08Z</time>
      </trkpt>
      <trkpt lat="47.65769" lon="6.18037">
        <ele>237.6</ele>
        <time>2021-02-23T09:02:11Z</time>
      </trkpt>
      <trkpt lat="47.65775" lon="6.18034">
        <ele>237.8</ele>
        <time>2021-02-23T09:02:14Z</time>
      </trkpt>
      <trkpt lat="47.65779" lon="6.1803">
        <ele>237.8</ele>
        <time>2021-02-23T09:02:17Z</time>
      </trkpt>
      <trkpt lat="47.65784" lon="6.18025">
        <ele>237.8</ele>
        <time>2021-02-23T09:02:19Z</time>
      </trkpt>
      <trkpt lat="47.65789" lon="6.18022">
        <ele>237.9</ele>
        <time>2021-02-23T09:02:21Z</time>
      </trkpt>
      <trkpt lat="47.65793" lon="6.18019">
        <ele>237.9</ele>
        <time>2021-02-23T09:02:23Z</time>
      </trkpt>
      <trkpt lat="47.65797" lon="6.18016">
        <ele>237.9</ele>
        <time>2021-02-23T09:02:25Z</time>
      </trkpt>
      <trkpt lat="47.65803" lon="6.18011">
        <ele>237.8</ele>
        <time>2021-02-23T09:02:27Z</time>
      </trkpt>
      <trkpt lat="47.65808" lon="6.18008">
        <ele>237.9</ele>
        <time>2021-02-23T09:02:29Z</time>
      </trkpt>
      <trkpt lat="47.65814" lon="6.18004">
        <ele>237.9</ele>
        <time>2021-02-23T09:02:31Z</time>
      </trkpt>
      <trkpt lat="47.6582" lon="6.17998">
        <ele>237.7</ele>
        <time>2021-02-23T09:02:33Z</time>
      </trkpt>
      <trkpt lat="47.65826" lon="6.17991">
        <ele>237.4</ele>
        <time>2021-02-23T09:02:35Z</time>
      </trkpt>
      <trkpt lat="47.6583" lon="6.17987">
        <ele>237.2</ele>
        <time>2021-02-23T09:02:36Z</time>
      </trkpt>
      <trkpt lat="47.6584" lon="6.17979">
        <ele>236.5</ele>
        <time>2021-02-23T09:02:38Z</time>
      </trkpt>
      <trkpt lat="47.65846" lon="6.17975">
        <ele>235.8</ele>
        <time>2021-02-23T09:02:40Z</time>
      </trkpt>
      <trkpt lat="47.6585" lon="6.17971">
        <ele>235.3</ele>
        <time>2021-02-23T09:02:41Z</time>
      </trkpt>
      <trkpt lat="47.65858" lon="6.17965">
        <ele>234.5</ele>
        <time>2021-02-23T09:02:43Z</time>
      </trkpt>
      <trkpt lat="47.65863" lon="6.17963">
        <ele>234.2</ele>
        <time>2021-02-23T09:02:44Z</time>
      </trkpt>
      <trkpt lat="47.65868" lon="6.17961">
        <ele>233.9</ele>
        <time>2021-02-23T09:02:45Z</time>
      </trkpt>
      <trkpt lat="47.65872" lon="6.1796">
        <ele>233.7</ele>
        <time>2021-02-23T09:02:46Z</time>
      </trkpt>
      <trkpt lat="47.65877" lon="6.17959">
        <ele>233.6</ele>
        <time>2021-02-23T09:02:47Z</time>
      </trkpt>
      <trkpt lat="47.65886" lon="6.17959">
        <ele>233.4</ele>
        <time>2021-02-23T09:02:49Z</time>
      </trkpt>
      <trkpt lat="47.65895" lon="6.17959">
        <ele>233.3</ele>
        <time>2021-02-23T09:02:51Z</time>
      </trkpt>
      <trkpt lat="47.659" lon="6.17959">
        <ele>233.2</ele>
        <time>2021-02-23T09:02:52Z</time>
      </trkpt>
      <trkpt lat="47.65905" lon="6.17958">
        <ele>233.1</ele>
        <time>2021-02-23T09:02:53Z</time>
      </trkpt>
      <trkpt lat="47.65909" lon="6.17957">
        <ele>233</ele>
        <time>2021-02-23T09:02:54Z</time>
      </trkpt>
      <trkpt lat="47.65914" lon="6.17957">
        <ele>232.8</ele>
        <time>2021-02-23T09:02:55Z</time>
      </trkpt>
      <trkpt lat="47.6592" lon="6.17956">
        <ele>232.6</ele>
        <time>2021-02-23T09:02:56Z</time>
      </trkpt>
      <trkpt lat="47.65925" lon="6.17955">
        <ele>232.5</ele>
        <time>2021-02-23T09:02:57Z</time>
      </trkpt>
      <trkpt lat="47.65931" lon="6.17955">
        <ele>232.3</ele>
        <time>2021-02-23T09:02:58Z</time>
      </trkpt>
      <trkpt lat="47.65937" lon="6.17954">
        <ele>232.2</ele>
        <time>2021-02-23T09:02:59Z</time>
      </trkpt>
      <trkpt lat="47.65943" lon="6.17954">
        <ele>232.1</ele>
        <time>2021-02-23T09:03:00Z</time>
      </trkpt>
      <trkpt lat="47.65948" lon="6.17954">
        <ele>232</ele>
        <time>2021-02-23T09:03:01Z</time>
      </trkpt>
      <trkpt lat="47.65954" lon="6.17955">
        <ele>232</ele>
        <time>2021-02-23T09:03:02Z</time>
      </trkpt>
      <trkpt lat="47.65961" lon="6.17955">
        <ele>231.9</ele>
        <time>2021-02-23T09:03:03Z</time>
      </trkpt>
      <trkpt lat="47.65967" lon="6.17955">
        <ele>231.8</ele>
        <time>2021-02-23T09:03:04Z</time>
      </trkpt>
      <trkpt lat="47.65973" lon="6.17955">
        <ele>231.7</ele>
        <time>2021-02-23T09:03:05Z</time>
      </trkpt>
      <trkpt lat="47.65979" lon="6.17955">
        <ele>231.6</ele>
        <time>2021-02-23T09:03:06Z</time>
      </trkpt>
      <trkpt lat="47.65985" lon="6.17955">
        <ele>231.5</ele>
        <time>2021-02-23T09:03:07Z</time>
      </trkpt>
      <trkpt lat="47.65991" lon="6.17956">
        <ele>231.4</ele>
        <time>2021-02-23T09:03:08Z</time>
      </trkpt>
      <trkpt lat="47.65997" lon="6.17956">
        <ele>231.4</ele>
        <time>2021-02-23T09:03:09Z</time>
      </trkpt>
      <trkpt lat="47.66003" lon="6.17957">
        <ele>231.4</ele>
        <time>2021-02-23T09:03:10Z</time>
      </trkpt>
      <trkpt lat="47.66009" lon="6.17957">
        <ele>231.4</ele>
        <time>2021-02-23T09:03:11Z</time>
      </trkpt>
      <trkpt lat="47.66015" lon="6.17958">
        <ele>231.4</ele>
        <time>2021-02-23T09:03:12Z</time>
      </trkpt>
      <trkpt lat="47.6602" lon="6.17958">
        <ele>231.5</ele>
        <time>2021-02-23T09:03:13Z</time>
      </trkpt>
      <trkpt lat="47.66026" lon="6.17958">
        <ele>231.5</ele>
        <time>2021-02-23T09:03:14Z</time>
      </trkpt>
      <trkpt lat="47.66031" lon="6.17958">
        <ele>231.4</ele>
        <time>2021-02-23T09:03:15Z</time>
      </trkpt>
      <trkpt lat="47.66036" lon="6.17958">
        <ele>231.4</ele>
        <time>2021-02-23T09:03:16Z</time>
      </trkpt>
      <trkpt lat="47.66041" lon="6.17958">
        <ele>231.4</ele>
        <time>2021-02-23T09:03:17Z</time>
      </trkpt>
      <trkpt lat="47.66046" lon="6.17957">
        <ele>231.4</ele>
        <time>2021-02-23T09:03:18Z</time>
      </trkpt>
      <trkpt lat="47.66051" lon="6.17958">
        <ele>231.4</ele>
        <time>2021-02-23T09:03:19Z</time>
      </trkpt>
      <trkpt lat="47.66056" lon="6.17958">
        <ele>231.4</ele>
        <time>2021-02-23T09:03:20Z</time>
      </trkpt>
      <trkpt lat="47.6606" lon="6.17958">
        <ele>231.4</ele>
        <time>2021-02-23T09:03:21Z</time>
      </trkpt>
      <trkpt lat="47.66065" lon="6.17958">
        <ele>231.5</ele>
        <time>2021-02-23T09:03:22Z</time>
      </trkpt>
      <trkpt lat="47.66069" lon="6.17958">
        <ele>231.5</ele>
        <time>2021-02-23T09:03:23Z</time>
      </trkpt>
      <trkpt lat="47.66078" lon="6.17959">
        <ele>231.6</ele>
        <time>2021-02-23T09:03:25Z</time>
      </trkpt>
      <trkpt lat="47.66084" lon="6.17959">
        <ele>231.5</ele>
        <time>2021-02-23T09:03:27Z</time>
      </trkpt>
      <trkpt lat="47.66092" lon="6.17959">
        <ele>231.4</ele>
        <time>2021-02-23T09:03:29Z</time>
      </trkpt>
      <trkpt lat="47.661" lon="6.17959">
        <ele>231.3</ele>
        <time>2021-02-23T09:03:31Z</time>
      </trkpt>
      <trkpt lat="47.66109" lon="6.17959">
        <ele>231.2</ele>
        <time>2021-02-23T09:03:34Z</time>
      </trkpt>
      <trkpt lat="47.66114" lon="6.17959">
        <ele>231.2</ele>
        <time>2021-02-23T09:03:37Z</time>
      </trkpt>
      <trkpt lat="47.6612" lon="6.17959">
        <ele>231.1</ele>
        <time>2021-02-23T09:03:38Z</time>
      </trkpt>
      <trkpt lat="47.66125" lon="6.17959">
        <ele>231.1</ele>
        <time>2021-02-23T09:03:40Z</time>
      </trkpt>
      <trkpt lat="47.6613" lon="6.1796">
        <ele>231.1</ele>
        <time>2021-02-23T09:03:42Z</time>
      </trkpt>
      <trkpt lat="47.66137" lon="6.1796">
        <ele>231</ele>
        <time>2021-02-23T09:03:44Z</time>
      </trkpt>
      <trkpt lat="47.66143" lon="6.1796">
        <ele>230.9</ele>
        <time>2021-02-23T09:03:46Z</time>
      </trkpt>
      <trkpt lat="47.66155" lon="6.1796">
        <ele>230.7</ele>
        <time>2021-02-23T09:03:49Z</time>
      </trkpt>
      <trkpt lat="47.66161" lon="6.17961">
        <ele>230.7</ele>
        <time>2021-02-23T09:03:51Z</time>
      </trkpt>
      <trkpt lat="47.66168" lon="6.17961">
        <ele>230.6</ele>
        <time>2021-02-23T09:03:51Z</time>
      </trkpt>
      <trkpt lat="47.66173" lon="6.17961">
        <ele>230.5</ele>
        <time>2021-02-23T09:03:55Z</time>
      </trkpt>
      <trkpt lat="47.66178" lon="6.17962">
        <ele>230.4</ele>
        <time>2021-02-23T09:03:56Z</time>
      </trkpt>
      <trkpt lat="47.66185" lon="6.17963">
        <ele>230.3</ele>
        <time>2021-02-23T09:03:58Z</time>
      </trkpt>
      <trkpt lat="47.66193" lon="6.17964">
        <ele>230.2</ele>
        <time>2021-02-23T09:04:00Z</time>
      </trkpt>
      <trkpt lat="47.66199" lon="6.17965">
        <ele>230.1</ele>
        <time>2021-02-23T09:04:02Z</time>
      </trkpt>
      <trkpt lat="47.66205" lon="6.17967">
        <ele>230</ele>
        <time>2021-02-23T09:04:04Z</time>
      </trkpt>
      <trkpt lat="47.66212" lon="6.17969">
        <ele>229.9</ele>
        <time>2021-02-23T09:04:06Z</time>
      </trkpt>
      <trkpt lat="47.66219" lon="6.1797">
        <ele>229.8</ele>
        <time>2021-02-23T09:04:08Z</time>
      </trkpt>
      <trkpt lat="47.66228" lon="6.17972">
        <ele>229.6</ele>
        <time>2021-02-23T09:04:10Z</time>
      </trkpt>
      <trkpt lat="47.6624" lon="6.17973">
        <ele>229.3</ele>
        <time>2021-02-23T09:04:13Z</time>
      </trkpt>
      <trkpt lat="47.66248" lon="6.17974">
        <ele>229.1</ele>
        <time>2021-02-23T09:04:15Z</time>
      </trkpt>
      <trkpt lat="47.66259" lon="6.17975">
        <ele>228.9</ele>
        <time>2021-02-23T09:04:18Z</time>
      </trkpt>
      <trkpt lat="47.66271" lon="6.17976">
        <ele>228.6</ele>
        <time>2021-02-23T09:04:18Z</time>
      </trkpt>
      <trkpt lat="47.66276" lon="6.17976">
        <ele>228.5</ele>
        <time>2021-02-23T09:04:19Z</time>
      </trkpt>
      <trkpt lat="47.66282" lon="6.17976">
        <ele>228.3</ele>
        <time>2021-02-23T09:04:20Z</time>
      </trkpt>
      <trkpt lat="47.66287" lon="6.17976">
        <ele>228.2</ele>
        <time>2021-02-23T09:04:21Z</time>
      </trkpt>
      <trkpt lat="47.66292" lon="6.17977">
        <ele>228.1</ele>
        <time>2021-02-23T09:04:22Z</time>
      </trkpt>
      <trkpt lat="47.66297" lon="6.17977">
        <ele>227.9</ele>
        <time>2021-02-23T09:04:23Z</time>
      </trkpt>
      <trkpt lat="47.66303" lon="6.17977">
        <ele>227.8</ele>
        <time>2021-02-23T09:04:24Z</time>
      </trkpt>
      <trkpt lat="47.66308" lon="6.17977">
        <ele>227.7</ele>
        <time>2021-02-23T09:04:25Z</time>
      </trkpt>
      <trkpt lat="47.66313" lon="6.17977">
        <ele>227.5</ele>
        <time>2021-02-23T09:04:26Z</time>
      </trkpt>
      <trkpt lat="47.66318" lon="6.17976">
        <ele>227.4</ele>
        <time>2021-02-23T09:04:27Z</time>
      </trkpt>
      <trkpt lat="47.66322" lon="6.17973">
        <ele>227.3</ele>
        <time>2021-02-23T09:04:28Z</time>
      </trkpt>
      <trkpt lat="47.66325" lon="6.17969">
        <ele>227.2</ele>
        <time>2021-02-23T09:04:29Z</time>
      </trkpt>
      <trkpt lat="47.66328" lon="6.17963">
        <ele>227.1</ele>
        <time>2021-02-23T09:04:30Z</time>
      </trkpt>
      <trkpt lat="47.66329" lon="6.17956">
        <ele>227.1</ele>
        <time>2021-02-23T09:04:31Z</time>
      </trkpt>
      <trkpt lat="47.66329" lon="6.17944">
        <ele>227</ele>
        <time>2021-02-23T09:04:33Z</time>
      </trkpt>
      <trkpt lat="47.6633" lon="6.17932">
        <ele>227</ele>
        <time>2021-02-23T09:04:35Z</time>
      </trkpt>
      <trkpt lat="47.66331" lon="6.17924">
        <ele>227</ele>
        <time>2021-02-23T09:04:36Z</time>
      </trkpt>
      <trkpt lat="47.66334" lon="6.17917">
        <ele>227.1</ele>
        <time>2021-02-23T09:04:40Z</time>
      </trkpt>
      <trkpt lat="47.66343" lon="6.17911">
        <ele>227.6</ele>
        <time>2021-02-23T09:04:40Z</time>
      </trkpt>
      <trkpt lat="47.6634" lon="6.179">
        <ele>227.4</ele>
        <time>2021-02-23T09:04:40Z</time>
      </trkpt>
      <trkpt lat="47.66338" lon="6.1789">
        <ele>227.3</ele>
        <time>2021-02-23T09:04:44Z</time>
      </trkpt>
      <trkpt lat="47.66336" lon="6.1787">
        <ele>227.2</ele>
        <time>2021-02-23T09:04:47Z</time>
      </trkpt>
      <trkpt lat="47.66336" lon="6.17862">
        <ele>227.2</ele>
        <time>2021-02-23T09:04:48Z</time>
      </trkpt>
      <trkpt lat="47.66337" lon="6.17849">
        <ele>227.2</ele>
        <time>2021-02-23T09:04:50Z</time>
      </trkpt>
      <trkpt lat="47.66338" lon="6.17836">
        <ele>227.3</ele>
        <time>2021-02-23T09:04:52Z</time>
      </trkpt>
      <trkpt lat="47.66339" lon="6.1782">
        <ele>227</ele>
        <time>2021-02-23T09:04:54Z</time>
      </trkpt>
      <trkpt lat="47.66339" lon="6.17811">
        <ele>226.8</ele>
        <time>2021-02-23T09:04:56Z</time>
      </trkpt>
      <trkpt lat="47.6634" lon="6.17804">
        <ele>226.6</ele>
        <time>2021-02-23T09:04:57Z</time>
      </trkpt>
      <trkpt lat="47.66341" lon="6.17793">
        <ele>226.4</ele>
        <time>2021-02-23T09:04:59Z</time>
      </trkpt>
      <trkpt lat="47.66342" lon="6.17786">
        <ele>226.3</ele>
        <time>2021-02-23T09:05:00Z</time>
      </trkpt>
      <trkpt lat="47.66343" lon="6.17777">
        <ele>226.1</ele>
        <time>2021-02-23T09:05:02Z</time>
      </trkpt>
      <trkpt lat="47.66344" lon="6.17766">
        <ele>225.8</ele>
        <time>2021-02-23T09:05:04Z</time>
      </trkpt>
      <trkpt lat="47.66346" lon="6.17758">
        <ele>225.7</ele>
        <time>2021-02-23T09:05:05Z</time>
      </trkpt>
      <trkpt lat="47.66347" lon="6.17747">
        <ele>225.5</ele>
        <time>2021-02-23T09:05:05Z</time>
      </trkpt>
      <trkpt lat="47.66349" lon="6.17738">
        <ele>225.4</ele>
        <time>2021-02-23T09:05:09Z</time>
      </trkpt>
      <trkpt lat="47.6635" lon="6.17731">
        <ele>225.4</ele>
        <time>2021-02-23T09:05:10Z</time>
      </trkpt>
      <trkpt lat="47.66353" lon="6.17716">
        <ele>225.3</ele>
        <time>2021-02-23T09:05:13Z</time>
      </trkpt>
      <trkpt lat="47.66355" lon="6.17707">
        <ele>225.3</ele>
        <time>2021-02-23T09:05:15Z</time>
      </trkpt>
      <trkpt lat="47.66358" lon="6.17701">
        <ele>225.3</ele>
        <time>2021-02-23T09:05:16Z</time>
      </trkpt>
      <trkpt lat="47.66361" lon="6.17694">
        <ele>225.3</ele>
        <time>2021-02-23T09:05:18Z</time>
      </trkpt>
      <trkpt lat="47.66363" lon="6.17687">
        <ele>225.3</ele>
        <time>2021-02-23T09:05:19Z</time>
      </trkpt>
      <trkpt lat="47.66368" lon="6.17679">
        <ele>225.4</ele>
        <time>2021-02-23T09:05:21Z</time>
      </trkpt>
      <trkpt lat="47.66373" lon="6.17669">
        <ele>225.5</ele>
        <time>2021-02-23T09:05:23Z</time>
      </trkpt>
      <trkpt lat="47.6638" lon="6.17657">
        <ele>225.7</ele>
        <time>2021-02-23T09:05:26Z</time>
      </trkpt>
      <trkpt lat="47.66387" lon="6.17645">
        <ele>225.9</ele>
        <time>2021-02-23T09:05:28Z</time>
      </trkpt>
      <trkpt lat="47.66391" lon="6.17638">
        <ele>226</ele>
        <time>2021-02-23T09:05:28Z</time>
      </trkpt>
      <trkpt lat="47.66396" lon="6.1763">
        <ele>226</ele>
        <time>2021-02-23T09:05:30Z</time>
      </trkpt>
      <trkpt lat="47.66399" lon="6.17625">
        <ele>226.1</ele>
        <time>2021-02-23T09:05:33Z</time>
      </trkpt>
      <trkpt lat="47.66404" lon="6.17619">
        <ele>226.1</ele>
        <time>2021-02-23T09:05:33Z</time>
      </trkpt>
      <trkpt lat="47.66409" lon="6.17612">
        <ele>226.2</ele>
        <time>2021-02-23T09:05:35Z</time>
      </trkpt>
      <trkpt lat="47.66413" lon="6.17607">
        <ele>226.2</ele>
        <time>2021-02-23T09:05:39Z</time>
      </trkpt>
      <trkpt lat="47.6642" lon="6.176">
        <ele>226.2</ele>
        <time>2021-02-23T09:05:39Z</time>
      </trkpt>
      <trkpt lat="47.66425" lon="6.17597">
        <ele>226.3</ele>
        <time>2021-02-23T09:05:43Z</time>
      </trkpt>
      <trkpt lat="47.66433" lon="6.1759">
        <ele>226.3</ele>
        <time>2021-02-23T09:05:43Z</time>
      </trkpt>
      <trkpt lat="47.66438" lon="6.17588">
        <ele>226.3</ele>
        <time>2021-02-23T09:05:47Z</time>
      </trkpt>
      <trkpt lat="47.66449" lon="6.17582">
        <ele>226.4</ele>
        <time>2021-02-23T09:05:50Z</time>
      </trkpt>
      <trkpt lat="47.66455" lon="6.17579">
        <ele>226.4</ele>
        <time>2021-02-23T09:05:52Z</time>
      </trkpt>
      <trkpt lat="47.66461" lon="6.17576">
        <ele>226.5</ele>
        <time>2021-02-23T09:05:54Z</time>
      </trkpt>
      <trkpt lat="47.66471" lon="6.17571">
        <ele>226.6</ele>
        <time>2021-02-23T09:05:57Z</time>
      </trkpt>
      <trkpt lat="47.66478" lon="6.17568">
        <ele>226.6</ele>
        <time>2021-02-23T09:05:59Z</time>
      </trkpt>
      <trkpt lat="47.66483" lon="6.17564">
        <ele>226.6</ele>
        <time>2021-02-23T09:06:01Z</time>
      </trkpt>
      <trkpt lat="47.66494" lon="6.17558">
        <ele>226.6</ele>
        <time>2021-02-23T09:06:04Z</time>
      </trkpt>
      <trkpt lat="47.665" lon="6.17554">
        <ele>226.6</ele>
        <time>2021-02-23T09:06:06Z</time>
      </trkpt>
      <trkpt lat="47.66506" lon="6.17551">
        <ele>226.6</ele>
        <time>2021-02-23T09:06:08Z</time>
      </trkpt>
      <trkpt lat="47.66513" lon="6.17546">
        <ele>226.6</ele>
        <time>2021-02-23T09:06:10Z</time>
      </trkpt>
      <trkpt lat="47.66518" lon="6.17542">
        <ele>226.6</ele>
        <time>2021-02-23T09:06:12Z</time>
      </trkpt>
      <trkpt lat="47.66525" lon="6.17537">
        <ele>226.6</ele>
        <time>2021-02-23T09:06:14Z</time>
      </trkpt>
      <trkpt lat="47.66531" lon="6.17532">
        <ele>226.6</ele>
        <time>2021-02-23T09:06:14Z</time>
      </trkpt>
      <trkpt lat="47.66536" lon="6.17529">
        <ele>226.6</ele>
        <time>2021-02-23T09:06:18Z</time>
      </trkpt>
      <trkpt lat="47.66541" lon="6.17525">
        <ele>226.6</ele>
        <time>2021-02-23T09:06:19Z</time>
      </trkpt>
      <trkpt lat="47.66546" lon="6.17522">
        <ele>226.7</ele>
        <time>2021-02-23T09:06:19Z</time>
      </trkpt>
      <trkpt lat="47.66551" lon="6.17518">
        <ele>226.7</ele>
        <time>2021-02-23T09:06:23Z</time>
      </trkpt>
      <trkpt lat="47.66555" lon="6.17515">
        <ele>226.7</ele>
        <time>2021-02-23T09:06:24Z</time>
      </trkpt>
      <trkpt lat="47.66562" lon="6.17512">
        <ele>226.8</ele>
        <time>2021-02-23T09:06:24Z</time>
      </trkpt>
      <trkpt lat="47.66567" lon="6.17509">
        <ele>226.8</ele>
        <time>2021-02-23T09:06:28Z</time>
      </trkpt>
      <trkpt lat="47.66573" lon="6.17506">
        <ele>226.9</ele>
        <time>2021-02-23T09:06:30Z</time>
      </trkpt>
      <trkpt lat="47.66579" lon="6.17504">
        <ele>226.9</ele>
        <time>2021-02-23T09:06:32Z</time>
      </trkpt>
      <trkpt lat="47.6659" lon="6.17499">
        <ele>227.1</ele>
        <time>2021-02-23T09:06:35Z</time>
      </trkpt>
      <trkpt lat="47.66596" lon="6.17495">
        <ele>227.2</ele>
        <time>2021-02-23T09:06:35Z</time>
      </trkpt>
      <trkpt lat="47.66602" lon="6.17492">
        <ele>227.3</ele>
        <time>2021-02-23T09:06:39Z</time>
      </trkpt>
      <trkpt lat="47.66608" lon="6.17488">
        <ele>227.4</ele>
        <time>2021-02-23T09:06:41Z</time>
      </trkpt>
      <trkpt lat="47.66614" lon="6.17485">
        <ele>227.5</ele>
        <time>2021-02-23T09:06:43Z</time>
      </trkpt>
      <trkpt lat="47.6662" lon="6.17481">
        <ele>227.6</ele>
        <time>2021-02-23T09:06:45Z</time>
      </trkpt>
      <trkpt lat="47.66628" lon="6.17477">
        <ele>227.7</ele>
        <time>2021-02-23T09:06:47Z</time>
      </trkpt>
      <trkpt lat="47.66634" lon="6.17473">
        <ele>227.7</ele>
        <time>2021-02-23T09:06:49Z</time>
      </trkpt>
      <trkpt lat="47.66645" lon="6.17467">
        <ele>227.8</ele>
        <time>2021-02-23T09:06:50Z</time>
      </trkpt>
      <trkpt lat="47.6665" lon="6.17465">
        <ele>227.8</ele>
        <time>2021-02-23T09:06:54Z</time>
      </trkpt>
      <trkpt lat="47.66656" lon="6.17462">
        <ele>227.9</ele>
        <time>2021-02-23T09:06:56Z</time>
      </trkpt>
      <trkpt lat="47.66663" lon="6.17459">
        <ele>227.9</ele>
        <time>2021-02-23T09:06:58Z</time>
      </trkpt>
      <trkpt lat="47.6667" lon="6.17456">
        <ele>228</ele>
        <time>2021-02-23T09:07:00Z</time>
      </trkpt>
      <trkpt lat="47.66675" lon="6.17455">
        <ele>228</ele>
        <time>2021-02-23T09:07:02Z</time>
      </trkpt>
      <trkpt lat="47.66683" lon="6.17454">
        <ele>228</ele>
        <time>2021-02-23T09:07:04Z</time>
      </trkpt>
      <trkpt lat="47.66688" lon="6.17453">
        <ele>228</ele>
        <time>2021-02-23T09:07:06Z</time>
      </trkpt>
      <trkpt lat="47.667" lon="6.17452">
        <ele>228</ele>
        <time>2021-02-23T09:07:07Z</time>
      </trkpt>
      <trkpt lat="47.66705" lon="6.17451">
        <ele>228</ele>
        <time>2021-02-23T09:07:11Z</time>
      </trkpt>
      <trkpt lat="47.66716" lon="6.1745">
        <ele>228</ele>
        <time>2021-02-23T09:07:12Z</time>
      </trkpt>
      <trkpt lat="47.66721" lon="6.17449">
        <ele>228</ele>
        <time>2021-02-23T09:07:16Z</time>
      </trkpt>
      <trkpt lat="47.66727" lon="6.17448">
        <ele>228</ele>
        <time>2021-02-23T09:07:18Z</time>
      </trkpt>
      <trkpt lat="47.66734" lon="6.17446">
        <ele>228</ele>
        <time>2021-02-23T09:07:18Z</time>
      </trkpt>
      <trkpt lat="47.6674" lon="6.17446">
        <ele>228</ele>
        <time>2021-02-23T09:07:22Z</time>
      </trkpt>
      <trkpt lat="47.66744" lon="6.17445">
        <ele>228</ele>
        <time>2021-02-23T09:07:23Z</time>
      </trkpt>
      <trkpt lat="47.6675" lon="6.17444">
        <ele>228</ele>
        <time>2021-02-23T09:07:25Z</time>
      </trkpt>
      <trkpt lat="47.66756" lon="6.17443">
        <ele>227.9</ele>
        <time>2021-02-23T09:07:27Z</time>
      </trkpt>
      <trkpt lat="47.66762" lon="6.17441">
        <ele>227.8</ele>
        <time>2021-02-23T09:07:28Z</time>
      </trkpt>
      <trkpt lat="47.6677" lon="6.1744">
        <ele>227.8</ele>
        <time>2021-02-23T09:07:31Z</time>
      </trkpt>
      <trkpt lat="47.66776" lon="6.17439">
        <ele>227.7</ele>
        <time>2021-02-23T09:07:33Z</time>
      </trkpt>
      <trkpt lat="47.66786" lon="6.17437">
        <ele>227.6</ele>
        <time>2021-02-23T09:07:36Z</time>
      </trkpt>
      <trkpt lat="47.66792" lon="6.17437">
        <ele>227.6</ele>
        <time>2021-02-23T09:07:38Z</time>
      </trkpt>
      <trkpt lat="47.66798" lon="6.17437">
        <ele>227.6</ele>
        <time>2021-02-23T09:07:39Z</time>
      </trkpt>
      <trkpt lat="47.66807" lon="6.17436">
        <ele>227.5</ele>
        <time>2021-02-23T09:07:40Z</time>
      </trkpt>
      <trkpt lat="47.66812" lon="6.17436">
        <ele>227.5</ele>
        <time>2021-02-23T09:07:44Z</time>
      </trkpt>
      <trkpt lat="47.66817" lon="6.17436">
        <ele>227.5</ele>
        <time>2021-02-23T09:07:45Z</time>
      </trkpt>
      <trkpt lat="47.66822" lon="6.17436">
        <ele>227.5</ele>
        <time>2021-02-23T09:07:47Z</time>
      </trkpt>
      <trkpt lat="47.66832" lon="6.17436">
        <ele>227.5</ele>
        <time>2021-02-23T09:07:49Z</time>
      </trkpt>
      <trkpt lat="47.66838" lon="6.17437">
        <ele>227.6</ele>
        <time>2021-02-23T09:07:51Z</time>
      </trkpt>
      <trkpt lat="47.66846" lon="6.17436">
        <ele>227.8</ele>
        <time>2021-02-23T09:07:51Z</time>
      </trkpt>
      <trkpt lat="47.66852" lon="6.17436">
        <ele>227.9</ele>
        <time>2021-02-23T09:07:55Z</time>
      </trkpt>
      <trkpt lat="47.66858" lon="6.17436">
        <ele>228.1</ele>
        <time>2021-02-23T09:07:57Z</time>
      </trkpt>
      <trkpt lat="47.66864" lon="6.17435">
        <ele>228.2</ele>
        <time>2021-02-23T09:07:59Z</time>
      </trkpt>
      <trkpt lat="47.66878" lon="6.17432">
        <ele>228.4</ele>
        <time>2021-02-23T09:08:03Z</time>
      </trkpt>
      <trkpt lat="47.66885" lon="6.17428">
        <ele>228.5</ele>
        <time>2021-02-23T09:08:05Z</time>
      </trkpt>
      <trkpt lat="47.66891" lon="6.17425">
        <ele>228.6</ele>
        <time>2021-02-23T09:08:07Z</time>
      </trkpt>
      <trkpt lat="47.66898" lon="6.17422">
        <ele>228.7</ele>
        <time>2021-02-23T09:08:09Z</time>
      </trkpt>
      <trkpt lat="47.66904" lon="6.17418">
        <ele>228.7</ele>
        <time>2021-02-23T09:08:11Z</time>
      </trkpt>
      <trkpt lat="47.66908" lon="6.17415">
        <ele>228.8</ele>
        <time>2021-02-23T09:08:12Z</time>
      </trkpt>
      <trkpt lat="47.66914" lon="6.17411">
        <ele>228.8</ele>
        <time>2021-02-23T09:08:14Z</time>
      </trkpt>
      <trkpt lat="47.66925" lon="6.17404">
        <ele>229.4</ele>
        <time>2021-02-23T09:08:17Z</time>
      </trkpt>
      <trkpt lat="47.66932" lon="6.174">
        <ele>229.9</ele>
        <time>2021-02-23T09:08:19Z</time>
      </trkpt>
      <trkpt lat="47.66937" lon="6.17397">
        <ele>230.2</ele>
        <time>2021-02-23T09:08:20Z</time>
      </trkpt>
      <trkpt lat="47.66942" lon="6.17395">
        <ele>230.5</ele>
        <time>2021-02-23T09:08:22Z</time>
      </trkpt>
      <trkpt lat="47.66946" lon="6.17392">
        <ele>230.8</ele>
        <time>2021-02-23T09:08:23Z</time>
      </trkpt>
      <trkpt lat="47.66953" lon="6.17387">
        <ele>231.2</ele>
        <time>2021-02-23T09:08:23Z</time>
      </trkpt>
      <trkpt lat="47.66958" lon="6.17384">
        <ele>231.5</ele>
        <time>2021-02-23T09:08:27Z</time>
      </trkpt>
      <trkpt lat="47.66965" lon="6.1738">
        <ele>231.9</ele>
        <time>2021-02-23T09:08:29Z</time>
      </trkpt>
      <trkpt lat="47.66971" lon="6.17375">
        <ele>232.2</ele>
        <time>2021-02-23T09:08:31Z</time>
      </trkpt>
      <trkpt lat="47.66976" lon="6.17373">
        <ele>232.5</ele>
        <time>2021-02-23T09:08:32Z</time>
      </trkpt>
      <trkpt lat="47.66981" lon="6.1737">
        <ele>232.8</ele>
        <time>2021-02-23T09:08:34Z</time>
      </trkpt>
      <trkpt lat="47.66986" lon="6.17366">
        <ele>233.1</ele>
        <time>2021-02-23T09:08:36Z</time>
      </trkpt>
      <trkpt lat="47.66994" lon="6.17361">
        <ele>233.6</ele>
        <time>2021-02-23T09:08:38Z</time>
      </trkpt>
      <trkpt lat="47.66998" lon="6.17359">
        <ele>233.8</ele>
        <time>2021-02-23T09:08:39Z</time>
      </trkpt>
      <trkpt lat="47.67005" lon="6.17353">
        <ele>234.5</ele>
        <time>2021-02-23T09:08:42Z</time>
      </trkpt>
      <trkpt lat="47.67009" lon="6.17349">
        <ele>235.2</ele>
        <time>2021-02-23T09:08:43Z</time>
      </trkpt>
      <trkpt lat="47.67014" lon="6.17345">
        <ele>235.8</ele>
        <time>2021-02-23T09:08:45Z</time>
      </trkpt>
      <trkpt lat="47.67023" lon="6.17335">
        <ele>237</ele>
        <time>2021-02-23T09:08:48Z</time>
      </trkpt>
      <trkpt lat="47.67028" lon="6.1733">
        <ele>237.4</ele>
        <time>2021-02-23T09:08:49Z</time>
      </trkpt>
      <trkpt lat="47.67034" lon="6.1732">
        <ele>237.4</ele>
        <time>2021-02-23T09:08:50Z</time>
      </trkpt>
      <trkpt lat="47.67037" lon="6.17311">
        <ele>237.2</ele>
        <time>2021-02-23T09:08:52Z</time>
      </trkpt>
      <trkpt lat="47.6704" lon="6.17304">
        <ele>237.1</ele>
        <time>2021-02-23T09:08:55Z</time>
      </trkpt>
      <trkpt lat="47.67044" lon="6.17297">
        <ele>236.8</ele>
        <time>2021-02-23T09:08:57Z</time>
      </trkpt>
      <trkpt lat="47.6705" lon="6.17284">
        <ele>236.1</ele>
        <time>2021-02-23T09:09:00Z</time>
      </trkpt>
      <trkpt lat="47.67054" lon="6.17273">
        <ele>235.4</ele>
        <time>2021-02-23T09:09:02Z</time>
      </trkpt>
      <trkpt lat="47.67057" lon="6.17263">
        <ele>234.6</ele>
        <time>2021-02-23T09:09:02Z</time>
      </trkpt>
      <trkpt lat="47.67059" lon="6.17256">
        <ele>234</ele>
        <time>2021-02-23T09:09:06Z</time>
      </trkpt>
      <trkpt lat="47.67064" lon="6.17239">
        <ele>232.6</ele>
        <time>2021-02-23T09:09:09Z</time>
      </trkpt>
      <trkpt lat="47.67066" lon="6.17229">
        <ele>231.8</ele>
        <time>2021-02-23T09:09:11Z</time>
      </trkpt>
      <trkpt lat="47.67068" lon="6.17213">
        <ele>230.4</ele>
        <time>2021-02-23T09:09:14Z</time>
      </trkpt>
      <trkpt lat="47.67068" lon="6.17205">
        <ele>229.6</ele>
        <time>2021-02-23T09:09:15Z</time>
      </trkpt>
      <trkpt lat="47.67068" lon="6.17195">
        <ele>228.7</ele>
        <time>2021-02-23T09:09:17Z</time>
      </trkpt>
      <trkpt lat="47.67067" lon="6.17183">
        <ele>227.5</ele>
        <time>2021-02-23T09:09:19Z</time>
      </trkpt>
      <trkpt lat="47.67067" lon="6.17173">
        <ele>226.6</ele>
        <time>2021-02-23T09:09:21Z</time>
      </trkpt>
      <trkpt lat="47.67066" lon="6.1716">
        <ele>226</ele>
        <time>2021-02-23T09:09:22Z</time>
      </trkpt>
      <trkpt lat="47.67065" lon="6.17151">
        <ele>226</ele>
        <time>2021-02-23T09:09:25Z</time>
      </trkpt>
      <trkpt lat="47.67064" lon="6.17142">
        <ele>226</ele>
        <time>2021-02-23T09:09:26Z</time>
      </trkpt>
      <trkpt lat="47.67063" lon="6.17134">
        <ele>226</ele>
        <time>2021-02-23T09:09:28Z</time>
      </trkpt>
      <trkpt lat="47.67063" lon="6.17124">
        <ele>226</ele>
        <time>2021-02-23T09:09:30Z</time>
      </trkpt>
      <trkpt lat="47.67062" lon="6.17111">
        <ele>226</ele>
        <time>2021-02-23T09:09:32Z</time>
      </trkpt>
      <trkpt lat="47.67061" lon="6.17104">
        <ele>226</ele>
        <time>2021-02-23T09:09:33Z</time>
      </trkpt>
      <trkpt lat="47.67061" lon="6.17098">
        <ele>226</ele>
        <time>2021-02-23T09:09:35Z</time>
      </trkpt>
      <trkpt lat="47.67061" lon="6.17088">
        <ele>226</ele>
        <time>2021-02-23T09:09:37Z</time>
      </trkpt>
      <trkpt lat="47.6706" lon="6.1708">
        <ele>226</ele>
        <time>2021-02-23T09:09:38Z</time>
      </trkpt>
      <trkpt lat="47.6706" lon="6.1707">
        <ele>226.1</ele>
        <time>2021-02-23T09:09:40Z</time>
      </trkpt>
      <trkpt lat="47.6706" lon="6.17062">
        <ele>226.1</ele>
        <time>2021-02-23T09:09:42Z</time>
      </trkpt>
      <trkpt lat="47.67059" lon="6.17053">
        <ele>226.2</ele>
        <time>2021-02-23T09:09:44Z</time>
      </trkpt>
      <trkpt lat="47.67059" lon="6.17042">
        <ele>226.3</ele>
        <time>2021-02-23T09:09:45Z</time>
      </trkpt>
      <trkpt lat="47.67059" lon="6.17035">
        <ele>226.3</ele>
        <time>2021-02-23T09:09:48Z</time>
      </trkpt>
      <trkpt lat="47.6706" lon="6.17026">
        <ele>226.4</ele>
        <time>2021-02-23T09:09:50Z</time>
      </trkpt>
      <trkpt lat="47.67062" lon="6.17016">
        <ele>226.4</ele>
        <time>2021-02-23T09:09:52Z</time>
      </trkpt>
      <trkpt lat="47.67063" lon="6.17007">
        <ele>226.4</ele>
        <time>2021-02-23T09:09:54Z</time>
      </trkpt>
      <trkpt lat="47.67066" lon="6.16999">
        <ele>226.4</ele>
        <time>2021-02-23T09:09:56Z</time>
      </trkpt>
      <trkpt lat="47.67068" lon="6.16991">
        <ele>226.4</ele>
        <time>2021-02-23T09:09:58Z</time>
      </trkpt>
      <trkpt lat="47.67069" lon="6.16984">
        <ele>226.5</ele>
        <time>2021-02-23T09:09:59Z</time>
      </trkpt>
      <trkpt lat="47.6707" lon="6.16975">
        <ele>226.5</ele>
        <time>2021-02-23T09:10:01Z</time>
      </trkpt>
      <trkpt lat="47.67072" lon="6.16965">
        <ele>226.5</ele>
        <time>2021-02-23T09:10:03Z</time>
      </trkpt>
      <trkpt lat="47.67073" lon="6.16954">
        <ele>226.5</ele>
        <time>2021-02-23T09:10:04Z</time>
      </trkpt>
      <trkpt lat="47.67074" lon="6.16947">
        <ele>226.5</ele>
        <time>2021-02-23T09:10:06Z</time>
      </trkpt>
      <trkpt lat="47.67075" lon="6.1694">
        <ele>226.5</ele>
        <time>2021-02-23T09:10:08Z</time>
      </trkpt>
      <trkpt lat="47.67075" lon="6.16931">
        <ele>226.5</ele>
        <time>2021-02-23T09:10:10Z</time>
      </trkpt>
      <trkpt lat="47.67074" lon="6.16919">
        <ele>226.6</ele>
        <time>2021-02-23T09:10:11Z</time>
      </trkpt>
      <trkpt lat="47.67072" lon="6.1691">
        <ele>226.9</ele>
        <time>2021-02-23T09:10:13Z</time>
      </trkpt>
      <trkpt lat="47.67069" lon="6.16901">
        <ele>227.2</ele>
        <time>2021-02-23T09:10:16Z</time>
      </trkpt>
      <trkpt lat="47.67065" lon="6.16892">
        <ele>227.5</ele>
        <time>2021-02-23T09:10:18Z</time>
      </trkpt>
      <trkpt lat="47.67061" lon="6.16887">
        <ele>227.7</ele>
        <time>2021-02-23T09:10:20Z</time>
      </trkpt>
      <trkpt lat="47.67058" lon="6.16882">
        <ele>228</ele>
        <time>2021-02-23T09:10:21Z</time>
      </trkpt>
      <trkpt lat="47.67054" lon="6.16875">
        <ele>228.2</ele>
        <time>2021-02-23T09:10:23Z</time>
      </trkpt>
      <trkpt lat="47.67051" lon="6.16869">
        <ele>228.5</ele>
        <time>2021-02-23T09:10:25Z</time>
      </trkpt>
      <trkpt lat="47.67046" lon="6.16862">
        <ele>228.8</ele>
        <time>2021-02-23T09:10:26Z</time>
      </trkpt>
      <trkpt lat="47.67042" lon="6.16857">
        <ele>229</ele>
        <time>2021-02-23T09:10:28Z</time>
      </trkpt>
      <trkpt lat="47.67037" lon="6.16851">
        <ele>229.3</ele>
        <time>2021-02-23T09:10:32Z</time>
      </trkpt>
      <trkpt lat="47.67032" lon="6.16847">
        <ele>229.5</ele>
        <time>2021-02-23T09:10:33Z</time>
      </trkpt>
      <trkpt lat="47.67027" lon="6.16841">
        <ele>229.7</ele>
        <time>2021-02-23T09:10:37Z</time>
      </trkpt>
      <trkpt lat="47.67023" lon="6.16837">
        <ele>229.9</ele>
        <time>2021-02-23T09:10:38Z</time>
      </trkpt>
      <trkpt lat="47.67018" lon="6.16831">
        <ele>230.1</ele>
        <time>2021-02-23T09:10:40Z</time>
      </trkpt>
      <trkpt lat="47.67014" lon="6.16827">
        <ele>230.2</ele>
        <time>2021-02-23T09:10:43Z</time>
      </trkpt>
      <trkpt lat="47.67009" lon="6.16824">
        <ele>230.3</ele>
        <time>2021-02-23T09:10:45Z</time>
      </trkpt>
      <trkpt lat="47.67005" lon="6.1682">
        <ele>230.4</ele>
        <time>2021-02-23T09:10:47Z</time>
      </trkpt>
      <trkpt lat="47.67001" lon="6.16816">
        <ele>230.5</ele>
        <time>2021-02-23T09:10:49Z</time>
      </trkpt>
      <trkpt lat="47.66997" lon="6.16812">
        <ele>230.6</ele>
        <time>2021-02-23T09:10:51Z</time>
      </trkpt>
      <trkpt lat="47.66992" lon="6.16809">
        <ele>230.7</ele>
        <time>2021-02-23T09:10:53Z</time>
      </trkpt>
      <trkpt lat="47.66988" lon="6.16805">
        <ele>230.8</ele>
        <time>2021-02-23T09:10:55Z</time>
      </trkpt>
      <trkpt lat="47.66982" lon="6.168">
        <ele>230.9</ele>
        <time>2021-02-23T09:10:57Z</time>
      </trkpt>
      <trkpt lat="47.66978" lon="6.16797">
        <ele>231</ele>
        <time>2021-02-23T09:10:59Z</time>
      </trkpt>
      <trkpt lat="47.66974" lon="6.16793">
        <ele>231.1</ele>
        <time>2021-02-23T09:11:00Z</time>
      </trkpt>
      <trkpt lat="47.66969" lon="6.16788">
        <ele>231.2</ele>
        <time>2021-02-23T09:11:03Z</time>
      </trkpt>
      <trkpt lat="47.66964" lon="6.16782">
        <ele>231.3</ele>
        <time>2021-02-23T09:11:04Z</time>
      </trkpt>
      <trkpt lat="47.66959" lon="6.16778">
        <ele>231.5</ele>
        <time>2021-02-23T09:11:07Z</time>
      </trkpt>
      <trkpt lat="47.66955" lon="6.16773">
        <ele>231.5</ele>
        <time>2021-02-23T09:11:09Z</time>
      </trkpt>
      <trkpt lat="47.66952" lon="6.16768">
        <ele>231.6</ele>
        <time>2021-02-23T09:11:11Z</time>
      </trkpt>
      <trkpt lat="47.66946" lon="6.16761">
        <ele>231.7</ele>
        <time>2021-02-23T09:11:12Z</time>
      </trkpt>
      <trkpt lat="47.66943" lon="6.16755">
        <ele>231.8</ele>
        <time>2021-02-23T09:11:15Z</time>
      </trkpt>
      <trkpt lat="47.66939" lon="6.16746">
        <ele>231.9</ele>
        <time>2021-02-23T09:11:17Z</time>
      </trkpt>
      <trkpt lat="47.66936" lon="6.16737">
        <ele>232</ele>
        <time>2021-02-23T09:11:18Z</time>
      </trkpt>
      <trkpt lat="47.66934" lon="6.1673">
        <ele>232</ele>
        <time>2021-02-23T09:11:21Z</time>
      </trkpt>
      <trkpt lat="47.66931" lon="6.16721">
        <ele>232.1</ele>
        <time>2021-02-23T09:11:23Z</time>
      </trkpt>
      <trkpt lat="47.6693" lon="6.16714">
        <ele>232.1</ele>
        <time>2021-02-23T09:11:25Z</time>
      </trkpt>
      <trkpt lat="47.66929" lon="6.16707">
        <ele>232</ele>
        <time>2021-02-23T09:11:26Z</time>
      </trkpt>
      <trkpt lat="47.66928" lon="6.16698">
        <ele>232</ele>
        <time>2021-02-23T09:11:28Z</time>
      </trkpt>
      <trkpt lat="47.66928" lon="6.1669">
        <ele>231.9</ele>
        <time>2021-02-23T09:11:30Z</time>
      </trkpt>
      <trkpt lat="47.66929" lon="6.16679">
        <ele>231.8</ele>
        <time>2021-02-23T09:11:31Z</time>
      </trkpt>
      <trkpt lat="47.6693" lon="6.16671">
        <ele>231.7</ele>
        <time>2021-02-23T09:11:34Z</time>
      </trkpt>
      <trkpt lat="47.66932" lon="6.16663">
        <ele>231.6</ele>
        <time>2021-02-23T09:11:36Z</time>
      </trkpt>
      <trkpt lat="47.66936" lon="6.16648">
        <ele>231.2</ele>
        <time>2021-02-23T09:11:38Z</time>
      </trkpt>
      <trkpt lat="47.66938" lon="6.16641">
        <ele>231</ele>
        <time>2021-02-23T09:11:41Z</time>
      </trkpt>
      <trkpt lat="47.6694" lon="6.16632">
        <ele>230.8</ele>
        <time>2021-02-23T09:11:43Z</time>
      </trkpt>
      <trkpt lat="47.66941" lon="6.16623">
        <ele>230.7</ele>
        <time>2021-02-23T09:11:45Z</time>
      </trkpt>
      <trkpt lat="47.66943" lon="6.16613">
        <ele>230.5</ele>
        <time>2021-02-23T09:11:46Z</time>
      </trkpt>
      <trkpt lat="47.66944" lon="6.16604">
        <ele>230.3</ele>
        <time>2021-02-23T09:11:49Z</time>
      </trkpt>
      <trkpt lat="47.66945" lon="6.16596">
        <ele>230.2</ele>
        <time>2021-02-23T09:11:51Z</time>
      </trkpt>
      <trkpt lat="47.66947" lon="6.16585">
        <ele>230</ele>
        <time>2021-02-23T09:11:53Z</time>
      </trkpt>
      <trkpt lat="47.66949" lon="6.16575">
        <ele>230.3</ele>
        <time>2021-02-23T09:11:54Z</time>
      </trkpt>
      <trkpt lat="47.66951" lon="6.16565">
        <ele>230.6</ele>
        <time>2021-02-23T09:11:56Z</time>
      </trkpt>
      <trkpt lat="47.66953" lon="6.16556">
        <ele>231</ele>
        <time>2021-02-23T09:11:58Z</time>
      </trkpt>
      <trkpt lat="47.66955" lon="6.16547">
        <ele>231.3</ele>
        <time>2021-02-23T09:12:00Z</time>
      </trkpt>
      <trkpt lat="47.66956" lon="6.1654">
        <ele>231.6</ele>
        <time>2021-02-23T09:12:03Z</time>
      </trkpt>
      <trkpt lat="47.66958" lon="6.16528">
        <ele>232</ele>
        <time>2021-02-23T09:12:04Z</time>
      </trkpt>
      <trkpt lat="47.66958" lon="6.16519">
        <ele>232.3</ele>
        <time>2021-02-23T09:12:07Z</time>
      </trkpt>
      <trkpt lat="47.66958" lon="6.1651">
        <ele>232.6</ele>
        <time>2021-02-23T09:12:08Z</time>
      </trkpt>
      <trkpt lat="47.66959" lon="6.16502">
        <ele>232.9</ele>
        <time>2021-02-23T09:12:10Z</time>
      </trkpt>
      <trkpt lat="47.66959" lon="6.16492">
        <ele>233.3</ele>
        <time>2021-02-23T09:12:12Z</time>
      </trkpt>
      <trkpt lat="47.66959" lon="6.16483">
        <ele>233.6</ele>
        <time>2021-02-23T09:12:14Z</time>
      </trkpt>
      <trkpt lat="47.6696" lon="6.16474">
        <ele>233.9</ele>
        <time>2021-02-23T09:12:17Z</time>
      </trkpt>
      <trkpt lat="47.6696" lon="6.16465">
        <ele>234.3</ele>
        <time>2021-02-23T09:12:20Z</time>
      </trkpt>
      <trkpt lat="47.66961" lon="6.16456">
        <ele>234.6</ele>
        <time>2021-02-23T09:12:45Z</time>
      </trkpt>
      <trkpt lat="47.66962" lon="6.16448">
        <ele>234.8</ele>
        <time>2021-02-23T09:12:47Z</time>
      </trkpt>
      <trkpt lat="47.66964" lon="6.1644">
        <ele>235.1</ele>
        <time>2021-02-23T09:12:49Z</time>
      </trkpt>
      <trkpt lat="47.66966" lon="6.16432">
        <ele>235.3</ele>
        <time>2021-02-23T09:12:51Z</time>
      </trkpt>
      <trkpt lat="47.66968" lon="6.16423">
        <ele>235.6</ele>
        <time>2021-02-23T09:12:54Z</time>
      </trkpt>
      <trkpt lat="47.6697" lon="6.16416">
        <ele>235.8</ele>
        <time>2021-02-23T09:12:56Z</time>
      </trkpt>
      <trkpt lat="47.66972" lon="6.16407">
        <ele>236.2</ele>
        <time>2021-02-23T09:12:59Z</time>
      </trkpt>
      <trkpt lat="47.66974" lon="6.16399">
        <ele>236.5</ele>
        <time>2021-02-23T09:13:02Z</time>
      </trkpt>
      <trkpt lat="47.66976" lon="6.16391">
        <ele>236.8</ele>
        <time>2021-02-23T09:13:05Z</time>
      </trkpt>
      <trkpt lat="47.66978" lon="6.16384">
        <ele>237.1</ele>
        <time>2021-02-23T09:13:07Z</time>
      </trkpt>
      <trkpt lat="47.66979" lon="6.16376">
        <ele>237.4</ele>
        <time>2021-02-23T09:13:09Z</time>
      </trkpt>
      <trkpt lat="47.6698" lon="6.1637">
        <ele>237.7</ele>
        <time>2021-02-23T09:13:11Z</time>
      </trkpt>
      <trkpt lat="47.66982" lon="6.16361">
        <ele>238</ele>
        <time>2021-02-23T09:13:14Z</time>
      </trkpt>
      <trkpt lat="47.66983" lon="6.16354">
        <ele>238.3</ele>
        <time>2021-02-23T09:13:17Z</time>
      </trkpt>
      <trkpt lat="47.66982" lon="6.16344">
        <ele>238.8</ele>
        <time>2021-02-23T09:13:20Z</time>
      </trkpt>
      <trkpt lat="47.66982" lon="6.16336">
        <ele>239.1</ele>
        <time>2021-02-23T09:13:23Z</time>
      </trkpt>
      <trkpt lat="47.66982" lon="6.16329">
        <ele>239.5</ele>
        <time>2021-02-23T09:13:26Z</time>
      </trkpt>
      <trkpt lat="47.66981" lon="6.16321">
        <ele>239.8</ele>
        <time>2021-02-23T09:13:29Z</time>
      </trkpt>
      <trkpt lat="47.6698" lon="6.16314">
        <ele>240.1</ele>
        <time>2021-02-23T09:13:32Z</time>
      </trkpt>
      <trkpt lat="47.66978" lon="6.16307">
        <ele>240.4</ele>
        <time>2021-02-23T09:13:37Z</time>
      </trkpt>
      <trkpt lat="47.66977" lon="6.163">
        <ele>240.7</ele>
        <time>2021-02-23T09:13:40Z</time>
      </trkpt>
      <trkpt lat="47.66976" lon="6.16293">
        <ele>241</ele>
        <time>2021-02-23T09:13:44Z</time>
      </trkpt>
      <trkpt lat="47.66974" lon="6.16285">
        <ele>241.3</ele>
        <time>2021-02-23T09:13:48Z</time>
      </trkpt>
      <trkpt lat="47.66973" lon="6.16277">
        <ele>241.6</ele>
        <time>2021-02-23T09:13:51Z</time>
      </trkpt>
      <trkpt lat="47.6697" lon="6.1627">
        <ele>241.8</ele>
        <time>2021-02-23T09:13:53Z</time>
      </trkpt>
      <trkpt lat="47.66969" lon="6.16261">
        <ele>242.1</ele>
        <time>2021-02-23T09:13:56Z</time>
      </trkpt>
      <trkpt lat="47.66969" lon="6.16253">
        <ele>242.3</ele>
        <time>2021-02-23T09:13:59Z</time>
      </trkpt>
      <trkpt lat="47.66969" lon="6.16244">
        <ele>242.6</ele>
        <time>2021-02-23T09:14:03Z</time>
      </trkpt>
      <trkpt lat="47.66969" lon="6.16235">
        <ele>243</ele>
        <time>2021-02-23T09:14:05Z</time>
      </trkpt>
      <trkpt lat="47.6697" lon="6.16226">
        <ele>243.4</ele>
        <time>2021-02-23T09:14:08Z</time>
      </trkpt>
      <trkpt lat="47.66972" lon="6.16216">
        <ele>243.8</ele>
        <time>2021-02-23T09:14:11Z</time>
      </trkpt>
      <trkpt lat="47.66974" lon="6.16208">
        <ele>244.2</ele>
        <time>2021-02-23T09:14:14Z</time>
      </trkpt>
      <trkpt lat="47.66977" lon="6.162">
        <ele>244.5</ele>
        <time>2021-02-23T09:14:17Z</time>
      </trkpt>
      <trkpt lat="47.66979" lon="6.16193">
        <ele>244.8</ele>
        <time>2021-02-23T09:14:20Z</time>
      </trkpt>
      <trkpt lat="47.66981" lon="6.16186">
        <ele>245.1</ele>
        <time>2021-02-23T09:14:24Z</time>
      </trkpt>
      <trkpt lat="47.66982" lon="6.16179">
        <ele>245.4</ele>
        <time>2021-02-23T09:14:27Z</time>
      </trkpt>
      <trkpt lat="47.66983" lon="6.16172">
        <ele>245.8</ele>
        <time>2021-02-23T09:14:29Z</time>
      </trkpt>
      <trkpt lat="47.66985" lon="6.16165">
        <ele>246.1</ele>
        <time>2021-02-23T09:14:32Z</time>
      </trkpt>
      <trkpt lat="47.66985" lon="6.16158">
        <ele>246.6</ele>
        <time>2021-02-23T09:14:36Z</time>
      </trkpt>
      <trkpt lat="47.66987" lon="6.16151">
        <ele>247.1</ele>
        <time>2021-02-23T09:14:39Z</time>
      </trkpt>
      <trkpt lat="47.66988" lon="6.16143">
        <ele>247.6</ele>
        <time>2021-02-23T09:14:41Z</time>
      </trkpt>
      <trkpt lat="47.6699" lon="6.16135">
        <ele>248.2</ele>
        <time>2021-02-23T09:14:45Z</time>
      </trkpt>
      <trkpt lat="47.66992" lon="6.16128">
        <ele>248.7</ele>
        <time>2021-02-23T09:14:49Z</time>
      </trkpt>
      <trkpt lat="47.66994" lon="6.1612">
        <ele>249.3</ele>
        <time>2021-02-23T09:14:52Z</time>
      </trkpt>
      <trkpt lat="47.66995" lon="6.16113">
        <ele>249.8</ele>
        <time>2021-02-23T09:14:57Z</time>
      </trkpt>
      <trkpt lat="47.66997" lon="6.16106">
        <ele>250.3</ele>
        <time>2021-02-23T09:14:59Z</time>
      </trkpt>
      <trkpt lat="47.66998" lon="6.16099">
        <ele>250.8</ele>
        <time>2021-02-23T09:15:04Z</time>
      </trkpt>
      <trkpt lat="47.66998" lon="6.16092">
        <ele>251.3</ele>
        <time>2021-02-23T09:15:07Z</time>
      </trkpt>
      <trkpt lat="47.66997" lon="6.16084">
        <ele>251.9</ele>
        <time>2021-02-23T09:15:09Z</time>
      </trkpt>
      <trkpt lat="47.66998" lon="6.16076">
        <ele>252.2</ele>
        <time>2021-02-23T09:15:13Z</time>
      </trkpt>
      <trkpt lat="47.66999" lon="6.16069">
        <ele>252.5</ele>
        <time>2021-02-23T09:15:18Z</time>
      </trkpt>
      <trkpt lat="47.66999" lon="6.1606">
        <ele>252.8</ele>
        <time>2021-02-23T09:15:21Z</time>
      </trkpt>
      <trkpt lat="47.66999" lon="6.16054">
        <ele>253.1</ele>
        <time>2021-02-23T09:15:25Z</time>
      </trkpt>
      <trkpt lat="47.66998" lon="6.16043">
        <ele>253.4</ele>
        <time>2021-02-23T09:15:27Z</time>
      </trkpt>
      <trkpt lat="47.66997" lon="6.16034">
        <ele>253.7</ele>
        <time>2021-02-23T09:15:30Z</time>
      </trkpt>
      <trkpt lat="47.66996" lon="6.16025">
        <ele>254</ele>
        <time>2021-02-23T09:15:34Z</time>
      </trkpt>
      <trkpt lat="47.66995" lon="6.16016">
        <ele>254.3</ele>
        <time>2021-02-23T09:15:37Z</time>
      </trkpt>
      <trkpt lat="47.66994" lon="6.16008">
        <ele>254.6</ele>
        <time>2021-02-23T09:15:40Z</time>
      </trkpt>
      <trkpt lat="47.66994" lon="6.16001">
        <ele>254.8</ele>
        <time>2021-02-23T09:15:42Z</time>
      </trkpt>
      <trkpt lat="47.66993" lon="6.15992">
        <ele>254.9</ele>
        <time>2021-02-23T09:15:46Z</time>
      </trkpt>
      <trkpt lat="47.66993" lon="6.15985">
        <ele>254.9</ele>
        <time>2021-02-23T09:15:49Z</time>
      </trkpt>
      <trkpt lat="47.66992" lon="6.15977">
        <ele>254.9</ele>
        <time>2021-02-23T09:15:52Z</time>
      </trkpt>
      <trkpt lat="47.66992" lon="6.15969">
        <ele>255</ele>
        <time>2021-02-23T09:15:55Z</time>
      </trkpt>
      <trkpt lat="47.66992" lon="6.15962">
        <ele>255</ele>
        <time>2021-02-23T09:15:59Z</time>
      </trkpt>
      <trkpt lat="47.66991" lon="6.15953">
        <ele>255</ele>
        <time>2021-02-23T09:16:02Z</time>
      </trkpt>
      <trkpt lat="47.66991" lon="6.15945">
        <ele>255.1</ele>
        <time>2021-02-23T09:16:05Z</time>
      </trkpt>
      <trkpt lat="47.66991" lon="6.15938">
        <ele>255.1</ele>
        <time>2021-02-23T09:16:08Z</time>
      </trkpt>
      <trkpt lat="47.66991" lon="6.1593">
        <ele>255.2</ele>
        <time>2021-02-23T09:16:10Z</time>
      </trkpt>
      <trkpt lat="47.6699" lon="6.15922">
        <ele>255.2</ele>
        <time>2021-02-23T09:16:15Z</time>
      </trkpt>
      <trkpt lat="47.66989" lon="6.15913">
        <ele>255.4</ele>
        <time>2021-02-23T09:16:17Z</time>
      </trkpt>
      <trkpt lat="47.66988" lon="6.15905">
        <ele>255.7</ele>
        <time>2021-02-23T09:16:20Z</time>
      </trkpt>
      <trkpt lat="47.66987" lon="6.15897">
        <ele>256</ele>
        <time>2021-02-23T09:16:24Z</time>
      </trkpt>
      <trkpt lat="47.66986" lon="6.1589">
        <ele>256.3</ele>
        <time>2021-02-23T09:16:26Z</time>
      </trkpt>
      <trkpt lat="47.66986" lon="6.15882">
        <ele>256.7</ele>
        <time>2021-02-23T09:16:29Z</time>
      </trkpt>
      <trkpt lat="47.66985" lon="6.15875">
        <ele>257</ele>
        <time>2021-02-23T09:16:33Z</time>
      </trkpt>
      <trkpt lat="47.66984" lon="6.15868">
        <ele>257.2</ele>
        <time>2021-02-23T09:16:36Z</time>
      </trkpt>
      <trkpt lat="47.66984" lon="6.1586">
        <ele>257.6</ele>
        <time>2021-02-23T09:16:39Z</time>
      </trkpt>
      <trkpt lat="47.66984" lon="6.15852">
        <ele>257.9</ele>
        <time>2021-02-23T09:16:42Z</time>
      </trkpt>
      <trkpt lat="47.66983" lon="6.15843">
        <ele>258.2</ele>
        <time>2021-02-23T09:16:44Z</time>
      </trkpt>
      <trkpt lat="47.66982" lon="6.15835">
        <ele>258.6</ele>
        <time>2021-02-23T09:16:48Z</time>
      </trkpt>
      <trkpt lat="47.66981" lon="6.15828">
        <ele>258.8</ele>
        <time>2021-02-23T09:16:50Z</time>
      </trkpt>
      <trkpt lat="47.66981" lon="6.15821">
        <ele>258.9</ele>
        <time>2021-02-23T09:16:54Z</time>
      </trkpt>
      <trkpt lat="47.6698" lon="6.15813">
        <ele>259.1</ele>
        <time>2021-02-23T09:16:57Z</time>
      </trkpt>
      <trkpt lat="47.6698" lon="6.15805">
        <ele>259.2</ele>
        <time>2021-02-23T09:16:59Z</time>
      </trkpt>
      <trkpt lat="47.66979" lon="6.15798">
        <ele>259.4</ele>
        <time>2021-02-23T09:17:03Z</time>
      </trkpt>
      <trkpt lat="47.66979" lon="6.1579">
        <ele>259.5</ele>
        <time>2021-02-23T09:17:05Z</time>
      </trkpt>
      <trkpt lat="47.66978" lon="6.15783">
        <ele>259.7</ele>
        <time>2021-02-23T09:17:08Z</time>
      </trkpt>
      <trkpt lat="47.66978" lon="6.15776">
        <ele>259.8</ele>
        <time>2021-02-23T09:17:11Z</time>
      </trkpt>
      <trkpt lat="47.66978" lon="6.15769">
        <ele>259.9</ele>
        <time>2021-02-23T09:17:14Z</time>
      </trkpt>
      <trkpt lat="47.66977" lon="6.15761">
        <ele>260.1</ele>
        <time>2021-02-23T09:17:17Z</time>
      </trkpt>
      <trkpt lat="47.66976" lon="6.15752">
        <ele>260.3</ele>
        <time>2021-02-23T09:17:20Z</time>
      </trkpt>
      <trkpt lat="47.66976" lon="6.15743">
        <ele>260.2</ele>
        <time>2021-02-23T09:17:23Z</time>
      </trkpt>
      <trkpt lat="47.66976" lon="6.15736">
        <ele>260.2</ele>
        <time>2021-02-23T09:17:25Z</time>
      </trkpt>
      <trkpt lat="47.66975" lon="6.15726">
        <ele>260.1</ele>
        <time>2021-02-23T09:17:28Z</time>
      </trkpt>
      <trkpt lat="47.66975" lon="6.15716">
        <ele>260</ele>
        <time>2021-02-23T09:17:31Z</time>
      </trkpt>
      <trkpt lat="47.66974" lon="6.15707">
        <ele>260</ele>
        <time>2021-02-23T09:17:34Z</time>
      </trkpt>
      <trkpt lat="47.66974" lon="6.157">
        <ele>259.9</ele>
        <time>2021-02-23T09:17:36Z</time>
      </trkpt>
      <trkpt lat="47.66973" lon="6.15691">
        <ele>259.8</ele>
        <time>2021-02-23T09:17:39Z</time>
      </trkpt>
      <trkpt lat="47.66972" lon="6.15682">
        <ele>259.8</ele>
        <time>2021-02-23T09:17:41Z</time>
      </trkpt>
      <trkpt lat="47.66971" lon="6.15672">
        <ele>259.7</ele>
        <time>2021-02-23T09:17:44Z</time>
      </trkpt>
      <trkpt lat="47.6697" lon="6.15664">
        <ele>259.7</ele>
        <time>2021-02-23T09:17:46Z</time>
      </trkpt>
      <trkpt lat="47.66969" lon="6.15656">
        <ele>259.8</ele>
        <time>2021-02-23T09:17:49Z</time>
      </trkpt>
      <trkpt lat="47.66969" lon="6.15639">
        <ele>259.8</ele>
        <time>2021-02-23T09:17:52Z</time>
      </trkpt>
      <trkpt lat="47.66968" lon="6.15628">
        <ele>259.9</ele>
        <time>2021-02-23T09:17:54Z</time>
      </trkpt>
      <trkpt lat="47.66967" lon="6.15618">
        <ele>259.9</ele>
        <time>2021-02-23T09:17:55Z</time>
      </trkpt>
      <trkpt lat="47.66966" lon="6.1561">
        <ele>259.9</ele>
        <time>2021-02-23T09:17:58Z</time>
      </trkpt>
      <trkpt lat="47.66965" lon="6.15599">
        <ele>260</ele>
        <time>2021-02-23T09:17:59Z</time>
      </trkpt>
      <trkpt lat="47.66965" lon="6.1559">
        <ele>260</ele>
        <time>2021-02-23T09:18:02Z</time>
      </trkpt>
      <trkpt lat="47.66965" lon="6.15579">
        <ele>260</ele>
        <time>2021-02-23T09:18:04Z</time>
      </trkpt>
      <trkpt lat="47.66964" lon="6.15559">
        <ele>259.9</ele>
        <time>2021-02-23T09:18:05Z</time>
      </trkpt>
      <trkpt lat="47.66963" lon="6.1555">
        <ele>259.9</ele>
        <time>2021-02-23T09:18:06Z</time>
      </trkpt>
      <trkpt lat="47.66963" lon="6.15541">
        <ele>259.9</ele>
        <time>2021-02-23T09:18:07Z</time>
      </trkpt>
      <trkpt lat="47.66963" lon="6.15531">
        <ele>259.9</ele>
        <time>2021-02-23T09:18:08Z</time>
      </trkpt>
      <trkpt lat="47.66963" lon="6.1552">
        <ele>259.8</ele>
        <time>2021-02-23T09:18:09Z</time>
      </trkpt>
      <trkpt lat="47.66963" lon="6.15509">
        <ele>259.8</ele>
        <time>2021-02-23T09:18:10Z</time>
      </trkpt>
      <trkpt lat="47.66962" lon="6.15497">
        <ele>259.7</ele>
        <time>2021-02-23T09:18:11Z</time>
      </trkpt>
      <trkpt lat="47.66961" lon="6.15486">
        <ele>259.4</ele>
        <time>2021-02-23T09:18:12Z</time>
      </trkpt>
      <trkpt lat="47.66961" lon="6.15474">
        <ele>259.2</ele>
        <time>2021-02-23T09:18:13Z</time>
      </trkpt>
      <trkpt lat="47.66961" lon="6.15462">
        <ele>258.9</ele>
        <time>2021-02-23T09:18:14Z</time>
      </trkpt>
      <trkpt lat="47.6696" lon="6.15451">
        <ele>258.7</ele>
        <time>2021-02-23T09:18:15Z</time>
      </trkpt>
      <trkpt lat="47.6696" lon="6.1544">
        <ele>258.5</ele>
        <time>2021-02-23T09:18:16Z</time>
      </trkpt>
      <trkpt lat="47.66959" lon="6.15429">
        <ele>258.3</ele>
        <time>2021-02-23T09:18:17Z</time>
      </trkpt>
      <trkpt lat="47.66959" lon="6.15419">
        <ele>258.1</ele>
        <time>2021-02-23T09:18:18Z</time>
      </trkpt>
      <trkpt lat="47.66958" lon="6.15409">
        <ele>258.2</ele>
        <time>2021-02-23T09:18:19Z</time>
      </trkpt>
      <trkpt lat="47.66958" lon="6.15399">
        <ele>258.4</ele>
        <time>2021-02-23T09:18:20Z</time>
      </trkpt>
      <trkpt lat="47.66957" lon="6.1539">
        <ele>258.6</ele>
        <time>2021-02-23T09:18:21Z</time>
      </trkpt>
      <trkpt lat="47.66957" lon="6.15382">
        <ele>258.8</ele>
        <time>2021-02-23T09:18:22Z</time>
      </trkpt>
      <trkpt lat="47.66956" lon="6.15374">
        <ele>259</ele>
        <time>2021-02-23T09:18:23Z</time>
      </trkpt>
      <trkpt lat="47.66956" lon="6.15367">
        <ele>259.2</ele>
        <time>2021-02-23T09:18:24Z</time>
      </trkpt>
      <trkpt lat="47.66955" lon="6.15356">
        <ele>259.4</ele>
        <time>2021-02-23T09:18:26Z</time>
      </trkpt>
      <trkpt lat="47.66954" lon="6.15346">
        <ele>259.7</ele>
        <time>2021-02-23T09:18:28Z</time>
      </trkpt>
      <trkpt lat="47.66953" lon="6.15338">
        <ele>259.9</ele>
        <time>2021-02-23T09:18:30Z</time>
      </trkpt>
      <trkpt lat="47.66953" lon="6.1533">
        <ele>260.1</ele>
        <time>2021-02-23T09:18:32Z</time>
      </trkpt>
      <trkpt lat="47.66955" lon="6.15322">
        <ele>260.2</ele>
        <time>2021-02-23T09:18:33Z</time>
      </trkpt>
      <trkpt lat="47.66951" lon="6.15316">
        <ele>260.4</ele>
        <time>2021-02-23T09:18:36Z</time>
      </trkpt>
      <trkpt lat="47.66949" lon="6.15308">
        <ele>260.6</ele>
        <time>2021-02-23T09:18:39Z</time>
      </trkpt>
      <trkpt lat="47.66947" lon="6.15302">
        <ele>260.8</ele>
        <time>2021-02-23T09:18:41Z</time>
      </trkpt>
      <trkpt lat="47.66945" lon="6.15295">
        <ele>261.1</ele>
        <time>2021-02-23T09:18:43Z</time>
      </trkpt>
      <trkpt lat="47.66943" lon="6.15288">
        <ele>261.3</ele>
        <time>2021-02-23T09:18:45Z</time>
      </trkpt>
      <trkpt lat="47.66941" lon="6.15281">
        <ele>261.6</ele>
        <time>2021-02-23T09:18:47Z</time>
      </trkpt>
      <trkpt lat="47.66939" lon="6.15275">
        <ele>261.9</ele>
        <time>2021-02-23T09:18:49Z</time>
      </trkpt>
      <trkpt lat="47.66937" lon="6.15265">
        <ele>262.3</ele>
        <time>2021-02-23T09:18:52Z</time>
      </trkpt>
      <trkpt lat="47.66935" lon="6.15259">
        <ele>262.6</ele>
        <time>2021-02-23T09:18:54Z</time>
      </trkpt>
      <trkpt lat="47.66932" lon="6.15252">
        <ele>263</ele>
        <time>2021-02-23T09:18:56Z</time>
      </trkpt>
      <trkpt lat="47.6693" lon="6.15245">
        <ele>263.3</ele>
        <time>2021-02-23T09:18:58Z</time>
      </trkpt>
      <trkpt lat="47.66927" lon="6.15235">
        <ele>263.6</ele>
        <time>2021-02-23T09:19:01Z</time>
      </trkpt>
      <trkpt lat="47.66925" lon="6.15228">
        <ele>263.8</ele>
        <time>2021-02-23T09:19:03Z</time>
      </trkpt>
      <trkpt lat="47.66923" lon="6.15222">
        <ele>264</ele>
        <time>2021-02-23T09:19:05Z</time>
      </trkpt>
      <trkpt lat="47.66921" lon="6.15215">
        <ele>264.2</ele>
        <time>2021-02-23T09:19:07Z</time>
      </trkpt>
      <trkpt lat="47.6692" lon="6.15208">
        <ele>264.4</ele>
        <time>2021-02-23T09:19:09Z</time>
      </trkpt>
      <trkpt lat="47.66921" lon="6.152">
        <ele>264.4</ele>
        <time>2021-02-23T09:19:11Z</time>
      </trkpt>
      <trkpt lat="47.66926" lon="6.15191">
        <ele>264.4</ele>
        <time>2021-02-23T09:19:14Z</time>
      </trkpt>
      <trkpt lat="47.66929" lon="6.15183">
        <ele>264.4</ele>
        <time>2021-02-23T09:19:16Z</time>
      </trkpt>
      <trkpt lat="47.66933" lon="6.15175">
        <ele>264.5</ele>
        <time>2021-02-23T09:19:18Z</time>
      </trkpt>
      <trkpt lat="47.66936" lon="6.15167">
        <ele>264.5</ele>
        <time>2021-02-23T09:19:20Z</time>
      </trkpt>
      <trkpt lat="47.6694" lon="6.1516">
        <ele>264.3</ele>
        <time>2021-02-23T09:19:22Z</time>
      </trkpt>
      <trkpt lat="47.66943" lon="6.15152">
        <ele>264.2</ele>
        <time>2021-02-23T09:19:24Z</time>
      </trkpt>
      <trkpt lat="47.66945" lon="6.15144">
        <ele>264.1</ele>
        <time>2021-02-23T09:19:26Z</time>
      </trkpt>
      <trkpt lat="47.66948" lon="6.15137">
        <ele>264</ele>
        <time>2021-02-23T09:19:28Z</time>
      </trkpt>
      <trkpt lat="47.66952" lon="6.15131">
        <ele>264</ele>
        <time>2021-02-23T09:19:30Z</time>
      </trkpt>
      <trkpt lat="47.66957" lon="6.15133">
        <ele>264</ele>
        <time>2021-02-23T09:19:33Z</time>
      </trkpt>
      <trkpt lat="47.66963" lon="6.15139">
        <ele>264</ele>
        <time>2021-02-23T09:19:36Z</time>
      </trkpt>
      <trkpt lat="47.66967" lon="6.15142">
        <ele>264</ele>
        <time>2021-02-23T09:19:38Z</time>
      </trkpt>
      <trkpt lat="47.66972" lon="6.15145">
        <ele>263.9</ele>
        <time>2021-02-23T09:19:40Z</time>
      </trkpt>
      <trkpt lat="47.6698" lon="6.1515">
        <ele>263.8</ele>
        <time>2021-02-23T09:19:44Z</time>
      </trkpt>
      <trkpt lat="47.66985" lon="6.15153">
        <ele>263.7</ele>
        <time>2021-02-23T09:19:46Z</time>
      </trkpt>
      <trkpt lat="47.66992" lon="6.15157">
        <ele>263.5</ele>
        <time>2021-02-23T09:19:48Z</time>
      </trkpt>
      <trkpt lat="47.67006" lon="6.15161">
        <ele>263.1</ele>
        <time>2021-02-23T09:19:51Z</time>
      </trkpt>
      <trkpt lat="47.67011" lon="6.15162">
        <ele>262.9</ele>
        <time>2021-02-23T09:19:52Z</time>
      </trkpt>
      <trkpt lat="47.67027" lon="6.1516">
        <ele>262.7</ele>
        <time>2021-02-23T09:19:55Z</time>
      </trkpt>
      <trkpt lat="47.67032" lon="6.15159">
        <ele>262.6</ele>
        <time>2021-02-23T09:19:56Z</time>
      </trkpt>
      <trkpt lat="47.67037" lon="6.15158">
        <ele>262.5</ele>
        <time>2021-02-23T09:19:57Z</time>
      </trkpt>
      <trkpt lat="47.67053" lon="6.15154">
        <ele>262.4</ele>
        <time>2021-02-23T09:19:59Z</time>
      </trkpt>
      <trkpt lat="47.67061" lon="6.15151">
        <ele>262.3</ele>
        <time>2021-02-23T09:20:00Z</time>
      </trkpt>
      <trkpt lat="47.6707" lon="6.15148">
        <ele>262.3</ele>
        <time>2021-02-23T09:20:03Z</time>
      </trkpt>
      <trkpt lat="47.67078" lon="6.15145">
        <ele>262.4</ele>
        <time>2021-02-23T09:20:04Z</time>
      </trkpt>
      <trkpt lat="47.67085" lon="6.15143">
        <ele>262.4</ele>
        <time>2021-02-23T09:20:07Z</time>
      </trkpt>
      <trkpt lat="47.67097" lon="6.15138">
        <ele>262.5</ele>
        <time>2021-02-23T09:20:10Z</time>
      </trkpt>
      <trkpt lat="47.67104" lon="6.15135">
        <ele>262.6</ele>
        <time>2021-02-23T09:20:12Z</time>
      </trkpt>
      <trkpt lat="47.6711" lon="6.15133">
        <ele>262.7</ele>
        <time>2021-02-23T09:20:14Z</time>
      </trkpt>
      <trkpt lat="47.67116" lon="6.1513">
        <ele>262.8</ele>
        <time>2021-02-23T09:20:16Z</time>
      </trkpt>
      <trkpt lat="47.67125" lon="6.15128">
        <ele>262.8</ele>
        <time>2021-02-23T09:20:18Z</time>
      </trkpt>
      <trkpt lat="47.6713" lon="6.15126">
        <ele>262.9</ele>
        <time>2021-02-23T09:20:19Z</time>
      </trkpt>
      <trkpt lat="47.67135" lon="6.15124">
        <ele>262.9</ele>
        <time>2021-02-23T09:20:21Z</time>
      </trkpt>
      <trkpt lat="47.67141" lon="6.15122">
        <ele>263</ele>
        <time>2021-02-23T09:20:22Z</time>
      </trkpt>
      <trkpt lat="47.67145" lon="6.15121">
        <ele>263</ele>
        <time>2021-02-23T09:20:23Z</time>
      </trkpt>
      <trkpt lat="47.67152" lon="6.15119">
        <ele>263.1</ele>
        <time>2021-02-23T09:20:25Z</time>
      </trkpt>
      <trkpt lat="47.67158" lon="6.15116">
        <ele>263.2</ele>
        <time>2021-02-23T09:20:27Z</time>
      </trkpt>
      <trkpt lat="47.67167" lon="6.1511">
        <ele>263.4</ele>
        <time>2021-02-23T09:20:29Z</time>
      </trkpt>
      <trkpt lat="47.67172" lon="6.15106">
        <ele>263.4</ele>
        <time>2021-02-23T09:20:31Z</time>
      </trkpt>
      <trkpt lat="47.67177" lon="6.15102">
        <ele>263.5</ele>
        <time>2021-02-23T09:20:33Z</time>
      </trkpt>
      <trkpt lat="47.67182" lon="6.15097">
        <ele>263.5</ele>
        <time>2021-02-23T09:20:35Z</time>
      </trkpt>
      <trkpt lat="47.67187" lon="6.15093">
        <ele>263.5</ele>
        <time>2021-02-23T09:20:36Z</time>
      </trkpt>
      <trkpt lat="47.67192" lon="6.15089">
        <ele>263.5</ele>
        <time>2021-02-23T09:20:36Z</time>
      </trkpt>
      <trkpt lat="47.67196" lon="6.15086">
        <ele>263.5</ele>
        <time>2021-02-23T09:20:40Z</time>
      </trkpt>
      <trkpt lat="47.67203" lon="6.1508">
        <ele>263.3</ele>
        <time>2021-02-23T09:20:40Z</time>
      </trkpt>
      <trkpt lat="47.67207" lon="6.15075">
        <ele>263.1</ele>
        <time>2021-02-23T09:20:44Z</time>
      </trkpt>
      <trkpt lat="47.67211" lon="6.15072">
        <ele>262.9</ele>
        <time>2021-02-23T09:20:45Z</time>
      </trkpt>
      <trkpt lat="47.67216" lon="6.15068">
        <ele>262.6</ele>
        <time>2021-02-23T09:20:46Z</time>
      </trkpt>
      <trkpt lat="47.6722" lon="6.15063">
        <ele>262.4</ele>
        <time>2021-02-23T09:20:48Z</time>
      </trkpt>
      <trkpt lat="47.67227" lon="6.15057">
        <ele>262</ele>
        <time>2021-02-23T09:20:48Z</time>
      </trkpt>
      <trkpt lat="47.67232" lon="6.15052">
        <ele>261.6</ele>
        <time>2021-02-23T09:20:52Z</time>
      </trkpt>
      <trkpt lat="47.67245" lon="6.15039">
        <ele>260.8</ele>
        <time>2021-02-23T09:20:55Z</time>
      </trkpt>
      <trkpt lat="47.67253" lon="6.15032">
        <ele>260.4</ele>
        <time>2021-02-23T09:20:57Z</time>
      </trkpt>
      <trkpt lat="47.67258" lon="6.15028">
        <ele>260.3</ele>
        <time>2021-02-23T09:20:58Z</time>
      </trkpt>
      <trkpt lat="47.67265" lon="6.15021">
        <ele>260.3</ele>
        <time>2021-02-23T09:21:00Z</time>
      </trkpt>
      <trkpt lat="47.67279" lon="6.15008">
        <ele>260.3</ele>
        <time>2021-02-23T09:21:00Z</time>
      </trkpt>
      <trkpt lat="47.67284" lon="6.15004">
        <ele>260.4</ele>
        <time>2021-02-23T09:21:01Z</time>
      </trkpt>
      <trkpt lat="47.67288" lon="6.15">
        <ele>260.5</ele>
        <time>2021-02-23T09:21:02Z</time>
      </trkpt>
      <trkpt lat="47.67292" lon="6.14996">
        <ele>260.6</ele>
        <time>2021-02-23T09:21:03Z</time>
      </trkpt>
      <trkpt lat="47.67296" lon="6.14993">
        <ele>260.8</ele>
        <time>2021-02-23T09:21:04Z</time>
      </trkpt>
      <trkpt lat="47.67304" lon="6.14986">
        <ele>261.3</ele>
        <time>2021-02-23T09:21:06Z</time>
      </trkpt>
      <trkpt lat="47.67311" lon="6.14979">
        <ele>261.8</ele>
        <time>2021-02-23T09:21:08Z</time>
      </trkpt>
      <trkpt lat="47.67318" lon="6.14973">
        <ele>262.4</ele>
        <time>2021-02-23T09:21:10Z</time>
      </trkpt>
      <trkpt lat="47.67324" lon="6.14967">
        <ele>263</ele>
        <time>2021-02-23T09:21:12Z</time>
      </trkpt>
      <trkpt lat="47.6733" lon="6.14962">
        <ele>263.6</ele>
        <time>2021-02-23T09:21:14Z</time>
      </trkpt>
      <trkpt lat="47.67337" lon="6.14956">
        <ele>264</ele>
        <time>2021-02-23T09:21:16Z</time>
      </trkpt>
      <trkpt lat="47.67342" lon="6.14953">
        <ele>264</ele>
        <time>2021-02-23T09:21:20Z</time>
      </trkpt>
      <trkpt lat="47.67346" lon="6.14949">
        <ele>264.1</ele>
        <time>2021-02-23T09:21:21Z</time>
      </trkpt>
      <trkpt lat="47.6735" lon="6.14945">
        <ele>264.1</ele>
        <time>2021-02-23T09:21:22Z</time>
      </trkpt>
      <trkpt lat="47.67355" lon="6.14941">
        <ele>264.2</ele>
        <time>2021-02-23T09:21:23Z</time>
      </trkpt>
      <trkpt lat="47.6736" lon="6.14936">
        <ele>264.3</ele>
        <time>2021-02-23T09:21:23Z</time>
      </trkpt>
      <trkpt lat="47.67365" lon="6.14931">
        <ele>264.5</ele>
        <time>2021-02-23T09:21:27Z</time>
      </trkpt>
      <trkpt lat="47.6737" lon="6.14926">
        <ele>264.6</ele>
        <time>2021-02-23T09:21:29Z</time>
      </trkpt>
      <trkpt lat="47.67375" lon="6.14922">
        <ele>264.6</ele>
        <time>2021-02-23T09:21:31Z</time>
      </trkpt>
      <trkpt lat="47.67379" lon="6.14918">
        <ele>264.7</ele>
        <time>2021-02-23T09:21:32Z</time>
      </trkpt>
      <trkpt lat="47.67385" lon="6.14913">
        <ele>265</ele>
        <time>2021-02-23T09:21:32Z</time>
      </trkpt>
      <trkpt lat="47.6739" lon="6.14909">
        <ele>265.4</ele>
        <time>2021-02-23T09:21:34Z</time>
      </trkpt>
      <trkpt lat="47.67396" lon="6.14904">
        <ele>265.8</ele>
        <time>2021-02-23T09:21:36Z</time>
      </trkpt>
      <trkpt lat="47.674" lon="6.14901">
        <ele>266.1</ele>
        <time>2021-02-23T09:21:40Z</time>
      </trkpt>
      <trkpt lat="47.67406" lon="6.14895">
        <ele>266.6</ele>
        <time>2021-02-23T09:21:42Z</time>
      </trkpt>
      <trkpt lat="47.6741" lon="6.14892">
        <ele>266.9</ele>
        <time>2021-02-23T09:21:44Z</time>
      </trkpt>
      <trkpt lat="47.6742" lon="6.14884">
        <ele>267.4</ele>
        <time>2021-02-23T09:21:47Z</time>
      </trkpt>
      <trkpt lat="47.67425" lon="6.14879">
        <ele>267.5</ele>
        <time>2021-02-23T09:21:49Z</time>
      </trkpt>
      <trkpt lat="47.6743" lon="6.14875">
        <ele>267.6</ele>
        <time>2021-02-23T09:21:51Z</time>
      </trkpt>
      <trkpt lat="47.67436" lon="6.14869">
        <ele>267.5</ele>
        <time>2021-02-23T09:21:53Z</time>
      </trkpt>
      <trkpt lat="47.67442" lon="6.14864">
        <ele>267.5</ele>
        <time>2021-02-23T09:21:55Z</time>
      </trkpt>
      <trkpt lat="47.67446" lon="6.14861">
        <ele>267.4</ele>
        <time>2021-02-23T09:21:57Z</time>
      </trkpt>
      <trkpt lat="47.67451" lon="6.14856">
        <ele>267.3</ele>
        <time>2021-02-23T09:21:59Z</time>
      </trkpt>
      <trkpt lat="47.67456" lon="6.14851">
        <ele>267.2</ele>
        <time>2021-02-23T09:21:59Z</time>
      </trkpt>
      <trkpt lat="47.67463" lon="6.14845">
        <ele>267</ele>
        <time>2021-02-23T09:22:04Z</time>
      </trkpt>
      <trkpt lat="47.67468" lon="6.14841">
        <ele>266.8</ele>
        <time>2021-02-23T09:22:04Z</time>
      </trkpt>
      <trkpt lat="47.67472" lon="6.14837">
        <ele>266.7</ele>
        <time>2021-02-23T09:22:06Z</time>
      </trkpt>
      <trkpt lat="47.67476" lon="6.14832">
        <ele>266.6</ele>
        <time>2021-02-23T09:22:08Z</time>
      </trkpt>
      <trkpt lat="47.6748" lon="6.14828">
        <ele>266.6</ele>
        <time>2021-02-23T09:22:12Z</time>
      </trkpt>
      <trkpt lat="47.67486" lon="6.14823">
        <ele>266.5</ele>
        <time>2021-02-23T09:22:12Z</time>
      </trkpt>
      <trkpt lat="47.67489" lon="6.14818">
        <ele>266.6</ele>
        <time>2021-02-23T09:22:16Z</time>
      </trkpt>
      <trkpt lat="47.67495" lon="6.14814">
        <ele>266.5</ele>
        <time>2021-02-23T09:22:18Z</time>
      </trkpt>
      <trkpt lat="47.675" lon="6.14808">
        <ele>266.7</ele>
        <time>2021-02-23T09:22:20Z</time>
      </trkpt>
      <trkpt lat="47.67505" lon="6.14803">
        <ele>267</ele>
        <time>2021-02-23T09:22:22Z</time>
      </trkpt>
      <trkpt lat="47.67509" lon="6.14798">
        <ele>267.3</ele>
        <time>2021-02-23T09:22:23Z</time>
      </trkpt>
      <trkpt lat="47.67514" lon="6.14794">
        <ele>267.5</ele>
        <time>2021-02-23T09:22:25Z</time>
      </trkpt>
      <trkpt lat="47.67524" lon="6.14785">
        <ele>267.7</ele>
        <time>2021-02-23T09:22:28Z</time>
      </trkpt>
      <trkpt lat="47.67528" lon="6.14781">
        <ele>267.8</ele>
        <time>2021-02-23T09:22:29Z</time>
      </trkpt>
      <trkpt lat="47.67536" lon="6.14774">
        <ele>267.9</ele>
        <time>2021-02-23T09:22:31Z</time>
      </trkpt>
      <trkpt lat="47.67547" lon="6.14764">
        <ele>267.8</ele>
        <time>2021-02-23T09:22:34Z</time>
      </trkpt>
      <trkpt lat="47.67552" lon="6.1476">
        <ele>267.7</ele>
        <time>2021-02-23T09:22:35Z</time>
      </trkpt>
      <trkpt lat="47.67556" lon="6.14756">
        <ele>267.6</ele>
        <time>2021-02-23T09:22:36Z</time>
      </trkpt>
      <trkpt lat="47.67564" lon="6.1475">
        <ele>267.4</ele>
        <time>2021-02-23T09:22:38Z</time>
      </trkpt>
      <trkpt lat="47.67569" lon="6.14745">
        <ele>267.2</ele>
        <time>2021-02-23T09:22:39Z</time>
      </trkpt>
      <trkpt lat="47.67575" lon="6.1474">
        <ele>267</ele>
        <time>2021-02-23T09:22:40Z</time>
      </trkpt>
      <trkpt lat="47.67588" lon="6.14729">
        <ele>266.7</ele>
        <time>2021-02-23T09:22:40Z</time>
      </trkpt>
      <trkpt lat="47.67592" lon="6.14725">
        <ele>266.6</ele>
        <time>2021-02-23T09:22:41Z</time>
      </trkpt>
      <trkpt lat="47.67597" lon="6.14721">
        <ele>266.4</ele>
        <time>2021-02-23T09:22:42Z</time>
      </trkpt>
      <trkpt lat="47.67602" lon="6.14717">
        <ele>266.1</ele>
        <time>2021-02-23T09:22:43Z</time>
      </trkpt>
      <trkpt lat="47.67606" lon="6.14713">
        <ele>265.8</ele>
        <time>2021-02-23T09:22:44Z</time>
      </trkpt>
      <trkpt lat="47.67611" lon="6.14709">
        <ele>265.5</ele>
        <time>2021-02-23T09:22:45Z</time>
      </trkpt>
      <trkpt lat="47.67615" lon="6.14705">
        <ele>265.1</ele>
        <time>2021-02-23T09:22:46Z</time>
      </trkpt>
      <trkpt lat="47.6762" lon="6.14702">
        <ele>264.7</ele>
        <time>2021-02-23T09:22:47Z</time>
      </trkpt>
      <trkpt lat="47.67624" lon="6.14698">
        <ele>264.3</ele>
        <time>2021-02-23T09:22:48Z</time>
      </trkpt>
      <trkpt lat="47.67628" lon="6.14695">
        <ele>263.8</ele>
        <time>2021-02-23T09:22:49Z</time>
      </trkpt>
      <trkpt lat="47.67636" lon="6.1469">
        <ele>262.8</ele>
        <time>2021-02-23T09:22:51Z</time>
      </trkpt>
      <trkpt lat="47.67644" lon="6.14685">
        <ele>261.7</ele>
        <time>2021-02-23T09:22:53Z</time>
      </trkpt>
      <trkpt lat="47.67652" lon="6.1468">
        <ele>260.5</ele>
        <time>2021-02-23T09:22:55Z</time>
      </trkpt>
      <trkpt lat="47.6766" lon="6.14675">
        <ele>259.2</ele>
        <time>2021-02-23T09:22:57Z</time>
      </trkpt>
      <trkpt lat="47.67666" lon="6.14671">
        <ele>258.1</ele>
        <time>2021-02-23T09:22:59Z</time>
      </trkpt>
      <trkpt lat="47.67674" lon="6.14667">
        <ele>258.1</ele>
        <time>2021-02-23T09:23:01Z</time>
      </trkpt>
      <trkpt lat="47.67681" lon="6.14663">
        <ele>258.3</ele>
        <time>2021-02-23T09:23:03Z</time>
      </trkpt>
      <trkpt lat="47.6768" lon="6.14673">
        <ele>258.1</ele>
        <time>2021-02-23T09:23:06Z</time>
      </trkpt>
      <trkpt lat="47.67686" lon="6.14667">
        <ele>258.2</ele>
        <time>2021-02-23T09:23:07Z</time>
      </trkpt>
      <trkpt lat="47.67692" lon="6.14662">
        <ele>258.4</ele>
        <time>2021-02-23T09:23:09Z</time>
      </trkpt>
      <trkpt lat="47.67706" lon="6.14649">
        <ele>258.8</ele>
        <time>2021-02-23T09:23:12Z</time>
      </trkpt>
      <trkpt lat="47.67713" lon="6.14645">
        <ele>258.9</ele>
        <time>2021-02-23T09:23:14Z</time>
      </trkpt>
      <trkpt lat="47.6772" lon="6.14641">
        <ele>259.1</ele>
        <time>2021-02-23T09:23:16Z</time>
      </trkpt>
      <trkpt lat="47.67725" lon="6.14636">
        <ele>259.2</ele>
        <time>2021-02-23T09:23:18Z</time>
      </trkpt>
      <trkpt lat="47.67736" lon="6.14629">
        <ele>259.4</ele>
        <time>2021-02-23T09:23:21Z</time>
      </trkpt>
      <trkpt lat="47.67745" lon="6.14623">
        <ele>259.5</ele>
        <time>2021-02-23T09:23:21Z</time>
      </trkpt>
      <trkpt lat="47.67751" lon="6.14619">
        <ele>259.6</ele>
        <time>2021-02-23T09:23:25Z</time>
      </trkpt>
      <trkpt lat="47.6776" lon="6.14614">
        <ele>259.7</ele>
        <time>2021-02-23T09:23:27Z</time>
      </trkpt>
      <trkpt lat="47.67766" lon="6.1461">
        <ele>259.8</ele>
        <time>2021-02-23T09:23:27Z</time>
      </trkpt>
      <trkpt lat="47.67773" lon="6.14606">
        <ele>259.9</ele>
        <time>2021-02-23T09:23:31Z</time>
      </trkpt>
      <trkpt lat="47.67779" lon="6.14603">
        <ele>260</ele>
        <time>2021-02-23T09:23:33Z</time>
      </trkpt>
      <trkpt lat="47.67789" lon="6.14597">
        <ele>260.2</ele>
        <time>2021-02-23T09:23:36Z</time>
      </trkpt>
      <trkpt lat="47.67798" lon="6.14591">
        <ele>260.4</ele>
        <time>2021-02-23T09:23:39Z</time>
      </trkpt>
      <trkpt lat="47.67806" lon="6.14587">
        <ele>260.6</ele>
        <time>2021-02-23T09:23:41Z</time>
      </trkpt>
      <trkpt lat="47.67812" lon="6.14582">
        <ele>260.8</ele>
        <time>2021-02-23T09:23:41Z</time>
      </trkpt>
      <trkpt lat="47.67818" lon="6.14578">
        <ele>260.9</ele>
        <time>2021-02-23T09:23:45Z</time>
      </trkpt>
      <trkpt lat="47.67823" lon="6.14575">
        <ele>261</ele>
        <time>2021-02-23T09:23:47Z</time>
      </trkpt>
      <trkpt lat="47.67829" lon="6.14571">
        <ele>261.1</ele>
        <time>2021-02-23T09:23:49Z</time>
      </trkpt>
      <trkpt lat="47.67836" lon="6.14568">
        <ele>261.2</ele>
        <time>2021-02-23T09:23:49Z</time>
      </trkpt>
      <trkpt lat="47.67841" lon="6.14564">
        <ele>261.3</ele>
        <time>2021-02-23T09:23:51Z</time>
      </trkpt>
      <trkpt lat="47.67846" lon="6.14561">
        <ele>261.3</ele>
        <time>2021-02-23T09:23:55Z</time>
      </trkpt>
      <trkpt lat="47.67851" lon="6.14558">
        <ele>261.4</ele>
        <time>2021-02-23T09:23:57Z</time>
      </trkpt>
      <trkpt lat="47.67857" lon="6.14553">
        <ele>261.6</ele>
        <time>2021-02-23T09:23:57Z</time>
      </trkpt>
      <trkpt lat="47.67861" lon="6.1455">
        <ele>261.7</ele>
        <time>2021-02-23T09:24:01Z</time>
      </trkpt>
      <trkpt lat="47.67866" lon="6.14547">
        <ele>261.8</ele>
        <time>2021-02-23T09:24:03Z</time>
      </trkpt>
      <trkpt lat="47.67872" lon="6.14543">
        <ele>261.9</ele>
        <time>2021-02-23T09:24:05Z</time>
      </trkpt>
      <trkpt lat="47.67877" lon="6.14539">
        <ele>262.1</ele>
        <time>2021-02-23T09:24:07Z</time>
      </trkpt>
      <trkpt lat="47.67883" lon="6.14533">
        <ele>262.3</ele>
        <time>2021-02-23T09:24:09Z</time>
      </trkpt>
      <trkpt lat="47.67888" lon="6.14529">
        <ele>262.5</ele>
        <time>2021-02-23T09:24:11Z</time>
      </trkpt>
      <trkpt lat="47.67892" lon="6.14524">
        <ele>262.7</ele>
        <time>2021-02-23T09:24:13Z</time>
      </trkpt>
      <trkpt lat="47.67901" lon="6.14516">
        <ele>263.1</ele>
        <time>2021-02-23T09:24:14Z</time>
      </trkpt>
      <trkpt lat="47.67905" lon="6.14512">
        <ele>263.3</ele>
        <time>2021-02-23T09:24:18Z</time>
      </trkpt>
      <trkpt lat="47.6791" lon="6.14506">
        <ele>263.6</ele>
        <time>2021-02-23T09:24:18Z</time>
      </trkpt>
      <trkpt lat="47.67914" lon="6.14502">
        <ele>263.9</ele>
        <time>2021-02-23T09:24:22Z</time>
      </trkpt>
      <trkpt lat="47.6792" lon="6.14496">
        <ele>264.1</ele>
        <time>2021-02-23T09:24:22Z</time>
      </trkpt>
      <trkpt lat="47.67924" lon="6.1449">
        <ele>264.2</ele>
        <time>2021-02-23T09:24:24Z</time>
      </trkpt>
      <trkpt lat="47.67928" lon="6.14484">
        <ele>264.3</ele>
        <time>2021-02-23T09:24:28Z</time>
      </trkpt>
      <trkpt lat="47.67932" lon="6.1448">
        <ele>264.4</ele>
        <time>2021-02-23T09:24:30Z</time>
      </trkpt>
      <trkpt lat="47.67937" lon="6.14474">
        <ele>264.5</ele>
        <time>2021-02-23T09:24:32Z</time>
      </trkpt>
      <trkpt lat="47.6794" lon="6.14469">
        <ele>264.6</ele>
        <time>2021-02-23T09:24:33Z</time>
      </trkpt>
      <trkpt lat="47.67943" lon="6.14464">
        <ele>264.6</ele>
        <time>2021-02-23T09:24:33Z</time>
      </trkpt>
      <trkpt lat="47.67948" lon="6.14458">
        <ele>264.7</ele>
        <time>2021-02-23T09:24:35Z</time>
      </trkpt>
      <trkpt lat="47.67952" lon="6.14451">
        <ele>264.8</ele>
        <time>2021-02-23T09:24:37Z</time>
      </trkpt>
      <trkpt lat="47.67956" lon="6.14445">
        <ele>264.8</ele>
        <time>2021-02-23T09:24:41Z</time>
      </trkpt>
      <trkpt lat="47.67962" lon="6.14437">
        <ele>264.9</ele>
        <time>2021-02-23T09:24:42Z</time>
      </trkpt>
      <trkpt lat="47.67965" lon="6.14432">
        <ele>264.9</ele>
        <time>2021-02-23T09:24:46Z</time>
      </trkpt>
      <trkpt lat="47.67969" lon="6.14428">
        <ele>264.9</ele>
        <time>2021-02-23T09:24:48Z</time>
      </trkpt>
      <trkpt lat="47.67974" lon="6.14421">
        <ele>265</ele>
        <time>2021-02-23T09:24:50Z</time>
      </trkpt>
      <trkpt lat="47.67978" lon="6.14415">
        <ele>265</ele>
        <time>2021-02-23T09:24:50Z</time>
      </trkpt>
      <trkpt lat="47.67981" lon="6.1441">
        <ele>265.1</ele>
        <time>2021-02-23T09:24:54Z</time>
      </trkpt>
      <trkpt lat="47.67984" lon="6.14404">
        <ele>265.2</ele>
        <time>2021-02-23T09:24:54Z</time>
      </trkpt>
      <trkpt lat="47.67989" lon="6.14397">
        <ele>265.4</ele>
        <time>2021-02-23T09:24:57Z</time>
      </trkpt>
      <trkpt lat="47.67994" lon="6.14391">
        <ele>265.6</ele>
        <time>2021-02-23T09:25:02Z</time>
      </trkpt>
      <trkpt lat="47.67998" lon="6.14386">
        <ele>265.7</ele>
        <time>2021-02-23T09:25:04Z</time>
      </trkpt>
      <trkpt lat="47.68001" lon="6.14381">
        <ele>265.9</ele>
        <time>2021-02-23T09:25:06Z</time>
      </trkpt>
      <trkpt lat="47.68005" lon="6.14376">
        <ele>266.1</ele>
        <time>2021-02-23T09:25:08Z</time>
      </trkpt>
      <trkpt lat="47.68009" lon="6.1437">
        <ele>266.3</ele>
        <time>2021-02-23T09:25:10Z</time>
      </trkpt>
      <trkpt lat="47.68013" lon="6.14365">
        <ele>266.5</ele>
        <time>2021-02-23T09:25:12Z</time>
      </trkpt>
      <trkpt lat="47.68016" lon="6.1436">
        <ele>266.6</ele>
        <time>2021-02-23T09:25:14Z</time>
      </trkpt>
      <trkpt lat="47.68021" lon="6.14353">
        <ele>266.8</ele>
        <time>2021-02-23T09:25:16Z</time>
      </trkpt>
      <trkpt lat="47.68026" lon="6.14347">
        <ele>267</ele>
        <time>2021-02-23T09:25:19Z</time>
      </trkpt>
      <trkpt lat="47.68031" lon="6.14342">
        <ele>267.2</ele>
        <time>2021-02-23T09:25:19Z</time>
      </trkpt>
      <trkpt lat="47.68036" lon="6.14337">
        <ele>267.4</ele>
        <time>2021-02-23T09:25:24Z</time>
      </trkpt>
      <trkpt lat="47.6804" lon="6.14332">
        <ele>267.5</ele>
        <time>2021-02-23T09:25:24Z</time>
      </trkpt>
      <trkpt lat="47.68045" lon="6.14326">
        <ele>267.6</ele>
        <time>2021-02-23T09:25:29Z</time>
      </trkpt>
      <trkpt lat="47.6805" lon="6.14321">
        <ele>267.8</ele>
        <time>2021-02-23T09:25:31Z</time>
      </trkpt>
      <trkpt lat="47.68054" lon="6.14315">
        <ele>267.9</ele>
        <time>2021-02-23T09:25:33Z</time>
      </trkpt>
      <trkpt lat="47.6806" lon="6.14309">
        <ele>268.1</ele>
        <time>2021-02-23T09:25:36Z</time>
      </trkpt>
      <trkpt lat="47.68063" lon="6.14304">
        <ele>268.3</ele>
        <time>2021-02-23T09:25:38Z</time>
      </trkpt>
      <trkpt lat="47.68067" lon="6.143">
        <ele>268.4</ele>
        <time>2021-02-23T09:25:40Z</time>
      </trkpt>
      <trkpt lat="47.68071" lon="6.14295">
        <ele>268.6</ele>
        <time>2021-02-23T09:25:41Z</time>
      </trkpt>
      <trkpt lat="47.68076" lon="6.14289">
        <ele>268.9</ele>
        <time>2021-02-23T09:25:42Z</time>
      </trkpt>
      <trkpt lat="47.68079" lon="6.14285">
        <ele>269.1</ele>
        <time>2021-02-23T09:25:46Z</time>
      </trkpt>
      <trkpt lat="47.68084" lon="6.14277">
        <ele>269.4</ele>
        <time>2021-02-23T09:25:47Z</time>
      </trkpt>
      <trkpt lat="47.68087" lon="6.14273">
        <ele>269.6</ele>
        <time>2021-02-23T09:25:49Z</time>
      </trkpt>
      <trkpt lat="47.68092" lon="6.14267">
        <ele>269.9</ele>
        <time>2021-02-23T09:25:53Z</time>
      </trkpt>
      <trkpt lat="47.68096" lon="6.14261">
        <ele>270.2</ele>
        <time>2021-02-23T09:25:56Z</time>
      </trkpt>
      <trkpt lat="47.681" lon="6.14256">
        <ele>270.5</ele>
        <time>2021-02-23T09:25:59Z</time>
      </trkpt>
      <trkpt lat="47.68105" lon="6.14251">
        <ele>270.7</ele>
        <time>2021-02-23T09:26:01Z</time>
      </trkpt>
      <trkpt lat="47.68109" lon="6.14247">
        <ele>271</ele>
        <time>2021-02-23T09:26:03Z</time>
      </trkpt>
      <trkpt lat="47.68114" lon="6.14242">
        <ele>271.3</ele>
        <time>2021-02-23T09:26:04Z</time>
      </trkpt>
      <trkpt lat="47.68119" lon="6.14236">
        <ele>271.6</ele>
        <time>2021-02-23T09:26:09Z</time>
      </trkpt>
      <trkpt lat="47.68123" lon="6.14232">
        <ele>271.9</ele>
        <time>2021-02-23T09:26:12Z</time>
      </trkpt>
      <trkpt lat="47.68127" lon="6.14227">
        <ele>272.1</ele>
        <time>2021-02-23T09:26:14Z</time>
      </trkpt>
      <trkpt lat="47.68132" lon="6.14221">
        <ele>272.4</ele>
        <time>2021-02-23T09:26:17Z</time>
      </trkpt>
      <trkpt lat="47.68137" lon="6.14215">
        <ele>272.8</ele>
        <time>2021-02-23T09:26:18Z</time>
      </trkpt>
      <trkpt lat="47.68141" lon="6.1421">
        <ele>273.1</ele>
        <time>2021-02-23T09:26:23Z</time>
      </trkpt>
      <trkpt lat="47.68145" lon="6.14206">
        <ele>273.3</ele>
        <time>2021-02-23T09:26:25Z</time>
      </trkpt>
      <trkpt lat="47.6815" lon="6.14199">
        <ele>273.6</ele>
        <time>2021-02-23T09:26:26Z</time>
      </trkpt>
      <trkpt lat="47.68154" lon="6.14194">
        <ele>273.9</ele>
        <time>2021-02-23T09:26:29Z</time>
      </trkpt>
      <trkpt lat="47.68159" lon="6.1419">
        <ele>274.2</ele>
        <time>2021-02-23T09:26:34Z</time>
      </trkpt>
      <trkpt lat="47.68163" lon="6.14186">
        <ele>274.4</ele>
        <time>2021-02-23T09:26:35Z</time>
      </trkpt>
      <trkpt lat="47.68167" lon="6.1418">
        <ele>274.7</ele>
        <time>2021-02-23T09:26:38Z</time>
      </trkpt>
      <trkpt lat="47.68171" lon="6.14175">
        <ele>274.9</ele>
        <time>2021-02-23T09:26:41Z</time>
      </trkpt>
      <trkpt lat="47.68175" lon="6.1417">
        <ele>275.1</ele>
        <time>2021-02-23T09:26:46Z</time>
      </trkpt>
      <trkpt lat="47.68179" lon="6.14165">
        <ele>275.3</ele>
        <time>2021-02-23T09:26:49Z</time>
      </trkpt>
      <trkpt lat="47.68183" lon="6.14159">
        <ele>275.5</ele>
        <time>2021-02-23T09:26:50Z</time>
      </trkpt>
      <trkpt lat="47.68187" lon="6.14154">
        <ele>275.7</ele>
        <time>2021-02-23T09:26:53Z</time>
      </trkpt>
      <trkpt lat="47.68191" lon="6.14148">
        <ele>275.9</ele>
        <time>2021-02-23T09:26:56Z</time>
      </trkpt>
      <trkpt lat="47.68196" lon="6.14142">
        <ele>276.1</ele>
        <time>2021-02-23T09:26:59Z</time>
      </trkpt>
      <trkpt lat="47.682" lon="6.14136">
        <ele>276.3</ele>
        <time>2021-02-23T09:27:02Z</time>
      </trkpt>
      <trkpt lat="47.68204" lon="6.1413">
        <ele>276.5</ele>
        <time>2021-02-23T09:27:05Z</time>
      </trkpt>
      <trkpt lat="47.68208" lon="6.14123">
        <ele>276.8</ele>
        <time>2021-02-23T09:27:08Z</time>
      </trkpt>
      <trkpt lat="47.68212" lon="6.14119">
        <ele>277</ele>
        <time>2021-02-23T09:27:13Z</time>
      </trkpt>
      <trkpt lat="47.68215" lon="6.14114">
        <ele>277.2</ele>
        <time>2021-02-23T09:27:15Z</time>
      </trkpt>
      <trkpt lat="47.6822" lon="6.14108">
        <ele>277.4</ele>
        <time>2021-02-23T09:27:16Z</time>
      </trkpt>
      <trkpt lat="47.68224" lon="6.14101">
        <ele>277.7</ele>
        <time>2021-02-23T09:27:19Z</time>
      </trkpt>
      <trkpt lat="47.68228" lon="6.14095">
        <ele>278</ele>
        <time>2021-02-23T09:27:22Z</time>
      </trkpt>
      <trkpt lat="47.68232" lon="6.1409">
        <ele>278.2</ele>
        <time>2021-02-23T09:27:27Z</time>
      </trkpt>
      <trkpt lat="47.68236" lon="6.14083">
        <ele>278.5</ele>
        <time>2021-02-23T09:27:30Z</time>
      </trkpt>
      <trkpt lat="47.68239" lon="6.14078">
        <ele>278.6</ele>
        <time>2021-02-23T09:27:32Z</time>
      </trkpt>
      <trkpt lat="47.68243" lon="6.14071">
        <ele>278.7</ele>
        <time>2021-02-23T09:27:35Z</time>
      </trkpt>
      <trkpt lat="47.68247" lon="6.14064">
        <ele>278.9</ele>
        <time>2021-02-23T09:27:38Z</time>
      </trkpt>
      <trkpt lat="47.68251" lon="6.14056">
        <ele>279</ele>
        <time>2021-02-23T09:27:41Z</time>
      </trkpt>
      <trkpt lat="47.68254" lon="6.1405">
        <ele>279.2</ele>
        <time>2021-02-23T09:27:41Z</time>
      </trkpt>
      <trkpt lat="47.68258" lon="6.14043">
        <ele>279.3</ele>
        <time>2021-02-23T09:27:44Z</time>
      </trkpt>
      <trkpt lat="47.68261" lon="6.14037">
        <ele>279.5</ele>
        <time>2021-02-23T09:27:46Z</time>
      </trkpt>
      <trkpt lat="47.68264" lon="6.14029">
        <ele>279.6</ele>
        <time>2021-02-23T09:27:49Z</time>
      </trkpt>
      <trkpt lat="47.68268" lon="6.14023">
        <ele>279.8</ele>
        <time>2021-02-23T09:27:54Z</time>
      </trkpt>
      <trkpt lat="47.68271" lon="6.14017">
        <ele>279.9</ele>
        <time>2021-02-23T09:27:54Z</time>
      </trkpt>
      <trkpt lat="47.68273" lon="6.14012">
        <ele>280.1</ele>
        <time>2021-02-23T09:27:56Z</time>
      </trkpt>
      <trkpt lat="47.68276" lon="6.14006">
        <ele>280.2</ele>
        <time>2021-02-23T09:28:01Z</time>
      </trkpt>
      <trkpt lat="47.68279" lon="6.14">
        <ele>280.4</ele>
        <time>2021-02-23T09:28:01Z</time>
      </trkpt>
      <trkpt lat="47.68283" lon="6.13993">
        <ele>280.6</ele>
        <time>2021-02-23T09:28:06Z</time>
      </trkpt>
      <trkpt lat="47.68286" lon="6.13987">
        <ele>280.7</ele>
        <time>2021-02-23T09:28:08Z</time>
      </trkpt>
      <trkpt lat="47.68289" lon="6.13982">
        <ele>280.8</ele>
        <time>2021-02-23T09:28:08Z</time>
      </trkpt>
      <trkpt lat="47.68292" lon="6.13975">
        <ele>280.9</ele>
        <time>2021-02-23T09:28:12Z</time>
      </trkpt>
      <trkpt lat="47.68296" lon="6.13968">
        <ele>281</ele>
        <time>2021-02-23T09:28:15Z</time>
      </trkpt>
      <trkpt lat="47.683" lon="6.1396">
        <ele>281.1</ele>
        <time>2021-02-23T09:28:16Z</time>
      </trkpt>
      <trkpt lat="47.68304" lon="6.13953">
        <ele>281.2</ele>
        <time>2021-02-23T09:28:19Z</time>
      </trkpt>
      <trkpt lat="47.68308" lon="6.13946">
        <ele>281.4</ele>
        <time>2021-02-23T09:28:24Z</time>
      </trkpt>
      <trkpt lat="47.68312" lon="6.13941">
        <ele>281.5</ele>
        <time>2021-02-23T09:28:27Z</time>
      </trkpt>
      <trkpt lat="47.68316" lon="6.13936">
        <ele>281.5</ele>
        <time>2021-02-23T09:28:27Z</time>
      </trkpt>
      <trkpt lat="47.6832" lon="6.1393">
        <ele>281.7</ele>
        <time>2021-02-23T09:28:32Z</time>
      </trkpt>
      <trkpt lat="47.68325" lon="6.13924">
        <ele>281.8</ele>
        <time>2021-02-23T09:28:33Z</time>
      </trkpt>
      <trkpt lat="47.68329" lon="6.13918">
        <ele>281.9</ele>
        <time>2021-02-23T09:28:38Z</time>
      </trkpt>
      <trkpt lat="47.68334" lon="6.13912">
        <ele>282</ele>
        <time>2021-02-23T09:28:41Z</time>
      </trkpt>
      <trkpt lat="47.68337" lon="6.13907">
        <ele>282</ele>
        <time>2021-02-23T09:28:43Z</time>
      </trkpt>
      <trkpt lat="47.68341" lon="6.13903">
        <ele>282.1</ele>
        <time>2021-02-23T09:28:43Z</time>
      </trkpt>
      <trkpt lat="47.68345" lon="6.13897">
        <ele>282.2</ele>
        <time>2021-02-23T09:28:48Z</time>
      </trkpt>
      <trkpt lat="47.68348" lon="6.13892">
        <ele>282.3</ele>
        <time>2021-02-23T09:28:48Z</time>
      </trkpt>
      <trkpt lat="47.68352" lon="6.13887">
        <ele>282.5</ele>
        <time>2021-02-23T09:28:53Z</time>
      </trkpt>
      <trkpt lat="47.68355" lon="6.13881">
        <ele>282.6</ele>
        <time>2021-02-23T09:28:53Z</time>
      </trkpt>
      <trkpt lat="47.68359" lon="6.13875">
        <ele>282.8</ele>
        <time>2021-02-23T09:28:58Z</time>
      </trkpt>
      <trkpt lat="47.68364" lon="6.1387">
        <ele>283</ele>
        <time>2021-02-23T09:29:01Z</time>
      </trkpt>
      <trkpt lat="47.68369" lon="6.13864">
        <ele>283.2</ele>
        <time>2021-02-23T09:29:02Z</time>
      </trkpt>
      <trkpt lat="47.68373" lon="6.13858">
        <ele>283.4</ele>
        <time>2021-02-23T09:29:05Z</time>
      </trkpt>
      <trkpt lat="47.68377" lon="6.13853">
        <ele>283.6</ele>
        <time>2021-02-23T09:29:09Z</time>
      </trkpt>
      <trkpt lat="47.68381" lon="6.13848">
        <ele>283.9</ele>
        <time>2021-02-23T09:29:12Z</time>
      </trkpt>
      <trkpt lat="47.68386" lon="6.13844">
        <ele>284.1</ele>
        <time>2021-02-23T09:29:12Z</time>
      </trkpt>
      <trkpt lat="47.68392" lon="6.13845">
        <ele>284.4</ele>
        <time>2021-02-23T09:29:17Z</time>
      </trkpt>
      <trkpt lat="47.68396" lon="6.13846">
        <ele>284.7</ele>
        <time>2021-02-23T09:29:17Z</time>
      </trkpt>
      <trkpt lat="47.684" lon="6.1385">
        <ele>284.9</ele>
        <time>2021-02-23T09:29:20Z</time>
      </trkpt>
      <trkpt lat="47.68404" lon="6.13857">
        <ele>285</ele>
        <time>2021-02-23T09:29:25Z</time>
      </trkpt>
      <trkpt lat="47.68407" lon="6.13863">
        <ele>285.1</ele>
        <time>2021-02-23T09:29:26Z</time>
      </trkpt>
      <trkpt lat="47.6841" lon="6.13869">
        <ele>285.2</ele>
        <time>2021-02-23T09:29:31Z</time>
      </trkpt>
      <trkpt lat="47.68413" lon="6.13875">
        <ele>285.3</ele>
        <time>2021-02-23T09:29:34Z</time>
      </trkpt>
      <trkpt lat="47.68416" lon="6.1388">
        <ele>285.4</ele>
        <time>2021-02-23T09:29:36Z</time>
      </trkpt>
      <trkpt lat="47.68419" lon="6.13887">
        <ele>285.4</ele>
        <time>2021-02-23T09:29:38Z</time>
      </trkpt>
      <trkpt lat="47.68422" lon="6.13894">
        <ele>285.5</ele>
        <time>2021-02-23T09:29:41Z</time>
      </trkpt>
      <trkpt lat="47.68426" lon="6.139">
        <ele>285.5</ele>
        <time>2021-02-23T09:29:44Z</time>
      </trkpt>
      <trkpt lat="47.68429" lon="6.13907">
        <ele>285.5</ele>
        <time>2021-02-23T09:29:44Z</time>
      </trkpt>
      <trkpt lat="47.68432" lon="6.13913">
        <ele>285.6</ele>
        <time>2021-02-23T09:29:49Z</time>
      </trkpt>
      <trkpt lat="47.68434" lon="6.13919">
        <ele>285.6</ele>
        <time>2021-02-23T09:29:51Z</time>
      </trkpt>
      <trkpt lat="47.68437" lon="6.13925">
        <ele>285.6</ele>
        <time>2021-02-23T09:29:53Z</time>
      </trkpt>
      <trkpt lat="47.6844" lon="6.13932">
        <ele>285.6</ele>
        <time>2021-02-23T09:29:53Z</time>
      </trkpt>
      <trkpt lat="47.68444" lon="6.1394">
        <ele>285.5</ele>
        <time>2021-02-23T09:29:58Z</time>
      </trkpt>
      <trkpt lat="47.68446" lon="6.13946">
        <ele>285.4</ele>
        <time>2021-02-23T09:30:01Z</time>
      </trkpt>
      <trkpt lat="47.68449" lon="6.13953">
        <ele>285.4</ele>
        <time>2021-02-23T09:30:01Z</time>
      </trkpt>
      <trkpt lat="47.68452" lon="6.13959">
        <ele>285.3</ele>
        <time>2021-02-23T09:30:06Z</time>
      </trkpt>
      <trkpt lat="47.68454" lon="6.13966">
        <ele>285.2</ele>
        <time>2021-02-23T09:30:08Z</time>
      </trkpt>
      <trkpt lat="47.68456" lon="6.13972">
        <ele>285.1</ele>
        <time>2021-02-23T09:30:10Z</time>
      </trkpt>
      <trkpt lat="47.6846" lon="6.13979">
        <ele>285</ele>
        <time>2021-02-23T09:30:10Z</time>
      </trkpt>
      <trkpt lat="47.68463" lon="6.13987">
        <ele>284.9</ele>
        <time>2021-02-23T09:30:15Z</time>
      </trkpt>
      <trkpt lat="47.68465" lon="6.13993">
        <ele>284.8</ele>
        <time>2021-02-23T09:30:17Z</time>
      </trkpt>
      <trkpt lat="47.68468" lon="6.14">
        <ele>284.6</ele>
        <time>2021-02-23T09:30:19Z</time>
      </trkpt>
      <trkpt lat="47.68472" lon="6.14009">
        <ele>284.6</ele>
        <time>2021-02-23T09:30:21Z</time>
      </trkpt>
      <trkpt lat="47.68476" lon="6.14018">
        <ele>284.5</ele>
        <time>2021-02-23T09:30:24Z</time>
      </trkpt>
      <trkpt lat="47.68479" lon="6.14026">
        <ele>284.4</ele>
        <time>2021-02-23T09:30:26Z</time>
      </trkpt>
      <trkpt lat="47.68483" lon="6.14033">
        <ele>284.4</ele>
        <time>2021-02-23T09:30:28Z</time>
      </trkpt>
      <trkpt lat="47.68486" lon="6.14041">
        <ele>284.3</ele>
        <time>2021-02-23T09:30:30Z</time>
      </trkpt>
      <trkpt lat="47.6849" lon="6.14048">
        <ele>284.3</ele>
        <time>2021-02-23T09:30:31Z</time>
      </trkpt>
      <trkpt lat="47.68495" lon="6.14059">
        <ele>284.2</ele>
        <time>2021-02-23T09:30:34Z</time>
      </trkpt>
      <trkpt lat="47.68499" lon="6.14067">
        <ele>284.2</ele>
        <time>2021-02-23T09:30:36Z</time>
      </trkpt>
      <trkpt lat="47.68504" lon="6.14077">
        <ele>284.2</ele>
        <time>2021-02-23T09:30:36Z</time>
      </trkpt>
      <trkpt lat="47.68509" lon="6.14086">
        <ele>284.3</ele>
        <time>2021-02-23T09:30:40Z</time>
      </trkpt>
      <trkpt lat="47.68513" lon="6.14094">
        <ele>284.2</ele>
        <time>2021-02-23T09:30:42Z</time>
      </trkpt>
      <trkpt lat="47.68517" lon="6.14099">
        <ele>284.2</ele>
        <time>2021-02-23T09:30:43Z</time>
      </trkpt>
      <trkpt lat="47.68522" lon="6.14109">
        <ele>284.2</ele>
        <time>2021-02-23T09:30:43Z</time>
      </trkpt>
      <trkpt lat="47.68526" lon="6.14115">
        <ele>284.2</ele>
        <time>2021-02-23T09:30:47Z</time>
      </trkpt>
      <trkpt lat="47.68534" lon="6.1413">
        <ele>284.1</ele>
        <time>2021-02-23T09:30:50Z</time>
      </trkpt>
      <trkpt lat="47.68537" lon="6.14138">
        <ele>284</ele>
        <time>2021-02-23T09:30:52Z</time>
      </trkpt>
      <trkpt lat="47.68541" lon="6.14144">
        <ele>284</ele>
        <time>2021-02-23T09:30:53Z</time>
      </trkpt>
      <trkpt lat="47.68546" lon="6.14154">
        <ele>284</ele>
        <time>2021-02-23T09:30:55Z</time>
      </trkpt>
      <trkpt lat="47.68548" lon="6.14159">
        <ele>283.9</ele>
        <time>2021-02-23T09:30:56Z</time>
      </trkpt>
      <trkpt lat="47.68554" lon="6.1417">
        <ele>283.9</ele>
        <time>2021-02-23T09:30:56Z</time>
      </trkpt>
      <trkpt lat="47.68557" lon="6.14176">
        <ele>283.9</ele>
        <time>2021-02-23T09:30:57Z</time>
      </trkpt>
      <trkpt lat="47.68561" lon="6.14184">
        <ele>283.9</ele>
        <time>2021-02-23T09:31:00Z</time>
      </trkpt>
      <trkpt lat="47.68565" lon="6.14191">
        <ele>283.8</ele>
        <time>2021-02-23T09:31:02Z</time>
      </trkpt>
      <trkpt lat="47.68575" lon="6.14209">
        <ele>283.7</ele>
        <time>2021-02-23T09:31:02Z</time>
      </trkpt>
      <trkpt lat="47.68578" lon="6.14215">
        <ele>283.7</ele>
        <time>2021-02-23T09:31:03Z</time>
      </trkpt>
      <trkpt lat="47.68582" lon="6.14221">
        <ele>283.6</ele>
        <time>2021-02-23T09:31:04Z</time>
      </trkpt>
      <trkpt lat="47.68585" lon="6.14227">
        <ele>283.6</ele>
        <time>2021-02-23T09:31:05Z</time>
      </trkpt>
      <trkpt lat="47.68588" lon="6.14232">
        <ele>283.4</ele>
        <time>2021-02-23T09:31:06Z</time>
      </trkpt>
      <trkpt lat="47.68591" lon="6.14238">
        <ele>283.3</ele>
        <time>2021-02-23T09:31:07Z</time>
      </trkpt>
      <trkpt lat="47.68594" lon="6.14244">
        <ele>283.2</ele>
        <time>2021-02-23T09:31:09Z</time>
      </trkpt>
      <trkpt lat="47.68597" lon="6.14249">
        <ele>283</ele>
        <time>2021-02-23T09:31:10Z</time>
      </trkpt>
      <trkpt lat="47.68599" lon="6.14255">
        <ele>283</ele>
        <time>2021-02-23T09:31:11Z</time>
      </trkpt>
      <trkpt lat="47.68602" lon="6.1426">
        <ele>282.9</ele>
        <time>2021-02-23T09:31:12Z</time>
      </trkpt>
      <trkpt lat="47.68605" lon="6.14266">
        <ele>282.9</ele>
        <time>2021-02-23T09:31:13Z</time>
      </trkpt>
      <trkpt lat="47.68608" lon="6.14272">
        <ele>282.8</ele>
        <time>2021-02-23T09:31:14Z</time>
      </trkpt>
      <trkpt lat="47.6861" lon="6.14277">
        <ele>282.8</ele>
        <time>2021-02-23T09:31:15Z</time>
      </trkpt>
      <trkpt lat="47.68616" lon="6.14289">
        <ele>282.7</ele>
        <time>2021-02-23T09:31:17Z</time>
      </trkpt>
      <trkpt lat="47.68618" lon="6.14295">
        <ele>282.7</ele>
        <time>2021-02-23T09:31:18Z</time>
      </trkpt>
      <trkpt lat="47.68621" lon="6.14301">
        <ele>282.7</ele>
        <time>2021-02-23T09:31:19Z</time>
      </trkpt>
      <trkpt lat="47.68623" lon="6.14307">
        <ele>282.6</ele>
        <time>2021-02-23T09:31:20Z</time>
      </trkpt>
      <trkpt lat="47.68626" lon="6.14314">
        <ele>282.6</ele>
        <time>2021-02-23T09:31:21Z</time>
      </trkpt>
      <trkpt lat="47.68629" lon="6.14321">
        <ele>282.6</ele>
        <time>2021-02-23T09:31:22Z</time>
      </trkpt>
      <trkpt lat="47.68631" lon="6.14327">
        <ele>282.6</ele>
        <time>2021-02-23T09:31:23Z</time>
      </trkpt>
      <trkpt lat="47.68633" lon="6.14333">
        <ele>282.6</ele>
        <time>2021-02-23T09:31:24Z</time>
      </trkpt>
      <trkpt lat="47.68636" lon="6.1434">
        <ele>282.4</ele>
        <time>2021-02-23T09:31:25Z</time>
      </trkpt>
      <trkpt lat="47.68638" lon="6.14346">
        <ele>282.3</ele>
        <time>2021-02-23T09:31:26Z</time>
      </trkpt>
      <trkpt lat="47.6864" lon="6.14353">
        <ele>282.1</ele>
        <time>2021-02-23T09:31:27Z</time>
      </trkpt>
      <trkpt lat="47.68642" lon="6.14359">
        <ele>282</ele>
        <time>2021-02-23T09:31:28Z</time>
      </trkpt>
      <trkpt lat="47.68645" lon="6.14366">
        <ele>281.9</ele>
        <time>2021-02-23T09:31:29Z</time>
      </trkpt>
      <trkpt lat="47.68647" lon="6.14372">
        <ele>281.7</ele>
        <time>2021-02-23T09:31:30Z</time>
      </trkpt>
      <trkpt lat="47.6865" lon="6.14379">
        <ele>281.6</ele>
        <time>2021-02-23T09:31:31Z</time>
      </trkpt>
      <trkpt lat="47.68652" lon="6.14385">
        <ele>281.5</ele>
        <time>2021-02-23T09:31:32Z</time>
      </trkpt>
      <trkpt lat="47.68654" lon="6.14391">
        <ele>281.4</ele>
        <time>2021-02-23T09:31:33Z</time>
      </trkpt>
      <trkpt lat="47.68657" lon="6.14397">
        <ele>281.3</ele>
        <time>2021-02-23T09:31:34Z</time>
      </trkpt>
      <trkpt lat="47.68662" lon="6.14408">
        <ele>281.1</ele>
        <time>2021-02-23T09:31:36Z</time>
      </trkpt>
      <trkpt lat="47.68664" lon="6.14414">
        <ele>281</ele>
        <time>2021-02-23T09:31:37Z</time>
      </trkpt>
      <trkpt lat="47.68668" lon="6.14426">
        <ele>280.8</ele>
        <time>2021-02-23T09:31:39Z</time>
      </trkpt>
      <trkpt lat="47.68672" lon="6.14437">
        <ele>280.7</ele>
        <time>2021-02-23T09:31:41Z</time>
      </trkpt>
      <trkpt lat="47.68676" lon="6.14449">
        <ele>280.6</ele>
        <time>2021-02-23T09:31:43Z</time>
      </trkpt>
      <trkpt lat="47.6868" lon="6.1446">
        <ele>280.5</ele>
        <time>2021-02-23T09:31:45Z</time>
      </trkpt>
      <trkpt lat="47.68684" lon="6.1447">
        <ele>280.3</ele>
        <time>2021-02-23T09:31:47Z</time>
      </trkpt>
      <trkpt lat="47.68687" lon="6.14479">
        <ele>280.3</ele>
        <time>2021-02-23T09:31:49Z</time>
      </trkpt>
      <trkpt lat="47.68691" lon="6.14488">
        <ele>280.2</ele>
        <time>2021-02-23T09:31:51Z</time>
      </trkpt>
      <trkpt lat="47.68693" lon="6.14494">
        <ele>280.1</ele>
        <time>2021-02-23T09:31:52Z</time>
      </trkpt>
      <trkpt lat="47.68696" lon="6.14503">
        <ele>280.1</ele>
        <time>2021-02-23T09:31:54Z</time>
      </trkpt>
      <trkpt lat="47.68701" lon="6.14513">
        <ele>280.2</ele>
        <time>2021-02-23T09:31:57Z</time>
      </trkpt>
      <trkpt lat="47.68703" lon="6.14519">
        <ele>280.2</ele>
        <time>2021-02-23T09:31:59Z</time>
      </trkpt>
      <trkpt lat="47.68708" lon="6.14531">
        <ele>280.3</ele>
        <time>2021-02-23T09:32:01Z</time>
      </trkpt>
      <trkpt lat="47.6871" lon="6.14537">
        <ele>280.3</ele>
        <time>2021-02-23T09:32:02Z</time>
      </trkpt>
      <trkpt lat="47.68714" lon="6.14547">
        <ele>280.4</ele>
        <time>2021-02-23T09:32:03Z</time>
      </trkpt>
      <trkpt lat="47.68717" lon="6.14553">
        <ele>280.4</ele>
        <time>2021-02-23T09:32:05Z</time>
      </trkpt>
      <trkpt lat="47.68723" lon="6.14571">
        <ele>280.4</ele>
        <time>2021-02-23T09:32:08Z</time>
      </trkpt>
      <trkpt lat="47.68725" lon="6.14578">
        <ele>280.4</ele>
        <time>2021-02-23T09:32:09Z</time>
      </trkpt>
      <trkpt lat="47.68728" lon="6.14588">
        <ele>280.4</ele>
        <time>2021-02-23T09:32:11Z</time>
      </trkpt>
      <trkpt lat="47.6873" lon="6.14594">
        <ele>280.3</ele>
        <time>2021-02-23T09:32:12Z</time>
      </trkpt>
      <trkpt lat="47.68735" lon="6.14607">
        <ele>280.1</ele>
        <time>2021-02-23T09:32:13Z</time>
      </trkpt>
      <trkpt lat="47.68738" lon="6.14617">
        <ele>280</ele>
        <time>2021-02-23T09:32:16Z</time>
      </trkpt>
      <trkpt lat="47.68745" lon="6.14635">
        <ele>279.7</ele>
        <time>2021-02-23T09:32:19Z</time>
      </trkpt>
      <trkpt lat="47.68748" lon="6.14641">
        <ele>279.6</ele>
        <time>2021-02-23T09:32:20Z</time>
      </trkpt>
      <trkpt lat="47.68755" lon="6.14658">
        <ele>279.1</ele>
        <time>2021-02-23T09:32:23Z</time>
      </trkpt>
      <trkpt lat="47.68759" lon="6.14669">
        <ele>278.9</ele>
        <time>2021-02-23T09:32:25Z</time>
      </trkpt>
      <trkpt lat="47.68766" lon="6.14686">
        <ele>278.7</ele>
        <time>2021-02-23T09:32:26Z</time>
      </trkpt>
      <trkpt lat="47.68768" lon="6.14692">
        <ele>278.7</ele>
        <time>2021-02-23T09:32:27Z</time>
      </trkpt>
      <trkpt lat="47.6877" lon="6.14698">
        <ele>278.6</ele>
        <time>2021-02-23T09:32:28Z</time>
      </trkpt>
      <trkpt lat="47.68772" lon="6.14704">
        <ele>278.5</ele>
        <time>2021-02-23T09:32:29Z</time>
      </trkpt>
      <trkpt lat="47.68774" lon="6.1471">
        <ele>278.4</ele>
        <time>2021-02-23T09:32:30Z</time>
      </trkpt>
      <trkpt lat="47.68776" lon="6.14717">
        <ele>278.3</ele>
        <time>2021-02-23T09:32:31Z</time>
      </trkpt>
      <trkpt lat="47.68778" lon="6.14723">
        <ele>278.2</ele>
        <time>2021-02-23T09:32:32Z</time>
      </trkpt>
      <trkpt lat="47.6878" lon="6.14729">
        <ele>278.1</ele>
        <time>2021-02-23T09:32:33Z</time>
      </trkpt>
      <trkpt lat="47.68782" lon="6.14736">
        <ele>278</ele>
        <time>2021-02-23T09:32:34Z</time>
      </trkpt>
      <trkpt lat="47.68784" lon="6.14742">
        <ele>277.8</ele>
        <time>2021-02-23T09:32:35Z</time>
      </trkpt>
      <trkpt lat="47.68787" lon="6.14748">
        <ele>277.7</ele>
        <time>2021-02-23T09:32:36Z</time>
      </trkpt>
      <trkpt lat="47.68789" lon="6.14754">
        <ele>277.5</ele>
        <time>2021-02-23T09:32:37Z</time>
      </trkpt>
      <trkpt lat="47.68791" lon="6.1476">
        <ele>277.4</ele>
        <time>2021-02-23T09:32:38Z</time>
      </trkpt>
      <trkpt lat="47.68796" lon="6.14772">
        <ele>277.1</ele>
        <time>2021-02-23T09:32:40Z</time>
      </trkpt>
      <trkpt lat="47.688" lon="6.14783">
        <ele>276.8</ele>
        <time>2021-02-23T09:32:42Z</time>
      </trkpt>
      <trkpt lat="47.68804" lon="6.14795">
        <ele>276.5</ele>
        <time>2021-02-23T09:32:44Z</time>
      </trkpt>
      <trkpt lat="47.68808" lon="6.14806">
        <ele>276.2</ele>
        <time>2021-02-23T09:32:46Z</time>
      </trkpt>
      <trkpt lat="47.68811" lon="6.14812">
        <ele>276.1</ele>
        <time>2021-02-23T09:32:47Z</time>
      </trkpt>
      <trkpt lat="47.68813" lon="6.14818">
        <ele>275.9</ele>
        <time>2021-02-23T09:32:48Z</time>
      </trkpt>
      <trkpt lat="47.68815" lon="6.14825">
        <ele>275.8</ele>
        <time>2021-02-23T09:32:49Z</time>
      </trkpt>
      <trkpt lat="47.68818" lon="6.14831">
        <ele>275.6</ele>
        <time>2021-02-23T09:32:50Z</time>
      </trkpt>
      <trkpt lat="47.6882" lon="6.14837">
        <ele>275.5</ele>
        <time>2021-02-23T09:32:51Z</time>
      </trkpt>
      <trkpt lat="47.68822" lon="6.14844">
        <ele>275.5</ele>
        <time>2021-02-23T09:32:52Z</time>
      </trkpt>
      <trkpt lat="47.68825" lon="6.14851">
        <ele>275.5</ele>
        <time>2021-02-23T09:32:53Z</time>
      </trkpt>
      <trkpt lat="47.68827" lon="6.14858">
        <ele>275.5</ele>
        <time>2021-02-23T09:32:54Z</time>
      </trkpt>
      <trkpt lat="47.6883" lon="6.14865">
        <ele>275.5</ele>
        <time>2021-02-23T09:32:55Z</time>
      </trkpt>
      <trkpt lat="47.68832" lon="6.14872">
        <ele>275.5</ele>
        <time>2021-02-23T09:32:56Z</time>
      </trkpt>
      <trkpt lat="47.68833" lon="6.14878">
        <ele>275.5</ele>
        <time>2021-02-23T09:32:57Z</time>
      </trkpt>
      <trkpt lat="47.68834" lon="6.14885">
        <ele>275.5</ele>
        <time>2021-02-23T09:32:58Z</time>
      </trkpt>
      <trkpt lat="47.68835" lon="6.14897">
        <ele>275.6</ele>
        <time>2021-02-23T09:33:00Z</time>
      </trkpt>
      <trkpt lat="47.68835" lon="6.14908">
        <ele>275.8</ele>
        <time>2021-02-23T09:33:02Z</time>
      </trkpt>
      <trkpt lat="47.68834" lon="6.14916">
        <ele>276</ele>
        <time>2021-02-23T09:33:04Z</time>
      </trkpt>
      <trkpt lat="47.68833" lon="6.14926">
        <ele>275.9</ele>
        <time>2021-02-23T09:33:06Z</time>
      </trkpt>
      <trkpt lat="47.68832" lon="6.14935">
        <ele>275.8</ele>
        <time>2021-02-23T09:33:08Z</time>
      </trkpt>
      <trkpt lat="47.6883" lon="6.14953">
        <ele>275.6</ele>
        <time>2021-02-23T09:33:11Z</time>
      </trkpt>
      <trkpt lat="47.68829" lon="6.14961">
        <ele>275.5</ele>
        <time>2021-02-23T09:33:13Z</time>
      </trkpt>
      <trkpt lat="47.68828" lon="6.1497">
        <ele>275.4</ele>
        <time>2021-02-23T09:33:16Z</time>
      </trkpt>
      <trkpt lat="47.68828" lon="6.14977">
        <ele>275.3</ele>
        <time>2021-02-23T09:33:18Z</time>
      </trkpt>
      <trkpt lat="47.68827" lon="6.14988">
        <ele>275.2</ele>
        <time>2021-02-23T09:33:20Z</time>
      </trkpt>
      <trkpt lat="47.68826" lon="6.14997">
        <ele>275.1</ele>
        <time>2021-02-23T09:33:22Z</time>
      </trkpt>
      <trkpt lat="47.68824" lon="6.15007">
        <ele>275</ele>
        <time>2021-02-23T09:33:23Z</time>
      </trkpt>
      <trkpt lat="47.68822" lon="6.15017">
        <ele>274.9</ele>
        <time>2021-02-23T09:33:25Z</time>
      </trkpt>
      <trkpt lat="47.68821" lon="6.15025">
        <ele>274.8</ele>
        <time>2021-02-23T09:33:28Z</time>
      </trkpt>
      <trkpt lat="47.68821" lon="6.15035">
        <ele>274.7</ele>
        <time>2021-02-23T09:33:30Z</time>
      </trkpt>
      <trkpt lat="47.6882" lon="6.15046">
        <ele>274.5</ele>
        <time>2021-02-23T09:33:32Z</time>
      </trkpt>
      <trkpt lat="47.6882" lon="6.15056">
        <ele>274.4</ele>
        <time>2021-02-23T09:33:34Z</time>
      </trkpt>
      <trkpt lat="47.6882" lon="6.15068">
        <ele>274.2</ele>
        <time>2021-02-23T09:33:35Z</time>
      </trkpt>
      <trkpt lat="47.6882" lon="6.15078">
        <ele>274.1</ele>
        <time>2021-02-23T09:33:38Z</time>
      </trkpt>
      <trkpt lat="47.68822" lon="6.15096">
        <ele>273.6</ele>
        <time>2021-02-23T09:33:41Z</time>
      </trkpt>
      <trkpt lat="47.68823" lon="6.15108">
        <ele>273.3</ele>
        <time>2021-02-23T09:33:43Z</time>
      </trkpt>
      <trkpt lat="47.68824" lon="6.15121">
        <ele>273</ele>
        <time>2021-02-23T09:33:45Z</time>
      </trkpt>
      <trkpt lat="47.68824" lon="6.15132">
        <ele>272.7</ele>
        <time>2021-02-23T09:33:47Z</time>
      </trkpt>
      <trkpt lat="47.68826" lon="6.15145">
        <ele>272.4</ele>
        <time>2021-02-23T09:33:49Z</time>
      </trkpt>
      <trkpt lat="47.68827" lon="6.15153">
        <ele>272.2</ele>
        <time>2021-02-23T09:33:50Z</time>
      </trkpt>
      <trkpt lat="47.68828" lon="6.15166">
        <ele>271.9</ele>
        <time>2021-02-23T09:33:52Z</time>
      </trkpt>
      <trkpt lat="47.68829" lon="6.15177">
        <ele>271.6</ele>
        <time>2021-02-23T09:33:54Z</time>
      </trkpt>
      <trkpt lat="47.6883" lon="6.15184">
        <ele>271.5</ele>
        <time>2021-02-23T09:33:55Z</time>
      </trkpt>
      <trkpt lat="47.68831" lon="6.15192">
        <ele>271.3</ele>
        <time>2021-02-23T09:33:56Z</time>
      </trkpt>
      <trkpt lat="47.68831" lon="6.15201">
        <ele>271.1</ele>
        <time>2021-02-23T09:33:57Z</time>
      </trkpt>
      <trkpt lat="47.68832" lon="6.15211">
        <ele>270.9</ele>
        <time>2021-02-23T09:33:59Z</time>
      </trkpt>
      <trkpt lat="47.68833" lon="6.15226">
        <ele>270.6</ele>
        <time>2021-02-23T09:34:01Z</time>
      </trkpt>
      <trkpt lat="47.68834" lon="6.15234">
        <ele>270.4</ele>
        <time>2021-02-23T09:34:03Z</time>
      </trkpt>
      <trkpt lat="47.68836" lon="6.15248">
        <ele>270.1</ele>
        <time>2021-02-23T09:34:05Z</time>
      </trkpt>
      <trkpt lat="47.68839" lon="6.15257">
        <ele>269.8</ele>
        <time>2021-02-23T09:34:07Z</time>
      </trkpt>
      <trkpt lat="47.68841" lon="6.15265">
        <ele>269.4</ele>
        <time>2021-02-23T09:34:08Z</time>
      </trkpt>
      <trkpt lat="47.68848" lon="6.15292">
        <ele>267.7</ele>
        <time>2021-02-23T09:34:10Z</time>
      </trkpt>
      <trkpt lat="47.6885" lon="6.15301">
        <ele>267.1</ele>
        <time>2021-02-23T09:34:11Z</time>
      </trkpt>
      <trkpt lat="47.68851" lon="6.15312">
        <ele>266.3</ele>
        <time>2021-02-23T09:34:12Z</time>
      </trkpt>
      <trkpt lat="47.68852" lon="6.15323">
        <ele>265.5</ele>
        <time>2021-02-23T09:34:13Z</time>
      </trkpt>
      <trkpt lat="47.68854" lon="6.15334">
        <ele>264.7</ele>
        <time>2021-02-23T09:34:14Z</time>
      </trkpt>
      <trkpt lat="47.68856" lon="6.15345">
        <ele>264.4</ele>
        <time>2021-02-23T09:34:15Z</time>
      </trkpt>
      <trkpt lat="47.68858" lon="6.15355">
        <ele>264.1</ele>
        <time>2021-02-23T09:34:16Z</time>
      </trkpt>
      <trkpt lat="47.68861" lon="6.15364">
        <ele>263.7</ele>
        <time>2021-02-23T09:34:17Z</time>
      </trkpt>
      <trkpt lat="47.68864" lon="6.15374">
        <ele>263.3</ele>
        <time>2021-02-23T09:34:18Z</time>
      </trkpt>
      <trkpt lat="47.68867" lon="6.15384">
        <ele>262.8</ele>
        <time>2021-02-23T09:34:19Z</time>
      </trkpt>
      <trkpt lat="47.68871" lon="6.15395">
        <ele>262</ele>
        <time>2021-02-23T09:34:20Z</time>
      </trkpt>
      <trkpt lat="47.68876" lon="6.15407">
        <ele>261.2</ele>
        <time>2021-02-23T09:34:21Z</time>
      </trkpt>
      <trkpt lat="47.68879" lon="6.15419">
        <ele>260.5</ele>
        <time>2021-02-23T09:34:22Z</time>
      </trkpt>
      <trkpt lat="47.68881" lon="6.15432">
        <ele>259.9</ele>
        <time>2021-02-23T09:34:23Z</time>
      </trkpt>
      <trkpt lat="47.68883" lon="6.15445">
        <ele>259.5</ele>
        <time>2021-02-23T09:34:24Z</time>
      </trkpt>
      <trkpt lat="47.68883" lon="6.15459">
        <ele>259.2</ele>
        <time>2021-02-23T09:34:25Z</time>
      </trkpt>
      <trkpt lat="47.68882" lon="6.15472">
        <ele>259.1</ele>
        <time>2021-02-23T09:34:26Z</time>
      </trkpt>
      <trkpt lat="47.6888" lon="6.15486">
        <ele>258.9</ele>
        <time>2021-02-23T09:34:27Z</time>
      </trkpt>
      <trkpt lat="47.68879" lon="6.155">
        <ele>258.8</ele>
        <time>2021-02-23T09:34:28Z</time>
      </trkpt>
      <trkpt lat="47.68877" lon="6.15514">
        <ele>258.1</ele>
        <time>2021-02-23T09:34:29Z</time>
      </trkpt>
      <trkpt lat="47.68876" lon="6.15528">
        <ele>257.4</ele>
        <time>2021-02-23T09:34:30Z</time>
      </trkpt>
      <trkpt lat="47.68875" lon="6.15542">
        <ele>256.7</ele>
        <time>2021-02-23T09:34:31Z</time>
      </trkpt>
      <trkpt lat="47.68874" lon="6.15557">
        <ele>256</ele>
        <time>2021-02-23T09:34:32Z</time>
      </trkpt>
      <trkpt lat="47.68873" lon="6.15571">
        <ele>255.2</ele>
        <time>2021-02-23T09:34:33Z</time>
      </trkpt>
      <trkpt lat="47.68872" lon="6.15586">
        <ele>254.4</ele>
        <time>2021-02-23T09:34:34Z</time>
      </trkpt>
      <trkpt lat="47.68871" lon="6.156">
        <ele>253.6</ele>
        <time>2021-02-23T09:34:35Z</time>
      </trkpt>
      <trkpt lat="47.68869" lon="6.15613">
        <ele>252.9</ele>
        <time>2021-02-23T09:34:36Z</time>
      </trkpt>
      <trkpt lat="47.68866" lon="6.15625">
        <ele>252.2</ele>
        <time>2021-02-23T09:34:37Z</time>
      </trkpt>
      <trkpt lat="47.68864" lon="6.15635">
        <ele>251.7</ele>
        <time>2021-02-23T09:34:38Z</time>
      </trkpt>
      <trkpt lat="47.68862" lon="6.15644">
        <ele>251.3</ele>
        <time>2021-02-23T09:34:39Z</time>
      </trkpt>
      <trkpt lat="47.6886" lon="6.15653">
        <ele>250.9</ele>
        <time>2021-02-23T09:34:40Z</time>
      </trkpt>
      <trkpt lat="47.68859" lon="6.15661">
        <ele>250.5</ele>
        <time>2021-02-23T09:34:41Z</time>
      </trkpt>
      <trkpt lat="47.68857" lon="6.15669">
        <ele>250.2</ele>
        <time>2021-02-23T09:34:42Z</time>
      </trkpt>
      <trkpt lat="47.68856" lon="6.15675">
        <ele>250.1</ele>
        <time>2021-02-23T09:34:43Z</time>
      </trkpt>
      <trkpt lat="47.68854" lon="6.15687">
        <ele>249.9</ele>
        <time>2021-02-23T09:34:45Z</time>
      </trkpt>
      <trkpt lat="47.68857" lon="6.15693">
        <ele>249.5</ele>
        <time>2021-02-23T09:34:47Z</time>
      </trkpt>
      <trkpt lat="47.68862" lon="6.15693">
        <ele>249.1</ele>
        <time>2021-02-23T09:34:49Z</time>
      </trkpt>
      <trkpt lat="47.68867" lon="6.15686">
        <ele>248.9</ele>
        <time>2021-02-23T09:34:51Z</time>
      </trkpt>
      <trkpt lat="47.68875" lon="6.15673">
        <ele>248.8</ele>
        <time>2021-02-23T09:34:53Z</time>
      </trkpt>
      <trkpt lat="47.68879" lon="6.15667">
        <ele>248.8</ele>
        <time>2021-02-23T09:34:57Z</time>
      </trkpt>
      <trkpt lat="47.68882" lon="6.15659">
        <ele>249</ele>
        <time>2021-02-23T09:34:59Z</time>
      </trkpt>
      <trkpt lat="47.68885" lon="6.15651">
        <ele>249.3</ele>
        <time>2021-02-23T09:35:01Z</time>
      </trkpt>
      <trkpt lat="47.6889" lon="6.15641">
        <ele>249.8</ele>
        <time>2021-02-23T09:35:02Z</time>
      </trkpt>
      <trkpt lat="47.68894" lon="6.15633">
        <ele>250.2</ele>
        <time>2021-02-23T09:35:05Z</time>
      </trkpt>
      <trkpt lat="47.68897" lon="6.15626">
        <ele>250.5</ele>
        <time>2021-02-23T09:35:07Z</time>
      </trkpt>
      <trkpt lat="47.689" lon="6.1562">
        <ele>250.8</ele>
        <time>2021-02-23T09:35:08Z</time>
      </trkpt>
      <trkpt lat="47.68904" lon="6.15612">
        <ele>251.2</ele>
        <time>2021-02-23T09:35:10Z</time>
      </trkpt>
      <trkpt lat="47.68907" lon="6.15605">
        <ele>251.6</ele>
        <time>2021-02-23T09:35:12Z</time>
      </trkpt>
      <trkpt lat="47.68911" lon="6.15598">
        <ele>252</ele>
        <time>2021-02-23T09:35:13Z</time>
      </trkpt>
      <trkpt lat="47.68914" lon="6.15591">
        <ele>252.5</ele>
        <time>2021-02-23T09:35:15Z</time>
      </trkpt>
      <trkpt lat="47.6892" lon="6.15579">
        <ele>252.8</ele>
        <time>2021-02-23T09:35:18Z</time>
      </trkpt>
      <trkpt lat="47.68923" lon="6.15573">
        <ele>252.8</ele>
        <time>2021-02-23T09:35:19Z</time>
      </trkpt>
      <trkpt lat="47.68926" lon="6.15566">
        <ele>252.7</ele>
        <time>2021-02-23T09:35:21Z</time>
      </trkpt>
      <trkpt lat="47.68929" lon="6.1556">
        <ele>252.6</ele>
        <time>2021-02-23T09:35:22Z</time>
      </trkpt>
      <trkpt lat="47.68933" lon="6.15553">
        <ele>252.5</ele>
        <time>2021-02-23T09:35:24Z</time>
      </trkpt>
      <trkpt lat="47.68936" lon="6.15545">
        <ele>252.4</ele>
        <time>2021-02-23T09:35:26Z</time>
      </trkpt>
      <trkpt lat="47.6894" lon="6.15537">
        <ele>252.3</ele>
        <time>2021-02-23T09:35:28Z</time>
      </trkpt>
      <trkpt lat="47.68942" lon="6.15531">
        <ele>252.2</ele>
        <time>2021-02-23T09:35:29Z</time>
      </trkpt>
      <trkpt lat="47.68945" lon="6.15523">
        <ele>252.2</ele>
        <time>2021-02-23T09:35:31Z</time>
      </trkpt>
      <trkpt lat="47.68947" lon="6.15517">
        <ele>252.2</ele>
        <time>2021-02-23T09:35:32Z</time>
      </trkpt>
      <trkpt lat="47.6895" lon="6.1551">
        <ele>252.1</ele>
        <time>2021-02-23T09:35:33Z</time>
      </trkpt>
      <trkpt lat="47.68952" lon="6.15501">
        <ele>252.1</ele>
        <time>2021-02-23T09:35:36Z</time>
      </trkpt>
      <trkpt lat="47.68956" lon="6.15487">
        <ele>251.7</ele>
        <time>2021-02-23T09:35:38Z</time>
      </trkpt>
      <trkpt lat="47.68959" lon="6.15478">
        <ele>251.5</ele>
        <time>2021-02-23T09:35:40Z</time>
      </trkpt>
      <trkpt lat="47.68963" lon="6.1546">
        <ele>251</ele>
        <time>2021-02-23T09:35:41Z</time>
      </trkpt>
      <trkpt lat="47.68965" lon="6.15452">
        <ele>250.8</ele>
        <time>2021-02-23T09:35:42Z</time>
      </trkpt>
      <trkpt lat="47.68967" lon="6.15445">
        <ele>250.6</ele>
        <time>2021-02-23T09:35:43Z</time>
      </trkpt>
      <trkpt lat="47.68969" lon="6.15437">
        <ele>250.4</ele>
        <time>2021-02-23T09:35:44Z</time>
      </trkpt>
      <trkpt lat="47.68971" lon="6.15429">
        <ele>250.2</ele>
        <time>2021-02-23T09:35:45Z</time>
      </trkpt>
      <trkpt lat="47.68973" lon="6.15421">
        <ele>249.9</ele>
        <time>2021-02-23T09:35:46Z</time>
      </trkpt>
      <trkpt lat="47.68976" lon="6.15413">
        <ele>249.8</ele>
        <time>2021-02-23T09:35:47Z</time>
      </trkpt>
      <trkpt lat="47.68979" lon="6.15405">
        <ele>249.8</ele>
        <time>2021-02-23T09:35:48Z</time>
      </trkpt>
      <trkpt lat="47.68983" lon="6.15397">
        <ele>249.9</ele>
        <time>2021-02-23T09:35:49Z</time>
      </trkpt>
      <trkpt lat="47.68987" lon="6.15389">
        <ele>249.8</ele>
        <time>2021-02-23T09:35:50Z</time>
      </trkpt>
      <trkpt lat="47.68991" lon="6.15383">
        <ele>249.7</ele>
        <time>2021-02-23T09:35:51Z</time>
      </trkpt>
      <trkpt lat="47.68995" lon="6.15376">
        <ele>249.5</ele>
        <time>2021-02-23T09:35:52Z</time>
      </trkpt>
      <trkpt lat="47.68999" lon="6.1537">
        <ele>249.3</ele>
        <time>2021-02-23T09:35:53Z</time>
      </trkpt>
      <trkpt lat="47.69003" lon="6.15366">
        <ele>249.3</ele>
        <time>2021-02-23T09:35:54Z</time>
      </trkpt>
      <trkpt lat="47.69007" lon="6.15361">
        <ele>249.3</ele>
        <time>2021-02-23T09:35:55Z</time>
      </trkpt>
      <trkpt lat="47.69014" lon="6.15355">
        <ele>249.2</ele>
        <time>2021-02-23T09:35:57Z</time>
      </trkpt>
      <trkpt lat="47.6902" lon="6.15352">
        <ele>249</ele>
        <time>2021-02-23T09:35:59Z</time>
      </trkpt>
      <trkpt lat="47.69027" lon="6.15349">
        <ele>248.8</ele>
        <time>2021-02-23T09:36:01Z</time>
      </trkpt>
      <trkpt lat="47.69033" lon="6.15346">
        <ele>248.6</ele>
        <time>2021-02-23T09:36:03Z</time>
      </trkpt>
      <trkpt lat="47.69033" lon="6.1533">
        <ele>249.7</ele>
        <time>2021-02-23T09:36:06Z</time>
      </trkpt>
      <trkpt lat="47.69053" lon="6.15338">
        <ele>248.1</ele>
        <time>2021-02-23T09:36:07Z</time>
      </trkpt>
      <trkpt lat="47.69059" lon="6.15337">
        <ele>247.9</ele>
        <time>2021-02-23T09:36:08Z</time>
      </trkpt>
      <trkpt lat="47.69065" lon="6.15335">
        <ele>247.7</ele>
        <time>2021-02-23T09:36:09Z</time>
      </trkpt>
      <trkpt lat="47.69071" lon="6.15333">
        <ele>247.6</ele>
        <time>2021-02-23T09:36:10Z</time>
      </trkpt>
      <trkpt lat="47.69076" lon="6.15331">
        <ele>247.5</ele>
        <time>2021-02-23T09:36:11Z</time>
      </trkpt>
      <trkpt lat="47.69082" lon="6.15329">
        <ele>247.3</ele>
        <time>2021-02-23T09:36:12Z</time>
      </trkpt>
      <trkpt lat="47.69088" lon="6.15327">
        <ele>247.2</ele>
        <time>2021-02-23T09:36:13Z</time>
      </trkpt>
      <trkpt lat="47.69093" lon="6.15325">
        <ele>247.1</ele>
        <time>2021-02-23T09:36:14Z</time>
      </trkpt>
      <trkpt lat="47.69099" lon="6.15323">
        <ele>247</ele>
        <time>2021-02-23T09:36:15Z</time>
      </trkpt>
      <trkpt lat="47.69104" lon="6.15321">
        <ele>246.9</ele>
        <time>2021-02-23T09:36:16Z</time>
      </trkpt>
      <trkpt lat="47.6911" lon="6.15319">
        <ele>246.8</ele>
        <time>2021-02-23T09:36:17Z</time>
      </trkpt>
      <trkpt lat="47.69116" lon="6.15317">
        <ele>246.7</ele>
        <time>2021-02-23T09:36:18Z</time>
      </trkpt>
      <trkpt lat="47.69122" lon="6.15314">
        <ele>246.5</ele>
        <time>2021-02-23T09:36:19Z</time>
      </trkpt>
      <trkpt lat="47.69128" lon="6.15311">
        <ele>246.4</ele>
        <time>2021-02-23T09:36:20Z</time>
      </trkpt>
      <trkpt lat="47.69135" lon="6.15308">
        <ele>246.3</ele>
        <time>2021-02-23T09:36:21Z</time>
      </trkpt>
      <trkpt lat="47.6914" lon="6.15304">
        <ele>246.2</ele>
        <time>2021-02-23T09:36:22Z</time>
      </trkpt>
      <trkpt lat="47.69146" lon="6.153">
        <ele>246.2</ele>
        <time>2021-02-23T09:36:23Z</time>
      </trkpt>
      <trkpt lat="47.6915" lon="6.15295">
        <ele>246.2</ele>
        <time>2021-02-23T09:36:24Z</time>
      </trkpt>
      <trkpt lat="47.69155" lon="6.15289">
        <ele>246.2</ele>
        <time>2021-02-23T09:36:25Z</time>
      </trkpt>
      <trkpt lat="47.69159" lon="6.15284">
        <ele>246.2</ele>
        <time>2021-02-23T09:36:26Z</time>
      </trkpt>
      <trkpt lat="47.69163" lon="6.15279">
        <ele>246.1</ele>
        <time>2021-02-23T09:36:27Z</time>
      </trkpt>
      <trkpt lat="47.69167" lon="6.15273">
        <ele>246.2</ele>
        <time>2021-02-23T09:36:28Z</time>
      </trkpt>
      <trkpt lat="47.6917" lon="6.15268">
        <ele>246.3</ele>
        <time>2021-02-23T09:36:29Z</time>
      </trkpt>
      <trkpt lat="47.69173" lon="6.15263">
        <ele>246.5</ele>
        <time>2021-02-23T09:36:30Z</time>
      </trkpt>
      <trkpt lat="47.6918" lon="6.15254">
        <ele>246.7</ele>
        <time>2021-02-23T09:36:32Z</time>
      </trkpt>
      <trkpt lat="47.69186" lon="6.15247">
        <ele>246.9</ele>
        <time>2021-02-23T09:36:34Z</time>
      </trkpt>
      <trkpt lat="47.69193" lon="6.15241">
        <ele>247.1</ele>
        <time>2021-02-23T09:36:36Z</time>
      </trkpt>
      <trkpt lat="47.69198" lon="6.15238">
        <ele>247.2</ele>
        <time>2021-02-23T09:36:37Z</time>
      </trkpt>
      <trkpt lat="47.69205" lon="6.15236">
        <ele>247.3</ele>
        <time>2021-02-23T09:36:39Z</time>
      </trkpt>
      <trkpt lat="47.6921" lon="6.15241">
        <ele>247</ele>
        <time>2021-02-23T09:36:42Z</time>
      </trkpt>
      <trkpt lat="47.69215" lon="6.15239">
        <ele>247</ele>
        <time>2021-02-23T09:36:43Z</time>
      </trkpt>
      <trkpt lat="47.69219" lon="6.15236">
        <ele>247.2</ele>
        <time>2021-02-23T09:36:44Z</time>
      </trkpt>
      <trkpt lat="47.6923" lon="6.15231">
        <ele>247.5</ele>
        <time>2021-02-23T09:36:45Z</time>
      </trkpt>
      <trkpt lat="47.69237" lon="6.15227">
        <ele>247.7</ele>
        <time>2021-02-23T09:36:48Z</time>
      </trkpt>
      <trkpt lat="47.69248" lon="6.15222">
        <ele>248</ele>
        <time>2021-02-23T09:36:49Z</time>
      </trkpt>
      <trkpt lat="47.69256" lon="6.15218">
        <ele>248.2</ele>
        <time>2021-02-23T09:36:51Z</time>
      </trkpt>
      <trkpt lat="47.69261" lon="6.15215">
        <ele>248.3</ele>
        <time>2021-02-23T09:36:53Z</time>
      </trkpt>
      <trkpt lat="47.69265" lon="6.15213">
        <ele>248.4</ele>
        <time>2021-02-23T09:36:55Z</time>
      </trkpt>
      <trkpt lat="47.6927" lon="6.15211">
        <ele>248.5</ele>
        <time>2021-02-23T09:36:56Z</time>
      </trkpt>
      <trkpt lat="47.69276" lon="6.15209">
        <ele>248.5</ele>
        <time>2021-02-23T09:36:58Z</time>
      </trkpt>
      <trkpt lat="47.69283" lon="6.15205">
        <ele>248.6</ele>
        <time>2021-02-23T09:37:00Z</time>
      </trkpt>
      <trkpt lat="47.6929" lon="6.152">
        <ele>248.7</ele>
        <time>2021-02-23T09:37:01Z</time>
      </trkpt>
      <trkpt lat="47.69298" lon="6.15195">
        <ele>248.8</ele>
        <time>2021-02-23T09:37:04Z</time>
      </trkpt>
      <trkpt lat="47.69302" lon="6.15192">
        <ele>248.9</ele>
        <time>2021-02-23T09:37:07Z</time>
      </trkpt>
      <trkpt lat="47.69308" lon="6.15187">
        <ele>249</ele>
        <time>2021-02-23T09:37:08Z</time>
      </trkpt>
      <trkpt lat="47.69313" lon="6.15182">
        <ele>249</ele>
        <time>2021-02-23T09:37:11Z</time>
      </trkpt>
      <trkpt lat="47.69319" lon="6.15177">
        <ele>249.1</ele>
        <time>2021-02-23T09:37:12Z</time>
      </trkpt>
      <trkpt lat="47.69324" lon="6.15173">
        <ele>249.1</ele>
        <time>2021-02-23T09:37:15Z</time>
      </trkpt>
      <trkpt lat="47.69331" lon="6.15169">
        <ele>249</ele>
        <time>2021-02-23T09:37:16Z</time>
      </trkpt>
      <trkpt lat="47.69336" lon="6.15165">
        <ele>249.1</ele>
        <time>2021-02-23T09:37:18Z</time>
      </trkpt>
      <trkpt lat="47.69342" lon="6.15161">
        <ele>249.4</ele>
        <time>2021-02-23T09:37:21Z</time>
      </trkpt>
      <trkpt lat="47.69347" lon="6.15159">
        <ele>249.6</ele>
        <time>2021-02-23T09:37:23Z</time>
      </trkpt>
      <trkpt lat="47.69351" lon="6.15156">
        <ele>249.8</ele>
        <time>2021-02-23T09:37:24Z</time>
      </trkpt>
      <trkpt lat="47.69358" lon="6.15152">
        <ele>250</ele>
        <time>2021-02-23T09:37:25Z</time>
      </trkpt>
      <trkpt lat="47.69362" lon="6.15149">
        <ele>250.1</ele>
        <time>2021-02-23T09:37:28Z</time>
      </trkpt>
      <trkpt lat="47.69371" lon="6.15145">
        <ele>250.3</ele>
        <time>2021-02-23T09:37:29Z</time>
      </trkpt>
      <trkpt lat="47.69377" lon="6.15142">
        <ele>250.4</ele>
        <time>2021-02-23T09:37:32Z</time>
      </trkpt>
      <trkpt lat="47.69387" lon="6.15137">
        <ele>250.5</ele>
        <time>2021-02-23T09:37:35Z</time>
      </trkpt>
      <trkpt lat="47.69395" lon="6.15135">
        <ele>250.4</ele>
        <time>2021-02-23T09:37:37Z</time>
      </trkpt>
      <trkpt lat="47.69407" lon="6.15131">
        <ele>250.3</ele>
        <time>2021-02-23T09:37:40Z</time>
      </trkpt>
      <trkpt lat="47.69413" lon="6.1513">
        <ele>250.1</ele>
        <time>2021-02-23T09:37:41Z</time>
      </trkpt>
      <trkpt lat="47.69417" lon="6.15128">
        <ele>250.1</ele>
        <time>2021-02-23T09:37:44Z</time>
      </trkpt>
      <trkpt lat="47.69423" lon="6.15127">
        <ele>250.1</ele>
        <time>2021-02-23T09:37:46Z</time>
      </trkpt>
      <trkpt lat="47.69428" lon="6.15126">
        <ele>250.1</ele>
        <time>2021-02-23T09:37:49Z</time>
      </trkpt>
      <trkpt lat="47.69434" lon="6.15124">
        <ele>250.2</ele>
        <time>2021-02-23T09:37:50Z</time>
      </trkpt>
      <trkpt lat="47.69439" lon="6.15123">
        <ele>250.3</ele>
        <time>2021-02-23T09:37:54Z</time>
      </trkpt>
      <trkpt lat="47.69446" lon="6.15121">
        <ele>250.3</ele>
        <time>2021-02-23T09:37:55Z</time>
      </trkpt>
      <trkpt lat="47.69451" lon="6.15119">
        <ele>250.4</ele>
        <time>2021-02-23T09:37:58Z</time>
      </trkpt>
      <trkpt lat="47.69457" lon="6.15118">
        <ele>250.4</ele>
        <time>2021-02-23T09:38:00Z</time>
      </trkpt>
      <trkpt lat="47.6947" lon="6.15115">
        <ele>250.4</ele>
        <time>2021-02-23T09:38:02Z</time>
      </trkpt>
      <trkpt lat="47.69476" lon="6.15115">
        <ele>250.2</ele>
        <time>2021-02-23T09:38:05Z</time>
      </trkpt>
      <trkpt lat="47.69487" lon="6.15117">
        <ele>249.9</ele>
        <time>2021-02-23T09:38:08Z</time>
      </trkpt>
      <trkpt lat="47.69491" lon="6.1512">
        <ele>249.5</ele>
        <time>2021-02-23T09:38:09Z</time>
      </trkpt>
      <trkpt lat="47.69499" lon="6.15126">
        <ele>249</ele>
        <time>2021-02-23T09:38:10Z</time>
      </trkpt>
      <trkpt lat="47.69505" lon="6.15133">
        <ele>248.5</ele>
        <time>2021-02-23T09:38:13Z</time>
      </trkpt>
      <trkpt lat="47.69509" lon="6.15139">
        <ele>248.1</ele>
        <time>2021-02-23T09:38:14Z</time>
      </trkpt>
      <trkpt lat="47.69513" lon="6.15145">
        <ele>247.7</ele>
        <time>2021-02-23T09:38:16Z</time>
      </trkpt>
      <trkpt lat="47.6952" lon="6.15162">
        <ele>246.8</ele>
        <time>2021-02-23T09:38:17Z</time>
      </trkpt>
      <trkpt lat="47.69524" lon="6.15167">
        <ele>246.6</ele>
        <time>2021-02-23T09:38:18Z</time>
      </trkpt>
      <trkpt lat="47.69528" lon="6.1517">
        <ele>246.6</ele>
        <time>2021-02-23T09:38:19Z</time>
      </trkpt>
      <trkpt lat="47.69532" lon="6.15176">
        <ele>246.7</ele>
        <time>2021-02-23T09:38:23Z</time>
      </trkpt>
      <trkpt lat="47.69537" lon="6.15178">
        <ele>246.9</ele>
        <time>2021-02-23T09:38:24Z</time>
      </trkpt>
      <trkpt lat="47.69542" lon="6.15177">
        <ele>247</ele>
        <time>2021-02-23T09:38:25Z</time>
      </trkpt>
      <trkpt lat="47.6955" lon="6.15174">
        <ele>247.2</ele>
        <time>2021-02-23T09:38:27Z</time>
      </trkpt>
      <trkpt lat="47.69555" lon="6.15173">
        <ele>247.3</ele>
        <time>2021-02-23T09:38:28Z</time>
      </trkpt>
      <trkpt lat="47.69562" lon="6.15172">
        <ele>247.5</ele>
        <time>2021-02-23T09:38:30Z</time>
      </trkpt>
      <trkpt lat="47.69572" lon="6.15168">
        <ele>247.7</ele>
        <time>2021-02-23T09:38:33Z</time>
      </trkpt>
      <trkpt lat="47.6958" lon="6.15165">
        <ele>248</ele>
        <time>2021-02-23T09:38:35Z</time>
      </trkpt>
      <trkpt lat="47.69586" lon="6.15163">
        <ele>248.2</ele>
        <time>2021-02-23T09:38:37Z</time>
      </trkpt>
      <trkpt lat="47.69593" lon="6.15161">
        <ele>248.5</ele>
        <time>2021-02-23T09:38:38Z</time>
      </trkpt>
      <trkpt lat="47.69597" lon="6.1516">
        <ele>248.7</ele>
        <time>2021-02-23T09:38:41Z</time>
      </trkpt>
      <trkpt lat="47.69603" lon="6.15159">
        <ele>248.9</ele>
        <time>2021-02-23T09:38:43Z</time>
      </trkpt>
      <trkpt lat="47.69609" lon="6.15158">
        <ele>249.2</ele>
        <time>2021-02-23T09:38:46Z</time>
      </trkpt>
      <trkpt lat="47.69615" lon="6.15156">
        <ele>249.4</ele>
        <time>2021-02-23T09:38:49Z</time>
      </trkpt>
      <trkpt lat="47.6962" lon="6.15154">
        <ele>249.6</ele>
        <time>2021-02-23T09:38:52Z</time>
      </trkpt>
      <trkpt lat="47.69625" lon="6.15152">
        <ele>249.9</ele>
        <time>2021-02-23T09:38:55Z</time>
      </trkpt>
      <trkpt lat="47.69631" lon="6.15149">
        <ele>250.1</ele>
        <time>2021-02-23T09:38:58Z</time>
      </trkpt>
      <trkpt lat="47.69636" lon="6.15146">
        <ele>250.3</ele>
        <time>2021-02-23T09:39:01Z</time>
      </trkpt>
      <trkpt lat="47.69641" lon="6.15143">
        <ele>250.5</ele>
        <time>2021-02-23T09:39:03Z</time>
      </trkpt>
      <trkpt lat="47.69645" lon="6.1514">
        <ele>250.7</ele>
        <time>2021-02-23T09:39:05Z</time>
      </trkpt>
      <trkpt lat="47.69651" lon="6.15137">
        <ele>250.9</ele>
        <time>2021-02-23T09:39:09Z</time>
      </trkpt>
      <trkpt lat="47.69655" lon="6.15134">
        <ele>251.1</ele>
        <time>2021-02-23T09:39:11Z</time>
      </trkpt>
      <trkpt lat="47.6966" lon="6.15131">
        <ele>251.3</ele>
        <time>2021-02-23T09:39:14Z</time>
      </trkpt>
      <trkpt lat="47.69665" lon="6.15127">
        <ele>251.4</ele>
        <time>2021-02-23T09:39:18Z</time>
      </trkpt>
      <trkpt lat="47.6967" lon="6.15122">
        <ele>251.7</ele>
        <time>2021-02-23T09:39:21Z</time>
      </trkpt>
      <trkpt lat="47.69674" lon="6.15117">
        <ele>252.1</ele>
        <time>2021-02-23T09:39:22Z</time>
      </trkpt>
      <trkpt lat="47.69678" lon="6.15112">
        <ele>252.4</ele>
        <time>2021-02-23T09:39:26Z</time>
      </trkpt>
      <trkpt lat="47.69682" lon="6.15106">
        <ele>252.7</ele>
        <time>2021-02-23T09:39:29Z</time>
      </trkpt>
      <trkpt lat="47.69685" lon="6.151">
        <ele>253</ele>
        <time>2021-02-23T09:39:31Z</time>
      </trkpt>
      <trkpt lat="47.69688" lon="6.15093">
        <ele>253.2</ele>
        <time>2021-02-23T09:39:35Z</time>
      </trkpt>
      <trkpt lat="47.6969" lon="6.15086">
        <ele>253.4</ele>
        <time>2021-02-23T09:39:36Z</time>
      </trkpt>
      <trkpt lat="47.69692" lon="6.15079">
        <ele>253.7</ele>
        <time>2021-02-23T09:39:39Z</time>
      </trkpt>
      <trkpt lat="47.69693" lon="6.15072">
        <ele>254.1</ele>
        <time>2021-02-23T09:39:42Z</time>
      </trkpt>
      <trkpt lat="47.69694" lon="6.15062">
        <ele>254.6</ele>
        <time>2021-02-23T09:39:46Z</time>
      </trkpt>
      <trkpt lat="47.69696" lon="6.15056">
        <ele>255</ele>
        <time>2021-02-23T09:39:49Z</time>
      </trkpt>
      <trkpt lat="47.69697" lon="6.15049">
        <ele>255.3</ele>
        <time>2021-02-23T09:39:52Z</time>
      </trkpt>
      <trkpt lat="47.69699" lon="6.15042">
        <ele>255.7</ele>
        <time>2021-02-23T09:39:55Z</time>
      </trkpt>
      <trkpt lat="47.69699" lon="6.15034">
        <ele>256.1</ele>
        <time>2021-02-23T09:40:00Z</time>
      </trkpt>
      <trkpt lat="47.69701" lon="6.15025">
        <ele>256.6</ele>
        <time>2021-02-23T09:40:03Z</time>
      </trkpt>
      <trkpt lat="47.69703" lon="6.15019">
        <ele>256.9</ele>
        <time>2021-02-23T09:40:08Z</time>
      </trkpt>
      <trkpt lat="47.69705" lon="6.15013">
        <ele>257.3</ele>
        <time>2021-02-23T09:40:11Z</time>
      </trkpt>
      <trkpt lat="47.69706" lon="6.15005">
        <ele>257.7</ele>
        <time>2021-02-23T09:40:15Z</time>
      </trkpt>
      <trkpt lat="47.69708" lon="6.14996">
        <ele>258.2</ele>
        <time>2021-02-23T09:40:18Z</time>
      </trkpt>
      <trkpt lat="47.69709" lon="6.14988">
        <ele>258.9</ele>
        <time>2021-02-23T09:40:22Z</time>
      </trkpt>
      <trkpt lat="47.69711" lon="6.14981">
        <ele>259.6</ele>
        <time>2021-02-23T09:40:26Z</time>
      </trkpt>
      <trkpt lat="47.69713" lon="6.14974">
        <ele>260.2</ele>
        <time>2021-02-23T09:40:29Z</time>
      </trkpt>
      <trkpt lat="47.69714" lon="6.14966">
        <ele>260.9</ele>
        <time>2021-02-23T09:40:33Z</time>
      </trkpt>
      <trkpt lat="47.69716" lon="6.14959">
        <ele>261.5</ele>
        <time>2021-02-23T09:40:38Z</time>
      </trkpt>
      <trkpt lat="47.69718" lon="6.1495">
        <ele>262.3</ele>
        <time>2021-02-23T09:40:41Z</time>
      </trkpt>
      <trkpt lat="47.69721" lon="6.14943">
        <ele>262.9</ele>
        <time>2021-02-23T09:40:47Z</time>
      </trkpt>
      <trkpt lat="47.69722" lon="6.14936">
        <ele>263.5</ele>
        <time>2021-02-23T09:40:51Z</time>
      </trkpt>
      <trkpt lat="47.69724" lon="6.14929">
        <ele>264.1</ele>
        <time>2021-02-23T09:40:54Z</time>
      </trkpt>
      <trkpt lat="47.69725" lon="6.14922">
        <ele>264.7</ele>
        <time>2021-02-23T09:40:59Z</time>
      </trkpt>
      <trkpt lat="47.69727" lon="6.14916">
        <ele>265.2</ele>
        <time>2021-02-23T09:41:02Z</time>
      </trkpt>
      <trkpt lat="47.69729" lon="6.14909">
        <ele>265.8</ele>
        <time>2021-02-23T09:41:07Z</time>
      </trkpt>
      <trkpt lat="47.6973" lon="6.14902">
        <ele>266.4</ele>
        <time>2021-02-23T09:41:11Z</time>
      </trkpt>
      <trkpt lat="47.69732" lon="6.14895">
        <ele>267</ele>
        <time>2021-02-23T09:41:14Z</time>
      </trkpt>
      <trkpt lat="47.69734" lon="6.14889">
        <ele>267.6</ele>
        <time>2021-02-23T09:41:17Z</time>
      </trkpt>
      <trkpt lat="47.69735" lon="6.14882">
        <ele>268.2</ele>
        <time>2021-02-23T09:41:21Z</time>
      </trkpt>
      <trkpt lat="47.69736" lon="6.14875">
        <ele>268.8</ele>
        <time>2021-02-23T09:41:23Z</time>
      </trkpt>
      <trkpt lat="47.69738" lon="6.14869">
        <ele>269.4</ele>
        <time>2021-02-23T09:41:27Z</time>
      </trkpt>
      <trkpt lat="47.6974" lon="6.14861">
        <ele>270.1</ele>
        <time>2021-02-23T09:41:30Z</time>
      </trkpt>
      <trkpt lat="47.69742" lon="6.14855">
        <ele>270.7</ele>
        <time>2021-02-23T09:41:33Z</time>
      </trkpt>
      <trkpt lat="47.69745" lon="6.14847">
        <ele>271.5</ele>
        <time>2021-02-23T09:41:37Z</time>
      </trkpt>
      <trkpt lat="47.69747" lon="6.1484">
        <ele>272.3</ele>
        <time>2021-02-23T09:41:40Z</time>
      </trkpt>
      <trkpt lat="47.69748" lon="6.14832">
        <ele>272.9</ele>
        <time>2021-02-23T09:41:46Z</time>
      </trkpt>
      <trkpt lat="47.69751" lon="6.14824">
        <ele>273.3</ele>
        <time>2021-02-23T09:41:49Z</time>
      </trkpt>
      <trkpt lat="47.69754" lon="6.14819">
        <ele>273.6</ele>
        <time>2021-02-23T09:41:54Z</time>
      </trkpt>
      <trkpt lat="47.69759" lon="6.14816">
        <ele>273.9</ele>
        <time>2021-02-23T09:41:57Z</time>
      </trkpt>
      <trkpt lat="47.69764" lon="6.14815">
        <ele>274.3</ele>
        <time>2021-02-23T09:42:01Z</time>
      </trkpt>
      <trkpt lat="47.6977" lon="6.14815">
        <ele>274.6</ele>
        <time>2021-02-23T09:42:04Z</time>
      </trkpt>
      <trkpt lat="47.69775" lon="6.14818">
        <ele>274.8</ele>
        <time>2021-02-23T09:42:07Z</time>
      </trkpt>
      <trkpt lat="47.6978" lon="6.14821">
        <ele>275</ele>
        <time>2021-02-23T09:42:10Z</time>
      </trkpt>
      <trkpt lat="47.69785" lon="6.14824">
        <ele>275.1</ele>
        <time>2021-02-23T09:42:13Z</time>
      </trkpt>
      <trkpt lat="47.69789" lon="6.14827">
        <ele>275.1</ele>
        <time>2021-02-23T09:42:15Z</time>
      </trkpt>
      <trkpt lat="47.69793" lon="6.1483">
        <ele>275.2</ele>
        <time>2021-02-23T09:42:20Z</time>
      </trkpt>
      <trkpt lat="47.69797" lon="6.14834">
        <ele>275.2</ele>
        <time>2021-02-23T09:42:22Z</time>
      </trkpt>
      <trkpt lat="47.69801" lon="6.14838">
        <ele>275</ele>
        <time>2021-02-23T09:42:29Z</time>
      </trkpt>
      <trkpt lat="47.69805" lon="6.14843">
        <ele>274.8</ele>
        <time>2021-02-23T09:42:33Z</time>
      </trkpt>
      <trkpt lat="47.69809" lon="6.14848">
        <ele>274.5</ele>
        <time>2021-02-23T09:42:38Z</time>
      </trkpt>
      <trkpt lat="47.69814" lon="6.14851">
        <ele>274.4</ele>
        <time>2021-02-23T09:42:42Z</time>
      </trkpt>
      <trkpt lat="47.69819" lon="6.14851">
        <ele>274.7</ele>
        <time>2021-02-23T09:42:46Z</time>
      </trkpt>
      <trkpt lat="47.69824" lon="6.14849">
        <ele>275</ele>
        <time>2021-02-23T09:42:48Z</time>
      </trkpt>
      <trkpt lat="47.69828" lon="6.14846">
        <ele>275.5</ele>
        <time>2021-02-23T09:42:51Z</time>
      </trkpt>
      <trkpt lat="47.69832" lon="6.14843">
        <ele>276</ele>
        <time>2021-02-23T09:42:57Z</time>
      </trkpt>
      <trkpt lat="47.69836" lon="6.14839">
        <ele>276.4</ele>
        <time>2021-02-23T09:43:01Z</time>
      </trkpt>
      <trkpt lat="47.69839" lon="6.14833">
        <ele>276.8</ele>
        <time>2021-02-23T09:43:05Z</time>
      </trkpt>
      <trkpt lat="47.69844" lon="6.1483">
        <ele>276.8</ele>
        <time>2021-02-23T09:43:08Z</time>
      </trkpt>
      <trkpt lat="47.69849" lon="6.14827">
        <ele>276.9</ele>
        <time>2021-02-23T09:43:11Z</time>
      </trkpt>
      <trkpt lat="47.69854" lon="6.14823">
        <ele>277</ele>
        <time>2021-02-23T09:43:15Z</time>
      </trkpt>
      <trkpt lat="47.69857" lon="6.14818">
        <ele>277.3</ele>
        <time>2021-02-23T09:43:19Z</time>
      </trkpt>
      <trkpt lat="47.69862" lon="6.14813">
        <ele>277.5</ele>
        <time>2021-02-23T09:43:22Z</time>
      </trkpt>
      <trkpt lat="47.69867" lon="6.14808">
        <ele>277.7</ele>
        <time>2021-02-23T09:43:25Z</time>
      </trkpt>
      <trkpt lat="47.69871" lon="6.14805">
        <ele>277.8</ele>
        <time>2021-02-23T09:43:28Z</time>
      </trkpt>
      <trkpt lat="47.69876" lon="6.14801">
        <ele>278</ele>
        <time>2021-02-23T09:43:31Z</time>
      </trkpt>
      <trkpt lat="47.6988" lon="6.14797">
        <ele>278.2</ele>
        <time>2021-02-23T09:43:33Z</time>
      </trkpt>
      <trkpt lat="47.69885" lon="6.14794">
        <ele>278.3</ele>
        <time>2021-02-23T09:43:35Z</time>
      </trkpt>
      <trkpt lat="47.69889" lon="6.14791">
        <ele>278.4</ele>
        <time>2021-02-23T09:43:38Z</time>
      </trkpt>
      <trkpt lat="47.69894" lon="6.14787">
        <ele>278.5</ele>
        <time>2021-02-23T09:43:41Z</time>
      </trkpt>
      <trkpt lat="47.699" lon="6.14783">
        <ele>278.7</ele>
        <time>2021-02-23T09:43:44Z</time>
      </trkpt>
      <trkpt lat="47.69904" lon="6.1478">
        <ele>278.8</ele>
        <time>2021-02-23T09:43:46Z</time>
      </trkpt>
      <trkpt lat="47.69909" lon="6.14777">
        <ele>279</ele>
        <time>2021-02-23T09:43:49Z</time>
      </trkpt>
      <trkpt lat="47.69914" lon="6.14773">
        <ele>279.1</ele>
        <time>2021-02-23T09:43:51Z</time>
      </trkpt>
      <trkpt lat="47.69919" lon="6.1477">
        <ele>279.3</ele>
        <time>2021-02-23T09:43:54Z</time>
      </trkpt>
      <trkpt lat="47.69923" lon="6.14767">
        <ele>279.5</ele>
        <time>2021-02-23T09:43:56Z</time>
      </trkpt>
      <trkpt lat="47.69928" lon="6.14764">
        <ele>279.7</ele>
        <time>2021-02-23T09:43:58Z</time>
      </trkpt>
      <trkpt lat="47.69932" lon="6.14761">
        <ele>279.9</ele>
        <time>2021-02-23T09:44:01Z</time>
      </trkpt>
      <trkpt lat="47.69937" lon="6.14759">
        <ele>280.1</ele>
        <time>2021-02-23T09:44:03Z</time>
      </trkpt>
      <trkpt lat="47.69942" lon="6.14756">
        <ele>280.2</ele>
        <time>2021-02-23T09:44:04Z</time>
      </trkpt>
      <trkpt lat="47.69947" lon="6.14753">
        <ele>280.4</ele>
        <time>2021-02-23T09:44:09Z</time>
      </trkpt>
      <trkpt lat="47.69951" lon="6.14751">
        <ele>280.5</ele>
        <time>2021-02-23T09:44:11Z</time>
      </trkpt>
      <trkpt lat="47.69956" lon="6.14747">
        <ele>280.7</ele>
        <time>2021-02-23T09:44:14Z</time>
      </trkpt>
      <trkpt lat="47.6996" lon="6.14744">
        <ele>280.9</ele>
        <time>2021-02-23T09:44:17Z</time>
      </trkpt>
      <trkpt lat="47.69966" lon="6.1474">
        <ele>281.2</ele>
        <time>2021-02-23T09:44:20Z</time>
      </trkpt>
      <trkpt lat="47.6997" lon="6.14737">
        <ele>281.4</ele>
        <time>2021-02-23T09:44:23Z</time>
      </trkpt>
      <trkpt lat="47.69975" lon="6.14733">
        <ele>281.7</ele>
        <time>2021-02-23T09:44:26Z</time>
      </trkpt>
      <trkpt lat="47.6998" lon="6.14729">
        <ele>281.9</ele>
        <time>2021-02-23T09:44:29Z</time>
      </trkpt>
      <trkpt lat="47.69986" lon="6.14726">
        <ele>282.2</ele>
        <time>2021-02-23T09:44:32Z</time>
      </trkpt>
      <trkpt lat="47.69991" lon="6.14722">
        <ele>282.4</ele>
        <time>2021-02-23T09:44:35Z</time>
      </trkpt>
      <trkpt lat="47.69997" lon="6.14719">
        <ele>282.6</ele>
        <time>2021-02-23T09:44:37Z</time>
      </trkpt>
      <trkpt lat="47.70001" lon="6.14716">
        <ele>282.9</ele>
        <time>2021-02-23T09:44:38Z</time>
      </trkpt>
      <trkpt lat="47.70005" lon="6.14713">
        <ele>283.3</ele>
        <time>2021-02-23T09:44:38Z</time>
      </trkpt>
      <trkpt lat="47.7001" lon="6.14709">
        <ele>283.7</ele>
        <time>2021-02-23T09:44:40Z</time>
      </trkpt>
      <trkpt lat="47.70015" lon="6.14706">
        <ele>284.1</ele>
        <time>2021-02-23T09:44:44Z</time>
      </trkpt>
      <trkpt lat="47.7002" lon="6.14703">
        <ele>284.5</ele>
        <time>2021-02-23T09:44:46Z</time>
      </trkpt>
      <trkpt lat="47.70026" lon="6.14698">
        <ele>285</ele>
        <time>2021-02-23T09:44:49Z</time>
      </trkpt>
      <trkpt lat="47.70031" lon="6.14695">
        <ele>285.4</ele>
        <time>2021-02-23T09:44:51Z</time>
      </trkpt>
      <trkpt lat="47.70037" lon="6.1469">
        <ele>285.9</ele>
        <time>2021-02-23T09:44:54Z</time>
      </trkpt>
      <trkpt lat="47.70041" lon="6.14686">
        <ele>286.2</ele>
        <time>2021-02-23T09:44:55Z</time>
      </trkpt>
      <trkpt lat="47.70045" lon="6.14683">
        <ele>286.5</ele>
        <time>2021-02-23T09:45:00Z</time>
      </trkpt>
      <trkpt lat="47.7005" lon="6.14679">
        <ele>286.8</ele>
        <time>2021-02-23T09:45:03Z</time>
      </trkpt>
      <trkpt lat="47.70053" lon="6.14675">
        <ele>287.2</ele>
        <time>2021-02-23T09:45:03Z</time>
      </trkpt>
      <trkpt lat="47.70058" lon="6.1467">
        <ele>287.5</ele>
        <time>2021-02-23T09:45:08Z</time>
      </trkpt>
      <trkpt lat="47.70062" lon="6.14665">
        <ele>287.8</ele>
        <time>2021-02-23T09:45:11Z</time>
      </trkpt>
      <trkpt lat="47.70065" lon="6.14658">
        <ele>288.1</ele>
        <time>2021-02-23T09:45:14Z</time>
      </trkpt>
      <trkpt lat="47.70068" lon="6.14652">
        <ele>288.4</ele>
        <time>2021-02-23T09:45:17Z</time>
      </trkpt>
      <trkpt lat="47.7007" lon="6.14646">
        <ele>288.6</ele>
        <time>2021-02-23T09:45:20Z</time>
      </trkpt>
      <trkpt lat="47.70073" lon="6.1464">
        <ele>288.9</ele>
        <time>2021-02-23T09:45:23Z</time>
      </trkpt>
      <trkpt lat="47.70076" lon="6.14633">
        <ele>289.1</ele>
        <time>2021-02-23T09:45:24Z</time>
      </trkpt>
      <trkpt lat="47.70078" lon="6.14627">
        <ele>289.4</ele>
        <time>2021-02-23T09:45:27Z</time>
      </trkpt>
      <trkpt lat="47.70081" lon="6.1462">
        <ele>289.7</ele>
        <time>2021-02-23T09:45:30Z</time>
      </trkpt>
      <trkpt lat="47.70084" lon="6.14614">
        <ele>289.9</ele>
        <time>2021-02-23T09:45:33Z</time>
      </trkpt>
      <trkpt lat="47.70087" lon="6.14607">
        <ele>290</ele>
        <time>2021-02-23T09:45:36Z</time>
      </trkpt>
      <trkpt lat="47.70089" lon="6.14602">
        <ele>290.1</ele>
        <time>2021-02-23T09:45:41Z</time>
      </trkpt>
      <trkpt lat="47.70093" lon="6.14595">
        <ele>290.2</ele>
        <time>2021-02-23T09:45:44Z</time>
      </trkpt>
      <trkpt lat="47.70096" lon="6.14588">
        <ele>290.3</ele>
        <time>2021-02-23T09:45:47Z</time>
      </trkpt>
      <trkpt lat="47.70101" lon="6.14581">
        <ele>290.2</ele>
        <time>2021-02-23T09:45:50Z</time>
      </trkpt>
      <trkpt lat="47.70104" lon="6.14573">
        <ele>290.2</ele>
        <time>2021-02-23T09:45:53Z</time>
      </trkpt>
      <trkpt lat="47.70108" lon="6.14567">
        <ele>290.1</ele>
        <time>2021-02-23T09:45:56Z</time>
      </trkpt>
      <trkpt lat="47.70111" lon="6.14561">
        <ele>290</ele>
        <time>2021-02-23T09:45:57Z</time>
      </trkpt>
      <trkpt lat="47.70113" lon="6.14554">
        <ele>290</ele>
        <time>2021-02-23T09:46:01Z</time>
      </trkpt>
      <trkpt lat="47.70111" lon="6.1456">
        <ele>290</ele>
        <time>2021-02-23T09:46:55Z</time>
      </trkpt>
      <trkpt lat="47.70111" lon="6.14567">
        <ele>289.9</ele>
        <time>2021-02-23T09:47:09Z</time>
      </trkpt>
      <trkpt lat="47.70106" lon="6.14575">
        <ele>290</ele>
        <time>2021-02-23T09:47:09Z</time>
      </trkpt>
      <trkpt lat="47.70102" lon="6.14583">
        <ele>290.1</ele>
        <time>2021-02-23T09:47:13Z</time>
      </trkpt>
      <trkpt lat="47.70099" lon="6.14589">
        <ele>290.1</ele>
        <time>2021-02-23T09:47:14Z</time>
      </trkpt>
      <trkpt lat="47.70092" lon="6.14602">
        <ele>290</ele>
        <time>2021-02-23T09:47:17Z</time>
      </trkpt>
      <trkpt lat="47.70089" lon="6.14608">
        <ele>289.9</ele>
        <time>2021-02-23T09:47:18Z</time>
      </trkpt>
      <trkpt lat="47.70085" lon="6.14615">
        <ele>289.8</ele>
        <time>2021-02-23T09:47:20Z</time>
      </trkpt>
      <trkpt lat="47.70078" lon="6.14628">
        <ele>289.4</ele>
        <time>2021-02-23T09:47:23Z</time>
      </trkpt>
      <trkpt lat="47.70071" lon="6.14644">
        <ele>288.7</ele>
        <time>2021-02-23T09:47:26Z</time>
      </trkpt>
      <trkpt lat="47.70062" lon="6.14663">
        <ele>287.9</ele>
        <time>2021-02-23T09:47:26Z</time>
      </trkpt>
      <trkpt lat="47.70057" lon="6.1467">
        <ele>287.5</ele>
        <time>2021-02-23T09:47:27Z</time>
      </trkpt>
      <trkpt lat="47.70052" lon="6.14677">
        <ele>287</ele>
        <time>2021-02-23T09:47:28Z</time>
      </trkpt>
      <trkpt lat="47.70046" lon="6.14683">
        <ele>286.5</ele>
        <time>2021-02-23T09:47:29Z</time>
      </trkpt>
      <trkpt lat="47.7004" lon="6.14689">
        <ele>286</ele>
        <time>2021-02-23T09:47:30Z</time>
      </trkpt>
      <trkpt lat="47.70033" lon="6.14694">
        <ele>285.5</ele>
        <time>2021-02-23T09:47:31Z</time>
      </trkpt>
      <trkpt lat="47.70025" lon="6.14699">
        <ele>285</ele>
        <time>2021-02-23T09:47:32Z</time>
      </trkpt>
      <trkpt lat="47.70018" lon="6.14704">
        <ele>284.4</ele>
        <time>2021-02-23T09:47:33Z</time>
      </trkpt>
      <trkpt lat="47.7001" lon="6.14709">
        <ele>283.8</ele>
        <time>2021-02-23T09:47:34Z</time>
      </trkpt>
      <trkpt lat="47.70003" lon="6.14713">
        <ele>283.2</ele>
        <time>2021-02-23T09:47:35Z</time>
      </trkpt>
      <trkpt lat="47.69996" lon="6.14718">
        <ele>282.7</ele>
        <time>2021-02-23T09:47:36Z</time>
      </trkpt>
      <trkpt lat="47.6999" lon="6.14723">
        <ele>282.4</ele>
        <time>2021-02-23T09:47:37Z</time>
      </trkpt>
      <trkpt lat="47.69983" lon="6.14727">
        <ele>282.1</ele>
        <time>2021-02-23T09:47:38Z</time>
      </trkpt>
      <trkpt lat="47.69977" lon="6.14731">
        <ele>281.8</ele>
        <time>2021-02-23T09:47:39Z</time>
      </trkpt>
      <trkpt lat="47.69971" lon="6.14735">
        <ele>281.6</ele>
        <time>2021-02-23T09:47:40Z</time>
      </trkpt>
      <trkpt lat="47.69965" lon="6.14739">
        <ele>281.3</ele>
        <time>2021-02-23T09:47:41Z</time>
      </trkpt>
      <trkpt lat="47.69959" lon="6.14743">
        <ele>281.1</ele>
        <time>2021-02-23T09:47:42Z</time>
      </trkpt>
      <trkpt lat="47.69954" lon="6.14747">
        <ele>280.8</ele>
        <time>2021-02-23T09:47:43Z</time>
      </trkpt>
      <trkpt lat="47.69948" lon="6.14751">
        <ele>280.6</ele>
        <time>2021-02-23T09:47:44Z</time>
      </trkpt>
      <trkpt lat="47.69942" lon="6.14755">
        <ele>280.3</ele>
        <time>2021-02-23T09:47:45Z</time>
      </trkpt>
      <trkpt lat="47.69936" lon="6.14759">
        <ele>280</ele>
        <time>2021-02-23T09:47:46Z</time>
      </trkpt>
      <trkpt lat="47.6993" lon="6.14763">
        <ele>279.8</ele>
        <time>2021-02-23T09:47:47Z</time>
      </trkpt>
      <trkpt lat="47.69924" lon="6.14767">
        <ele>279.5</ele>
        <time>2021-02-23T09:47:48Z</time>
      </trkpt>
      <trkpt lat="47.69918" lon="6.14771">
        <ele>279.2</ele>
        <time>2021-02-23T09:47:49Z</time>
      </trkpt>
      <trkpt lat="47.69912" lon="6.14775">
        <ele>279</ele>
        <time>2021-02-23T09:47:50Z</time>
      </trkpt>
      <trkpt lat="47.69906" lon="6.14779">
        <ele>278.9</ele>
        <time>2021-02-23T09:47:51Z</time>
      </trkpt>
      <trkpt lat="47.69901" lon="6.14782">
        <ele>278.8</ele>
        <time>2021-02-23T09:47:52Z</time>
      </trkpt>
      <trkpt lat="47.69895" lon="6.14785">
        <ele>278.7</ele>
        <time>2021-02-23T09:47:53Z</time>
      </trkpt>
      <trkpt lat="47.6989" lon="6.14789">
        <ele>278.5</ele>
        <time>2021-02-23T09:47:54Z</time>
      </trkpt>
      <trkpt lat="47.69885" lon="6.14793">
        <ele>278.4</ele>
        <time>2021-02-23T09:47:55Z</time>
      </trkpt>
      <trkpt lat="47.6988" lon="6.14796">
        <ele>278.2</ele>
        <time>2021-02-23T09:47:56Z</time>
      </trkpt>
      <trkpt lat="47.69876" lon="6.148">
        <ele>278.1</ele>
        <time>2021-02-23T09:47:57Z</time>
      </trkpt>
      <trkpt lat="47.69871" lon="6.14803">
        <ele>278</ele>
        <time>2021-02-23T09:47:58Z</time>
      </trkpt>
      <trkpt lat="47.69866" lon="6.14807">
        <ele>277.8</ele>
        <time>2021-02-23T09:47:59Z</time>
      </trkpt>
      <trkpt lat="47.69861" lon="6.14811">
        <ele>277.7</ele>
        <time>2021-02-23T09:48:00Z</time>
      </trkpt>
      <trkpt lat="47.69856" lon="6.14815">
        <ele>277.6</ele>
        <time>2021-02-23T09:48:01Z</time>
      </trkpt>
      <trkpt lat="47.69851" lon="6.14819">
        <ele>277.4</ele>
        <time>2021-02-23T09:48:02Z</time>
      </trkpt>
      <trkpt lat="47.69846" lon="6.14823">
        <ele>277.3</ele>
        <time>2021-02-23T09:48:03Z</time>
      </trkpt>
      <trkpt lat="47.69841" lon="6.14828">
        <ele>277.1</ele>
        <time>2021-02-23T09:48:04Z</time>
      </trkpt>
      <trkpt lat="47.69836" lon="6.14832">
        <ele>277</ele>
        <time>2021-02-23T09:48:05Z</time>
      </trkpt>
      <trkpt lat="47.6983" lon="6.14837">
        <ele>276.5</ele>
        <time>2021-02-23T09:48:07Z</time>
      </trkpt>
      <trkpt lat="47.69823" lon="6.14842">
        <ele>275.7</ele>
        <time>2021-02-23T09:48:09Z</time>
      </trkpt>
      <trkpt lat="47.69815" lon="6.14843">
        <ele>275.2</ele>
        <time>2021-02-23T09:48:11Z</time>
      </trkpt>
      <trkpt lat="47.6981" lon="6.14841">
        <ele>275.1</ele>
        <time>2021-02-23T09:48:12Z</time>
      </trkpt>
      <trkpt lat="47.69805" lon="6.14838">
        <ele>275.2</ele>
        <time>2021-02-23T09:48:13Z</time>
      </trkpt>
      <trkpt lat="47.698" lon="6.14834">
        <ele>275.3</ele>
        <time>2021-02-23T09:48:14Z</time>
      </trkpt>
      <trkpt lat="47.69796" lon="6.1483">
        <ele>275.4</ele>
        <time>2021-02-23T09:48:15Z</time>
      </trkpt>
      <trkpt lat="47.69792" lon="6.14825">
        <ele>275.4</ele>
        <time>2021-02-23T09:48:16Z</time>
      </trkpt>
      <trkpt lat="47.69788" lon="6.14819">
        <ele>275.5</ele>
        <time>2021-02-23T09:48:17Z</time>
      </trkpt>
      <trkpt lat="47.69785" lon="6.14812">
        <ele>275.6</ele>
        <time>2021-02-23T09:48:18Z</time>
      </trkpt>
      <trkpt lat="47.69781" lon="6.14805">
        <ele>275.7</ele>
        <time>2021-02-23T09:48:19Z</time>
      </trkpt>
      <trkpt lat="47.69778" lon="6.14798">
        <ele>275.7</ele>
        <time>2021-02-23T09:48:20Z</time>
      </trkpt>
      <trkpt lat="47.69775" lon="6.14792">
        <ele>275.8</ele>
        <time>2021-02-23T09:48:21Z</time>
      </trkpt>
      <trkpt lat="47.69772" lon="6.14786">
        <ele>275.8</ele>
        <time>2021-02-23T09:48:22Z</time>
      </trkpt>
      <trkpt lat="47.69769" lon="6.1478">
        <ele>275.8</ele>
        <time>2021-02-23T09:48:23Z</time>
      </trkpt>
      <trkpt lat="47.69767" lon="6.14774">
        <ele>275.8</ele>
        <time>2021-02-23T09:48:24Z</time>
      </trkpt>
      <trkpt lat="47.69764" lon="6.14768">
        <ele>275.8</ele>
        <time>2021-02-23T09:48:25Z</time>
      </trkpt>
      <trkpt lat="47.69762" lon="6.14762">
        <ele>275.8</ele>
        <time>2021-02-23T09:48:26Z</time>
      </trkpt>
      <trkpt lat="47.6976" lon="6.14755">
        <ele>275.8</ele>
        <time>2021-02-23T09:48:27Z</time>
      </trkpt>
      <trkpt lat="47.69757" lon="6.14744">
        <ele>276</ele>
        <time>2021-02-23T09:48:29Z</time>
      </trkpt>
      <trkpt lat="47.69754" lon="6.14734">
        <ele>276.3</ele>
        <time>2021-02-23T09:48:31Z</time>
      </trkpt>
      <trkpt lat="47.69751" lon="6.14725">
        <ele>276.6</ele>
        <time>2021-02-23T09:48:33Z</time>
      </trkpt>
      <trkpt lat="47.69748" lon="6.14714">
        <ele>277.2</ele>
        <time>2021-02-23T09:48:35Z</time>
      </trkpt>
      <trkpt lat="47.69744" lon="6.14709">
        <ele>277.7</ele>
        <time>2021-02-23T09:48:39Z</time>
      </trkpt>
      <trkpt lat="47.69742" lon="6.14703">
        <ele>278.1</ele>
        <time>2021-02-23T09:48:40Z</time>
      </trkpt>
      <trkpt lat="47.6974" lon="6.14694">
        <ele>278.9</ele>
        <time>2021-02-23T09:48:42Z</time>
      </trkpt>
      <trkpt lat="47.69739" lon="6.14687">
        <ele>279.4</ele>
        <time>2021-02-23T09:48:43Z</time>
      </trkpt>
      <trkpt lat="47.69737" lon="6.1468">
        <ele>280</ele>
        <time>2021-02-23T09:48:45Z</time>
      </trkpt>
      <trkpt lat="47.69735" lon="6.14671">
        <ele>280.8</ele>
        <time>2021-02-23T09:48:47Z</time>
      </trkpt>
      <trkpt lat="47.69734" lon="6.14662">
        <ele>281.6</ele>
        <time>2021-02-23T09:48:49Z</time>
      </trkpt>
      <trkpt lat="47.69734" lon="6.14654">
        <ele>282.3</ele>
        <time>2021-02-23T09:48:51Z</time>
      </trkpt>
      <trkpt lat="47.69734" lon="6.14644">
        <ele>283.2</ele>
        <time>2021-02-23T09:48:54Z</time>
      </trkpt>
      <trkpt lat="47.69734" lon="6.14635">
        <ele>284</ele>
        <time>2021-02-23T09:48:57Z</time>
      </trkpt>
      <trkpt lat="47.69734" lon="6.14627">
        <ele>284.7</ele>
        <time>2021-02-23T09:49:00Z</time>
      </trkpt>
      <trkpt lat="47.69734" lon="6.14619">
        <ele>285.4</ele>
        <time>2021-02-23T09:49:03Z</time>
      </trkpt>
      <trkpt lat="47.69733" lon="6.14611">
        <ele>286.2</ele>
        <time>2021-02-23T09:49:06Z</time>
      </trkpt>
      <trkpt lat="47.69732" lon="6.14604">
        <ele>286.8</ele>
        <time>2021-02-23T09:49:09Z</time>
      </trkpt>
      <trkpt lat="47.6973" lon="6.14597">
        <ele>287.5</ele>
        <time>2021-02-23T09:49:12Z</time>
      </trkpt>
      <trkpt lat="47.69727" lon="6.14591">
        <ele>288.1</ele>
        <time>2021-02-23T09:49:15Z</time>
      </trkpt>
      <trkpt lat="47.69723" lon="6.14586">
        <ele>288.8</ele>
        <time>2021-02-23T09:49:18Z</time>
      </trkpt>
      <trkpt lat="47.6972" lon="6.1458">
        <ele>289.2</ele>
        <time>2021-02-23T09:49:21Z</time>
      </trkpt>
      <trkpt lat="47.69715" lon="6.14574">
        <ele>289.6</ele>
        <time>2021-02-23T09:49:24Z</time>
      </trkpt>
      <trkpt lat="47.6971" lon="6.14568">
        <ele>289.9</ele>
        <time>2021-02-23T09:49:27Z</time>
      </trkpt>
      <trkpt lat="47.69706" lon="6.14564">
        <ele>290.2</ele>
        <time>2021-02-23T09:49:29Z</time>
      </trkpt>
      <trkpt lat="47.697" lon="6.14559">
        <ele>290.4</ele>
        <time>2021-02-23T09:49:29Z</time>
      </trkpt>
      <trkpt lat="47.69696" lon="6.14553">
        <ele>290.7</ele>
        <time>2021-02-23T09:49:31Z</time>
      </trkpt>
      <trkpt lat="47.69692" lon="6.14547">
        <ele>290.9</ele>
        <time>2021-02-23T09:49:36Z</time>
      </trkpt>
      <trkpt lat="47.69689" lon="6.14542">
        <ele>291.1</ele>
        <time>2021-02-23T09:49:38Z</time>
      </trkpt>
      <trkpt lat="47.69686" lon="6.14536">
        <ele>291.3</ele>
        <time>2021-02-23T09:49:40Z</time>
      </trkpt>
      <trkpt lat="47.69683" lon="6.14529">
        <ele>291.5</ele>
        <time>2021-02-23T09:49:43Z</time>
      </trkpt>
      <trkpt lat="47.6968" lon="6.14521">
        <ele>291.6</ele>
        <time>2021-02-23T09:49:43Z</time>
      </trkpt>
      <trkpt lat="47.69678" lon="6.14514">
        <ele>291.8</ele>
        <time>2021-02-23T09:49:45Z</time>
      </trkpt>
      <trkpt lat="47.69676" lon="6.14508">
        <ele>291.9</ele>
        <time>2021-02-23T09:49:49Z</time>
      </trkpt>
      <trkpt lat="47.69674" lon="6.14502">
        <ele>292</ele>
        <time>2021-02-23T09:49:49Z</time>
      </trkpt>
      <trkpt lat="47.69672" lon="6.14494">
        <ele>292.1</ele>
        <time>2021-02-23T09:49:54Z</time>
      </trkpt>
      <trkpt lat="47.69669" lon="6.14487">
        <ele>292.2</ele>
        <time>2021-02-23T09:49:57Z</time>
      </trkpt>
      <trkpt lat="47.69667" lon="6.1448">
        <ele>292.2</ele>
        <time>2021-02-23T09:50:00Z</time>
      </trkpt>
      <trkpt lat="47.69665" lon="6.14474">
        <ele>292.3</ele>
        <time>2021-02-23T09:50:03Z</time>
      </trkpt>
      <trkpt lat="47.69663" lon="6.14466">
        <ele>292.4</ele>
        <time>2021-02-23T09:50:04Z</time>
      </trkpt>
      <trkpt lat="47.6966" lon="6.14457">
        <ele>292.6</ele>
        <time>2021-02-23T09:50:07Z</time>
      </trkpt>
      <trkpt lat="47.69657" lon="6.1445">
        <ele>292.7</ele>
        <time>2021-02-23T09:50:12Z</time>
      </trkpt>
      <trkpt lat="47.69654" lon="6.14443">
        <ele>292.7</ele>
        <time>2021-02-23T09:50:14Z</time>
      </trkpt>
      <trkpt lat="47.69651" lon="6.14436">
        <ele>292.8</ele>
        <time>2021-02-23T09:50:16Z</time>
      </trkpt>
      <trkpt lat="47.69649" lon="6.14429">
        <ele>292.9</ele>
        <time>2021-02-23T09:50:19Z</time>
      </trkpt>
      <trkpt lat="47.69646" lon="6.14422">
        <ele>293</ele>
        <time>2021-02-23T09:50:21Z</time>
      </trkpt>
      <trkpt lat="47.69645" lon="6.14415">
        <ele>293.1</ele>
        <time>2021-02-23T09:50:24Z</time>
      </trkpt>
      <trkpt lat="47.69642" lon="6.14408">
        <ele>293.3</ele>
        <time>2021-02-23T09:50:24Z</time>
      </trkpt>
      <trkpt lat="47.69639" lon="6.14399">
        <ele>293.6</ele>
        <time>2021-02-23T09:50:27Z</time>
      </trkpt>
      <trkpt lat="47.69637" lon="6.14391">
        <ele>293.9</ele>
        <time>2021-02-23T09:50:31Z</time>
      </trkpt>
      <trkpt lat="47.69635" lon="6.14384">
        <ele>294.2</ele>
        <time>2021-02-23T09:50:34Z</time>
      </trkpt>
      <trkpt lat="47.69633" lon="6.14377">
        <ele>294.4</ele>
        <time>2021-02-23T09:50:34Z</time>
      </trkpt>
      <trkpt lat="47.6963" lon="6.1437">
        <ele>294.7</ele>
        <time>2021-02-23T09:50:39Z</time>
      </trkpt>
      <trkpt lat="47.69628" lon="6.14363">
        <ele>294.9</ele>
        <time>2021-02-23T09:50:42Z</time>
      </trkpt>
      <trkpt lat="47.69624" lon="6.14355">
        <ele>295.2</ele>
        <time>2021-02-23T09:50:42Z</time>
      </trkpt>
      <trkpt lat="47.69621" lon="6.14347">
        <ele>295.5</ele>
        <time>2021-02-23T09:50:47Z</time>
      </trkpt>
      <trkpt lat="47.69619" lon="6.14341">
        <ele>295.7</ele>
        <time>2021-02-23T09:50:47Z</time>
      </trkpt>
      <trkpt lat="47.69616" lon="6.14335">
        <ele>295.9</ele>
        <time>2021-02-23T09:50:50Z</time>
      </trkpt>
      <trkpt lat="47.69613" lon="6.14329">
        <ele>296.2</ele>
        <time>2021-02-23T09:50:56Z</time>
      </trkpt>
      <trkpt lat="47.6961" lon="6.14322">
        <ele>296.6</ele>
        <time>2021-02-23T09:50:58Z</time>
      </trkpt>
      <trkpt lat="47.69607" lon="6.14317">
        <ele>296.9</ele>
        <time>2021-02-23T09:51:02Z</time>
      </trkpt>
      <trkpt lat="47.69604" lon="6.14311">
        <ele>297.1</ele>
        <time>2021-02-23T09:51:08Z</time>
      </trkpt>
      <trkpt lat="47.696" lon="6.14305">
        <ele>297.5</ele>
        <time>2021-02-23T09:51:12Z</time>
      </trkpt>
      <trkpt lat="47.69597" lon="6.143">
        <ele>297.7</ele>
        <time>2021-02-23T09:51:15Z</time>
      </trkpt>
      <trkpt lat="47.69593" lon="6.14295">
        <ele>297.9</ele>
        <time>2021-02-23T09:51:18Z</time>
      </trkpt>
      <trkpt lat="47.69589" lon="6.14289">
        <ele>298.2</ele>
        <time>2021-02-23T09:51:21Z</time>
      </trkpt>
      <trkpt lat="47.69586" lon="6.14284">
        <ele>298.4</ele>
        <time>2021-02-23T09:51:23Z</time>
      </trkpt>
      <trkpt lat="47.69583" lon="6.14277">
        <ele>298.7</ele>
        <time>2021-02-23T09:51:26Z</time>
      </trkpt>
      <trkpt lat="47.6958" lon="6.14271">
        <ele>298.9</ele>
        <time>2021-02-23T09:51:28Z</time>
      </trkpt>
      <trkpt lat="47.69577" lon="6.14265">
        <ele>299</ele>
        <time>2021-02-23T09:51:29Z</time>
      </trkpt>
      <trkpt lat="47.69574" lon="6.14257">
        <ele>299.2</ele>
        <time>2021-02-23T09:51:32Z</time>
      </trkpt>
      <trkpt lat="47.69571" lon="6.14249">
        <ele>299.4</ele>
        <time>2021-02-23T09:51:37Z</time>
      </trkpt>
      <trkpt lat="47.69568" lon="6.14242">
        <ele>299.6</ele>
        <time>2021-02-23T09:51:37Z</time>
      </trkpt>
      <trkpt lat="47.69566" lon="6.14235">
        <ele>299.8</ele>
        <time>2021-02-23T09:51:42Z</time>
      </trkpt>
      <trkpt lat="47.69564" lon="6.14229">
        <ele>300</ele>
        <time>2021-02-23T09:51:45Z</time>
      </trkpt>
      <trkpt lat="47.69561" lon="6.14221">
        <ele>300.2</ele>
        <time>2021-02-23T09:51:48Z</time>
      </trkpt>
      <trkpt lat="47.69559" lon="6.14214">
        <ele>300.4</ele>
        <time>2021-02-23T09:51:51Z</time>
      </trkpt>
      <trkpt lat="47.69557" lon="6.14207">
        <ele>300.6</ele>
        <time>2021-02-23T09:51:53Z</time>
      </trkpt>
      <trkpt lat="47.69555" lon="6.14199">
        <ele>300.9</ele>
        <time>2021-02-23T09:51:56Z</time>
      </trkpt>
      <trkpt lat="47.69552" lon="6.14192">
        <ele>301</ele>
        <time>2021-02-23T09:51:58Z</time>
      </trkpt>
      <trkpt lat="47.6955" lon="6.14185">
        <ele>301.2</ele>
        <time>2021-02-23T09:52:00Z</time>
      </trkpt>
      <trkpt lat="47.69548" lon="6.14177">
        <ele>301.5</ele>
        <time>2021-02-23T09:52:01Z</time>
      </trkpt>
      <trkpt lat="47.69547" lon="6.14169">
        <ele>301.7</ele>
        <time>2021-02-23T09:52:06Z</time>
      </trkpt>
      <trkpt lat="47.69546" lon="6.14161">
        <ele>301.7</ele>
        <time>2021-02-23T09:52:09Z</time>
      </trkpt>
      <trkpt lat="47.69545" lon="6.14153">
        <ele>301.7</ele>
        <time>2021-02-23T09:52:12Z</time>
      </trkpt>
      <trkpt lat="47.69543" lon="6.14146">
        <ele>301.6</ele>
        <time>2021-02-23T09:52:12Z</time>
      </trkpt>
      <trkpt lat="47.69541" lon="6.14137">
        <ele>301.5</ele>
        <time>2021-02-23T09:52:15Z</time>
      </trkpt>
      <trkpt lat="47.69539" lon="6.14127">
        <ele>301.3</ele>
        <time>2021-02-23T09:52:20Z</time>
      </trkpt>
      <trkpt lat="47.69538" lon="6.14119">
        <ele>301.3</ele>
        <time>2021-02-23T09:52:20Z</time>
      </trkpt>
      <trkpt lat="47.69537" lon="6.14112">
        <ele>301.2</ele>
        <time>2021-02-23T09:52:24Z</time>
      </trkpt>
      <trkpt lat="47.69535" lon="6.14105">
        <ele>301.1</ele>
        <time>2021-02-23T09:52:24Z</time>
      </trkpt>
      <trkpt lat="47.69534" lon="6.14098">
        <ele>301</ele>
        <time>2021-02-23T09:52:26Z</time>
      </trkpt>
      <trkpt lat="47.69533" lon="6.14092">
        <ele>301</ele>
        <time>2021-02-23T09:52:30Z</time>
      </trkpt>
      <trkpt lat="47.6953" lon="6.14083">
        <ele>300.8</ele>
        <time>2021-02-23T09:52:33Z</time>
      </trkpt>
      <trkpt lat="47.69528" lon="6.14075">
        <ele>300.6</ele>
        <time>2021-02-23T09:52:34Z</time>
      </trkpt>
      <trkpt lat="47.69526" lon="6.14066">
        <ele>300.4</ele>
        <time>2021-02-23T09:52:40Z</time>
      </trkpt>
      <trkpt lat="47.69524" lon="6.14058">
        <ele>300.1</ele>
        <time>2021-02-23T09:52:41Z</time>
      </trkpt>
      <trkpt lat="47.6952" lon="6.14052">
        <ele>299.8</ele>
        <time>2021-02-23T09:52:46Z</time>
      </trkpt>
      <trkpt lat="47.69517" lon="6.14046">
        <ele>299.6</ele>
        <time>2021-02-23T09:52:48Z</time>
      </trkpt>
      <trkpt lat="47.69514" lon="6.14039">
        <ele>299.3</ele>
        <time>2021-02-23T09:52:50Z</time>
      </trkpt>
      <trkpt lat="47.69508" lon="6.14029">
        <ele>298.8</ele>
        <time>2021-02-23T09:52:50Z</time>
      </trkpt>
      <trkpt lat="47.69504" lon="6.14022">
        <ele>298.5</ele>
        <time>2021-02-23T09:52:54Z</time>
      </trkpt>
      <trkpt lat="47.69501" lon="6.14017">
        <ele>298.3</ele>
        <time>2021-02-23T09:52:55Z</time>
      </trkpt>
      <trkpt lat="47.69493" lon="6.14008">
        <ele>297.9</ele>
        <time>2021-02-23T09:52:57Z</time>
      </trkpt>
      <trkpt lat="47.69489" lon="6.14001">
        <ele>297.7</ele>
        <time>2021-02-23T09:52:59Z</time>
      </trkpt>
      <trkpt lat="47.69485" lon="6.13995">
        <ele>297.6</ele>
        <time>2021-02-23T09:53:00Z</time>
      </trkpt>
      <trkpt lat="47.69481" lon="6.13989">
        <ele>297.5</ele>
        <time>2021-02-23T09:53:01Z</time>
      </trkpt>
      <trkpt lat="47.69477" lon="6.13983">
        <ele>297.4</ele>
        <time>2021-02-23T09:53:02Z</time>
      </trkpt>
      <trkpt lat="47.69473" lon="6.13976">
        <ele>297.3</ele>
        <time>2021-02-23T09:53:04Z</time>
      </trkpt>
      <trkpt lat="47.6947" lon="6.13971">
        <ele>297.1</ele>
        <time>2021-02-23T09:53:05Z</time>
      </trkpt>
      <trkpt lat="47.69466" lon="6.13966">
        <ele>297</ele>
        <time>2021-02-23T09:53:06Z</time>
      </trkpt>
      <trkpt lat="47.69461" lon="6.13957">
        <ele>296.8</ele>
        <time>2021-02-23T09:53:08Z</time>
      </trkpt>
      <trkpt lat="47.69452" lon="6.13941">
        <ele>296.4</ele>
        <time>2021-02-23T09:53:11Z</time>
      </trkpt>
      <trkpt lat="47.69445" lon="6.13929">
        <ele>296.1</ele>
        <time>2021-02-23T09:53:11Z</time>
      </trkpt>
      <trkpt lat="47.69441" lon="6.13923">
        <ele>295.9</ele>
        <time>2021-02-23T09:53:12Z</time>
      </trkpt>
      <trkpt lat="47.69437" lon="6.13918">
        <ele>295.8</ele>
        <time>2021-02-23T09:53:13Z</time>
      </trkpt>
      <trkpt lat="47.69433" lon="6.13912">
        <ele>295.6</ele>
        <time>2021-02-23T09:53:14Z</time>
      </trkpt>
      <trkpt lat="47.69429" lon="6.13907">
        <ele>295.4</ele>
        <time>2021-02-23T09:53:15Z</time>
      </trkpt>
      <trkpt lat="47.69425" lon="6.13901">
        <ele>295.3</ele>
        <time>2021-02-23T09:53:16Z</time>
      </trkpt>
      <trkpt lat="47.6942" lon="6.13896">
        <ele>295.1</ele>
        <time>2021-02-23T09:53:17Z</time>
      </trkpt>
      <trkpt lat="47.69416" lon="6.13891">
        <ele>295</ele>
        <time>2021-02-23T09:53:18Z</time>
      </trkpt>
      <trkpt lat="47.69412" lon="6.13886">
        <ele>294.9</ele>
        <time>2021-02-23T09:53:19Z</time>
      </trkpt>
      <trkpt lat="47.69407" lon="6.1388">
        <ele>294.7</ele>
        <time>2021-02-23T09:53:21Z</time>
      </trkpt>
      <trkpt lat="47.69403" lon="6.13875">
        <ele>294.6</ele>
        <time>2021-02-23T09:53:22Z</time>
      </trkpt>
      <trkpt lat="47.69399" lon="6.1387">
        <ele>294.5</ele>
        <time>2021-02-23T09:53:23Z</time>
      </trkpt>
      <trkpt lat="47.69395" lon="6.13865">
        <ele>294.3</ele>
        <time>2021-02-23T09:53:24Z</time>
      </trkpt>
      <trkpt lat="47.69391" lon="6.13859">
        <ele>294.2</ele>
        <time>2021-02-23T09:53:25Z</time>
      </trkpt>
      <trkpt lat="47.69387" lon="6.13853">
        <ele>294</ele>
        <time>2021-02-23T09:53:26Z</time>
      </trkpt>
      <trkpt lat="47.69383" lon="6.13846">
        <ele>293.9</ele>
        <time>2021-02-23T09:53:27Z</time>
      </trkpt>
      <trkpt lat="47.69379" lon="6.1384">
        <ele>293.7</ele>
        <time>2021-02-23T09:53:28Z</time>
      </trkpt>
      <trkpt lat="47.69376" lon="6.13834">
        <ele>293.5</ele>
        <time>2021-02-23T09:53:29Z</time>
      </trkpt>
      <trkpt lat="47.69372" lon="6.13828">
        <ele>293.6</ele>
        <time>2021-02-23T09:53:30Z</time>
      </trkpt>
      <trkpt lat="47.69369" lon="6.13822">
        <ele>293.7</ele>
        <time>2021-02-23T09:53:31Z</time>
      </trkpt>
      <trkpt lat="47.69367" lon="6.13816">
        <ele>293.8</ele>
        <time>2021-02-23T09:53:32Z</time>
      </trkpt>
      <trkpt lat="47.69364" lon="6.1381">
        <ele>293.9</ele>
        <time>2021-02-23T09:53:33Z</time>
      </trkpt>
      <trkpt lat="47.69359" lon="6.13799">
        <ele>294.2</ele>
        <time>2021-02-23T09:53:35Z</time>
      </trkpt>
      <trkpt lat="47.69355" lon="6.13789">
        <ele>294.4</ele>
        <time>2021-02-23T09:53:37Z</time>
      </trkpt>
      <trkpt lat="47.69351" lon="6.1378">
        <ele>294.5</ele>
        <time>2021-02-23T09:53:39Z</time>
      </trkpt>
      <trkpt lat="47.69346" lon="6.13772">
        <ele>294.7</ele>
        <time>2021-02-23T09:53:41Z</time>
      </trkpt>
      <trkpt lat="47.69342" lon="6.13764">
        <ele>294.8</ele>
        <time>2021-02-23T09:53:43Z</time>
      </trkpt>
      <trkpt lat="47.69338" lon="6.13758">
        <ele>294.9</ele>
        <time>2021-02-23T09:53:45Z</time>
      </trkpt>
      <trkpt lat="47.69334" lon="6.13751">
        <ele>295</ele>
        <time>2021-02-23T09:53:47Z</time>
      </trkpt>
      <trkpt lat="47.6933" lon="6.13745">
        <ele>295.2</ele>
        <time>2021-02-23T09:53:49Z</time>
      </trkpt>
      <trkpt lat="47.69323" lon="6.13735">
        <ele>295.7</ele>
        <time>2021-02-23T09:53:52Z</time>
      </trkpt>
      <trkpt lat="47.69318" lon="6.13731">
        <ele>295.9</ele>
        <time>2021-02-23T09:53:54Z</time>
      </trkpt>
      <trkpt lat="47.69315" lon="6.13723">
        <ele>296.2</ele>
        <time>2021-02-23T09:53:57Z</time>
      </trkpt>
      <trkpt lat="47.69312" lon="6.13715">
        <ele>296.5</ele>
        <time>2021-02-23T09:53:59Z</time>
      </trkpt>
      <trkpt lat="47.69309" lon="6.13708">
        <ele>296.8</ele>
        <time>2021-02-23T09:54:01Z</time>
      </trkpt>
      <trkpt lat="47.69306" lon="6.13702">
        <ele>297.1</ele>
        <time>2021-02-23T09:54:04Z</time>
      </trkpt>
      <trkpt lat="47.69302" lon="6.13695">
        <ele>297.3</ele>
        <time>2021-02-23T09:54:07Z</time>
      </trkpt>
      <trkpt lat="47.69299" lon="6.13688">
        <ele>297.6</ele>
        <time>2021-02-23T09:54:08Z</time>
      </trkpt>
      <trkpt lat="47.69295" lon="6.1368">
        <ele>298</ele>
        <time>2021-02-23T09:54:11Z</time>
      </trkpt>
      <trkpt lat="47.69292" lon="6.13672">
        <ele>298.3</ele>
        <time>2021-02-23T09:54:15Z</time>
      </trkpt>
      <trkpt lat="47.69289" lon="6.13666">
        <ele>298.6</ele>
        <time>2021-02-23T09:54:18Z</time>
      </trkpt>
      <trkpt lat="47.69286" lon="6.1366">
        <ele>298.8</ele>
        <time>2021-02-23T09:54:20Z</time>
      </trkpt>
      <trkpt lat="47.69284" lon="6.13653">
        <ele>299</ele>
        <time>2021-02-23T09:54:21Z</time>
      </trkpt>
      <trkpt lat="47.69281" lon="6.13648">
        <ele>299.1</ele>
        <time>2021-02-23T09:54:23Z</time>
      </trkpt>
      <trkpt lat="47.69277" lon="6.1364">
        <ele>299.4</ele>
        <time>2021-02-23T09:54:27Z</time>
      </trkpt>
      <trkpt lat="47.69274" lon="6.13633">
        <ele>299.7</ele>
        <time>2021-02-23T09:54:30Z</time>
      </trkpt>
      <trkpt lat="47.69272" lon="6.13626">
        <ele>299.9</ele>
        <time>2021-02-23T09:54:31Z</time>
      </trkpt>
      <trkpt lat="47.69269" lon="6.1362">
        <ele>300.2</ele>
        <time>2021-02-23T09:54:35Z</time>
      </trkpt>
      <trkpt lat="47.69266" lon="6.13613">
        <ele>300.5</ele>
        <time>2021-02-23T09:54:36Z</time>
      </trkpt>
      <trkpt lat="47.69263" lon="6.13606">
        <ele>300.8</ele>
        <time>2021-02-23T09:54:40Z</time>
      </trkpt>
      <trkpt lat="47.69259" lon="6.13599">
        <ele>301.2</ele>
        <time>2021-02-23T09:54:41Z</time>
      </trkpt>
      <trkpt lat="47.69256" lon="6.13592">
        <ele>301.5</ele>
        <time>2021-02-23T09:54:44Z</time>
      </trkpt>
      <trkpt lat="47.69251" lon="6.13583">
        <ele>301.9</ele>
        <time>2021-02-23T09:54:47Z</time>
      </trkpt>
      <trkpt lat="47.69248" lon="6.13576">
        <ele>301.8</ele>
        <time>2021-02-23T09:54:49Z</time>
      </trkpt>
      <trkpt lat="47.69245" lon="6.13568">
        <ele>301.6</ele>
        <time>2021-02-23T09:54:51Z</time>
      </trkpt>
      <trkpt lat="47.69241" lon="6.1356">
        <ele>301.4</ele>
        <time>2021-02-23T09:54:53Z</time>
      </trkpt>
      <trkpt lat="47.69237" lon="6.13552">
        <ele>301.2</ele>
        <time>2021-02-23T09:54:55Z</time>
      </trkpt>
      <trkpt lat="47.69233" lon="6.13542">
        <ele>300.9</ele>
        <time>2021-02-23T09:54:56Z</time>
      </trkpt>
      <trkpt lat="47.69229" lon="6.13535">
        <ele>300.7</ele>
        <time>2021-02-23T09:54:58Z</time>
      </trkpt>
      <trkpt lat="47.69225" lon="6.13528">
        <ele>300.6</ele>
        <time>2021-02-23T09:55:01Z</time>
      </trkpt>
      <trkpt lat="47.69222" lon="6.1352">
        <ele>300.4</ele>
        <time>2021-02-23T09:55:03Z</time>
      </trkpt>
      <trkpt lat="47.69218" lon="6.13511">
        <ele>300.2</ele>
        <time>2021-02-23T09:55:04Z</time>
      </trkpt>
      <trkpt lat="47.69215" lon="6.13505">
        <ele>300.1</ele>
        <time>2021-02-23T09:55:06Z</time>
      </trkpt>
      <trkpt lat="47.69211" lon="6.13497">
        <ele>299.9</ele>
        <time>2021-02-23T09:55:07Z</time>
      </trkpt>
      <trkpt lat="47.69208" lon="6.13491">
        <ele>299.6</ele>
        <time>2021-02-23T09:55:10Z</time>
      </trkpt>
      <trkpt lat="47.69203" lon="6.1348">
        <ele>299.2</ele>
        <time>2021-02-23T09:55:12Z</time>
      </trkpt>
      <trkpt lat="47.69199" lon="6.13473">
        <ele>299</ele>
        <time>2021-02-23T09:55:14Z</time>
      </trkpt>
      <trkpt lat="47.69194" lon="6.13463">
        <ele>298.7</ele>
        <time>2021-02-23T09:55:16Z</time>
      </trkpt>
      <trkpt lat="47.69191" lon="6.13456">
        <ele>298.5</ele>
        <time>2021-02-23T09:55:18Z</time>
      </trkpt>
      <trkpt lat="47.69187" lon="6.13446">
        <ele>298.2</ele>
        <time>2021-02-23T09:55:20Z</time>
      </trkpt>
      <trkpt lat="47.69183" lon="6.13438">
        <ele>298.1</ele>
        <time>2021-02-23T09:55:22Z</time>
      </trkpt>
      <trkpt lat="47.69179" lon="6.13428">
        <ele>297.9</ele>
        <time>2021-02-23T09:55:23Z</time>
      </trkpt>
      <trkpt lat="47.69177" lon="6.13422">
        <ele>297.8</ele>
        <time>2021-02-23T09:55:25Z</time>
      </trkpt>
      <trkpt lat="47.69175" lon="6.13416">
        <ele>297.7</ele>
        <time>2021-02-23T09:55:27Z</time>
      </trkpt>
      <trkpt lat="47.69171" lon="6.13405">
        <ele>297.4</ele>
        <time>2021-02-23T09:55:29Z</time>
      </trkpt>
      <trkpt lat="47.69168" lon="6.13394">
        <ele>297.2</ele>
        <time>2021-02-23T09:55:30Z</time>
      </trkpt>
      <trkpt lat="47.69165" lon="6.13385">
        <ele>296.9</ele>
        <time>2021-02-23T09:55:33Z</time>
      </trkpt>
      <trkpt lat="47.69162" lon="6.13377">
        <ele>296.7</ele>
        <time>2021-02-23T09:55:35Z</time>
      </trkpt>
      <trkpt lat="47.69159" lon="6.13367">
        <ele>296.4</ele>
        <time>2021-02-23T09:55:37Z</time>
      </trkpt>
      <trkpt lat="47.69155" lon="6.13357">
        <ele>296.2</ele>
        <time>2021-02-23T09:55:38Z</time>
      </trkpt>
      <trkpt lat="47.69153" lon="6.13349">
        <ele>296.1</ele>
        <time>2021-02-23T09:55:41Z</time>
      </trkpt>
      <trkpt lat="47.6915" lon="6.13343">
        <ele>296.1</ele>
        <time>2021-02-23T09:55:43Z</time>
      </trkpt>
      <trkpt lat="47.69146" lon="6.13334">
        <ele>296</ele>
        <time>2021-02-23T09:55:45Z</time>
      </trkpt>
      <trkpt lat="47.69143" lon="6.13325">
        <ele>296</ele>
        <time>2021-02-23T09:55:47Z</time>
      </trkpt>
      <trkpt lat="47.69141" lon="6.13316">
        <ele>296</ele>
        <time>2021-02-23T09:55:48Z</time>
      </trkpt>
      <trkpt lat="47.69135" lon="6.13304">
        <ele>296</ele>
        <time>2021-02-23T09:55:50Z</time>
      </trkpt>
      <trkpt lat="47.69132" lon="6.13296">
        <ele>296</ele>
        <time>2021-02-23T09:55:53Z</time>
      </trkpt>
      <trkpt lat="47.6913" lon="6.13289">
        <ele>296</ele>
        <time>2021-02-23T09:55:54Z</time>
      </trkpt>
      <trkpt lat="47.69125" lon="6.13274">
        <ele>295.9</ele>
        <time>2021-02-23T09:55:57Z</time>
      </trkpt>
      <trkpt lat="47.69122" lon="6.13267">
        <ele>295.9</ele>
        <time>2021-02-23T09:55:58Z</time>
      </trkpt>
      <trkpt lat="47.69121" lon="6.13261">
        <ele>295.9</ele>
        <time>2021-02-23T09:55:59Z</time>
      </trkpt>
      <trkpt lat="47.69119" lon="6.13253">
        <ele>295.8</ele>
        <time>2021-02-23T09:56:01Z</time>
      </trkpt>
      <trkpt lat="47.69117" lon="6.13242">
        <ele>295.7</ele>
        <time>2021-02-23T09:56:03Z</time>
      </trkpt>
      <trkpt lat="47.69115" lon="6.13233">
        <ele>295.7</ele>
        <time>2021-02-23T09:56:05Z</time>
      </trkpt>
      <trkpt lat="47.69113" lon="6.1322">
        <ele>295.7</ele>
        <time>2021-02-23T09:56:06Z</time>
      </trkpt>
      <trkpt lat="47.69111" lon="6.13209">
        <ele>295.7</ele>
        <time>2021-02-23T09:56:08Z</time>
      </trkpt>
      <trkpt lat="47.69111" lon="6.13201">
        <ele>295.6</ele>
        <time>2021-02-23T09:56:11Z</time>
      </trkpt>
      <trkpt lat="47.6911" lon="6.13194">
        <ele>295.6</ele>
        <time>2021-02-23T09:56:12Z</time>
      </trkpt>
      <trkpt lat="47.6911" lon="6.13186">
        <ele>295.5</ele>
        <time>2021-02-23T09:56:13Z</time>
      </trkpt>
      <trkpt lat="47.6911" lon="6.13176">
        <ele>295.4</ele>
        <time>2021-02-23T09:56:15Z</time>
      </trkpt>
      <trkpt lat="47.69111" lon="6.13168">
        <ele>295.4</ele>
        <time>2021-02-23T09:56:16Z</time>
      </trkpt>
      <trkpt lat="47.69112" lon="6.13149">
        <ele>295.1</ele>
        <time>2021-02-23T09:56:18Z</time>
      </trkpt>
      <trkpt lat="47.69113" lon="6.13141">
        <ele>295</ele>
        <time>2021-02-23T09:56:20Z</time>
      </trkpt>
      <trkpt lat="47.69114" lon="6.13133">
        <ele>294.9</ele>
        <time>2021-02-23T09:56:22Z</time>
      </trkpt>
      <trkpt lat="47.69117" lon="6.13119">
        <ele>294.6</ele>
        <time>2021-02-23T09:56:23Z</time>
      </trkpt>
      <trkpt lat="47.69119" lon="6.13109">
        <ele>294.5</ele>
        <time>2021-02-23T09:56:26Z</time>
      </trkpt>
      <trkpt lat="47.69122" lon="6.13101">
        <ele>294.3</ele>
        <time>2021-02-23T09:56:27Z</time>
      </trkpt>
      <trkpt lat="47.69125" lon="6.13088">
        <ele>294.1</ele>
        <time>2021-02-23T09:56:28Z</time>
      </trkpt>
      <trkpt lat="47.69129" lon="6.13076">
        <ele>293.6</ele>
        <time>2021-02-23T09:56:30Z</time>
      </trkpt>
      <trkpt lat="47.69132" lon="6.13064">
        <ele>293.1</ele>
        <time>2021-02-23T09:56:33Z</time>
      </trkpt>
      <trkpt lat="47.69135" lon="6.13052">
        <ele>292.6</ele>
        <time>2021-02-23T09:56:35Z</time>
      </trkpt>
      <trkpt lat="47.69138" lon="6.1304">
        <ele>292.1</ele>
        <time>2021-02-23T09:56:37Z</time>
      </trkpt>
      <trkpt lat="47.6914" lon="6.13018">
        <ele>291.3</ele>
        <time>2021-02-23T09:56:38Z</time>
      </trkpt>
      <trkpt lat="47.69139" lon="6.1301">
        <ele>291</ele>
        <time>2021-02-23T09:56:39Z</time>
      </trkpt>
      <trkpt lat="47.69138" lon="6.13002">
        <ele>290.8</ele>
        <time>2021-02-23T09:56:40Z</time>
      </trkpt>
      <trkpt lat="47.69135" lon="6.12995">
        <ele>290.6</ele>
        <time>2021-02-23T09:56:41Z</time>
      </trkpt>
      <trkpt lat="47.69133" lon="6.12987">
        <ele>290.4</ele>
        <time>2021-02-23T09:56:42Z</time>
      </trkpt>
      <trkpt lat="47.6913" lon="6.1298">
        <ele>290.2</ele>
        <time>2021-02-23T09:56:43Z</time>
      </trkpt>
      <trkpt lat="47.69127" lon="6.12973">
        <ele>290</ele>
        <time>2021-02-23T09:56:44Z</time>
      </trkpt>
      <trkpt lat="47.69125" lon="6.12965">
        <ele>289.7</ele>
        <time>2021-02-23T09:56:45Z</time>
      </trkpt>
      <trkpt lat="47.69123" lon="6.12956">
        <ele>289.5</ele>
        <time>2021-02-23T09:56:46Z</time>
      </trkpt>
      <trkpt lat="47.69121" lon="6.12947">
        <ele>289.2</ele>
        <time>2021-02-23T09:56:47Z</time>
      </trkpt>
      <trkpt lat="47.6912" lon="6.12938">
        <ele>288.9</ele>
        <time>2021-02-23T09:56:48Z</time>
      </trkpt>
      <trkpt lat="47.69119" lon="6.12928">
        <ele>288.6</ele>
        <time>2021-02-23T09:56:49Z</time>
      </trkpt>
      <trkpt lat="47.69118" lon="6.12918">
        <ele>288.2</ele>
        <time>2021-02-23T09:56:50Z</time>
      </trkpt>
      <trkpt lat="47.69116" lon="6.12907">
        <ele>287.9</ele>
        <time>2021-02-23T09:56:51Z</time>
      </trkpt>
      <trkpt lat="47.69115" lon="6.12896">
        <ele>287.6</ele>
        <time>2021-02-23T09:56:52Z</time>
      </trkpt>
      <trkpt lat="47.69114" lon="6.12885">
        <ele>287.3</ele>
        <time>2021-02-23T09:56:53Z</time>
      </trkpt>
      <trkpt lat="47.69113" lon="6.12874">
        <ele>286.9</ele>
        <time>2021-02-23T09:56:54Z</time>
      </trkpt>
      <trkpt lat="47.69111" lon="6.12863">
        <ele>286.6</ele>
        <time>2021-02-23T09:56:55Z</time>
      </trkpt>
      <trkpt lat="47.6911" lon="6.12853">
        <ele>286.3</ele>
        <time>2021-02-23T09:56:56Z</time>
      </trkpt>
      <trkpt lat="47.69108" lon="6.12843">
        <ele>286</ele>
        <time>2021-02-23T09:56:57Z</time>
      </trkpt>
      <trkpt lat="47.69105" lon="6.12833">
        <ele>285.7</ele>
        <time>2021-02-23T09:56:58Z</time>
      </trkpt>
      <trkpt lat="47.69102" lon="6.12824">
        <ele>285.7</ele>
        <time>2021-02-23T09:56:59Z</time>
      </trkpt>
      <trkpt lat="47.69099" lon="6.12814">
        <ele>285.6</ele>
        <time>2021-02-23T09:57:00Z</time>
      </trkpt>
      <trkpt lat="47.69097" lon="6.12805">
        <ele>285.6</ele>
        <time>2021-02-23T09:57:01Z</time>
      </trkpt>
      <trkpt lat="47.69094" lon="6.12794">
        <ele>285.5</ele>
        <time>2021-02-23T09:57:02Z</time>
      </trkpt>
      <trkpt lat="47.69092" lon="6.12784">
        <ele>285.4</ele>
        <time>2021-02-23T09:57:03Z</time>
      </trkpt>
      <trkpt lat="47.69091" lon="6.12774">
        <ele>285.3</ele>
        <time>2021-02-23T09:57:04Z</time>
      </trkpt>
      <trkpt lat="47.69091" lon="6.12764">
        <ele>285.2</ele>
        <time>2021-02-23T09:57:05Z</time>
      </trkpt>
      <trkpt lat="47.6909" lon="6.12755">
        <ele>285.1</ele>
        <time>2021-02-23T09:57:06Z</time>
      </trkpt>
      <trkpt lat="47.6909" lon="6.12745">
        <ele>285.1</ele>
        <time>2021-02-23T09:57:07Z</time>
      </trkpt>
      <trkpt lat="47.6909" lon="6.12737">
        <ele>285.3</ele>
        <time>2021-02-23T09:57:08Z</time>
      </trkpt>
      <trkpt lat="47.6909" lon="6.12729">
        <ele>285.5</ele>
        <time>2021-02-23T09:57:09Z</time>
      </trkpt>
      <trkpt lat="47.6909" lon="6.12722">
        <ele>285.7</ele>
        <time>2021-02-23T09:57:10Z</time>
      </trkpt>
      <trkpt lat="47.6909" lon="6.12712">
        <ele>285.9</ele>
        <time>2021-02-23T09:57:12Z</time>
      </trkpt>
      <trkpt lat="47.6909" lon="6.12703">
        <ele>286.1</ele>
        <time>2021-02-23T09:57:14Z</time>
      </trkpt>
      <trkpt lat="47.69089" lon="6.12693">
        <ele>286.4</ele>
        <time>2021-02-23T09:57:16Z</time>
      </trkpt>
      <trkpt lat="47.69088" lon="6.12683">
        <ele>286.6</ele>
        <time>2021-02-23T09:57:18Z</time>
      </trkpt>
      <trkpt lat="47.69087" lon="6.12672">
        <ele>286.9</ele>
        <time>2021-02-23T09:57:20Z</time>
      </trkpt>
      <trkpt lat="47.69087" lon="6.12665">
        <ele>287</ele>
        <time>2021-02-23T09:57:22Z</time>
      </trkpt>
      <trkpt lat="47.69086" lon="6.12655">
        <ele>287</ele>
        <time>2021-02-23T09:57:24Z</time>
      </trkpt>
      <trkpt lat="47.69086" lon="6.12645">
        <ele>287</ele>
        <time>2021-02-23T09:57:26Z</time>
      </trkpt>
      <trkpt lat="47.69086" lon="6.12635">
        <ele>287</ele>
        <time>2021-02-23T09:57:28Z</time>
      </trkpt>
      <trkpt lat="47.69086" lon="6.12628">
        <ele>287</ele>
        <time>2021-02-23T09:57:29Z</time>
      </trkpt>
      <trkpt lat="47.69086" lon="6.1261">
        <ele>287</ele>
        <time>2021-02-23T09:57:30Z</time>
      </trkpt>
      <trkpt lat="47.69086" lon="6.12603">
        <ele>287</ele>
        <time>2021-02-23T09:57:31Z</time>
      </trkpt>
      <trkpt lat="47.69087" lon="6.12595">
        <ele>287</ele>
        <time>2021-02-23T09:57:32Z</time>
      </trkpt>
      <trkpt lat="47.69089" lon="6.12587">
        <ele>286.9</ele>
        <time>2021-02-23T09:57:33Z</time>
      </trkpt>
      <trkpt lat="47.69091" lon="6.12579">
        <ele>286.8</ele>
        <time>2021-02-23T09:57:34Z</time>
      </trkpt>
      <trkpt lat="47.69093" lon="6.12572">
        <ele>286.5</ele>
        <time>2021-02-23T09:57:35Z</time>
      </trkpt>
      <trkpt lat="47.69095" lon="6.12565">
        <ele>286.2</ele>
        <time>2021-02-23T09:57:36Z</time>
      </trkpt>
      <trkpt lat="47.69098" lon="6.12558">
        <ele>285.9</ele>
        <time>2021-02-23T09:57:37Z</time>
      </trkpt>
      <trkpt lat="47.691" lon="6.12551">
        <ele>285.6</ele>
        <time>2021-02-23T09:57:38Z</time>
      </trkpt>
      <trkpt lat="47.69103" lon="6.12544">
        <ele>285.4</ele>
        <time>2021-02-23T09:57:39Z</time>
      </trkpt>
      <trkpt lat="47.69105" lon="6.12537">
        <ele>285.1</ele>
        <time>2021-02-23T09:57:40Z</time>
      </trkpt>
      <trkpt lat="47.69108" lon="6.1253">
        <ele>284.8</ele>
        <time>2021-02-23T09:57:41Z</time>
      </trkpt>
      <trkpt lat="47.6911" lon="6.12523">
        <ele>284.5</ele>
        <time>2021-02-23T09:57:42Z</time>
      </trkpt>
      <trkpt lat="47.69112" lon="6.12517">
        <ele>284.2</ele>
        <time>2021-02-23T09:57:43Z</time>
      </trkpt>
      <trkpt lat="47.69115" lon="6.12509">
        <ele>284</ele>
        <time>2021-02-23T09:57:44Z</time>
      </trkpt>
      <trkpt lat="47.69116" lon="6.12502">
        <ele>283.7</ele>
        <time>2021-02-23T09:57:45Z</time>
      </trkpt>
      <trkpt lat="47.69117" lon="6.12494">
        <ele>283.5</ele>
        <time>2021-02-23T09:57:46Z</time>
      </trkpt>
      <trkpt lat="47.69118" lon="6.12487">
        <ele>283.4</ele>
        <time>2021-02-23T09:57:47Z</time>
      </trkpt>
      <trkpt lat="47.69118" lon="6.1248">
        <ele>283.3</ele>
        <time>2021-02-23T09:57:48Z</time>
      </trkpt>
      <trkpt lat="47.69117" lon="6.12472">
        <ele>283.3</ele>
        <time>2021-02-23T09:57:49Z</time>
      </trkpt>
      <trkpt lat="47.69116" lon="6.12465">
        <ele>283.2</ele>
        <time>2021-02-23T09:57:50Z</time>
      </trkpt>
      <trkpt lat="47.69115" lon="6.12459">
        <ele>283.1</ele>
        <time>2021-02-23T09:57:51Z</time>
      </trkpt>
      <trkpt lat="47.69112" lon="6.12446">
        <ele>283</ele>
        <time>2021-02-23T09:57:53Z</time>
      </trkpt>
      <trkpt lat="47.69108" lon="6.12435">
        <ele>282.9</ele>
        <time>2021-02-23T09:57:55Z</time>
      </trkpt>
      <trkpt lat="47.69104" lon="6.12424">
        <ele>282.8</ele>
        <time>2021-02-23T09:57:57Z</time>
      </trkpt>
      <trkpt lat="47.69098" lon="6.12413">
        <ele>282.8</ele>
        <time>2021-02-23T09:57:59Z</time>
      </trkpt>
      <trkpt lat="47.69095" lon="6.12407">
        <ele>282.7</ele>
        <time>2021-02-23T09:58:00Z</time>
      </trkpt>
      <trkpt lat="47.69092" lon="6.12402">
        <ele>282.7</ele>
        <time>2021-02-23T09:58:01Z</time>
      </trkpt>
      <trkpt lat="47.69088" lon="6.12397">
        <ele>282.7</ele>
        <time>2021-02-23T09:58:02Z</time>
      </trkpt>
      <trkpt lat="47.69084" lon="6.12392">
        <ele>282.7</ele>
        <time>2021-02-23T09:58:03Z</time>
      </trkpt>
      <trkpt lat="47.69081" lon="6.12386">
        <ele>282.6</ele>
        <time>2021-02-23T09:58:04Z</time>
      </trkpt>
      <trkpt lat="47.69077" lon="6.12381">
        <ele>282.5</ele>
        <time>2021-02-23T09:58:05Z</time>
      </trkpt>
      <trkpt lat="47.69073" lon="6.12375">
        <ele>282.3</ele>
        <time>2021-02-23T09:58:06Z</time>
      </trkpt>
      <trkpt lat="47.6907" lon="6.12369">
        <ele>282.2</ele>
        <time>2021-02-23T09:58:07Z</time>
      </trkpt>
      <trkpt lat="47.69066" lon="6.12365">
        <ele>282</ele>
        <time>2021-02-23T09:58:08Z</time>
      </trkpt>
      <trkpt lat="47.69059" lon="6.12365">
        <ele>281.9</ele>
        <time>2021-02-23T09:58:10Z</time>
      </trkpt>
      <trkpt lat="47.69052" lon="6.12372">
        <ele>281.9</ele>
        <time>2021-02-23T09:58:12Z</time>
      </trkpt>
      <trkpt lat="47.6905" lon="6.12377">
        <ele>281.9</ele>
        <time>2021-02-23T09:58:13Z</time>
      </trkpt>
      <trkpt lat="47.69045" lon="6.12392">
        <ele>282.1</ele>
        <time>2021-02-23T09:58:15Z</time>
      </trkpt>
      <trkpt lat="47.69044" lon="6.12398">
        <ele>282.2</ele>
        <time>2021-02-23T09:58:18Z</time>
      </trkpt>
      <trkpt lat="47.69041" lon="6.12407">
        <ele>282.3</ele>
        <time>2021-02-23T09:58:20Z</time>
      </trkpt>
      <trkpt lat="47.69036" lon="6.12423">
        <ele>282.6</ele>
        <time>2021-02-23T09:58:22Z</time>
      </trkpt>
      <trkpt lat="47.69034" lon="6.12431">
        <ele>282.8</ele>
        <time>2021-02-23T09:58:24Z</time>
      </trkpt>
      <trkpt lat="47.69031" lon="6.12436">
        <ele>282.9</ele>
        <time>2021-02-23T09:58:27Z</time>
      </trkpt>
      <trkpt lat="47.69026" lon="6.12452">
        <ele>283.3</ele>
        <time>2021-02-23T09:58:29Z</time>
      </trkpt>
      <trkpt lat="47.69021" lon="6.12464">
        <ele>283.7</ele>
        <time>2021-02-23T09:58:33Z</time>
      </trkpt>
      <trkpt lat="47.69018" lon="6.1247">
        <ele>283.9</ele>
        <time>2021-02-23T09:58:35Z</time>
      </trkpt>
      <trkpt lat="47.69016" lon="6.12477">
        <ele>284.1</ele>
        <time>2021-02-23T09:58:36Z</time>
      </trkpt>
      <trkpt lat="47.69013" lon="6.12485">
        <ele>284.4</ele>
        <time>2021-02-23T09:58:38Z</time>
      </trkpt>
      <trkpt lat="47.69009" lon="6.12494">
        <ele>284.7</ele>
        <time>2021-02-23T09:58:40Z</time>
      </trkpt>
      <trkpt lat="47.69005" lon="6.12502">
        <ele>285</ele>
        <time>2021-02-23T09:58:42Z</time>
      </trkpt>
      <trkpt lat="47.69002" lon="6.1251">
        <ele>285.2</ele>
        <time>2021-02-23T09:58:44Z</time>
      </trkpt>
      <trkpt lat="47.68998" lon="6.12519">
        <ele>285.4</ele>
        <time>2021-02-23T09:58:46Z</time>
      </trkpt>
      <trkpt lat="47.68995" lon="6.12527">
        <ele>285.5</ele>
        <time>2021-02-23T09:58:48Z</time>
      </trkpt>
      <trkpt lat="47.68992" lon="6.12535">
        <ele>285.6</ele>
        <time>2021-02-23T09:58:49Z</time>
      </trkpt>
      <trkpt lat="47.68989" lon="6.12542">
        <ele>285.7</ele>
        <time>2021-02-23T09:58:52Z</time>
      </trkpt>
      <trkpt lat="47.68986" lon="6.12547">
        <ele>285.8</ele>
        <time>2021-02-23T09:58:53Z</time>
      </trkpt>
      <trkpt lat="47.68984" lon="6.12555">
        <ele>285.9</ele>
        <time>2021-02-23T09:58:55Z</time>
      </trkpt>
      <trkpt lat="47.68981" lon="6.12561">
        <ele>286</ele>
        <time>2021-02-23T09:58:56Z</time>
      </trkpt>
      <trkpt lat="47.68978" lon="6.1257">
        <ele>286.1</ele>
        <time>2021-02-23T09:58:57Z</time>
      </trkpt>
      <trkpt lat="47.68974" lon="6.12577">
        <ele>286.2</ele>
        <time>2021-02-23T09:59:00Z</time>
      </trkpt>
      <trkpt lat="47.6897" lon="6.12586">
        <ele>286.3</ele>
        <time>2021-02-23T09:59:02Z</time>
      </trkpt>
      <trkpt lat="47.68967" lon="6.12594">
        <ele>286.2</ele>
        <time>2021-02-23T09:59:04Z</time>
      </trkpt>
      <trkpt lat="47.68964" lon="6.12602">
        <ele>286.1</ele>
        <time>2021-02-23T09:59:06Z</time>
      </trkpt>
      <trkpt lat="47.6896" lon="6.12611">
        <ele>286</ele>
        <time>2021-02-23T09:59:07Z</time>
      </trkpt>
      <trkpt lat="47.68957" lon="6.12618">
        <ele>286</ele>
        <time>2021-02-23T09:59:10Z</time>
      </trkpt>
      <trkpt lat="47.68953" lon="6.12629">
        <ele>285.9</ele>
        <time>2021-02-23T09:59:12Z</time>
      </trkpt>
      <trkpt lat="47.6895" lon="6.12637">
        <ele>285.8</ele>
        <time>2021-02-23T09:59:14Z</time>
      </trkpt>
      <trkpt lat="47.68945" lon="6.12649">
        <ele>285.7</ele>
        <time>2021-02-23T09:59:16Z</time>
      </trkpt>
      <trkpt lat="47.68943" lon="6.12655">
        <ele>285.6</ele>
        <time>2021-02-23T09:59:17Z</time>
      </trkpt>
      <trkpt lat="47.68939" lon="6.12665">
        <ele>285.5</ele>
        <time>2021-02-23T09:59:19Z</time>
      </trkpt>
      <trkpt lat="47.68935" lon="6.12681">
        <ele>285.2</ele>
        <time>2021-02-23T09:59:20Z</time>
      </trkpt>
      <trkpt lat="47.68934" lon="6.12688">
        <ele>285.1</ele>
        <time>2021-02-23T09:59:21Z</time>
      </trkpt>
      <trkpt lat="47.68933" lon="6.12695">
        <ele>285</ele>
        <time>2021-02-23T09:59:22Z</time>
      </trkpt>
      <trkpt lat="47.68932" lon="6.12702">
        <ele>284.9</ele>
        <time>2021-02-23T09:59:23Z</time>
      </trkpt>
      <trkpt lat="47.68931" lon="6.12708">
        <ele>284.8</ele>
        <time>2021-02-23T09:59:24Z</time>
      </trkpt>
      <trkpt lat="47.6893" lon="6.12715">
        <ele>284.7</ele>
        <time>2021-02-23T09:59:25Z</time>
      </trkpt>
      <trkpt lat="47.6893" lon="6.12722">
        <ele>284.5</ele>
        <time>2021-02-23T09:59:26Z</time>
      </trkpt>
      <trkpt lat="47.6893" lon="6.12729">
        <ele>284.4</ele>
        <time>2021-02-23T09:59:27Z</time>
      </trkpt>
      <trkpt lat="47.68929" lon="6.12736">
        <ele>284.3</ele>
        <time>2021-02-23T09:59:28Z</time>
      </trkpt>
      <trkpt lat="47.68929" lon="6.12743">
        <ele>284.2</ele>
        <time>2021-02-23T09:59:29Z</time>
      </trkpt>
      <trkpt lat="47.68929" lon="6.1275">
        <ele>284.2</ele>
        <time>2021-02-23T09:59:30Z</time>
      </trkpt>
      <trkpt lat="47.68929" lon="6.12756">
        <ele>284.2</ele>
        <time>2021-02-23T09:59:31Z</time>
      </trkpt>
      <trkpt lat="47.68927" lon="6.1277">
        <ele>284.4</ele>
        <time>2021-02-23T09:59:33Z</time>
      </trkpt>
      <trkpt lat="47.68926" lon="6.12777">
        <ele>284.4</ele>
        <time>2021-02-23T09:59:34Z</time>
      </trkpt>
      <trkpt lat="47.68925" lon="6.12783">
        <ele>284.5</ele>
        <time>2021-02-23T09:59:35Z</time>
      </trkpt>
      <trkpt lat="47.68923" lon="6.12794">
        <ele>284.6</ele>
        <time>2021-02-23T09:59:37Z</time>
      </trkpt>
      <trkpt lat="47.6892" lon="6.12805">
        <ele>284.7</ele>
        <time>2021-02-23T09:59:39Z</time>
      </trkpt>
      <trkpt lat="47.68917" lon="6.12814">
        <ele>284.8</ele>
        <time>2021-02-23T09:59:41Z</time>
      </trkpt>
      <trkpt lat="47.68907" lon="6.12823">
        <ele>284.6</ele>
        <time>2021-02-23T09:59:44Z</time>
      </trkpt>
      <trkpt lat="47.68908" lon="6.12834">
        <ele>284.8</ele>
        <time>2021-02-23T09:59:45Z</time>
      </trkpt>
      <trkpt lat="47.68906" lon="6.12843">
        <ele>284.9</ele>
        <time>2021-02-23T09:59:48Z</time>
      </trkpt>
      <trkpt lat="47.68905" lon="6.1285">
        <ele>284.9</ele>
        <time>2021-02-23T09:59:50Z</time>
      </trkpt>
      <trkpt lat="47.68903" lon="6.12856">
        <ele>285</ele>
        <time>2021-02-23T09:59:51Z</time>
      </trkpt>
      <trkpt lat="47.68901" lon="6.12865">
        <ele>285.1</ele>
        <time>2021-02-23T09:59:52Z</time>
      </trkpt>
      <trkpt lat="47.68899" lon="6.12871">
        <ele>285.1</ele>
        <time>2021-02-23T09:59:55Z</time>
      </trkpt>
      <trkpt lat="47.68897" lon="6.12879">
        <ele>285.2</ele>
        <time>2021-02-23T09:59:58Z</time>
      </trkpt>
      <trkpt lat="47.68895" lon="6.12886">
        <ele>285.3</ele>
        <time>2021-02-23T10:00:00Z</time>
      </trkpt>
      <trkpt lat="47.68892" lon="6.12893">
        <ele>285.3</ele>
        <time>2021-02-23T10:00:01Z</time>
      </trkpt>
      <trkpt lat="47.6889" lon="6.129">
        <ele>285.4</ele>
        <time>2021-02-23T10:00:05Z</time>
      </trkpt>
      <trkpt lat="47.68888" lon="6.12906">
        <ele>285.5</ele>
        <time>2021-02-23T10:00:07Z</time>
      </trkpt>
      <trkpt lat="47.68885" lon="6.12916">
        <ele>285.6</ele>
        <time>2021-02-23T10:00:09Z</time>
      </trkpt>
      <trkpt lat="47.68883" lon="6.12925">
        <ele>285.9</ele>
        <time>2021-02-23T10:00:12Z</time>
      </trkpt>
      <trkpt lat="47.6888" lon="6.12933">
        <ele>286.1</ele>
        <time>2021-02-23T10:00:15Z</time>
      </trkpt>
      <trkpt lat="47.68878" lon="6.12939">
        <ele>286.3</ele>
        <time>2021-02-23T10:00:19Z</time>
      </trkpt>
      <trkpt lat="47.68875" lon="6.12947">
        <ele>286.6</ele>
        <time>2021-02-23T10:00:22Z</time>
      </trkpt>
      <trkpt lat="47.68873" lon="6.12955">
        <ele>286.8</ele>
        <time>2021-02-23T10:00:23Z</time>
      </trkpt>
      <trkpt lat="47.6887" lon="6.1296">
        <ele>287</ele>
        <time>2021-02-23T10:00:26Z</time>
      </trkpt>
      <trkpt lat="47.68867" lon="6.12966">
        <ele>287.2</ele>
        <time>2021-02-23T10:00:29Z</time>
      </trkpt>
      <trkpt lat="47.68864" lon="6.12972">
        <ele>287.4</ele>
        <time>2021-02-23T10:00:31Z</time>
      </trkpt>
      <trkpt lat="47.68861" lon="6.12978">
        <ele>287.6</ele>
        <time>2021-02-23T10:00:32Z</time>
      </trkpt>
      <trkpt lat="47.68858" lon="6.12984">
        <ele>287.7</ele>
        <time>2021-02-23T10:00:35Z</time>
      </trkpt>
      <trkpt lat="47.68855" lon="6.12991">
        <ele>287.9</ele>
        <time>2021-02-23T10:00:38Z</time>
      </trkpt>
      <trkpt lat="47.68852" lon="6.12997">
        <ele>288.1</ele>
        <time>2021-02-23T10:00:40Z</time>
      </trkpt>
      <trkpt lat="47.68848" lon="6.13004">
        <ele>288.3</ele>
        <time>2021-02-23T10:00:42Z</time>
      </trkpt>
      <trkpt lat="47.68844" lon="6.13013">
        <ele>288.4</ele>
        <time>2021-02-23T10:00:44Z</time>
      </trkpt>
      <trkpt lat="47.6884" lon="6.13021">
        <ele>288.6</ele>
        <time>2021-02-23T10:00:46Z</time>
      </trkpt>
      <trkpt lat="47.68836" lon="6.13027">
        <ele>288.7</ele>
        <time>2021-02-23T10:00:48Z</time>
      </trkpt>
      <trkpt lat="47.68833" lon="6.13035">
        <ele>288.8</ele>
        <time>2021-02-23T10:00:50Z</time>
      </trkpt>
      <trkpt lat="47.6883" lon="6.13041">
        <ele>288.9</ele>
        <time>2021-02-23T10:00:52Z</time>
      </trkpt>
      <trkpt lat="47.68826" lon="6.13049">
        <ele>289</ele>
        <time>2021-02-23T10:00:54Z</time>
      </trkpt>
      <trkpt lat="47.68823" lon="6.13055">
        <ele>289.1</ele>
        <time>2021-02-23T10:00:56Z</time>
      </trkpt>
      <trkpt lat="47.68819" lon="6.13063">
        <ele>289.2</ele>
        <time>2021-02-23T10:00:58Z</time>
      </trkpt>
      <trkpt lat="47.68814" lon="6.13071">
        <ele>289.3</ele>
        <time>2021-02-23T10:01:00Z</time>
      </trkpt>
      <trkpt lat="47.68811" lon="6.13077">
        <ele>289.3</ele>
        <time>2021-02-23T10:01:02Z</time>
      </trkpt>
      <trkpt lat="47.68807" lon="6.13085">
        <ele>289.4</ele>
        <time>2021-02-23T10:01:04Z</time>
      </trkpt>
      <trkpt lat="47.68803" lon="6.13092">
        <ele>289.4</ele>
        <time>2021-02-23T10:01:06Z</time>
      </trkpt>
      <trkpt lat="47.68799" lon="6.13098">
        <ele>289.4</ele>
        <time>2021-02-23T10:01:08Z</time>
      </trkpt>
      <trkpt lat="47.68795" lon="6.13106">
        <ele>289.5</ele>
        <time>2021-02-23T10:01:10Z</time>
      </trkpt>
      <trkpt lat="47.68791" lon="6.13112">
        <ele>289.5</ele>
        <time>2021-02-23T10:01:12Z</time>
      </trkpt>
      <trkpt lat="47.68786" lon="6.13119">
        <ele>289.5</ele>
        <time>2021-02-23T10:01:14Z</time>
      </trkpt>
      <trkpt lat="47.68783" lon="6.13125">
        <ele>289.6</ele>
        <time>2021-02-23T10:01:16Z</time>
      </trkpt>
      <trkpt lat="47.68778" lon="6.13131">
        <ele>289.6</ele>
        <time>2021-02-23T10:01:18Z</time>
      </trkpt>
      <trkpt lat="47.68774" lon="6.13136">
        <ele>289.7</ele>
        <time>2021-02-23T10:01:20Z</time>
      </trkpt>
      <trkpt lat="47.68769" lon="6.13143">
        <ele>289.7</ele>
        <time>2021-02-23T10:01:22Z</time>
      </trkpt>
      <trkpt lat="47.68762" lon="6.13152">
        <ele>289.8</ele>
        <time>2021-02-23T10:01:25Z</time>
      </trkpt>
      <trkpt lat="47.68759" lon="6.13159">
        <ele>289.9</ele>
        <time>2021-02-23T10:01:26Z</time>
      </trkpt>
      <trkpt lat="47.68755" lon="6.13165">
        <ele>290</ele>
        <time>2021-02-23T10:01:28Z</time>
      </trkpt>
      <trkpt lat="47.68751" lon="6.13172">
        <ele>290</ele>
        <time>2021-02-23T10:01:29Z</time>
      </trkpt>
      <trkpt lat="47.68746" lon="6.13179">
        <ele>289.8</ele>
        <time>2021-02-23T10:01:31Z</time>
      </trkpt>
      <trkpt lat="47.68742" lon="6.13185">
        <ele>289.6</ele>
        <time>2021-02-23T10:01:33Z</time>
      </trkpt>
      <trkpt lat="47.68739" lon="6.13191">
        <ele>289.5</ele>
        <time>2021-02-23T10:01:34Z</time>
      </trkpt>
      <trkpt lat="47.68733" lon="6.132">
        <ele>289.2</ele>
        <time>2021-02-23T10:01:36Z</time>
      </trkpt>
      <trkpt lat="47.6873" lon="6.13206">
        <ele>289</ele>
        <time>2021-02-23T10:01:37Z</time>
      </trkpt>
      <trkpt lat="47.68723" lon="6.13215">
        <ele>288.7</ele>
        <time>2021-02-23T10:01:39Z</time>
      </trkpt>
      <trkpt lat="47.68716" lon="6.13227">
        <ele>288.4</ele>
        <time>2021-02-23T10:01:41Z</time>
      </trkpt>
      <trkpt lat="47.68712" lon="6.13235">
        <ele>288.2</ele>
        <time>2021-02-23T10:01:43Z</time>
      </trkpt>
      <trkpt lat="47.68706" lon="6.13244">
        <ele>287.9</ele>
        <time>2021-02-23T10:01:45Z</time>
      </trkpt>
      <trkpt lat="47.68702" lon="6.13251">
        <ele>287.7</ele>
        <time>2021-02-23T10:01:47Z</time>
      </trkpt>
      <trkpt lat="47.68695" lon="6.13263">
        <ele>287.9</ele>
        <time>2021-02-23T10:01:50Z</time>
      </trkpt>
      <trkpt lat="47.68688" lon="6.13274">
        <ele>288</ele>
        <time>2021-02-23T10:01:52Z</time>
      </trkpt>
      <trkpt lat="47.68685" lon="6.1328">
        <ele>288.1</ele>
        <time>2021-02-23T10:01:55Z</time>
      </trkpt>
      <trkpt lat="47.68681" lon="6.13287">
        <ele>288.3</ele>
        <time>2021-02-23T10:01:56Z</time>
      </trkpt>
      <trkpt lat="47.68677" lon="6.13293">
        <ele>288.4</ele>
        <time>2021-02-23T10:01:58Z</time>
      </trkpt>
      <trkpt lat="47.68673" lon="6.13299">
        <ele>288.6</ele>
        <time>2021-02-23T10:01:59Z</time>
      </trkpt>
      <trkpt lat="47.68669" lon="6.13306">
        <ele>288.8</ele>
        <time>2021-02-23T10:02:01Z</time>
      </trkpt>
      <trkpt lat="47.68666" lon="6.13312">
        <ele>289</ele>
        <time>2021-02-23T10:02:02Z</time>
      </trkpt>
      <trkpt lat="47.68661" lon="6.1332">
        <ele>289.1</ele>
        <time>2021-02-23T10:02:03Z</time>
      </trkpt>
      <trkpt lat="47.68658" lon="6.13325">
        <ele>289.2</ele>
        <time>2021-02-23T10:02:04Z</time>
      </trkpt>
      <trkpt lat="47.68655" lon="6.13332">
        <ele>289.4</ele>
        <time>2021-02-23T10:02:06Z</time>
      </trkpt>
      <trkpt lat="47.68651" lon="6.13337">
        <ele>289.3</ele>
        <time>2021-02-23T10:02:07Z</time>
      </trkpt>
      <trkpt lat="47.68648" lon="6.13342">
        <ele>289.1</ele>
        <time>2021-02-23T10:02:09Z</time>
      </trkpt>
      <trkpt lat="47.68644" lon="6.13349">
        <ele>289</ele>
        <time>2021-02-23T10:02:10Z</time>
      </trkpt>
      <trkpt lat="47.68639" lon="6.13356">
        <ele>288.8</ele>
        <time>2021-02-23T10:02:12Z</time>
      </trkpt>
      <trkpt lat="47.68636" lon="6.13362">
        <ele>288.6</ele>
        <time>2021-02-23T10:02:14Z</time>
      </trkpt>
      <trkpt lat="47.68628" lon="6.13372">
        <ele>288.4</ele>
        <time>2021-02-23T10:02:17Z</time>
      </trkpt>
      <trkpt lat="47.68624" lon="6.13379">
        <ele>288.2</ele>
        <time>2021-02-23T10:02:19Z</time>
      </trkpt>
      <trkpt lat="47.6862" lon="6.13385">
        <ele>288.1</ele>
        <time>2021-02-23T10:02:21Z</time>
      </trkpt>
      <trkpt lat="47.68615" lon="6.13392">
        <ele>288</ele>
        <time>2021-02-23T10:02:23Z</time>
      </trkpt>
      <trkpt lat="47.68611" lon="6.134">
        <ele>287.9</ele>
        <time>2021-02-23T10:02:25Z</time>
      </trkpt>
      <trkpt lat="47.68607" lon="6.13405">
        <ele>287.7</ele>
        <time>2021-02-23T10:02:27Z</time>
      </trkpt>
      <trkpt lat="47.68604" lon="6.13411">
        <ele>287.7</ele>
        <time>2021-02-23T10:02:29Z</time>
      </trkpt>
      <trkpt lat="47.68599" lon="6.13417">
        <ele>287.6</ele>
        <time>2021-02-23T10:02:31Z</time>
      </trkpt>
      <trkpt lat="47.68596" lon="6.13423">
        <ele>287.5</ele>
        <time>2021-02-23T10:02:32Z</time>
      </trkpt>
      <trkpt lat="47.68593" lon="6.13429">
        <ele>287.3</ele>
        <time>2021-02-23T10:02:34Z</time>
      </trkpt>
      <trkpt lat="47.68588" lon="6.13436">
        <ele>287.2</ele>
        <time>2021-02-23T10:02:36Z</time>
      </trkpt>
      <trkpt lat="47.68585" lon="6.13443">
        <ele>287</ele>
        <time>2021-02-23T10:02:37Z</time>
      </trkpt>
      <trkpt lat="47.68581" lon="6.1345">
        <ele>286.9</ele>
        <time>2021-02-23T10:02:39Z</time>
      </trkpt>
      <trkpt lat="47.68577" lon="6.13456">
        <ele>286.8</ele>
        <time>2021-02-23T10:02:41Z</time>
      </trkpt>
      <trkpt lat="47.68574" lon="6.13461">
        <ele>286.8</ele>
        <time>2021-02-23T10:02:42Z</time>
      </trkpt>
      <trkpt lat="47.68568" lon="6.1347">
        <ele>286.6</ele>
        <time>2021-02-23T10:02:43Z</time>
      </trkpt>
      <trkpt lat="47.68565" lon="6.13477">
        <ele>286.5</ele>
        <time>2021-02-23T10:02:46Z</time>
      </trkpt>
      <trkpt lat="47.68559" lon="6.13487">
        <ele>286.4</ele>
        <time>2021-02-23T10:02:48Z</time>
      </trkpt>
      <trkpt lat="47.68555" lon="6.13492">
        <ele>286.3</ele>
        <time>2021-02-23T10:02:49Z</time>
      </trkpt>
      <trkpt lat="47.68549" lon="6.13503">
        <ele>286.2</ele>
        <time>2021-02-23T10:02:50Z</time>
      </trkpt>
      <trkpt lat="47.68544" lon="6.13511">
        <ele>286.1</ele>
        <time>2021-02-23T10:02:53Z</time>
      </trkpt>
      <trkpt lat="47.68539" lon="6.13519">
        <ele>286</ele>
        <time>2021-02-23T10:02:54Z</time>
      </trkpt>
      <trkpt lat="47.68536" lon="6.13524">
        <ele>286</ele>
        <time>2021-02-23T10:02:55Z</time>
      </trkpt>
      <trkpt lat="47.68525" lon="6.13543">
        <ele>285.8</ele>
        <time>2021-02-23T10:02:56Z</time>
      </trkpt>
      <trkpt lat="47.68521" lon="6.13549">
        <ele>285.7</ele>
        <time>2021-02-23T10:02:57Z</time>
      </trkpt>
      <trkpt lat="47.68518" lon="6.13555">
        <ele>285.6</ele>
        <time>2021-02-23T10:02:58Z</time>
      </trkpt>
      <trkpt lat="47.68514" lon="6.13561">
        <ele>285.5</ele>
        <time>2021-02-23T10:02:59Z</time>
      </trkpt>
      <trkpt lat="47.68511" lon="6.13567">
        <ele>285.4</ele>
        <time>2021-02-23T10:03:00Z</time>
      </trkpt>
      <trkpt lat="47.68508" lon="6.13572">
        <ele>285.3</ele>
        <time>2021-02-23T10:03:01Z</time>
      </trkpt>
      <trkpt lat="47.68505" lon="6.13578">
        <ele>285.2</ele>
        <time>2021-02-23T10:03:02Z</time>
      </trkpt>
      <trkpt lat="47.68502" lon="6.13583">
        <ele>285.1</ele>
        <time>2021-02-23T10:03:03Z</time>
      </trkpt>
      <trkpt lat="47.68499" lon="6.13588">
        <ele>284.9</ele>
        <time>2021-02-23T10:03:04Z</time>
      </trkpt>
      <trkpt lat="47.68493" lon="6.13598">
        <ele>284.6</ele>
        <time>2021-02-23T10:03:06Z</time>
      </trkpt>
      <trkpt lat="47.68488" lon="6.13607">
        <ele>284.3</ele>
        <time>2021-02-23T10:03:08Z</time>
      </trkpt>
      <trkpt lat="47.68483" lon="6.13617">
        <ele>284.1</ele>
        <time>2021-02-23T10:03:10Z</time>
      </trkpt>
      <trkpt lat="47.68479" lon="6.13625">
        <ele>283.8</ele>
        <time>2021-02-23T10:03:12Z</time>
      </trkpt>
      <trkpt lat="47.68474" lon="6.13633">
        <ele>283.6</ele>
        <time>2021-02-23T10:03:14Z</time>
      </trkpt>
      <trkpt lat="47.6847" lon="6.13641">
        <ele>283.5</ele>
        <time>2021-02-23T10:03:16Z</time>
      </trkpt>
      <trkpt lat="47.68479" lon="6.13648">
        <ele>283.9</ele>
        <time>2021-02-23T10:03:18Z</time>
      </trkpt>
      <trkpt lat="47.6847" lon="6.13656">
        <ele>283.5</ele>
        <time>2021-02-23T10:03:19Z</time>
      </trkpt>
      <trkpt lat="47.68464" lon="6.13663">
        <ele>283.2</ele>
        <time>2021-02-23T10:03:22Z</time>
      </trkpt>
      <trkpt lat="47.68454" lon="6.13676">
        <ele>283.1</ele>
        <time>2021-02-23T10:03:25Z</time>
      </trkpt>
      <trkpt lat="47.6845" lon="6.13682">
        <ele>283.1</ele>
        <time>2021-02-23T10:03:26Z</time>
      </trkpt>
      <trkpt lat="47.68445" lon="6.1369">
        <ele>283.1</ele>
        <time>2021-02-23T10:03:28Z</time>
      </trkpt>
      <trkpt lat="47.6844" lon="6.13699">
        <ele>283.2</ele>
        <time>2021-02-23T10:03:31Z</time>
      </trkpt>
      <trkpt lat="47.68436" lon="6.13705">
        <ele>283.2</ele>
        <time>2021-02-23T10:03:33Z</time>
      </trkpt>
      <trkpt lat="47.68433" lon="6.13713">
        <ele>283.3</ele>
        <time>2021-02-23T10:03:35Z</time>
      </trkpt>
      <trkpt lat="47.6843" lon="6.13719">
        <ele>283.4</ele>
        <time>2021-02-23T10:03:36Z</time>
      </trkpt>
      <trkpt lat="47.68427" lon="6.13724">
        <ele>283.5</ele>
        <time>2021-02-23T10:03:38Z</time>
      </trkpt>
      <trkpt lat="47.68424" lon="6.1373">
        <ele>283.5</ele>
        <time>2021-02-23T10:03:40Z</time>
      </trkpt>
      <trkpt lat="47.68421" lon="6.13735">
        <ele>283.6</ele>
        <time>2021-02-23T10:03:41Z</time>
      </trkpt>
      <trkpt lat="47.68417" lon="6.13742">
        <ele>283.7</ele>
        <time>2021-02-23T10:03:43Z</time>
      </trkpt>
      <trkpt lat="47.68414" lon="6.13748">
        <ele>283.8</ele>
        <time>2021-02-23T10:03:45Z</time>
      </trkpt>
      <trkpt lat="47.6841" lon="6.13755">
        <ele>283.8</ele>
        <time>2021-02-23T10:03:46Z</time>
      </trkpt>
      <trkpt lat="47.68407" lon="6.13761">
        <ele>283.8</ele>
        <time>2021-02-23T10:03:48Z</time>
      </trkpt>
      <trkpt lat="47.68404" lon="6.13767">
        <ele>283.8</ele>
        <time>2021-02-23T10:03:50Z</time>
      </trkpt>
      <trkpt lat="47.68399" lon="6.13773">
        <ele>283.7</ele>
        <time>2021-02-23T10:03:51Z</time>
      </trkpt>
      <trkpt lat="47.68395" lon="6.13775">
        <ele>283.5</ele>
        <time>2021-02-23T10:03:53Z</time>
      </trkpt>
      <trkpt lat="47.68389" lon="6.13772">
        <ele>283.1</ele>
        <time>2021-02-23T10:03:55Z</time>
      </trkpt>
      <trkpt lat="47.68385" lon="6.13767">
        <ele>282.8</ele>
        <time>2021-02-23T10:03:57Z</time>
      </trkpt>
      <trkpt lat="47.6838" lon="6.1376">
        <ele>282.4</ele>
        <time>2021-02-23T10:03:58Z</time>
      </trkpt>
      <trkpt lat="47.68376" lon="6.13754">
        <ele>282.1</ele>
        <time>2021-02-23T10:04:01Z</time>
      </trkpt>
      <trkpt lat="47.68371" lon="6.13748">
        <ele>281.8</ele>
        <time>2021-02-23T10:04:03Z</time>
      </trkpt>
      <trkpt lat="47.68367" lon="6.13744">
        <ele>281.5</ele>
        <time>2021-02-23T10:04:04Z</time>
      </trkpt>
      <trkpt lat="47.68363" lon="6.1374">
        <ele>281.1</ele>
        <time>2021-02-23T10:04:05Z</time>
      </trkpt>
      <trkpt lat="47.68351" lon="6.13726">
        <ele>280.2</ele>
        <time>2021-02-23T10:04:07Z</time>
      </trkpt>
      <trkpt lat="47.68345" lon="6.13721">
        <ele>279.8</ele>
        <time>2021-02-23T10:04:10Z</time>
      </trkpt>
      <trkpt lat="47.6834" lon="6.13715">
        <ele>279.4</ele>
        <time>2021-02-23T10:04:11Z</time>
      </trkpt>
      <trkpt lat="47.68335" lon="6.13711">
        <ele>279.1</ele>
        <time>2021-02-23T10:04:12Z</time>
      </trkpt>
      <trkpt lat="47.68331" lon="6.13707">
        <ele>278.8</ele>
        <time>2021-02-23T10:04:13Z</time>
      </trkpt>
      <trkpt lat="47.68325" lon="6.137">
        <ele>278.4</ele>
        <time>2021-02-23T10:04:15Z</time>
      </trkpt>
      <trkpt lat="47.68321" lon="6.13696">
        <ele>278.1</ele>
        <time>2021-02-23T10:04:16Z</time>
      </trkpt>
      <trkpt lat="47.68317" lon="6.13692">
        <ele>277.8</ele>
        <time>2021-02-23T10:04:17Z</time>
      </trkpt>
      <trkpt lat="47.68306" lon="6.13679">
        <ele>276.9</ele>
        <time>2021-02-23T10:04:18Z</time>
      </trkpt>
      <trkpt lat="47.68301" lon="6.13675">
        <ele>276.6</ele>
        <time>2021-02-23T10:04:19Z</time>
      </trkpt>
      <trkpt lat="47.68297" lon="6.13671">
        <ele>276.4</ele>
        <time>2021-02-23T10:04:20Z</time>
      </trkpt>
      <trkpt lat="47.68294" lon="6.13667">
        <ele>276.1</ele>
        <time>2021-02-23T10:04:21Z</time>
      </trkpt>
      <trkpt lat="47.68286" lon="6.1366">
        <ele>275.7</ele>
        <time>2021-02-23T10:04:23Z</time>
      </trkpt>
      <trkpt lat="47.68279" lon="6.13653">
        <ele>275.2</ele>
        <time>2021-02-23T10:04:25Z</time>
      </trkpt>
      <trkpt lat="47.68275" lon="6.13649">
        <ele>275</ele>
        <time>2021-02-23T10:04:26Z</time>
      </trkpt>
      <trkpt lat="47.68271" lon="6.13645">
        <ele>274.8</ele>
        <time>2021-02-23T10:04:27Z</time>
      </trkpt>
      <trkpt lat="47.68268" lon="6.1364">
        <ele>274.5</ele>
        <time>2021-02-23T10:04:28Z</time>
      </trkpt>
      <trkpt lat="47.68264" lon="6.13635">
        <ele>274.3</ele>
        <time>2021-02-23T10:04:29Z</time>
      </trkpt>
      <trkpt lat="47.6826" lon="6.13631">
        <ele>274</ele>
        <time>2021-02-23T10:04:30Z</time>
      </trkpt>
      <trkpt lat="47.68256" lon="6.13626">
        <ele>273.8</ele>
        <time>2021-02-23T10:04:30Z</time>
      </trkpt>
      <trkpt lat="47.68251" lon="6.13621">
        <ele>273.5</ele>
        <time>2021-02-23T10:04:31Z</time>
      </trkpt>
      <trkpt lat="47.68246" lon="6.13616">
        <ele>273.1</ele>
        <time>2021-02-23T10:04:32Z</time>
      </trkpt>
      <trkpt lat="47.68242" lon="6.13612">
        <ele>272.7</ele>
        <time>2021-02-23T10:04:33Z</time>
      </trkpt>
      <trkpt lat="47.68238" lon="6.13608">
        <ele>272.3</ele>
        <time>2021-02-23T10:04:34Z</time>
      </trkpt>
      <trkpt lat="47.68234" lon="6.13603">
        <ele>272</ele>
        <time>2021-02-23T10:04:35Z</time>
      </trkpt>
      <trkpt lat="47.68231" lon="6.13599">
        <ele>271.6</ele>
        <time>2021-02-23T10:04:36Z</time>
      </trkpt>
      <trkpt lat="47.68224" lon="6.13592">
        <ele>270.9</ele>
        <time>2021-02-23T10:04:38Z</time>
      </trkpt>
      <trkpt lat="47.68216" lon="6.13583">
        <ele>270.2</ele>
        <time>2021-02-23T10:04:40Z</time>
      </trkpt>
      <trkpt lat="47.68212" lon="6.13579">
        <ele>269.7</ele>
        <time>2021-02-23T10:04:41Z</time>
      </trkpt>
      <trkpt lat="47.68208" lon="6.13574">
        <ele>269.2</ele>
        <time>2021-02-23T10:04:42Z</time>
      </trkpt>
      <trkpt lat="47.68204" lon="6.1357">
        <ele>268.7</ele>
        <time>2021-02-23T10:04:43Z</time>
      </trkpt>
      <trkpt lat="47.682" lon="6.13565">
        <ele>268.2</ele>
        <time>2021-02-23T10:04:44Z</time>
      </trkpt>
      <trkpt lat="47.68195" lon="6.1356">
        <ele>267.8</ele>
        <time>2021-02-23T10:04:45Z</time>
      </trkpt>
      <trkpt lat="47.68191" lon="6.13556">
        <ele>267.3</ele>
        <time>2021-02-23T10:04:46Z</time>
      </trkpt>
      <trkpt lat="47.68186" lon="6.13551">
        <ele>266.8</ele>
        <time>2021-02-23T10:04:47Z</time>
      </trkpt>
      <trkpt lat="47.68181" lon="6.13546">
        <ele>266.2</ele>
        <time>2021-02-23T10:04:48Z</time>
      </trkpt>
      <trkpt lat="47.68176" lon="6.13541">
        <ele>265.7</ele>
        <time>2021-02-23T10:04:49Z</time>
      </trkpt>
      <trkpt lat="47.68171" lon="6.13536">
        <ele>265.2</ele>
        <time>2021-02-23T10:04:50Z</time>
      </trkpt>
      <trkpt lat="47.68165" lon="6.13531">
        <ele>264.7</ele>
        <time>2021-02-23T10:04:51Z</time>
      </trkpt>
      <trkpt lat="47.6816" lon="6.13525">
        <ele>264.2</ele>
        <time>2021-02-23T10:04:52Z</time>
      </trkpt>
      <trkpt lat="47.68154" lon="6.13519">
        <ele>263.8</ele>
        <time>2021-02-23T10:04:53Z</time>
      </trkpt>
      <trkpt lat="47.68148" lon="6.13514">
        <ele>263.3</ele>
        <time>2021-02-23T10:04:54Z</time>
      </trkpt>
      <trkpt lat="47.68142" lon="6.13508">
        <ele>262.9</ele>
        <time>2021-02-23T10:04:55Z</time>
      </trkpt>
      <trkpt lat="47.68136" lon="6.13503">
        <ele>262.6</ele>
        <time>2021-02-23T10:04:56Z</time>
      </trkpt>
      <trkpt lat="47.6813" lon="6.13497">
        <ele>262.3</ele>
        <time>2021-02-23T10:04:57Z</time>
      </trkpt>
      <trkpt lat="47.68125" lon="6.13492">
        <ele>262</ele>
        <time>2021-02-23T10:04:58Z</time>
      </trkpt>
      <trkpt lat="47.6812" lon="6.13486">
        <ele>261.8</ele>
        <time>2021-02-23T10:04:59Z</time>
      </trkpt>
      <trkpt lat="47.68115" lon="6.13481">
        <ele>261.7</ele>
        <time>2021-02-23T10:05:00Z</time>
      </trkpt>
      <trkpt lat="47.6811" lon="6.13476">
        <ele>261.5</ele>
        <time>2021-02-23T10:05:01Z</time>
      </trkpt>
      <trkpt lat="47.68105" lon="6.1347">
        <ele>261.3</ele>
        <time>2021-02-23T10:05:02Z</time>
      </trkpt>
      <trkpt lat="47.68099" lon="6.13465">
        <ele>261.1</ele>
        <time>2021-02-23T10:05:03Z</time>
      </trkpt>
      <trkpt lat="47.68094" lon="6.13459">
        <ele>260.9</ele>
        <time>2021-02-23T10:05:04Z</time>
      </trkpt>
      <trkpt lat="47.68089" lon="6.13454">
        <ele>260.8</ele>
        <time>2021-02-23T10:05:05Z</time>
      </trkpt>
      <trkpt lat="47.68084" lon="6.13448">
        <ele>260.7</ele>
        <time>2021-02-23T10:05:06Z</time>
      </trkpt>
      <trkpt lat="47.68079" lon="6.13443">
        <ele>260.4</ele>
        <time>2021-02-23T10:05:07Z</time>
      </trkpt>
      <trkpt lat="47.68074" lon="6.13439">
        <ele>260.2</ele>
        <time>2021-02-23T10:05:08Z</time>
      </trkpt>
      <trkpt lat="47.68069" lon="6.13434">
        <ele>259.9</ele>
        <time>2021-02-23T10:05:09Z</time>
      </trkpt>
      <trkpt lat="47.68065" lon="6.13429">
        <ele>259.7</ele>
        <time>2021-02-23T10:05:10Z</time>
      </trkpt>
      <trkpt lat="47.6806" lon="6.13425">
        <ele>259.5</ele>
        <time>2021-02-23T10:05:11Z</time>
      </trkpt>
      <trkpt lat="47.68056" lon="6.13421">
        <ele>259.3</ele>
        <time>2021-02-23T10:05:12Z</time>
      </trkpt>
      <trkpt lat="47.68052" lon="6.13417">
        <ele>259.1</ele>
        <time>2021-02-23T10:05:13Z</time>
      </trkpt>
      <trkpt lat="47.68048" lon="6.13413">
        <ele>259</ele>
        <time>2021-02-23T10:05:14Z</time>
      </trkpt>
      <trkpt lat="47.68044" lon="6.13408">
        <ele>258.9</ele>
        <time>2021-02-23T10:05:15Z</time>
      </trkpt>
      <trkpt lat="47.68041" lon="6.13404">
        <ele>258.7</ele>
        <time>2021-02-23T10:05:16Z</time>
      </trkpt>
      <trkpt lat="47.68037" lon="6.134">
        <ele>258.7</ele>
        <time>2021-02-23T10:05:17Z</time>
      </trkpt>
      <trkpt lat="47.6803" lon="6.13393">
        <ele>258.5</ele>
        <time>2021-02-23T10:05:19Z</time>
      </trkpt>
      <trkpt lat="47.68024" lon="6.13386">
        <ele>258.5</ele>
        <time>2021-02-23T10:05:21Z</time>
      </trkpt>
      <trkpt lat="47.68018" lon="6.1338">
        <ele>258.5</ele>
        <time>2021-02-23T10:05:23Z</time>
      </trkpt>
      <trkpt lat="47.68012" lon="6.13374">
        <ele>258.5</ele>
        <time>2021-02-23T10:05:25Z</time>
      </trkpt>
      <trkpt lat="47.68006" lon="6.13369">
        <ele>258.5</ele>
        <time>2021-02-23T10:05:26Z</time>
      </trkpt>
      <trkpt lat="47.67999" lon="6.13363">
        <ele>258.6</ele>
        <time>2021-02-23T10:05:32Z</time>
      </trkpt>
      <trkpt lat="47.67995" lon="6.13358">
        <ele>258.9</ele>
        <time>2021-02-23T10:05:33Z</time>
      </trkpt>
      <trkpt lat="47.67988" lon="6.13351">
        <ele>259.4</ele>
        <time>2021-02-23T10:05:35Z</time>
      </trkpt>
      <trkpt lat="47.67983" lon="6.13346">
        <ele>259.8</ele>
        <time>2021-02-23T10:05:37Z</time>
      </trkpt>
      <trkpt lat="47.67976" lon="6.13338">
        <ele>260.3</ele>
        <time>2021-02-23T10:05:39Z</time>
      </trkpt>
      <trkpt lat="47.67971" lon="6.13334">
        <ele>260.7</ele>
        <time>2021-02-23T10:05:39Z</time>
      </trkpt>
      <trkpt lat="47.67965" lon="6.13327">
        <ele>261</ele>
        <time>2021-02-23T10:05:44Z</time>
      </trkpt>
      <trkpt lat="47.6796" lon="6.13322">
        <ele>261.2</ele>
        <time>2021-02-23T10:05:47Z</time>
      </trkpt>
      <trkpt lat="47.67956" lon="6.13317">
        <ele>261.4</ele>
        <time>2021-02-23T10:05:47Z</time>
      </trkpt>
      <trkpt lat="47.67951" lon="6.13312">
        <ele>261.5</ele>
        <time>2021-02-23T10:05:52Z</time>
      </trkpt>
      <trkpt lat="47.67947" lon="6.13307">
        <ele>261.7</ele>
        <time>2021-02-23T10:05:54Z</time>
      </trkpt>
      <trkpt lat="47.67943" lon="6.13303">
        <ele>261.9</ele>
        <time>2021-02-23T10:05:56Z</time>
      </trkpt>
      <trkpt lat="47.67937" lon="6.13297">
        <ele>262.1</ele>
        <time>2021-02-23T10:05:59Z</time>
      </trkpt>
      <trkpt lat="47.67932" lon="6.13291">
        <ele>262.2</ele>
        <time>2021-02-23T10:06:02Z</time>
      </trkpt>
      <trkpt lat="47.67928" lon="6.13287">
        <ele>262.4</ele>
        <time>2021-02-23T10:06:04Z</time>
      </trkpt>
      <trkpt lat="47.67924" lon="6.13281">
        <ele>262.5</ele>
        <time>2021-02-23T10:06:06Z</time>
      </trkpt>
      <trkpt lat="47.67919" lon="6.13276">
        <ele>262.6</ele>
        <time>2021-02-23T10:06:08Z</time>
      </trkpt>
      <trkpt lat="47.67913" lon="6.13271">
        <ele>262.8</ele>
        <time>2021-02-23T10:06:10Z</time>
      </trkpt>
      <trkpt lat="47.67909" lon="6.13266">
        <ele>262.9</ele>
        <time>2021-02-23T10:06:12Z</time>
      </trkpt>
      <trkpt lat="47.67904" lon="6.13259">
        <ele>262.9</ele>
        <time>2021-02-23T10:06:14Z</time>
      </trkpt>
      <trkpt lat="47.679" lon="6.13254">
        <ele>263</ele>
        <time>2021-02-23T10:06:16Z</time>
      </trkpt>
      <trkpt lat="47.67895" lon="6.13246">
        <ele>263</ele>
        <time>2021-02-23T10:06:16Z</time>
      </trkpt>
      <trkpt lat="47.6789" lon="6.13238">
        <ele>263</ele>
        <time>2021-02-23T10:06:20Z</time>
      </trkpt>
      <trkpt lat="47.67886" lon="6.1323">
        <ele>262.9</ele>
        <time>2021-02-23T10:06:20Z</time>
      </trkpt>
      <trkpt lat="47.67882" lon="6.13224">
        <ele>262.8</ele>
        <time>2021-02-23T10:06:24Z</time>
      </trkpt>
      <trkpt lat="47.67874" lon="6.13211">
        <ele>262.5</ele>
        <time>2021-02-23T10:06:27Z</time>
      </trkpt>
      <trkpt lat="47.67865" lon="6.13196">
        <ele>262</ele>
        <time>2021-02-23T10:06:28Z</time>
      </trkpt>
      <trkpt lat="47.67861" lon="6.13187">
        <ele>261.7</ele>
        <time>2021-02-23T10:06:32Z</time>
      </trkpt>
      <trkpt lat="47.67858" lon="6.13181">
        <ele>261.5</ele>
        <time>2021-02-23T10:06:33Z</time>
      </trkpt>
      <trkpt lat="47.67852" lon="6.1317">
        <ele>261</ele>
        <time>2021-02-23T10:06:35Z</time>
      </trkpt>
      <trkpt lat="47.67845" lon="6.13156">
        <ele>260.5</ele>
        <time>2021-02-23T10:06:35Z</time>
      </trkpt>
      <trkpt lat="47.67837" lon="6.1314">
        <ele>260.1</ele>
        <time>2021-02-23T10:06:37Z</time>
      </trkpt>
      <trkpt lat="47.67833" lon="6.13133">
        <ele>260</ele>
        <time>2021-02-23T10:06:38Z</time>
      </trkpt>
      <trkpt lat="47.67831" lon="6.13126">
        <ele>259.9</ele>
        <time>2021-02-23T10:06:39Z</time>
      </trkpt>
      <trkpt lat="47.67829" lon="6.1312">
        <ele>259.8</ele>
        <time>2021-02-23T10:06:40Z</time>
      </trkpt>
      <trkpt lat="47.67826" lon="6.13114">
        <ele>259.7</ele>
        <time>2021-02-23T10:06:41Z</time>
      </trkpt>
      <trkpt lat="47.67824" lon="6.13108">
        <ele>259.6</ele>
        <time>2021-02-23T10:06:42Z</time>
      </trkpt>
      <trkpt lat="47.67821" lon="6.13103">
        <ele>259.4</ele>
        <time>2021-02-23T10:06:43Z</time>
      </trkpt>
      <trkpt lat="47.67818" lon="6.13097">
        <ele>259.2</ele>
        <time>2021-02-23T10:06:44Z</time>
      </trkpt>
      <trkpt lat="47.67813" lon="6.13087">
        <ele>258.8</ele>
        <time>2021-02-23T10:06:46Z</time>
      </trkpt>
      <trkpt lat="47.67808" lon="6.13076">
        <ele>258.3</ele>
        <time>2021-02-23T10:06:48Z</time>
      </trkpt>
      <trkpt lat="47.67804" lon="6.13065">
        <ele>257.9</ele>
        <time>2021-02-23T10:06:50Z</time>
      </trkpt>
      <trkpt lat="47.67801" lon="6.13059">
        <ele>257.6</ele>
        <time>2021-02-23T10:06:51Z</time>
      </trkpt>
      <trkpt lat="47.67796" lon="6.13049">
        <ele>257.1</ele>
        <time>2021-02-23T10:06:53Z</time>
      </trkpt>
      <trkpt lat="47.67793" lon="6.13043">
        <ele>256.8</ele>
        <time>2021-02-23T10:06:54Z</time>
      </trkpt>
      <trkpt lat="47.6779" lon="6.13038">
        <ele>256.6</ele>
        <time>2021-02-23T10:06:55Z</time>
      </trkpt>
      <trkpt lat="47.67787" lon="6.13033">
        <ele>256.3</ele>
        <time>2021-02-23T10:06:56Z</time>
      </trkpt>
      <trkpt lat="47.67784" lon="6.13027">
        <ele>256.1</ele>
        <time>2021-02-23T10:06:57Z</time>
      </trkpt>
      <trkpt lat="47.67781" lon="6.13021">
        <ele>255.8</ele>
        <time>2021-02-23T10:06:58Z</time>
      </trkpt>
      <trkpt lat="47.67778" lon="6.13014">
        <ele>255.6</ele>
        <time>2021-02-23T10:06:59Z</time>
      </trkpt>
      <trkpt lat="47.67775" lon="6.13008">
        <ele>255.3</ele>
        <time>2021-02-23T10:07:00Z</time>
      </trkpt>
      <trkpt lat="47.67772" lon="6.13002">
        <ele>255.1</ele>
        <time>2021-02-23T10:07:01Z</time>
      </trkpt>
      <trkpt lat="47.67768" lon="6.12996">
        <ele>254.8</ele>
        <time>2021-02-23T10:07:02Z</time>
      </trkpt>
      <trkpt lat="47.67764" lon="6.12992">
        <ele>254.5</ele>
        <time>2021-02-23T10:07:03Z</time>
      </trkpt>
      <trkpt lat="47.6776" lon="6.12987">
        <ele>254.3</ele>
        <time>2021-02-23T10:07:04Z</time>
      </trkpt>
      <trkpt lat="47.67755" lon="6.12983">
        <ele>254</ele>
        <time>2021-02-23T10:07:05Z</time>
      </trkpt>
      <trkpt lat="47.67751" lon="6.12978">
        <ele>253.8</ele>
        <time>2021-02-23T10:07:06Z</time>
      </trkpt>
      <trkpt lat="47.67746" lon="6.12974">
        <ele>253.5</ele>
        <time>2021-02-23T10:07:07Z</time>
      </trkpt>
      <trkpt lat="47.67741" lon="6.12969">
        <ele>253.3</ele>
        <time>2021-02-23T10:07:08Z</time>
      </trkpt>
      <trkpt lat="47.67736" lon="6.12964">
        <ele>253.1</ele>
        <time>2021-02-23T10:07:09Z</time>
      </trkpt>
      <trkpt lat="47.67732" lon="6.1296">
        <ele>252.9</ele>
        <time>2021-02-23T10:07:10Z</time>
      </trkpt>
      <trkpt lat="47.67728" lon="6.12955">
        <ele>252.6</ele>
        <time>2021-02-23T10:07:11Z</time>
      </trkpt>
      <trkpt lat="47.67723" lon="6.1295">
        <ele>252.4</ele>
        <time>2021-02-23T10:07:12Z</time>
      </trkpt>
      <trkpt lat="47.67719" lon="6.12945">
        <ele>252.2</ele>
        <time>2021-02-23T10:07:13Z</time>
      </trkpt>
      <trkpt lat="47.67716" lon="6.1294">
        <ele>252</ele>
        <time>2021-02-23T10:07:14Z</time>
      </trkpt>
      <trkpt lat="47.67712" lon="6.12935">
        <ele>251.8</ele>
        <time>2021-02-23T10:07:15Z</time>
      </trkpt>
      <trkpt lat="47.67708" lon="6.12931">
        <ele>251.7</ele>
        <time>2021-02-23T10:07:16Z</time>
      </trkpt>
      <trkpt lat="47.67704" lon="6.12927">
        <ele>251.5</ele>
        <time>2021-02-23T10:07:17Z</time>
      </trkpt>
      <trkpt lat="47.677" lon="6.12922">
        <ele>251.3</ele>
        <time>2021-02-23T10:07:18Z</time>
      </trkpt>
      <trkpt lat="47.67696" lon="6.12918">
        <ele>251.1</ele>
        <time>2021-02-23T10:07:19Z</time>
      </trkpt>
      <trkpt lat="47.67693" lon="6.12914">
        <ele>250.9</ele>
        <time>2021-02-23T10:07:20Z</time>
      </trkpt>
      <trkpt lat="47.67689" lon="6.1291">
        <ele>250.8</ele>
        <time>2021-02-23T10:07:21Z</time>
      </trkpt>
      <trkpt lat="47.67682" lon="6.12902">
        <ele>250.5</ele>
        <time>2021-02-23T10:07:23Z</time>
      </trkpt>
      <trkpt lat="47.67675" lon="6.12894">
        <ele>250.3</ele>
        <time>2021-02-23T10:07:25Z</time>
      </trkpt>
      <trkpt lat="47.67669" lon="6.12887">
        <ele>250.1</ele>
        <time>2021-02-23T10:07:27Z</time>
      </trkpt>
      <trkpt lat="47.67662" lon="6.1288">
        <ele>249.8</ele>
        <time>2021-02-23T10:07:29Z</time>
      </trkpt>
      <trkpt lat="47.67655" lon="6.12872">
        <ele>249.6</ele>
        <time>2021-02-23T10:07:31Z</time>
      </trkpt>
      <trkpt lat="47.67648" lon="6.12865">
        <ele>249.3</ele>
        <time>2021-02-23T10:07:33Z</time>
      </trkpt>
      <trkpt lat="47.67644" lon="6.12861">
        <ele>249.1</ele>
        <time>2021-02-23T10:07:34Z</time>
      </trkpt>
      <trkpt lat="47.67641" lon="6.12857">
        <ele>248.9</ele>
        <time>2021-02-23T10:07:35Z</time>
      </trkpt>
      <trkpt lat="47.67633" lon="6.12849">
        <ele>248.6</ele>
        <time>2021-02-23T10:07:37Z</time>
      </trkpt>
      <trkpt lat="47.67628" lon="6.12842">
        <ele>248.2</ele>
        <time>2021-02-23T10:07:39Z</time>
      </trkpt>
      <trkpt lat="47.67621" lon="6.12834">
        <ele>247.8</ele>
        <time>2021-02-23T10:07:41Z</time>
      </trkpt>
      <trkpt lat="47.67616" lon="6.12826">
        <ele>247.4</ele>
        <time>2021-02-23T10:07:43Z</time>
      </trkpt>
      <trkpt lat="47.67612" lon="6.12819">
        <ele>247.1</ele>
        <time>2021-02-23T10:07:45Z</time>
      </trkpt>
      <trkpt lat="47.6762" lon="6.12814">
        <ele>247.4</ele>
        <time>2021-02-23T10:07:46Z</time>
      </trkpt>
      <trkpt lat="47.67615" lon="6.12807">
        <ele>247.1</ele>
        <time>2021-02-23T10:07:50Z</time>
      </trkpt>
      <trkpt lat="47.67611" lon="6.12802">
        <ele>246.8</ele>
        <time>2021-02-23T10:07:51Z</time>
      </trkpt>
      <trkpt lat="47.67606" lon="6.12797">
        <ele>246.5</ele>
        <time>2021-02-23T10:07:52Z</time>
      </trkpt>
      <trkpt lat="47.67602" lon="6.1279">
        <ele>246.3</ele>
        <time>2021-02-23T10:07:53Z</time>
      </trkpt>
      <trkpt lat="47.67596" lon="6.1278">
        <ele>245.9</ele>
        <time>2021-02-23T10:07:55Z</time>
      </trkpt>
      <trkpt lat="47.67588" lon="6.12761">
        <ele>245.3</ele>
        <time>2021-02-23T10:07:58Z</time>
      </trkpt>
      <trkpt lat="47.67583" lon="6.12752">
        <ele>245</ele>
        <time>2021-02-23T10:08:00Z</time>
      </trkpt>
      <trkpt lat="47.67581" lon="6.12747">
        <ele>244.9</ele>
        <time>2021-02-23T10:08:01Z</time>
      </trkpt>
      <trkpt lat="47.67576" lon="6.12734">
        <ele>244.8</ele>
        <time>2021-02-23T10:08:03Z</time>
      </trkpt>
      <trkpt lat="47.67572" lon="6.12725">
        <ele>244.6</ele>
        <time>2021-02-23T10:08:05Z</time>
      </trkpt>
      <trkpt lat="47.67568" lon="6.12713">
        <ele>244.5</ele>
        <time>2021-02-23T10:08:05Z</time>
      </trkpt>
      <trkpt lat="47.67565" lon="6.12705">
        <ele>244.3</ele>
        <time>2021-02-23T10:08:08Z</time>
      </trkpt>
      <trkpt lat="47.67561" lon="6.12696">
        <ele>244.1</ele>
        <time>2021-02-23T10:08:10Z</time>
      </trkpt>
      <trkpt lat="47.67556" lon="6.12682">
        <ele>243.8</ele>
        <time>2021-02-23T10:08:12Z</time>
      </trkpt>
      <trkpt lat="47.6755" lon="6.12667">
        <ele>243.4</ele>
        <time>2021-02-23T10:08:12Z</time>
      </trkpt>
      <trkpt lat="47.67548" lon="6.1266">
        <ele>243.1</ele>
        <time>2021-02-23T10:08:13Z</time>
      </trkpt>
      <trkpt lat="47.67546" lon="6.12654">
        <ele>242.8</ele>
        <time>2021-02-23T10:08:14Z</time>
      </trkpt>
      <trkpt lat="47.67543" lon="6.12648">
        <ele>242.5</ele>
        <time>2021-02-23T10:08:15Z</time>
      </trkpt>
      <trkpt lat="47.67541" lon="6.12642">
        <ele>242.2</ele>
        <time>2021-02-23T10:08:16Z</time>
      </trkpt>
      <trkpt lat="47.67537" lon="6.12631">
        <ele>241.7</ele>
        <time>2021-02-23T10:08:18Z</time>
      </trkpt>
      <trkpt lat="47.67532" lon="6.1262">
        <ele>241.2</ele>
        <time>2021-02-23T10:08:20Z</time>
      </trkpt>
      <trkpt lat="47.67528" lon="6.1261">
        <ele>240.7</ele>
        <time>2021-02-23T10:08:22Z</time>
      </trkpt>
      <trkpt lat="47.67523" lon="6.12605">
        <ele>240.4</ele>
        <time>2021-02-23T10:08:26Z</time>
      </trkpt>
      <trkpt lat="47.67518" lon="6.1261">
        <ele>240.4</ele>
        <time>2021-02-23T10:08:28Z</time>
      </trkpt>
      <trkpt lat="47.67512" lon="6.12624">
        <ele>240.4</ele>
        <time>2021-02-23T10:08:29Z</time>
      </trkpt>
      <trkpt lat="47.67507" lon="6.1263">
        <ele>240.4</ele>
        <time>2021-02-23T10:08:31Z</time>
      </trkpt>
      <trkpt lat="47.67502" lon="6.12636">
        <ele>240.4</ele>
        <time>2021-02-23T10:08:33Z</time>
      </trkpt>
      <trkpt lat="47.67498" lon="6.12642">
        <ele>240.3</ele>
        <time>2021-02-23T10:08:37Z</time>
      </trkpt>
      <trkpt lat="47.67493" lon="6.12648">
        <ele>240.3</ele>
        <time>2021-02-23T10:08:37Z</time>
      </trkpt>
      <trkpt lat="47.67487" lon="6.12654">
        <ele>240.3</ele>
        <time>2021-02-23T10:08:39Z</time>
      </trkpt>
      <trkpt lat="47.67482" lon="6.12659">
        <ele>240.2</ele>
        <time>2021-02-23T10:08:43Z</time>
      </trkpt>
      <trkpt lat="47.67478" lon="6.12662">
        <ele>240.1</ele>
        <time>2021-02-23T10:08:44Z</time>
      </trkpt>
      <trkpt lat="47.67469" lon="6.12671">
        <ele>240</ele>
        <time>2021-02-23T10:08:46Z</time>
      </trkpt>
      <trkpt lat="47.67464" lon="6.12677">
        <ele>240</ele>
        <time>2021-02-23T10:08:48Z</time>
      </trkpt>
      <trkpt lat="47.67459" lon="6.12684">
        <ele>239.9</ele>
        <time>2021-02-23T10:08:48Z</time>
      </trkpt>
      <trkpt lat="47.67452" lon="6.1269">
        <ele>239.9</ele>
        <time>2021-02-23T10:08:52Z</time>
      </trkpt>
      <trkpt lat="47.67446" lon="6.12696">
        <ele>239.8</ele>
        <time>2021-02-23T10:08:54Z</time>
      </trkpt>
      <trkpt lat="47.67441" lon="6.12703">
        <ele>239.7</ele>
        <time>2021-02-23T10:08:56Z</time>
      </trkpt>
      <trkpt lat="47.67436" lon="6.12707">
        <ele>239.7</ele>
        <time>2021-02-23T10:08:57Z</time>
      </trkpt>
      <trkpt lat="47.67432" lon="6.12711">
        <ele>239.6</ele>
        <time>2021-02-23T10:08:59Z</time>
      </trkpt>
      <trkpt lat="47.67427" lon="6.12717">
        <ele>239.6</ele>
        <time>2021-02-23T10:09:01Z</time>
      </trkpt>
      <trkpt lat="47.67421" lon="6.12723">
        <ele>239.5</ele>
        <time>2021-02-23T10:09:03Z</time>
      </trkpt>
      <trkpt lat="47.67411" lon="6.12734">
        <ele>239.4</ele>
        <time>2021-02-23T10:09:04Z</time>
      </trkpt>
      <trkpt lat="47.67405" lon="6.1274">
        <ele>239.2</ele>
        <time>2021-02-23T10:09:08Z</time>
      </trkpt>
      <trkpt lat="47.67396" lon="6.12748">
        <ele>239</ele>
        <time>2021-02-23T10:09:11Z</time>
      </trkpt>
      <trkpt lat="47.6739" lon="6.12754">
        <ele>238.7</ele>
        <time>2021-02-23T10:09:13Z</time>
      </trkpt>
      <trkpt lat="47.6738" lon="6.12763">
        <ele>238.3</ele>
        <time>2021-02-23T10:09:16Z</time>
      </trkpt>
      <trkpt lat="47.67374" lon="6.12767">
        <ele>238.1</ele>
        <time>2021-02-23T10:09:18Z</time>
      </trkpt>
      <trkpt lat="47.6737" lon="6.1277">
        <ele>237.9</ele>
        <time>2021-02-23T10:09:19Z</time>
      </trkpt>
      <trkpt lat="47.67363" lon="6.12775">
        <ele>237.6</ele>
        <time>2021-02-23T10:09:21Z</time>
      </trkpt>
      <trkpt lat="47.67356" lon="6.12779">
        <ele>237.3</ele>
        <time>2021-02-23T10:09:23Z</time>
      </trkpt>
      <trkpt lat="47.67345" lon="6.12785">
        <ele>236.9</ele>
        <time>2021-02-23T10:09:26Z</time>
      </trkpt>
      <trkpt lat="47.67337" lon="6.1279">
        <ele>236.6</ele>
        <time>2021-02-23T10:09:28Z</time>
      </trkpt>
      <trkpt lat="47.67324" lon="6.12794">
        <ele>236.5</ele>
        <time>2021-02-23T10:09:29Z</time>
      </trkpt>
      <trkpt lat="47.67319" lon="6.12796">
        <ele>236.5</ele>
        <time>2021-02-23T10:09:32Z</time>
      </trkpt>
      <trkpt lat="47.67313" lon="6.12798">
        <ele>236.5</ele>
        <time>2021-02-23T10:09:34Z</time>
      </trkpt>
      <trkpt lat="47.67305" lon="6.12801">
        <ele>236.5</ele>
        <time>2021-02-23T10:09:36Z</time>
      </trkpt>
      <trkpt lat="47.673" lon="6.12803">
        <ele>236.5</ele>
        <time>2021-02-23T10:09:37Z</time>
      </trkpt>
      <trkpt lat="47.67294" lon="6.12805">
        <ele>236.5</ele>
        <time>2021-02-23T10:09:39Z</time>
      </trkpt>
      <trkpt lat="47.67281" lon="6.1281">
        <ele>236.5</ele>
        <time>2021-02-23T10:09:42Z</time>
      </trkpt>
      <trkpt lat="47.67275" lon="6.12812">
        <ele>236.6</ele>
        <time>2021-02-23T10:09:43Z</time>
      </trkpt>
      <trkpt lat="47.67266" lon="6.12815">
        <ele>236.6</ele>
        <time>2021-02-23T10:09:46Z</time>
      </trkpt>
      <trkpt lat="47.67262" lon="6.12817">
        <ele>236.6</ele>
        <time>2021-02-23T10:09:47Z</time>
      </trkpt>
      <trkpt lat="47.6725" lon="6.12821">
        <ele>236.7</ele>
        <time>2021-02-23T10:09:50Z</time>
      </trkpt>
      <trkpt lat="47.67238" lon="6.12825">
        <ele>236.5</ele>
        <time>2021-02-23T10:09:50Z</time>
      </trkpt>
      <trkpt lat="47.67233" lon="6.12827">
        <ele>236.4</ele>
        <time>2021-02-23T10:09:51Z</time>
      </trkpt>
      <trkpt lat="47.67229" lon="6.12828">
        <ele>236.4</ele>
        <time>2021-02-23T10:09:52Z</time>
      </trkpt>
      <trkpt lat="47.67224" lon="6.1283">
        <ele>236.3</ele>
        <time>2021-02-23T10:09:53Z</time>
      </trkpt>
      <trkpt lat="47.6722" lon="6.12831">
        <ele>236.2</ele>
        <time>2021-02-23T10:09:54Z</time>
      </trkpt>
      <trkpt lat="47.67211" lon="6.12834">
        <ele>236.1</ele>
        <time>2021-02-23T10:09:56Z</time>
      </trkpt>
      <trkpt lat="47.67204" lon="6.12836">
        <ele>236</ele>
        <time>2021-02-23T10:10:00Z</time>
      </trkpt>
      <trkpt lat="47.67192" lon="6.1284">
        <ele>235.9</ele>
        <time>2021-02-23T10:10:03Z</time>
      </trkpt>
      <trkpt lat="47.67184" lon="6.12842">
        <ele>235.8</ele>
        <time>2021-02-23T10:10:05Z</time>
      </trkpt>
      <trkpt lat="47.67173" lon="6.12845">
        <ele>235.7</ele>
        <time>2021-02-23T10:10:08Z</time>
      </trkpt>
      <trkpt lat="47.67168" lon="6.12848">
        <ele>235.7</ele>
        <time>2021-02-23T10:10:10Z</time>
      </trkpt>
      <trkpt lat="47.67164" lon="6.12849">
        <ele>235.7</ele>
        <time>2021-02-23T10:10:11Z</time>
      </trkpt>
      <trkpt lat="47.67152" lon="6.12853">
        <ele>235.7</ele>
        <time>2021-02-23T10:10:14Z</time>
      </trkpt>
      <trkpt lat="47.67145" lon="6.12856">
        <ele>235.7</ele>
        <time>2021-02-23T10:10:16Z</time>
      </trkpt>
      <trkpt lat="47.67138" lon="6.12857">
        <ele>235.6</ele>
        <time>2021-02-23T10:10:18Z</time>
      </trkpt>
      <trkpt lat="47.67131" lon="6.12859">
        <ele>235.6</ele>
        <time>2021-02-23T10:10:20Z</time>
      </trkpt>
      <trkpt lat="47.67124" lon="6.12862">
        <ele>235.5</ele>
        <time>2021-02-23T10:10:22Z</time>
      </trkpt>
      <trkpt lat="47.67117" lon="6.12864">
        <ele>235.4</ele>
        <time>2021-02-23T10:10:24Z</time>
      </trkpt>
      <trkpt lat="47.67113" lon="6.12866">
        <ele>235.4</ele>
        <time>2021-02-23T10:10:25Z</time>
      </trkpt>
      <trkpt lat="47.67107" lon="6.1287">
        <ele>235.4</ele>
        <time>2021-02-23T10:10:27Z</time>
      </trkpt>
      <trkpt lat="47.671" lon="6.12874">
        <ele>235.4</ele>
        <time>2021-02-23T10:10:29Z</time>
      </trkpt>
      <trkpt lat="47.67093" lon="6.1288">
        <ele>235.4</ele>
        <time>2021-02-23T10:10:31Z</time>
      </trkpt>
      <trkpt lat="47.67089" lon="6.12883">
        <ele>235.3</ele>
        <time>2021-02-23T10:10:32Z</time>
      </trkpt>
      <trkpt lat="47.67084" lon="6.12888">
        <ele>235.3</ele>
        <time>2021-02-23T10:10:33Z</time>
      </trkpt>
      <trkpt lat="47.6708" lon="6.12893">
        <ele>235.4</ele>
        <time>2021-02-23T10:10:35Z</time>
      </trkpt>
      <trkpt lat="47.67067" lon="6.12908">
        <ele>235.5</ele>
        <time>2021-02-23T10:10:36Z</time>
      </trkpt>
      <trkpt lat="47.67062" lon="6.12916">
        <ele>235.5</ele>
        <time>2021-02-23T10:10:40Z</time>
      </trkpt>
      <trkpt lat="47.67054" lon="6.12929">
        <ele>235.6</ele>
        <time>2021-02-23T10:10:43Z</time>
      </trkpt>
      <trkpt lat="47.6705" lon="6.12937">
        <ele>235.6</ele>
        <time>2021-02-23T10:10:44Z</time>
      </trkpt>
      <trkpt lat="47.67044" lon="6.12951">
        <ele>235.7</ele>
        <time>2021-02-23T10:10:46Z</time>
      </trkpt>
      <trkpt lat="47.6704" lon="6.12959">
        <ele>235.7</ele>
        <time>2021-02-23T10:10:48Z</time>
      </trkpt>
      <trkpt lat="47.67035" lon="6.12973">
        <ele>235.8</ele>
        <time>2021-02-23T10:10:50Z</time>
      </trkpt>
      <trkpt lat="47.67031" lon="6.12982">
        <ele>235.8</ele>
        <time>2021-02-23T10:10:52Z</time>
      </trkpt>
      <trkpt lat="47.67029" lon="6.12989">
        <ele>235.9</ele>
        <time>2021-02-23T10:10:53Z</time>
      </trkpt>
      <trkpt lat="47.67025" lon="6.12999">
        <ele>235.9</ele>
        <time>2021-02-23T10:10:55Z</time>
      </trkpt>
      <trkpt lat="47.67023" lon="6.13006">
        <ele>236</ele>
        <time>2021-02-23T10:10:56Z</time>
      </trkpt>
      <trkpt lat="47.6702" lon="6.13012">
        <ele>236.2</ele>
        <time>2021-02-23T10:10:57Z</time>
      </trkpt>
      <trkpt lat="47.67017" lon="6.13021">
        <ele>236.5</ele>
        <time>2021-02-23T10:10:59Z</time>
      </trkpt>
      <trkpt lat="47.67015" lon="6.13029">
        <ele>236.7</ele>
        <time>2021-02-23T10:11:00Z</time>
      </trkpt>
      <trkpt lat="47.6701" lon="6.13041">
        <ele>237.2</ele>
        <time>2021-02-23T10:11:00Z</time>
      </trkpt>
      <trkpt lat="47.67006" lon="6.1305">
        <ele>237.5</ele>
        <time>2021-02-23T10:11:04Z</time>
      </trkpt>
      <trkpt lat="47.67004" lon="6.13056">
        <ele>237.7</ele>
        <time>2021-02-23T10:11:05Z</time>
      </trkpt>
      <trkpt lat="47.67001" lon="6.13062">
        <ele>238</ele>
        <time>2021-02-23T10:11:06Z</time>
      </trkpt>
      <trkpt lat="47.66998" lon="6.13071">
        <ele>238.3</ele>
        <time>2021-02-23T10:11:08Z</time>
      </trkpt>
      <trkpt lat="47.66996" lon="6.13078">
        <ele>238.6</ele>
        <time>2021-02-23T10:11:09Z</time>
      </trkpt>
      <trkpt lat="47.66992" lon="6.13088">
        <ele>239.2</ele>
        <time>2021-02-23T10:11:11Z</time>
      </trkpt>
      <trkpt lat="47.66985" lon="6.13102">
        <ele>240.8</ele>
        <time>2021-02-23T10:11:14Z</time>
      </trkpt>
      <trkpt lat="47.66981" lon="6.13113">
        <ele>241.8</ele>
        <time>2021-02-23T10:11:14Z</time>
      </trkpt>
      <trkpt lat="47.66977" lon="6.13121">
        <ele>242.6</ele>
        <time>2021-02-23T10:11:18Z</time>
      </trkpt>
      <trkpt lat="47.66974" lon="6.1313">
        <ele>243.5</ele>
        <time>2021-02-23T10:11:20Z</time>
      </trkpt>
      <trkpt lat="47.66972" lon="6.13136">
        <ele>244</ele>
        <time>2021-02-23T10:11:21Z</time>
      </trkpt>
      <trkpt lat="47.66969" lon="6.13145">
        <ele>244.7</ele>
        <time>2021-02-23T10:11:23Z</time>
      </trkpt>
      <trkpt lat="47.66967" lon="6.13151">
        <ele>245.2</ele>
        <time>2021-02-23T10:11:24Z</time>
      </trkpt>
      <trkpt lat="47.66963" lon="6.13161">
        <ele>245.9</ele>
        <time>2021-02-23T10:11:27Z</time>
      </trkpt>
      <trkpt lat="47.6696" lon="6.13167">
        <ele>246.2</ele>
        <time>2021-02-23T10:11:29Z</time>
      </trkpt>
      <trkpt lat="47.66957" lon="6.13174">
        <ele>246.1</ele>
        <time>2021-02-23T10:11:29Z</time>
      </trkpt>
      <trkpt lat="47.66954" lon="6.1318">
        <ele>245.9</ele>
        <time>2021-02-23T10:11:33Z</time>
      </trkpt>
      <trkpt lat="47.6695" lon="6.13188">
        <ele>245.7</ele>
        <time>2021-02-23T10:11:36Z</time>
      </trkpt>
      <trkpt lat="47.66947" lon="6.13196">
        <ele>245.7</ele>
        <time>2021-02-23T10:11:38Z</time>
      </trkpt>
      <trkpt lat="47.66943" lon="6.13204">
        <ele>245.6</ele>
        <time>2021-02-23T10:11:40Z</time>
      </trkpt>
      <trkpt lat="47.66941" lon="6.1321">
        <ele>245.5</ele>
        <time>2021-02-23T10:11:42Z</time>
      </trkpt>
      <trkpt lat="47.66937" lon="6.13219">
        <ele>245.5</ele>
        <time>2021-02-23T10:11:42Z</time>
      </trkpt>
      <trkpt lat="47.66934" lon="6.13226">
        <ele>245.5</ele>
        <time>2021-02-23T10:11:46Z</time>
      </trkpt>
      <trkpt lat="47.66932" lon="6.13232">
        <ele>245.5</ele>
        <time>2021-02-23T10:11:48Z</time>
      </trkpt>
      <trkpt lat="47.66929" lon="6.13242">
        <ele>245.7</ele>
        <time>2021-02-23T10:11:50Z</time>
      </trkpt>
      <trkpt lat="47.66927" lon="6.13249">
        <ele>245.8</ele>
        <time>2021-02-23T10:11:52Z</time>
      </trkpt>
      <trkpt lat="47.66925" lon="6.13258">
        <ele>245.6</ele>
        <time>2021-02-23T10:11:54Z</time>
      </trkpt>
      <trkpt lat="47.66923" lon="6.13266">
        <ele>245.3</ele>
        <time>2021-02-23T10:11:56Z</time>
      </trkpt>
      <trkpt lat="47.66921" lon="6.13275">
        <ele>245.1</ele>
        <time>2021-02-23T10:11:58Z</time>
      </trkpt>
      <trkpt lat="47.66918" lon="6.13289">
        <ele>244.7</ele>
        <time>2021-02-23T10:12:01Z</time>
      </trkpt>
      <trkpt lat="47.66917" lon="6.13298">
        <ele>244.5</ele>
        <time>2021-02-23T10:12:02Z</time>
      </trkpt>
      <trkpt lat="47.66915" lon="6.13308">
        <ele>244.2</ele>
        <time>2021-02-23T10:12:05Z</time>
      </trkpt>
      <trkpt lat="47.66912" lon="6.13324">
        <ele>243.9</ele>
        <time>2021-02-23T10:12:06Z</time>
      </trkpt>
      <trkpt lat="47.6691" lon="6.13331">
        <ele>243.7</ele>
        <time>2021-02-23T10:12:10Z</time>
      </trkpt>
      <trkpt lat="47.66908" lon="6.1334">
        <ele>243.9</ele>
        <time>2021-02-23T10:12:12Z</time>
      </trkpt>
      <trkpt lat="47.66904" lon="6.13353">
        <ele>244.4</ele>
        <time>2021-02-23T10:12:14Z</time>
      </trkpt>
      <trkpt lat="47.66902" lon="6.13361">
        <ele>244.7</ele>
        <time>2021-02-23T10:12:14Z</time>
      </trkpt>
      <trkpt lat="47.66899" lon="6.13369">
        <ele>244.9</ele>
        <time>2021-02-23T10:12:18Z</time>
      </trkpt>
      <trkpt lat="47.66896" lon="6.13378">
        <ele>245.2</ele>
        <time>2021-02-23T10:12:20Z</time>
      </trkpt>
      <trkpt lat="47.66894" lon="6.13384">
        <ele>245.3</ele>
        <time>2021-02-23T10:12:21Z</time>
      </trkpt>
      <trkpt lat="47.66891" lon="6.13394">
        <ele>245.4</ele>
        <time>2021-02-23T10:12:23Z</time>
      </trkpt>
      <trkpt lat="47.66887" lon="6.13402">
        <ele>245.5</ele>
        <time>2021-02-23T10:12:24Z</time>
      </trkpt>
      <trkpt lat="47.66884" lon="6.1341">
        <ele>245.6</ele>
        <time>2021-02-23T10:12:26Z</time>
      </trkpt>
      <trkpt lat="47.66879" lon="6.13425">
        <ele>245.6</ele>
        <time>2021-02-23T10:12:29Z</time>
      </trkpt>
      <trkpt lat="47.66869" lon="6.13445">
        <ele>245</ele>
        <time>2021-02-23T10:12:32Z</time>
      </trkpt>
      <trkpt lat="47.66858" lon="6.13462">
        <ele>244</ele>
        <time>2021-02-23T10:12:32Z</time>
      </trkpt>
      <trkpt lat="47.66853" lon="6.1347">
        <ele>243.5</ele>
        <time>2021-02-23T10:12:33Z</time>
      </trkpt>
      <trkpt lat="47.66848" lon="6.13477">
        <ele>243</ele>
        <time>2021-02-23T10:12:34Z</time>
      </trkpt>
      <trkpt lat="47.66844" lon="6.13484">
        <ele>242.5</ele>
        <time>2021-02-23T10:12:35Z</time>
      </trkpt>
      <trkpt lat="47.6684" lon="6.13492">
        <ele>241.9</ele>
        <time>2021-02-23T10:12:36Z</time>
      </trkpt>
      <trkpt lat="47.66836" lon="6.13499">
        <ele>241.3</ele>
        <time>2021-02-23T10:12:37Z</time>
      </trkpt>
      <trkpt lat="47.66832" lon="6.13507">
        <ele>240.8</ele>
        <time>2021-02-23T10:12:38Z</time>
      </trkpt>
      <trkpt lat="47.66828" lon="6.13514">
        <ele>240.4</ele>
        <time>2021-02-23T10:12:39Z</time>
      </trkpt>
      <trkpt lat="47.66824" lon="6.13521">
        <ele>240</ele>
        <time>2021-02-23T10:12:40Z</time>
      </trkpt>
      <trkpt lat="47.66821" lon="6.13528">
        <ele>239.7</ele>
        <time>2021-02-23T10:12:41Z</time>
      </trkpt>
      <trkpt lat="47.66818" lon="6.13536">
        <ele>239.4</ele>
        <time>2021-02-23T10:12:42Z</time>
      </trkpt>
      <trkpt lat="47.66815" lon="6.13544">
        <ele>239.2</ele>
        <time>2021-02-23T10:12:43Z</time>
      </trkpt>
      <trkpt lat="47.66813" lon="6.13552">
        <ele>239</ele>
        <time>2021-02-23T10:12:44Z</time>
      </trkpt>
      <trkpt lat="47.66811" lon="6.1356">
        <ele>238.8</ele>
        <time>2021-02-23T10:12:45Z</time>
      </trkpt>
      <trkpt lat="47.66809" lon="6.13568">
        <ele>238.6</ele>
        <time>2021-02-23T10:12:46Z</time>
      </trkpt>
      <trkpt lat="47.66808" lon="6.13576">
        <ele>238.5</ele>
        <time>2021-02-23T10:12:47Z</time>
      </trkpt>
      <trkpt lat="47.66806" lon="6.13584">
        <ele>238.4</ele>
        <time>2021-02-23T10:12:48Z</time>
      </trkpt>
      <trkpt lat="47.66805" lon="6.13593">
        <ele>238.1</ele>
        <time>2021-02-23T10:12:49Z</time>
      </trkpt>
      <trkpt lat="47.66804" lon="6.13601">
        <ele>237.8</ele>
        <time>2021-02-23T10:12:50Z</time>
      </trkpt>
      <trkpt lat="47.66804" lon="6.13609">
        <ele>237.5</ele>
        <time>2021-02-23T10:12:51Z</time>
      </trkpt>
      <trkpt lat="47.66804" lon="6.13617">
        <ele>237.3</ele>
        <time>2021-02-23T10:12:52Z</time>
      </trkpt>
      <trkpt lat="47.66804" lon="6.13625">
        <ele>237.1</ele>
        <time>2021-02-23T10:12:53Z</time>
      </trkpt>
      <trkpt lat="47.66804" lon="6.13633">
        <ele>236.9</ele>
        <time>2021-02-23T10:12:54Z</time>
      </trkpt>
      <trkpt lat="47.66804" lon="6.1364">
        <ele>236.7</ele>
        <time>2021-02-23T10:12:55Z</time>
      </trkpt>
      <trkpt lat="47.66805" lon="6.13648">
        <ele>236.5</ele>
        <time>2021-02-23T10:12:56Z</time>
      </trkpt>
      <trkpt lat="47.66806" lon="6.13655">
        <ele>236.3</ele>
        <time>2021-02-23T10:12:57Z</time>
      </trkpt>
      <trkpt lat="47.66807" lon="6.13663">
        <ele>236.2</ele>
        <time>2021-02-23T10:12:58Z</time>
      </trkpt>
      <trkpt lat="47.66808" lon="6.1367">
        <ele>236.1</ele>
        <time>2021-02-23T10:12:59Z</time>
      </trkpt>
      <trkpt lat="47.66809" lon="6.13676">
        <ele>236.2</ele>
        <time>2021-02-23T10:13:00Z</time>
      </trkpt>
      <trkpt lat="47.66811" lon="6.13689">
        <ele>236.4</ele>
        <time>2021-02-23T10:13:02Z</time>
      </trkpt>
      <trkpt lat="47.66812" lon="6.13696">
        <ele>236.5</ele>
        <time>2021-02-23T10:13:03Z</time>
      </trkpt>
      <trkpt lat="47.66814" lon="6.13709">
        <ele>236.7</ele>
        <time>2021-02-23T10:13:05Z</time>
      </trkpt>
      <trkpt lat="47.66817" lon="6.13722">
        <ele>236.9</ele>
        <time>2021-02-23T10:13:07Z</time>
      </trkpt>
      <trkpt lat="47.66818" lon="6.13728">
        <ele>237</ele>
        <time>2021-02-23T10:13:08Z</time>
      </trkpt>
      <trkpt lat="47.6682" lon="6.13742">
        <ele>237.3</ele>
        <time>2021-02-23T10:13:10Z</time>
      </trkpt>
      <trkpt lat="47.6682" lon="6.13748">
        <ele>237.4</ele>
        <time>2021-02-23T10:13:11Z</time>
      </trkpt>
      <trkpt lat="47.66821" lon="6.13755">
        <ele>237.4</ele>
        <time>2021-02-23T10:13:12Z</time>
      </trkpt>
      <trkpt lat="47.66822" lon="6.13762">
        <ele>237.3</ele>
        <time>2021-02-23T10:13:13Z</time>
      </trkpt>
      <trkpt lat="47.66822" lon="6.13769">
        <ele>237.3</ele>
        <time>2021-02-23T10:13:14Z</time>
      </trkpt>
      <trkpt lat="47.66823" lon="6.13776">
        <ele>237.2</ele>
        <time>2021-02-23T10:13:15Z</time>
      </trkpt>
      <trkpt lat="47.66823" lon="6.13782">
        <ele>237.1</ele>
        <time>2021-02-23T10:13:16Z</time>
      </trkpt>
      <trkpt lat="47.66823" lon="6.13789">
        <ele>237</ele>
        <time>2021-02-23T10:13:17Z</time>
      </trkpt>
      <trkpt lat="47.66822" lon="6.13802">
        <ele>236.8</ele>
        <time>2021-02-23T10:13:19Z</time>
      </trkpt>
      <trkpt lat="47.6682" lon="6.13815">
        <ele>236.6</ele>
        <time>2021-02-23T10:13:21Z</time>
      </trkpt>
      <trkpt lat="47.66818" lon="6.13826">
        <ele>236.4</ele>
        <time>2021-02-23T10:13:23Z</time>
      </trkpt>
      <trkpt lat="47.66817" lon="6.13832">
        <ele>236.2</ele>
        <time>2021-02-23T10:13:24Z</time>
      </trkpt>
      <trkpt lat="47.66813" lon="6.13843">
        <ele>236.2</ele>
        <time>2021-02-23T10:13:26Z</time>
      </trkpt>
      <trkpt lat="47.66809" lon="6.13855">
        <ele>236.1</ele>
        <time>2021-02-23T10:13:28Z</time>
      </trkpt>
      <trkpt lat="47.66807" lon="6.13862">
        <ele>236.1</ele>
        <time>2021-02-23T10:13:32Z</time>
      </trkpt>
      <trkpt lat="47.66805" lon="6.1387">
        <ele>236.1</ele>
        <time>2021-02-23T10:13:33Z</time>
      </trkpt>
      <trkpt lat="47.66803" lon="6.13878">
        <ele>236.1</ele>
        <time>2021-02-23T10:13:35Z</time>
      </trkpt>
      <trkpt lat="47.66802" lon="6.13886">
        <ele>236.1</ele>
        <time>2021-02-23T10:13:36Z</time>
      </trkpt>
      <trkpt lat="47.66799" lon="6.13896">
        <ele>236.1</ele>
        <time>2021-02-23T10:13:38Z</time>
      </trkpt>
      <trkpt lat="47.66798" lon="6.13903">
        <ele>236.1</ele>
        <time>2021-02-23T10:13:39Z</time>
      </trkpt>
      <trkpt lat="47.66797" lon="6.1391">
        <ele>236.2</ele>
        <time>2021-02-23T10:13:40Z</time>
      </trkpt>
      <trkpt lat="47.66795" lon="6.13919">
        <ele>236.2</ele>
        <time>2021-02-23T10:13:42Z</time>
      </trkpt>
      <trkpt lat="47.66794" lon="6.1393">
        <ele>236.4</ele>
        <time>2021-02-23T10:13:44Z</time>
      </trkpt>
      <trkpt lat="47.66793" lon="6.13939">
        <ele>236.6</ele>
        <time>2021-02-23T10:13:46Z</time>
      </trkpt>
      <trkpt lat="47.66792" lon="6.13949">
        <ele>236.8</ele>
        <time>2021-02-23T10:13:48Z</time>
      </trkpt>
      <trkpt lat="47.66791" lon="6.13957">
        <ele>236.9</ele>
        <time>2021-02-23T10:13:50Z</time>
      </trkpt>
      <trkpt lat="47.6679" lon="6.13967">
        <ele>237.1</ele>
        <time>2021-02-23T10:13:52Z</time>
      </trkpt>
      <trkpt lat="47.66788" lon="6.13986">
        <ele>237.5</ele>
        <time>2021-02-23T10:13:55Z</time>
      </trkpt>
      <trkpt lat="47.66786" lon="6.13992">
        <ele>237.6</ele>
        <time>2021-02-23T10:13:56Z</time>
      </trkpt>
      <trkpt lat="47.66785" lon="6.14002">
        <ele>237.7</ele>
        <time>2021-02-23T10:13:58Z</time>
      </trkpt>
      <trkpt lat="47.66783" lon="6.14011">
        <ele>237.7</ele>
        <time>2021-02-23T10:14:00Z</time>
      </trkpt>
      <trkpt lat="47.66781" lon="6.14028">
        <ele>237.7</ele>
        <time>2021-02-23T10:14:00Z</time>
      </trkpt>
      <trkpt lat="47.66779" lon="6.14038">
        <ele>237.7</ele>
        <time>2021-02-23T10:14:04Z</time>
      </trkpt>
      <trkpt lat="47.66778" lon="6.14045">
        <ele>237.7</ele>
        <time>2021-02-23T10:14:05Z</time>
      </trkpt>
      <trkpt lat="47.66777" lon="6.14054">
        <ele>237.7</ele>
        <time>2021-02-23T10:14:06Z</time>
      </trkpt>
      <trkpt lat="47.66776" lon="6.14062">
        <ele>237.8</ele>
        <time>2021-02-23T10:14:07Z</time>
      </trkpt>
      <trkpt lat="47.66775" lon="6.1407">
        <ele>237.8</ele>
        <time>2021-02-23T10:14:09Z</time>
      </trkpt>
      <trkpt lat="47.66772" lon="6.1409">
        <ele>238</ele>
        <time>2021-02-23T10:14:12Z</time>
      </trkpt>
      <trkpt lat="47.66772" lon="6.14097">
        <ele>238.1</ele>
        <time>2021-02-23T10:14:13Z</time>
      </trkpt>
      <trkpt lat="47.66771" lon="6.14104">
        <ele>238.3</ele>
        <time>2021-02-23T10:14:14Z</time>
      </trkpt>
      <trkpt lat="47.6677" lon="6.14111">
        <ele>238.5</ele>
        <time>2021-02-23T10:14:15Z</time>
      </trkpt>
      <trkpt lat="47.66769" lon="6.14122">
        <ele>238.8</ele>
        <time>2021-02-23T10:14:17Z</time>
      </trkpt>
      <trkpt lat="47.66768" lon="6.14141">
        <ele>239.3</ele>
        <time>2021-02-23T10:14:18Z</time>
      </trkpt>
      <trkpt lat="47.66767" lon="6.1415">
        <ele>239.5</ele>
        <time>2021-02-23T10:14:22Z</time>
      </trkpt>
      <trkpt lat="47.66767" lon="6.14157">
        <ele>239.7</ele>
        <time>2021-02-23T10:14:23Z</time>
      </trkpt>
      <trkpt lat="47.66766" lon="6.14164">
        <ele>239.9</ele>
        <time>2021-02-23T10:14:25Z</time>
      </trkpt>
      <trkpt lat="47.66765" lon="6.14171">
        <ele>240.1</ele>
        <time>2021-02-23T10:14:26Z</time>
      </trkpt>
      <trkpt lat="47.66765" lon="6.14179">
        <ele>240.4</ele>
        <time>2021-02-23T10:14:26Z</time>
      </trkpt>
      <trkpt lat="47.66764" lon="6.14186">
        <ele>240.6</ele>
        <time>2021-02-23T10:14:28Z</time>
      </trkpt>
      <trkpt lat="47.66763" lon="6.14194">
        <ele>240.8</ele>
        <time>2021-02-23T10:14:33Z</time>
      </trkpt>
      <trkpt lat="47.66762" lon="6.14203">
        <ele>241.1</ele>
        <time>2021-02-23T10:14:36Z</time>
      </trkpt>
      <trkpt lat="47.6676" lon="6.14211">
        <ele>241.4</ele>
        <time>2021-02-23T10:14:39Z</time>
      </trkpt>
      <trkpt lat="47.66758" lon="6.14218">
        <ele>241.7</ele>
        <time>2021-02-23T10:14:42Z</time>
      </trkpt>
      <trkpt lat="47.66755" lon="6.14227">
        <ele>242</ele>
        <time>2021-02-23T10:14:45Z</time>
      </trkpt>
      <trkpt lat="47.66753" lon="6.14236">
        <ele>242.4</ele>
        <time>2021-02-23T10:14:46Z</time>
      </trkpt>
      <trkpt lat="47.66751" lon="6.14245">
        <ele>242.8</ele>
        <time>2021-02-23T10:14:51Z</time>
      </trkpt>
      <trkpt lat="47.6675" lon="6.14255">
        <ele>243.3</ele>
        <time>2021-02-23T10:14:54Z</time>
      </trkpt>
      <trkpt lat="47.66748" lon="6.14262">
        <ele>243.7</ele>
        <time>2021-02-23T10:14:54Z</time>
      </trkpt>
      <trkpt lat="47.66746" lon="6.14268">
        <ele>244.2</ele>
        <time>2021-02-23T10:14:56Z</time>
      </trkpt>
      <trkpt lat="47.66744" lon="6.14278">
        <ele>244.7</ele>
        <time>2021-02-23T10:15:01Z</time>
      </trkpt>
      <trkpt lat="47.66742" lon="6.14286">
        <ele>245.3</ele>
        <time>2021-02-23T10:15:04Z</time>
      </trkpt>
      <trkpt lat="47.66741" lon="6.14293">
        <ele>245.7</ele>
        <time>2021-02-23T10:15:07Z</time>
      </trkpt>
      <trkpt lat="47.66739" lon="6.14303">
        <ele>246.4</ele>
        <time>2021-02-23T10:15:10Z</time>
      </trkpt>
      <trkpt lat="47.66738" lon="6.1431">
        <ele>246.7</ele>
        <time>2021-02-23T10:15:13Z</time>
      </trkpt>
      <trkpt lat="47.66737" lon="6.14317">
        <ele>247.2</ele>
        <time>2021-02-23T10:15:13Z</time>
      </trkpt>
      <trkpt lat="47.66734" lon="6.14326">
        <ele>247.8</ele>
        <time>2021-02-23T10:15:16Z</time>
      </trkpt>
      <trkpt lat="47.66733" lon="6.14332">
        <ele>248.2</ele>
        <time>2021-02-23T10:15:18Z</time>
      </trkpt>
      <trkpt lat="47.66731" lon="6.1434">
        <ele>248.7</ele>
        <time>2021-02-23T10:15:23Z</time>
      </trkpt>
      <trkpt lat="47.6673" lon="6.14347">
        <ele>249</ele>
        <time>2021-02-23T10:15:23Z</time>
      </trkpt>
      <trkpt lat="47.66729" lon="6.14355">
        <ele>249.4</ele>
        <time>2021-02-23T10:15:28Z</time>
      </trkpt>
      <trkpt lat="47.66728" lon="6.14362">
        <ele>249.7</ele>
        <time>2021-02-23T10:15:31Z</time>
      </trkpt>
      <trkpt lat="47.66727" lon="6.14368">
        <ele>250.1</ele>
        <time>2021-02-23T10:15:34Z</time>
      </trkpt>
      <trkpt lat="47.66725" lon="6.14376">
        <ele>250.5</ele>
        <time>2021-02-23T10:15:35Z</time>
      </trkpt>
      <trkpt lat="47.66723" lon="6.14382">
        <ele>250.9</ele>
        <time>2021-02-23T10:15:40Z</time>
      </trkpt>
      <trkpt lat="47.66722" lon="6.1439">
        <ele>251.3</ele>
        <time>2021-02-23T10:15:43Z</time>
      </trkpt>
      <trkpt lat="47.66721" lon="6.14398">
        <ele>251.6</ele>
        <time>2021-02-23T10:15:46Z</time>
      </trkpt>
      <trkpt lat="47.66719" lon="6.14405">
        <ele>252.1</ele>
        <time>2021-02-23T10:15:49Z</time>
      </trkpt>
      <trkpt lat="47.66718" lon="6.14412">
        <ele>252.4</ele>
        <time>2021-02-23T10:15:52Z</time>
      </trkpt>
      <trkpt lat="47.66716" lon="6.1442">
        <ele>252.7</ele>
        <time>2021-02-23T10:15:55Z</time>
      </trkpt>
      <trkpt lat="47.66715" lon="6.14429">
        <ele>252.9</ele>
        <time>2021-02-23T10:15:58Z</time>
      </trkpt>
      <trkpt lat="47.66714" lon="6.14438">
        <ele>253.1</ele>
        <time>2021-02-23T10:16:01Z</time>
      </trkpt>
      <trkpt lat="47.66713" lon="6.14448">
        <ele>253.3</ele>
        <time>2021-02-23T10:16:03Z</time>
      </trkpt>
      <trkpt lat="47.66713" lon="6.14457">
        <ele>253.5</ele>
        <time>2021-02-23T10:16:06Z</time>
      </trkpt>
      <trkpt lat="47.66712" lon="6.14466">
        <ele>253.7</ele>
        <time>2021-02-23T10:16:10Z</time>
      </trkpt>
      <trkpt lat="47.66712" lon="6.14474">
        <ele>253.8</ele>
        <time>2021-02-23T10:16:12Z</time>
      </trkpt>
      <trkpt lat="47.66712" lon="6.14481">
        <ele>253.9</ele>
        <time>2021-02-23T10:16:14Z</time>
      </trkpt>
      <trkpt lat="47.66712" lon="6.1449">
        <ele>254.1</ele>
        <time>2021-02-23T10:16:15Z</time>
      </trkpt>
      <trkpt lat="47.66712" lon="6.14498">
        <ele>254.2</ele>
        <time>2021-02-23T10:16:17Z</time>
      </trkpt>
      <trkpt lat="47.66713" lon="6.14505">
        <ele>254.3</ele>
        <time>2021-02-23T10:16:19Z</time>
      </trkpt>
      <trkpt lat="47.66713" lon="6.14512">
        <ele>254.4</ele>
        <time>2021-02-23T10:16:21Z</time>
      </trkpt>
      <trkpt lat="47.66714" lon="6.14519">
        <ele>254.5</ele>
        <time>2021-02-23T10:16:23Z</time>
      </trkpt>
      <trkpt lat="47.66715" lon="6.14526">
        <ele>254.5</ele>
        <time>2021-02-23T10:16:25Z</time>
      </trkpt>
      <trkpt lat="47.66716" lon="6.14535">
        <ele>254.6</ele>
        <time>2021-02-23T10:16:28Z</time>
      </trkpt>
      <trkpt lat="47.66716" lon="6.14545">
        <ele>254.8</ele>
        <time>2021-02-23T10:16:31Z</time>
      </trkpt>
      <trkpt lat="47.66717" lon="6.14554">
        <ele>254.9</ele>
        <time>2021-02-23T10:16:35Z</time>
      </trkpt>
      <trkpt lat="47.66718" lon="6.14561">
        <ele>255</ele>
        <time>2021-02-23T10:16:36Z</time>
      </trkpt>
      <trkpt lat="47.66719" lon="6.14568">
        <ele>255.1</ele>
        <time>2021-02-23T10:16:40Z</time>
      </trkpt>
      <trkpt lat="47.66721" lon="6.14574">
        <ele>255.2</ele>
        <time>2021-02-23T10:16:42Z</time>
      </trkpt>
      <trkpt lat="47.66722" lon="6.14582">
        <ele>255.3</ele>
        <time>2021-02-23T10:16:44Z</time>
      </trkpt>
      <trkpt lat="47.66723" lon="6.14589">
        <ele>255.4</ele>
        <time>2021-02-23T10:16:45Z</time>
      </trkpt>
      <trkpt lat="47.66723" lon="6.14596">
        <ele>255.6</ele>
        <time>2021-02-23T10:16:48Z</time>
      </trkpt>
      <trkpt lat="47.66725" lon="6.14604">
        <ele>255.7</ele>
        <time>2021-02-23T10:16:51Z</time>
      </trkpt>
      <trkpt lat="47.66726" lon="6.14612">
        <ele>255.9</ele>
        <time>2021-02-23T10:16:52Z</time>
      </trkpt>
      <trkpt lat="47.66727" lon="6.14622">
        <ele>256.2</ele>
        <time>2021-02-23T10:16:55Z</time>
      </trkpt>
      <trkpt lat="47.66728" lon="6.14631">
        <ele>256.4</ele>
        <time>2021-02-23T10:16:59Z</time>
      </trkpt>
      <trkpt lat="47.66729" lon="6.14641">
        <ele>256.6</ele>
        <time>2021-02-23T10:17:02Z</time>
      </trkpt>
      <trkpt lat="47.66729" lon="6.14648">
        <ele>256.8</ele>
        <time>2021-02-23T10:17:04Z</time>
      </trkpt>
      <trkpt lat="47.6673" lon="6.14657">
        <ele>257</ele>
        <time>2021-02-23T10:17:07Z</time>
      </trkpt>
      <trkpt lat="47.66731" lon="6.14665">
        <ele>257.3</ele>
        <time>2021-02-23T10:17:08Z</time>
      </trkpt>
      <trkpt lat="47.66732" lon="6.14673">
        <ele>257.5</ele>
        <time>2021-02-23T10:17:11Z</time>
      </trkpt>
      <trkpt lat="47.66733" lon="6.14681">
        <ele>257.6</ele>
        <time>2021-02-23T10:17:13Z</time>
      </trkpt>
      <trkpt lat="47.66734" lon="6.14689">
        <ele>257.7</ele>
        <time>2021-02-23T10:17:14Z</time>
      </trkpt>
      <trkpt lat="47.66735" lon="6.14702">
        <ele>258</ele>
        <time>2021-02-23T10:17:17Z</time>
      </trkpt>
      <trkpt lat="47.66734" lon="6.14713">
        <ele>258.1</ele>
        <time>2021-02-23T10:17:18Z</time>
      </trkpt>
      <trkpt lat="47.66733" lon="6.14724">
        <ele>258.2</ele>
        <time>2021-02-23T10:17:20Z</time>
      </trkpt>
      <trkpt lat="47.66732" lon="6.14734">
        <ele>258.3</ele>
        <time>2021-02-23T10:17:23Z</time>
      </trkpt>
      <trkpt lat="47.66729" lon="6.14745">
        <ele>258.4</ele>
        <time>2021-02-23T10:17:25Z</time>
      </trkpt>
      <trkpt lat="47.66727" lon="6.14756">
        <ele>258.3</ele>
        <time>2021-02-23T10:17:27Z</time>
      </trkpt>
      <trkpt lat="47.66726" lon="6.14765">
        <ele>258.1</ele>
        <time>2021-02-23T10:17:29Z</time>
      </trkpt>
      <trkpt lat="47.66721" lon="6.14785">
        <ele>257.5</ele>
        <time>2021-02-23T10:17:32Z</time>
      </trkpt>
      <trkpt lat="47.6672" lon="6.14796">
        <ele>257.2</ele>
        <time>2021-02-23T10:17:34Z</time>
      </trkpt>
      <trkpt lat="47.66717" lon="6.14804">
        <ele>256.9</ele>
        <time>2021-02-23T10:17:36Z</time>
      </trkpt>
      <trkpt lat="47.66712" lon="6.14804">
        <ele>256.8</ele>
        <time>2021-02-23T10:17:37Z</time>
      </trkpt>
      <trkpt lat="47.66705" lon="6.14799">
        <ele>256.7</ele>
        <time>2021-02-23T10:17:39Z</time>
      </trkpt>
      <trkpt lat="47.667" lon="6.14796">
        <ele>256.7</ele>
        <time>2021-02-23T10:17:40Z</time>
      </trkpt>
      <trkpt lat="47.66688" lon="6.14792">
        <ele>256.5</ele>
        <time>2021-02-23T10:17:43Z</time>
      </trkpt>
      <trkpt lat="47.66681" lon="6.14798">
        <ele>256.2</ele>
        <time>2021-02-23T10:17:45Z</time>
      </trkpt>
      <trkpt lat="47.66678" lon="6.14804">
        <ele>256</ele>
        <time>2021-02-23T10:17:46Z</time>
      </trkpt>
      <trkpt lat="47.66676" lon="6.1481">
        <ele>255.8</ele>
        <time>2021-02-23T10:17:47Z</time>
      </trkpt>
      <trkpt lat="47.66669" lon="6.14828">
        <ele>255.2</ele>
        <time>2021-02-23T10:17:50Z</time>
      </trkpt>
      <trkpt lat="47.66666" lon="6.14835">
        <ele>254.9</ele>
        <time>2021-02-23T10:17:51Z</time>
      </trkpt>
      <trkpt lat="47.66659" lon="6.14858">
        <ele>254.1</ele>
        <time>2021-02-23T10:17:52Z</time>
      </trkpt>
      <trkpt lat="47.66656" lon="6.14866">
        <ele>253.8</ele>
        <time>2021-02-23T10:17:53Z</time>
      </trkpt>
      <trkpt lat="47.66654" lon="6.14874">
        <ele>253.5</ele>
        <time>2021-02-23T10:17:54Z</time>
      </trkpt>
      <trkpt lat="47.66651" lon="6.14883">
        <ele>253.1</ele>
        <time>2021-02-23T10:17:55Z</time>
      </trkpt>
      <trkpt lat="47.66648" lon="6.14892">
        <ele>252.8</ele>
        <time>2021-02-23T10:17:56Z</time>
      </trkpt>
      <trkpt lat="47.66645" lon="6.14902">
        <ele>252.4</ele>
        <time>2021-02-23T10:17:57Z</time>
      </trkpt>
      <trkpt lat="47.66642" lon="6.14911">
        <ele>252</ele>
        <time>2021-02-23T10:17:58Z</time>
      </trkpt>
      <trkpt lat="47.66639" lon="6.14921">
        <ele>251.5</ele>
        <time>2021-02-23T10:17:59Z</time>
      </trkpt>
      <trkpt lat="47.66635" lon="6.14931">
        <ele>251.1</ele>
        <time>2021-02-23T10:18:00Z</time>
      </trkpt>
      <trkpt lat="47.6663" lon="6.14941">
        <ele>250.6</ele>
        <time>2021-02-23T10:18:01Z</time>
      </trkpt>
      <trkpt lat="47.66625" lon="6.1495">
        <ele>250</ele>
        <time>2021-02-23T10:18:02Z</time>
      </trkpt>
      <trkpt lat="47.66618" lon="6.14959">
        <ele>249.4</ele>
        <time>2021-02-23T10:18:03Z</time>
      </trkpt>
      <trkpt lat="47.66612" lon="6.14969">
        <ele>248.7</ele>
        <time>2021-02-23T10:18:04Z</time>
      </trkpt>
      <trkpt lat="47.66606" lon="6.14979">
        <ele>248</ele>
        <time>2021-02-23T10:18:05Z</time>
      </trkpt>
      <trkpt lat="47.666" lon="6.14988">
        <ele>247.4</ele>
        <time>2021-02-23T10:18:06Z</time>
      </trkpt>
      <trkpt lat="47.66594" lon="6.14997">
        <ele>246.7</ele>
        <time>2021-02-23T10:18:07Z</time>
      </trkpt>
      <trkpt lat="47.66588" lon="6.15006">
        <ele>246.4</ele>
        <time>2021-02-23T10:18:08Z</time>
      </trkpt>
      <trkpt lat="47.66583" lon="6.15014">
        <ele>246.2</ele>
        <time>2021-02-23T10:18:09Z</time>
      </trkpt>
      <trkpt lat="47.66578" lon="6.15022">
        <ele>246</ele>
        <time>2021-02-23T10:18:10Z</time>
      </trkpt>
      <trkpt lat="47.66574" lon="6.15029">
        <ele>245.8</ele>
        <time>2021-02-23T10:18:11Z</time>
      </trkpt>
      <trkpt lat="47.6657" lon="6.15035">
        <ele>245.6</ele>
        <time>2021-02-23T10:18:12Z</time>
      </trkpt>
      <trkpt lat="47.66567" lon="6.15041">
        <ele>245.4</ele>
        <time>2021-02-23T10:18:13Z</time>
      </trkpt>
      <trkpt lat="47.66563" lon="6.15045">
        <ele>245.1</ele>
        <time>2021-02-23T10:18:14Z</time>
      </trkpt>
      <trkpt lat="47.66557" lon="6.15046">
        <ele>244.8</ele>
        <time>2021-02-23T10:18:15Z</time>
      </trkpt>
      <trkpt lat="47.66551" lon="6.15046">
        <ele>244.4</ele>
        <time>2021-02-23T10:18:16Z</time>
      </trkpt>
      <trkpt lat="47.66545" lon="6.15046">
        <ele>244</ele>
        <time>2021-02-23T10:18:17Z</time>
      </trkpt>
      <trkpt lat="47.66539" lon="6.15046">
        <ele>243.5</ele>
        <time>2021-02-23T10:18:18Z</time>
      </trkpt>
      <trkpt lat="47.66532" lon="6.15047">
        <ele>243.1</ele>
        <time>2021-02-23T10:18:19Z</time>
      </trkpt>
      <trkpt lat="47.66526" lon="6.15047">
        <ele>242.6</ele>
        <time>2021-02-23T10:18:20Z</time>
      </trkpt>
      <trkpt lat="47.6652" lon="6.15047">
        <ele>242.2</ele>
        <time>2021-02-23T10:18:21Z</time>
      </trkpt>
      <trkpt lat="47.66513" lon="6.15047">
        <ele>241.8</ele>
        <time>2021-02-23T10:18:22Z</time>
      </trkpt>
      <trkpt lat="47.66507" lon="6.15047">
        <ele>241.4</ele>
        <time>2021-02-23T10:18:23Z</time>
      </trkpt>
      <trkpt lat="47.66501" lon="6.15046">
        <ele>241</ele>
        <time>2021-02-23T10:18:24Z</time>
      </trkpt>
      <trkpt lat="47.66496" lon="6.15044">
        <ele>240.9</ele>
        <time>2021-02-23T10:18:25Z</time>
      </trkpt>
      <trkpt lat="47.66491" lon="6.15041">
        <ele>240.9</ele>
        <time>2021-02-23T10:18:26Z</time>
      </trkpt>
      <trkpt lat="47.66486" lon="6.15038">
        <ele>240.9</ele>
        <time>2021-02-23T10:18:27Z</time>
      </trkpt>
      <trkpt lat="47.6648" lon="6.15035">
        <ele>241</ele>
        <time>2021-02-23T10:18:28Z</time>
      </trkpt>
      <trkpt lat="47.66475" lon="6.15032">
        <ele>241</ele>
        <time>2021-02-23T10:18:29Z</time>
      </trkpt>
      <trkpt lat="47.6647" lon="6.1503">
        <ele>241</ele>
        <time>2021-02-23T10:18:30Z</time>
      </trkpt>
      <trkpt lat="47.66465" lon="6.15029">
        <ele>241</ele>
        <time>2021-02-23T10:18:31Z</time>
      </trkpt>
      <trkpt lat="47.6646" lon="6.15029">
        <ele>241</ele>
        <time>2021-02-23T10:18:32Z</time>
      </trkpt>
      <trkpt lat="47.66455" lon="6.1503">
        <ele>240.9</ele>
        <time>2021-02-23T10:18:33Z</time>
      </trkpt>
      <trkpt lat="47.6645" lon="6.15031">
        <ele>240.8</ele>
        <time>2021-02-23T10:18:34Z</time>
      </trkpt>
      <trkpt lat="47.66445" lon="6.15033">
        <ele>240.7</ele>
        <time>2021-02-23T10:18:35Z</time>
      </trkpt>
      <trkpt lat="47.6644" lon="6.15035">
        <ele>240.5</ele>
        <time>2021-02-23T10:18:36Z</time>
      </trkpt>
      <trkpt lat="47.66435" lon="6.15037">
        <ele>240.4</ele>
        <time>2021-02-23T10:18:37Z</time>
      </trkpt>
      <trkpt lat="47.66429" lon="6.15039">
        <ele>240.3</ele>
        <time>2021-02-23T10:18:38Z</time>
      </trkpt>
      <trkpt lat="47.66424" lon="6.1504">
        <ele>240.2</ele>
        <time>2021-02-23T10:18:39Z</time>
      </trkpt>
      <trkpt lat="47.66419" lon="6.15042">
        <ele>240</ele>
        <time>2021-02-23T10:18:40Z</time>
      </trkpt>
      <trkpt lat="47.66414" lon="6.15043">
        <ele>239.9</ele>
        <time>2021-02-23T10:18:41Z</time>
      </trkpt>
      <trkpt lat="47.66409" lon="6.15045">
        <ele>239.8</ele>
        <time>2021-02-23T10:18:42Z</time>
      </trkpt>
      <trkpt lat="47.66404" lon="6.15046">
        <ele>239.7</ele>
        <time>2021-02-23T10:18:43Z</time>
      </trkpt>
      <trkpt lat="47.664" lon="6.15047">
        <ele>239.6</ele>
        <time>2021-02-23T10:18:44Z</time>
      </trkpt>
      <trkpt lat="47.66395" lon="6.15048">
        <ele>239.5</ele>
        <time>2021-02-23T10:18:45Z</time>
      </trkpt>
      <trkpt lat="47.6639" lon="6.15049">
        <ele>239.4</ele>
        <time>2021-02-23T10:18:46Z</time>
      </trkpt>
      <trkpt lat="47.66385" lon="6.1505">
        <ele>239.3</ele>
        <time>2021-02-23T10:18:47Z</time>
      </trkpt>
      <trkpt lat="47.6638" lon="6.15051">
        <ele>239.2</ele>
        <time>2021-02-23T10:18:48Z</time>
      </trkpt>
      <trkpt lat="47.66375" lon="6.15051">
        <ele>239.2</ele>
        <time>2021-02-23T10:18:49Z</time>
      </trkpt>
      <trkpt lat="47.66371" lon="6.15052">
        <ele>239.1</ele>
        <time>2021-02-23T10:18:50Z</time>
      </trkpt>
      <trkpt lat="47.66366" lon="6.15052">
        <ele>239</ele>
        <time>2021-02-23T10:18:51Z</time>
      </trkpt>
      <trkpt lat="47.66361" lon="6.15053">
        <ele>239</ele>
        <time>2021-02-23T10:18:52Z</time>
      </trkpt>
      <trkpt lat="47.66356" lon="6.15054">
        <ele>238.9</ele>
        <time>2021-02-23T10:18:53Z</time>
      </trkpt>
      <trkpt lat="47.66351" lon="6.15054">
        <ele>238.9</ele>
        <time>2021-02-23T10:18:54Z</time>
      </trkpt>
      <trkpt lat="47.66346" lon="6.15054">
        <ele>238.8</ele>
        <time>2021-02-23T10:18:55Z</time>
      </trkpt>
      <trkpt lat="47.66341" lon="6.15054">
        <ele>238.8</ele>
        <time>2021-02-23T10:18:56Z</time>
      </trkpt>
      <trkpt lat="47.66336" lon="6.15053">
        <ele>238.8</ele>
        <time>2021-02-23T10:18:57Z</time>
      </trkpt>
      <trkpt lat="47.6633" lon="6.15051">
        <ele>238.7</ele>
        <time>2021-02-23T10:18:58Z</time>
      </trkpt>
      <trkpt lat="47.66325" lon="6.1505">
        <ele>238.5</ele>
        <time>2021-02-23T10:18:59Z</time>
      </trkpt>
      <trkpt lat="47.6632" lon="6.15049">
        <ele>238.4</ele>
        <time>2021-02-23T10:19:00Z</time>
      </trkpt>
      <trkpt lat="47.66316" lon="6.15048">
        <ele>238.2</ele>
        <time>2021-02-23T10:19:01Z</time>
      </trkpt>
      <trkpt lat="47.66311" lon="6.15047">
        <ele>238.1</ele>
        <time>2021-02-23T10:19:02Z</time>
      </trkpt>
      <trkpt lat="47.66306" lon="6.15046">
        <ele>237.9</ele>
        <time>2021-02-23T10:19:03Z</time>
      </trkpt>
      <trkpt lat="47.66301" lon="6.15045">
        <ele>237.8</ele>
        <time>2021-02-23T10:19:04Z</time>
      </trkpt>
      <trkpt lat="47.66296" lon="6.15044">
        <ele>237.6</ele>
        <time>2021-02-23T10:19:05Z</time>
      </trkpt>
      <trkpt lat="47.66291" lon="6.15043">
        <ele>237.4</ele>
        <time>2021-02-23T10:19:06Z</time>
      </trkpt>
      <trkpt lat="47.66285" lon="6.15042">
        <ele>237.3</ele>
        <time>2021-02-23T10:19:07Z</time>
      </trkpt>
      <trkpt lat="47.66279" lon="6.15041">
        <ele>237.1</ele>
        <time>2021-02-23T10:19:08Z</time>
      </trkpt>
      <trkpt lat="47.66274" lon="6.1504">
        <ele>236.9</ele>
        <time>2021-02-23T10:19:09Z</time>
      </trkpt>
      <trkpt lat="47.66268" lon="6.15038">
        <ele>236.7</ele>
        <time>2021-02-23T10:19:10Z</time>
      </trkpt>
      <trkpt lat="47.66262" lon="6.15037">
        <ele>236.4</ele>
        <time>2021-02-23T10:19:11Z</time>
      </trkpt>
      <trkpt lat="47.66255" lon="6.15036">
        <ele>236.2</ele>
        <time>2021-02-23T10:19:12Z</time>
      </trkpt>
      <trkpt lat="47.66249" lon="6.15034">
        <ele>235.9</ele>
        <time>2021-02-23T10:19:13Z</time>
      </trkpt>
      <trkpt lat="47.66242" lon="6.15033">
        <ele>235.5</ele>
        <time>2021-02-23T10:19:14Z</time>
      </trkpt>
      <trkpt lat="47.66236" lon="6.15032">
        <ele>235.1</ele>
        <time>2021-02-23T10:19:15Z</time>
      </trkpt>
      <trkpt lat="47.66228" lon="6.1503">
        <ele>234.7</ele>
        <time>2021-02-23T10:19:16Z</time>
      </trkpt>
      <trkpt lat="47.66221" lon="6.15029">
        <ele>234.3</ele>
        <time>2021-02-23T10:19:17Z</time>
      </trkpt>
      <trkpt lat="47.66214" lon="6.15028">
        <ele>233.8</ele>
        <time>2021-02-23T10:19:18Z</time>
      </trkpt>
      <trkpt lat="47.66206" lon="6.15026">
        <ele>233.4</ele>
        <time>2021-02-23T10:19:19Z</time>
      </trkpt>
      <trkpt lat="47.66198" lon="6.15025">
        <ele>232.9</ele>
        <time>2021-02-23T10:19:20Z</time>
      </trkpt>
      <trkpt lat="47.6619" lon="6.15024">
        <ele>232.4</ele>
        <time>2021-02-23T10:19:21Z</time>
      </trkpt>
      <trkpt lat="47.66181" lon="6.15023">
        <ele>231.9</ele>
        <time>2021-02-23T10:19:22Z</time>
      </trkpt>
      <trkpt lat="47.66173" lon="6.15022">
        <ele>231.3</ele>
        <time>2021-02-23T10:19:23Z</time>
      </trkpt>
      <trkpt lat="47.66164" lon="6.15021">
        <ele>230.8</ele>
        <time>2021-02-23T10:19:24Z</time>
      </trkpt>
      <trkpt lat="47.66154" lon="6.15021">
        <ele>230.3</ele>
        <time>2021-02-23T10:19:25Z</time>
      </trkpt>
      <trkpt lat="47.66145" lon="6.15021">
        <ele>229.7</ele>
        <time>2021-02-23T10:19:26Z</time>
      </trkpt>
      <trkpt lat="47.66135" lon="6.1502">
        <ele>229.2</ele>
        <time>2021-02-23T10:19:27Z</time>
      </trkpt>
      <trkpt lat="47.66125" lon="6.1502">
        <ele>228.6</ele>
        <time>2021-02-23T10:19:28Z</time>
      </trkpt>
      <trkpt lat="47.66116" lon="6.15019">
        <ele>228.1</ele>
        <time>2021-02-23T10:19:29Z</time>
      </trkpt>
      <trkpt lat="47.66105" lon="6.15019">
        <ele>227.5</ele>
        <time>2021-02-23T10:19:30Z</time>
      </trkpt>
      <trkpt lat="47.66096" lon="6.15019">
        <ele>226.9</ele>
        <time>2021-02-23T10:19:31Z</time>
      </trkpt>
      <trkpt lat="47.66086" lon="6.15019">
        <ele>226.4</ele>
        <time>2021-02-23T10:19:32Z</time>
      </trkpt>
      <trkpt lat="47.66076" lon="6.1502">
        <ele>226.1</ele>
        <time>2021-02-23T10:19:33Z</time>
      </trkpt>
      <trkpt lat="47.66065" lon="6.1502">
        <ele>225.9</ele>
        <time>2021-02-23T10:19:34Z</time>
      </trkpt>
      <trkpt lat="47.66056" lon="6.1502">
        <ele>225.7</ele>
        <time>2021-02-23T10:19:35Z</time>
      </trkpt>
      <trkpt lat="47.66046" lon="6.15021">
        <ele>225.5</ele>
        <time>2021-02-23T10:19:36Z</time>
      </trkpt>
      <trkpt lat="47.66036" lon="6.15021">
        <ele>225.3</ele>
        <time>2021-02-23T10:19:37Z</time>
      </trkpt>
      <trkpt lat="47.66027" lon="6.15021">
        <ele>225.1</ele>
        <time>2021-02-23T10:19:38Z</time>
      </trkpt>
      <trkpt lat="47.66018" lon="6.15021">
        <ele>224.9</ele>
        <time>2021-02-23T10:19:39Z</time>
      </trkpt>
      <trkpt lat="47.6601" lon="6.1502">
        <ele>224.7</ele>
        <time>2021-02-23T10:19:40Z</time>
      </trkpt>
      <trkpt lat="47.66001" lon="6.1502">
        <ele>224.5</ele>
        <time>2021-02-23T10:19:41Z</time>
      </trkpt>
      <trkpt lat="47.65993" lon="6.15019">
        <ele>224.7</ele>
        <time>2021-02-23T10:19:42Z</time>
      </trkpt>
      <trkpt lat="47.65986" lon="6.15018">
        <ele>224.9</ele>
        <time>2021-02-23T10:19:43Z</time>
      </trkpt>
      <trkpt lat="47.65979" lon="6.15017">
        <ele>225.1</ele>
        <time>2021-02-23T10:19:44Z</time>
      </trkpt>
      <trkpt lat="47.65972" lon="6.15016">
        <ele>225.3</ele>
        <time>2021-02-23T10:19:45Z</time>
      </trkpt>
      <trkpt lat="47.65965" lon="6.15016">
        <ele>225.6</ele>
        <time>2021-02-23T10:19:46Z</time>
      </trkpt>
      <trkpt lat="47.65959" lon="6.15016">
        <ele>225.8</ele>
        <time>2021-02-23T10:19:47Z</time>
      </trkpt>
      <trkpt lat="47.65953" lon="6.15016">
        <ele>226</ele>
        <time>2021-02-23T10:19:48Z</time>
      </trkpt>
      <trkpt lat="47.65947" lon="6.15016">
        <ele>226.2</ele>
        <time>2021-02-23T10:19:49Z</time>
      </trkpt>
      <trkpt lat="47.65941" lon="6.15016">
        <ele>226.4</ele>
        <time>2021-02-23T10:19:50Z</time>
      </trkpt>
      <trkpt lat="47.65935" lon="6.15016">
        <ele>226.6</ele>
        <time>2021-02-23T10:19:51Z</time>
      </trkpt>
      <trkpt lat="47.6593" lon="6.15016">
        <ele>226.7</ele>
        <time>2021-02-23T10:19:52Z</time>
      </trkpt>
      <trkpt lat="47.65925" lon="6.15016">
        <ele>226.9</ele>
        <time>2021-02-23T10:19:53Z</time>
      </trkpt>
      <trkpt lat="47.6592" lon="6.15015">
        <ele>227.1</ele>
        <time>2021-02-23T10:19:54Z</time>
      </trkpt>
      <trkpt lat="47.65915" lon="6.15015">
        <ele>227.3</ele>
        <time>2021-02-23T10:19:55Z</time>
      </trkpt>
      <trkpt lat="47.65906" lon="6.15014">
        <ele>227.6</ele>
        <time>2021-02-23T10:19:57Z</time>
      </trkpt>
      <trkpt lat="47.65901" lon="6.15014">
        <ele>227.8</ele>
        <time>2021-02-23T10:19:58Z</time>
      </trkpt>
      <trkpt lat="47.65894" lon="6.15014">
        <ele>228.1</ele>
        <time>2021-02-23T10:20:00Z</time>
      </trkpt>
      <trkpt lat="47.65886" lon="6.15014">
        <ele>228.4</ele>
        <time>2021-02-23T10:20:02Z</time>
      </trkpt>
      <trkpt lat="47.65879" lon="6.15014">
        <ele>228.7</ele>
        <time>2021-02-23T10:20:04Z</time>
      </trkpt>
      <trkpt lat="47.65873" lon="6.15014">
        <ele>229</ele>
        <time>2021-02-23T10:20:06Z</time>
      </trkpt>
      <trkpt lat="47.65866" lon="6.15015">
        <ele>229.3</ele>
        <time>2021-02-23T10:20:07Z</time>
      </trkpt>
      <trkpt lat="47.65858" lon="6.15014">
        <ele>229.6</ele>
        <time>2021-02-23T10:20:10Z</time>
      </trkpt>
      <trkpt lat="47.65853" lon="6.15014">
        <ele>229.8</ele>
        <time>2021-02-23T10:20:13Z</time>
      </trkpt>
      <trkpt lat="47.65842" lon="6.15014">
        <ele>230.3</ele>
        <time>2021-02-23T10:20:16Z</time>
      </trkpt>
      <trkpt lat="47.65835" lon="6.15014">
        <ele>230.6</ele>
        <time>2021-02-23T10:20:17Z</time>
      </trkpt>
      <trkpt lat="47.6583" lon="6.15015">
        <ele>230.6</ele>
        <time>2021-02-23T10:20:20Z</time>
      </trkpt>
      <trkpt lat="47.65823" lon="6.15016">
        <ele>230.6</ele>
        <time>2021-02-23T10:20:21Z</time>
      </trkpt>
      <trkpt lat="47.65819" lon="6.15016">
        <ele>230.7</ele>
        <time>2021-02-23T10:20:23Z</time>
      </trkpt>
      <trkpt lat="47.65811" lon="6.15017">
        <ele>230.6</ele>
        <time>2021-02-23T10:20:24Z</time>
      </trkpt>
      <trkpt lat="47.65805" lon="6.15018">
        <ele>230.6</ele>
        <time>2021-02-23T10:20:27Z</time>
      </trkpt>
      <trkpt lat="47.65798" lon="6.15019">
        <ele>230.6</ele>
        <time>2021-02-23T10:20:29Z</time>
      </trkpt>
      <trkpt lat="47.65793" lon="6.1502">
        <ele>230.6</ele>
        <time>2021-02-23T10:20:31Z</time>
      </trkpt>
      <trkpt lat="47.65784" lon="6.1502">
        <ele>230.7</ele>
        <time>2021-02-23T10:20:32Z</time>
      </trkpt>
      <trkpt lat="47.65778" lon="6.15021">
        <ele>230.7</ele>
        <time>2021-02-23T10:20:34Z</time>
      </trkpt>
      <trkpt lat="47.65772" lon="6.15021">
        <ele>230.7</ele>
        <time>2021-02-23T10:20:37Z</time>
      </trkpt>
      <trkpt lat="47.65766" lon="6.15021">
        <ele>230.7</ele>
        <time>2021-02-23T10:20:39Z</time>
      </trkpt>
      <trkpt lat="47.6576" lon="6.15021">
        <ele>230.7</ele>
        <time>2021-02-23T10:20:40Z</time>
      </trkpt>
      <trkpt lat="47.65755" lon="6.15022">
        <ele>230.7</ele>
        <time>2021-02-23T10:20:42Z</time>
      </trkpt>
      <trkpt lat="47.65748" lon="6.15022">
        <ele>230.7</ele>
        <time>2021-02-23T10:20:44Z</time>
      </trkpt>
      <trkpt lat="47.65741" lon="6.15022">
        <ele>230.4</ele>
        <time>2021-02-23T10:20:46Z</time>
      </trkpt>
      <trkpt lat="47.65731" lon="6.15021">
        <ele>230.1</ele>
        <time>2021-02-23T10:20:49Z</time>
      </trkpt>
      <trkpt lat="47.65725" lon="6.15021">
        <ele>229.9</ele>
        <time>2021-02-23T10:20:50Z</time>
      </trkpt>
      <trkpt lat="47.6572" lon="6.15021">
        <ele>229.7</ele>
        <time>2021-02-23T10:20:52Z</time>
      </trkpt>
      <trkpt lat="47.65714" lon="6.15021">
        <ele>229.4</ele>
        <time>2021-02-23T10:20:54Z</time>
      </trkpt>
      <trkpt lat="47.6571" lon="6.15026">
        <ele>229.2</ele>
        <time>2021-02-23T10:20:55Z</time>
      </trkpt>
      <trkpt lat="47.65707" lon="6.15034">
        <ele>229</ele>
        <time>2021-02-23T10:20:56Z</time>
      </trkpt>
      <trkpt lat="47.65708" lon="6.15042">
        <ele>229</ele>
        <time>2021-02-23T10:20:59Z</time>
      </trkpt>
      <trkpt lat="47.65712" lon="6.15058">
        <ele>228.9</ele>
        <time>2021-02-23T10:21:01Z</time>
      </trkpt>
      <trkpt lat="47.65715" lon="6.15073">
        <ele>228.9</ele>
        <time>2021-02-23T10:21:02Z</time>
      </trkpt>
      <trkpt lat="47.65717" lon="6.1508">
        <ele>228.9</ele>
        <time>2021-02-23T10:21:03Z</time>
      </trkpt>
      <trkpt lat="47.65719" lon="6.15087">
        <ele>228.8</ele>
        <time>2021-02-23T10:21:04Z</time>
      </trkpt>
      <trkpt lat="47.65722" lon="6.15099">
        <ele>228.5</ele>
        <time>2021-02-23T10:21:06Z</time>
      </trkpt>
      <trkpt lat="47.65724" lon="6.15112">
        <ele>228.2</ele>
        <time>2021-02-23T10:21:08Z</time>
      </trkpt>
      <trkpt lat="47.65726" lon="6.15125">
        <ele>227.9</ele>
        <time>2021-02-23T10:21:10Z</time>
      </trkpt>
      <trkpt lat="47.65728" lon="6.15132">
        <ele>227.8</ele>
        <time>2021-02-23T10:21:11Z</time>
      </trkpt>
      <trkpt lat="47.65729" lon="6.15138">
        <ele>227.6</ele>
        <time>2021-02-23T10:21:12Z</time>
      </trkpt>
      <trkpt lat="47.65732" lon="6.15151">
        <ele>227.3</ele>
        <time>2021-02-23T10:21:14Z</time>
      </trkpt>
      <trkpt lat="47.65734" lon="6.15163">
        <ele>226.9</ele>
        <time>2021-02-23T10:21:16Z</time>
      </trkpt>
      <trkpt lat="47.65736" lon="6.15174">
        <ele>226.6</ele>
        <time>2021-02-23T10:21:18Z</time>
      </trkpt>
      <trkpt lat="47.65739" lon="6.15185">
        <ele>226.2</ele>
        <time>2021-02-23T10:21:20Z</time>
      </trkpt>
      <trkpt lat="47.6574" lon="6.15192">
        <ele>226</ele>
        <time>2021-02-23T10:21:21Z</time>
      </trkpt>
      <trkpt lat="47.65741" lon="6.15199">
        <ele>225.7</ele>
        <time>2021-02-23T10:21:22Z</time>
      </trkpt>
      <trkpt lat="47.65746" lon="6.15213">
        <ele>225.3</ele>
        <time>2021-02-23T10:21:24Z</time>
      </trkpt>
      <trkpt lat="47.65747" lon="6.15221">
        <ele>225</ele>
        <time>2021-02-23T10:21:25Z</time>
      </trkpt>
      <trkpt lat="47.65748" lon="6.1523">
        <ele>224.7</ele>
        <time>2021-02-23T10:21:26Z</time>
      </trkpt>
      <trkpt lat="47.6575" lon="6.15238">
        <ele>224.4</ele>
        <time>2021-02-23T10:21:27Z</time>
      </trkpt>
      <trkpt lat="47.65751" lon="6.15247">
        <ele>224.1</ele>
        <time>2021-02-23T10:21:28Z</time>
      </trkpt>
      <trkpt lat="47.65753" lon="6.15257">
        <ele>223.8</ele>
        <time>2021-02-23T10:21:29Z</time>
      </trkpt>
      <trkpt lat="47.65755" lon="6.15267">
        <ele>223.3</ele>
        <time>2021-02-23T10:21:30Z</time>
      </trkpt>
      <trkpt lat="47.65757" lon="6.15279">
        <ele>222.8</ele>
        <time>2021-02-23T10:21:31Z</time>
      </trkpt>
      <trkpt lat="47.65759" lon="6.15291">
        <ele>222.3</ele>
        <time>2021-02-23T10:21:32Z</time>
      </trkpt>
      <trkpt lat="47.65761" lon="6.15303">
        <ele>221.8</ele>
        <time>2021-02-23T10:21:33Z</time>
      </trkpt>
      <trkpt lat="47.65764" lon="6.15314">
        <ele>221.3</ele>
        <time>2021-02-23T10:21:34Z</time>
      </trkpt>
      <trkpt lat="47.65766" lon="6.15326">
        <ele>220.8</ele>
        <time>2021-02-23T10:21:35Z</time>
      </trkpt>
      <trkpt lat="47.65768" lon="6.15337">
        <ele>220.4</ele>
        <time>2021-02-23T10:21:36Z</time>
      </trkpt>
      <trkpt lat="47.6577" lon="6.15347">
        <ele>220.5</ele>
        <time>2021-02-23T10:21:37Z</time>
      </trkpt>
      <trkpt lat="47.65772" lon="6.15357">
        <ele>220.5</ele>
        <time>2021-02-23T10:21:38Z</time>
      </trkpt>
      <trkpt lat="47.65774" lon="6.15367">
        <ele>220.6</ele>
        <time>2021-02-23T10:21:39Z</time>
      </trkpt>
      <trkpt lat="47.65776" lon="6.15377">
        <ele>220.6</ele>
        <time>2021-02-23T10:21:40Z</time>
      </trkpt>
      <trkpt lat="47.65778" lon="6.15386">
        <ele>220.7</ele>
        <time>2021-02-23T10:21:41Z</time>
      </trkpt>
      <trkpt lat="47.6578" lon="6.15395">
        <ele>220.7</ele>
        <time>2021-02-23T10:21:42Z</time>
      </trkpt>
      <trkpt lat="47.65781" lon="6.15403">
        <ele>220.8</ele>
        <time>2021-02-23T10:21:43Z</time>
      </trkpt>
      <trkpt lat="47.65783" lon="6.15411">
        <ele>220.8</ele>
        <time>2021-02-23T10:21:44Z</time>
      </trkpt>
      <trkpt lat="47.65784" lon="6.15418">
        <ele>220.9</ele>
        <time>2021-02-23T10:21:45Z</time>
      </trkpt>
      <trkpt lat="47.65786" lon="6.15425">
        <ele>221</ele>
        <time>2021-02-23T10:21:46Z</time>
      </trkpt>
      <trkpt lat="47.65788" lon="6.15437">
        <ele>221.3</ele>
        <time>2021-02-23T10:21:48Z</time>
      </trkpt>
      <trkpt lat="47.6579" lon="6.15447">
        <ele>221.5</ele>
        <time>2021-02-23T10:21:50Z</time>
      </trkpt>
      <trkpt lat="47.65792" lon="6.15457">
        <ele>221.7</ele>
        <time>2021-02-23T10:21:52Z</time>
      </trkpt>
      <trkpt lat="47.65794" lon="6.15467">
        <ele>221.9</ele>
        <time>2021-02-23T10:21:54Z</time>
      </trkpt>
      <trkpt lat="47.65795" lon="6.15476">
        <ele>222.1</ele>
        <time>2021-02-23T10:21:56Z</time>
      </trkpt>
      <trkpt lat="47.6579" lon="6.1548">
        <ele>222.1</ele>
        <time>2021-02-23T10:21:58Z</time>
      </trkpt>
      <trkpt lat="47.65792" lon="6.15486">
        <ele>222.3</ele>
        <time>2021-02-23T10:22:00Z</time>
      </trkpt>
      <trkpt lat="47.65798" lon="6.155">
        <ele>222.6</ele>
        <time>2021-02-23T10:22:03Z</time>
      </trkpt>
      <trkpt lat="47.65801" lon="6.15506">
        <ele>222.8</ele>
        <time>2021-02-23T10:22:05Z</time>
      </trkpt>
      <trkpt lat="47.65803" lon="6.15516">
        <ele>223.2</ele>
        <time>2021-02-23T10:22:07Z</time>
      </trkpt>
      <trkpt lat="47.65805" lon="6.15525">
        <ele>223.6</ele>
        <time>2021-02-23T10:22:10Z</time>
      </trkpt>
      <trkpt lat="47.65808" lon="6.15539">
        <ele>224.1</ele>
        <time>2021-02-23T10:22:12Z</time>
      </trkpt>
      <trkpt lat="47.65809" lon="6.15547">
        <ele>224.4</ele>
        <time>2021-02-23T10:22:14Z</time>
      </trkpt>
      <trkpt lat="47.6581" lon="6.15554">
        <ele>224.7</ele>
        <time>2021-02-23T10:22:17Z</time>
      </trkpt>
      <trkpt lat="47.65812" lon="6.15563">
        <ele>225</ele>
        <time>2021-02-23T10:22:19Z</time>
      </trkpt>
      <trkpt lat="47.65813" lon="6.1557">
        <ele>225.3</ele>
        <time>2021-02-23T10:22:22Z</time>
      </trkpt>
      <trkpt lat="47.65815" lon="6.15578">
        <ele>225.6</ele>
        <time>2021-02-23T10:22:24Z</time>
      </trkpt>
      <trkpt lat="47.65817" lon="6.15585">
        <ele>225.8</ele>
        <time>2021-02-23T10:22:25Z</time>
      </trkpt>
      <trkpt lat="47.65819" lon="6.15595">
        <ele>226.1</ele>
        <time>2021-02-23T10:22:29Z</time>
      </trkpt>
      <trkpt lat="47.65821" lon="6.15602">
        <ele>226.3</ele>
        <time>2021-02-23T10:22:31Z</time>
      </trkpt>
      <trkpt lat="47.65823" lon="6.15609">
        <ele>226.5</ele>
        <time>2021-02-23T10:22:33Z</time>
      </trkpt>
      <trkpt lat="47.65825" lon="6.15618">
        <ele>226.7</ele>
        <time>2021-02-23T10:22:34Z</time>
      </trkpt>
      <trkpt lat="47.65827" lon="6.15629">
        <ele>227</ele>
        <time>2021-02-23T10:22:38Z</time>
      </trkpt>
      <trkpt lat="47.65829" lon="6.15636">
        <ele>227.2</ele>
        <time>2021-02-23T10:22:39Z</time>
      </trkpt>
      <trkpt lat="47.6583" lon="6.15646">
        <ele>227.4</ele>
        <time>2021-02-23T10:22:43Z</time>
      </trkpt>
      <trkpt lat="47.65831" lon="6.15653">
        <ele>227.6</ele>
        <time>2021-02-23T10:22:45Z</time>
      </trkpt>
      <trkpt lat="47.65832" lon="6.1566">
        <ele>227.8</ele>
        <time>2021-02-23T10:22:47Z</time>
      </trkpt>
      <trkpt lat="47.65833" lon="6.15668">
        <ele>228</ele>
        <time>2021-02-23T10:22:49Z</time>
      </trkpt>
      <trkpt lat="47.65835" lon="6.15679">
        <ele>228.1</ele>
        <time>2021-02-23T10:22:52Z</time>
      </trkpt>
      <trkpt lat="47.65837" lon="6.15687">
        <ele>228.2</ele>
        <time>2021-02-23T10:22:54Z</time>
      </trkpt>
      <trkpt lat="47.65838" lon="6.15694">
        <ele>228.2</ele>
        <time>2021-02-23T10:22:55Z</time>
      </trkpt>
      <trkpt lat="47.65839" lon="6.15701">
        <ele>228.3</ele>
        <time>2021-02-23T10:22:58Z</time>
      </trkpt>
      <trkpt lat="47.65841" lon="6.1571">
        <ele>228.4</ele>
        <time>2021-02-23T10:23:01Z</time>
      </trkpt>
      <trkpt lat="47.65842" lon="6.15719">
        <ele>228.5</ele>
        <time>2021-02-23T10:23:02Z</time>
      </trkpt>
      <trkpt lat="47.65844" lon="6.15727">
        <ele>228.6</ele>
        <time>2021-02-23T10:23:05Z</time>
      </trkpt>
      <trkpt lat="47.65845" lon="6.15734">
        <ele>228.6</ele>
        <time>2021-02-23T10:23:07Z</time>
      </trkpt>
      <trkpt lat="47.65847" lon="6.15745">
        <ele>228.8</ele>
        <time>2021-02-23T10:23:08Z</time>
      </trkpt>
      <trkpt lat="47.65849" lon="6.15753">
        <ele>229</ele>
        <time>2021-02-23T10:23:11Z</time>
      </trkpt>
      <trkpt lat="47.6585" lon="6.15762">
        <ele>229.4</ele>
        <time>2021-02-23T10:23:13Z</time>
      </trkpt>
      <trkpt lat="47.65853" lon="6.15774">
        <ele>230.1</ele>
        <time>2021-02-23T10:23:15Z</time>
      </trkpt>
      <trkpt lat="47.65854" lon="6.15782">
        <ele>230.5</ele>
        <time>2021-02-23T10:23:17Z</time>
      </trkpt>
      <trkpt lat="47.65856" lon="6.1579">
        <ele>230.9</ele>
        <time>2021-02-23T10:23:19Z</time>
      </trkpt>
      <trkpt lat="47.65857" lon="6.15799">
        <ele>231.3</ele>
        <time>2021-02-23T10:23:21Z</time>
      </trkpt>
      <trkpt lat="47.65859" lon="6.15809">
        <ele>231.8</ele>
        <time>2021-02-23T10:23:23Z</time>
      </trkpt>
      <trkpt lat="47.6586" lon="6.15815">
        <ele>232.1</ele>
        <time>2021-02-23T10:23:24Z</time>
      </trkpt>
      <trkpt lat="47.65862" lon="6.15823">
        <ele>232.4</ele>
        <time>2021-02-23T10:23:26Z</time>
      </trkpt>
      <trkpt lat="47.65864" lon="6.15833">
        <ele>232.9</ele>
        <time>2021-02-23T10:23:27Z</time>
      </trkpt>
      <trkpt lat="47.65867" lon="6.15841">
        <ele>233.4</ele>
        <time>2021-02-23T10:23:29Z</time>
      </trkpt>
      <trkpt lat="47.6587" lon="6.1585">
        <ele>233.9</ele>
        <time>2021-02-23T10:23:31Z</time>
      </trkpt>
      <trkpt lat="47.65873" lon="6.15858">
        <ele>234.3</ele>
        <time>2021-02-23T10:23:34Z</time>
      </trkpt>
      <trkpt lat="47.65877" lon="6.15865">
        <ele>234.7</ele>
        <time>2021-02-23T10:23:36Z</time>
      </trkpt>
      <trkpt lat="47.6588" lon="6.15871">
        <ele>235</ele>
        <time>2021-02-23T10:23:38Z</time>
      </trkpt>
      <trkpt lat="47.65884" lon="6.1588">
        <ele>235.4</ele>
        <time>2021-02-23T10:23:39Z</time>
      </trkpt>
      <trkpt lat="47.65888" lon="6.15886">
        <ele>235.6</ele>
        <time>2021-02-23T10:23:42Z</time>
      </trkpt>
      <trkpt lat="47.65892" lon="6.15893">
        <ele>235.9</ele>
        <time>2021-02-23T10:23:43Z</time>
      </trkpt>
      <trkpt lat="47.65897" lon="6.15901">
        <ele>236.2</ele>
        <time>2021-02-23T10:23:47Z</time>
      </trkpt>
      <trkpt lat="47.65901" lon="6.15908">
        <ele>236.3</ele>
        <time>2021-02-23T10:23:49Z</time>
      </trkpt>
      <trkpt lat="47.65906" lon="6.15914">
        <ele>236.5</ele>
        <time>2021-02-23T10:23:52Z</time>
      </trkpt>
      <trkpt lat="47.65909" lon="6.1592">
        <ele>236.5</ele>
        <time>2021-02-23T10:23:54Z</time>
      </trkpt>
      <trkpt lat="47.65913" lon="6.15927">
        <ele>236.6</ele>
        <time>2021-02-23T10:23:56Z</time>
      </trkpt>
      <trkpt lat="47.65917" lon="6.15934">
        <ele>236.6</ele>
        <time>2021-02-23T10:23:58Z</time>
      </trkpt>
      <trkpt lat="47.6592" lon="6.15942">
        <ele>236.7</ele>
        <time>2021-02-23T10:24:00Z</time>
      </trkpt>
      <trkpt lat="47.65923" lon="6.15949">
        <ele>236.7</ele>
        <time>2021-02-23T10:24:01Z</time>
      </trkpt>
      <trkpt lat="47.65926" lon="6.15959">
        <ele>236.8</ele>
        <time>2021-02-23T10:24:05Z</time>
      </trkpt>
      <trkpt lat="47.65922" lon="6.15964">
        <ele>237.3</ele>
        <time>2021-02-23T10:24:08Z</time>
      </trkpt>
      <trkpt lat="47.65917" lon="6.15969">
        <ele>237.9</ele>
        <time>2021-02-23T10:24:09Z</time>
      </trkpt>
      <trkpt lat="47.65913" lon="6.15973">
        <ele>238.2</ele>
        <time>2021-02-23T10:24:11Z</time>
      </trkpt>
      <trkpt lat="47.65909" lon="6.1598">
        <ele>238.8</ele>
        <time>2021-02-23T10:24:14Z</time>
      </trkpt>
      <trkpt lat="47.65905" lon="6.15985">
        <ele>239.2</ele>
        <time>2021-02-23T10:24:16Z</time>
      </trkpt>
      <trkpt lat="47.65901" lon="6.15991">
        <ele>239.6</ele>
        <time>2021-02-23T10:24:18Z</time>
      </trkpt>
      <trkpt lat="47.65898" lon="6.15996">
        <ele>240</ele>
        <time>2021-02-23T10:24:20Z</time>
      </trkpt>
      <trkpt lat="47.65894" lon="6.16003">
        <ele>240.4</ele>
        <time>2021-02-23T10:24:23Z</time>
      </trkpt>
      <trkpt lat="47.65889" lon="6.16009">
        <ele>240.7</ele>
        <time>2021-02-23T10:24:26Z</time>
      </trkpt>
      <trkpt lat="47.65885" lon="6.16015">
        <ele>241.1</ele>
        <time>2021-02-23T10:24:29Z</time>
      </trkpt>
      <trkpt lat="47.65881" lon="6.16021">
        <ele>241.3</ele>
        <time>2021-02-23T10:24:33Z</time>
      </trkpt>
      <trkpt lat="47.65877" lon="6.16029">
        <ele>241.6</ele>
        <time>2021-02-23T10:24:36Z</time>
      </trkpt>
      <trkpt lat="47.65873" lon="6.16033">
        <ele>241.8</ele>
        <time>2021-02-23T10:24:38Z</time>
      </trkpt>
      <trkpt lat="47.6587" lon="6.16038">
        <ele>242</ele>
        <time>2021-02-23T10:24:40Z</time>
      </trkpt>
      <trkpt lat="47.65865" lon="6.16043">
        <ele>242.2</ele>
        <time>2021-02-23T10:24:41Z</time>
      </trkpt>
      <trkpt lat="47.6586" lon="6.1605">
        <ele>242.4</ele>
        <time>2021-02-23T10:24:44Z</time>
      </trkpt>
      <trkpt lat="47.65853" lon="6.16059">
        <ele>242.6</ele>
        <time>2021-02-23T10:24:46Z</time>
      </trkpt>
      <trkpt lat="47.65849" lon="6.16065">
        <ele>242.7</ele>
        <time>2021-02-23T10:24:47Z</time>
      </trkpt>
      <trkpt lat="47.65845" lon="6.1607">
        <ele>242.8</ele>
        <time>2021-02-23T10:24:49Z</time>
      </trkpt>
      <trkpt lat="47.6584" lon="6.16076">
        <ele>242.9</ele>
        <time>2021-02-23T10:24:50Z</time>
      </trkpt>
      <trkpt lat="47.65833" lon="6.16085">
        <ele>243</ele>
        <time>2021-02-23T10:24:52Z</time>
      </trkpt>
      <trkpt lat="47.65822" lon="6.161">
        <ele>242.4</ele>
        <time>2021-02-23T10:24:55Z</time>
      </trkpt>
      <trkpt lat="47.65816" lon="6.16109">
        <ele>242</ele>
        <time>2021-02-23T10:24:56Z</time>
      </trkpt>
      <trkpt lat="47.65799" lon="6.16137">
        <ele>240.5</ele>
        <time>2021-02-23T10:24:58Z</time>
      </trkpt>
      <trkpt lat="47.65793" lon="6.16145">
        <ele>240</ele>
        <time>2021-02-23T10:24:59Z</time>
      </trkpt>
      <trkpt lat="47.65789" lon="6.16152">
        <ele>239.5</ele>
        <time>2021-02-23T10:25:00Z</time>
      </trkpt>
      <trkpt lat="47.65784" lon="6.16159">
        <ele>239</ele>
        <time>2021-02-23T10:25:01Z</time>
      </trkpt>
      <trkpt lat="47.65779" lon="6.16167">
        <ele>238.4</ele>
        <time>2021-02-23T10:25:02Z</time>
      </trkpt>
      <trkpt lat="47.65774" lon="6.16176">
        <ele>238</ele>
        <time>2021-02-23T10:25:03Z</time>
      </trkpt>
      <trkpt lat="47.65769" lon="6.16186">
        <ele>237.5</ele>
        <time>2021-02-23T10:25:04Z</time>
      </trkpt>
      <trkpt lat="47.65763" lon="6.16196">
        <ele>237.1</ele>
        <time>2021-02-23T10:25:05Z</time>
      </trkpt>
      <trkpt lat="47.65758" lon="6.16206">
        <ele>236.6</ele>
        <time>2021-02-23T10:25:06Z</time>
      </trkpt>
      <trkpt lat="47.65752" lon="6.16214">
        <ele>236.2</ele>
        <time>2021-02-23T10:25:07Z</time>
      </trkpt>
      <trkpt lat="47.65747" lon="6.16222">
        <ele>235.6</ele>
        <time>2021-02-23T10:25:08Z</time>
      </trkpt>
      <trkpt lat="47.65741" lon="6.16229">
        <ele>234.9</ele>
        <time>2021-02-23T10:25:09Z</time>
      </trkpt>
      <trkpt lat="47.65736" lon="6.16236">
        <ele>234.3</ele>
        <time>2021-02-23T10:25:10Z</time>
      </trkpt>
      <trkpt lat="47.65731" lon="6.16243">
        <ele>233.6</ele>
        <time>2021-02-23T10:25:11Z</time>
      </trkpt>
      <trkpt lat="47.65727" lon="6.1625">
        <ele>232.9</ele>
        <time>2021-02-23T10:25:12Z</time>
      </trkpt>
      <trkpt lat="47.65722" lon="6.16256">
        <ele>232.6</ele>
        <time>2021-02-23T10:25:13Z</time>
      </trkpt>
      <trkpt lat="47.65718" lon="6.16262">
        <ele>232.4</ele>
        <time>2021-02-23T10:25:14Z</time>
      </trkpt>
      <trkpt lat="47.65714" lon="6.16267">
        <ele>232.2</ele>
        <time>2021-02-23T10:25:15Z</time>
      </trkpt>
      <trkpt lat="47.65711" lon="6.16272">
        <ele>232.1</ele>
        <time>2021-02-23T10:25:16Z</time>
      </trkpt>
      <trkpt lat="47.65707" lon="6.16277">
        <ele>232</ele>
        <time>2021-02-23T10:25:17Z</time>
      </trkpt>
      <trkpt lat="47.65702" lon="6.16285">
        <ele>231.9</ele>
        <time>2021-02-23T10:25:19Z</time>
      </trkpt>
      <trkpt lat="47.65697" lon="6.16292">
        <ele>231.8</ele>
        <time>2021-02-23T10:25:21Z</time>
      </trkpt>
      <trkpt lat="47.65691" lon="6.16302">
        <ele>231.8</ele>
        <time>2021-02-23T10:25:23Z</time>
      </trkpt>
      <trkpt lat="47.65685" lon="6.16306">
        <ele>231.5</ele>
        <time>2021-02-23T10:25:25Z</time>
      </trkpt>
      <trkpt lat="47.65677" lon="6.16313">
        <ele>231.3</ele>
        <time>2021-02-23T10:25:26Z</time>
      </trkpt>
      <trkpt lat="47.65674" lon="6.16319">
        <ele>231.5</ele>
        <time>2021-02-23T10:25:29Z</time>
      </trkpt>
      <trkpt lat="47.6567" lon="6.16325">
        <ele>231.6</ele>
        <time>2021-02-23T10:25:30Z</time>
      </trkpt>
      <trkpt lat="47.65667" lon="6.16331">
        <ele>231.8</ele>
        <time>2021-02-23T10:25:32Z</time>
      </trkpt>
      <trkpt lat="47.65661" lon="6.16339">
        <ele>232.1</ele>
        <time>2021-02-23T10:25:34Z</time>
      </trkpt>
      <trkpt lat="47.65651" lon="6.16354">
        <ele>232.6</ele>
        <time>2021-02-23T10:25:37Z</time>
      </trkpt>
      <trkpt lat="47.65645" lon="6.16363">
        <ele>232.9</ele>
        <time>2021-02-23T10:25:39Z</time>
      </trkpt>
      <trkpt lat="47.65637" lon="6.16374">
        <ele>233.2</ele>
        <time>2021-02-23T10:25:41Z</time>
      </trkpt>
      <trkpt lat="47.65634" lon="6.16379">
        <ele>233.3</ele>
        <time>2021-02-23T10:25:42Z</time>
      </trkpt>
      <trkpt lat="47.65625" lon="6.16393">
        <ele>233.6</ele>
        <time>2021-02-23T10:25:45Z</time>
      </trkpt>
      <trkpt lat="47.65621" lon="6.16398">
        <ele>233.6</ele>
        <time>2021-02-23T10:25:46Z</time>
      </trkpt>
      <trkpt lat="47.65611" lon="6.16413">
        <ele>233.8</ele>
        <time>2021-02-23T10:25:49Z</time>
      </trkpt>
      <trkpt lat="47.65606" lon="6.1642">
        <ele>233.8</ele>
        <time>2021-02-23T10:25:51Z</time>
      </trkpt>
      <trkpt lat="47.65602" lon="6.16426">
        <ele>233.9</ele>
        <time>2021-02-23T10:25:53Z</time>
      </trkpt>
      <trkpt lat="47.65598" lon="6.16432">
        <ele>234</ele>
        <time>2021-02-23T10:25:55Z</time>
      </trkpt>
      <trkpt lat="47.65592" lon="6.16441">
        <ele>234.2</ele>
        <time>2021-02-23T10:25:57Z</time>
      </trkpt>
      <trkpt lat="47.65588" lon="6.16447">
        <ele>234.5</ele>
        <time>2021-02-23T10:25:59Z</time>
      </trkpt>
      <trkpt lat="47.65584" lon="6.16452">
        <ele>234.6</ele>
        <time>2021-02-23T10:26:00Z</time>
      </trkpt>
      <trkpt lat="47.65579" lon="6.16459">
        <ele>234.8</ele>
        <time>2021-02-23T10:26:02Z</time>
      </trkpt>
      <trkpt lat="47.65571" lon="6.16469">
        <ele>235</ele>
        <time>2021-02-23T10:26:05Z</time>
      </trkpt>
      <trkpt lat="47.65564" lon="6.16477">
        <ele>235.1</ele>
        <time>2021-02-23T10:26:07Z</time>
      </trkpt>
      <trkpt lat="47.65561" lon="6.16482">
        <ele>235.1</ele>
        <time>2021-02-23T10:26:08Z</time>
      </trkpt>
      <trkpt lat="47.65552" lon="6.16494">
        <ele>235.1</ele>
        <time>2021-02-23T10:26:11Z</time>
      </trkpt>
      <trkpt lat="47.65548" lon="6.16499">
        <ele>235</ele>
        <time>2021-02-23T10:26:12Z</time>
      </trkpt>
      <trkpt lat="47.65545" lon="6.16504">
        <ele>234.8</ele>
        <time>2021-02-23T10:26:13Z</time>
      </trkpt>
      <trkpt lat="47.65539" lon="6.16512">
        <ele>234.5</ele>
        <time>2021-02-23T10:26:15Z</time>
      </trkpt>
      <trkpt lat="47.65535" lon="6.1652">
        <ele>234.3</ele>
        <time>2021-02-23T10:26:17Z</time>
      </trkpt>
      <trkpt lat="47.65531" lon="6.16527">
        <ele>234.2</ele>
        <time>2021-02-23T10:26:18Z</time>
      </trkpt>
      <trkpt lat="47.65527" lon="6.16534">
        <ele>234.1</ele>
        <time>2021-02-23T10:26:20Z</time>
      </trkpt>
      <trkpt lat="47.6552" lon="6.16539">
        <ele>233.9</ele>
        <time>2021-02-23T10:26:21Z</time>
      </trkpt>
      <trkpt lat="47.65514" lon="6.1654">
        <ele>233.6</ele>
        <time>2021-02-23T10:26:24Z</time>
      </trkpt>
      <trkpt lat="47.65507" lon="6.16539">
        <ele>233.2</ele>
        <time>2021-02-23T10:26:25Z</time>
      </trkpt>
      <trkpt lat="47.655" lon="6.16538">
        <ele>232.8</ele>
        <time>2021-02-23T10:26:28Z</time>
      </trkpt>
      <trkpt lat="47.65493" lon="6.16538">
        <ele>232.7</ele>
        <time>2021-02-23T10:26:30Z</time>
      </trkpt>
      <trkpt lat="47.65485" lon="6.16536">
        <ele>232.4</ele>
        <time>2021-02-23T10:26:31Z</time>
      </trkpt>
      <trkpt lat="47.65481" lon="6.16535">
        <ele>232.3</ele>
        <time>2021-02-23T10:26:32Z</time>
      </trkpt>
      <trkpt lat="47.65472" lon="6.16533">
        <ele>232</ele>
        <time>2021-02-23T10:26:34Z</time>
      </trkpt>
      <trkpt lat="47.65463" lon="6.16531">
        <ele>231.7</ele>
        <time>2021-02-23T10:26:37Z</time>
      </trkpt>
      <trkpt lat="47.65453" lon="6.16529">
        <ele>231.3</ele>
        <time>2021-02-23T10:26:38Z</time>
      </trkpt>
      <trkpt lat="47.65448" lon="6.16529">
        <ele>231.1</ele>
        <time>2021-02-23T10:26:39Z</time>
      </trkpt>
      <trkpt lat="47.65443" lon="6.16528">
        <ele>231</ele>
        <time>2021-02-23T10:26:40Z</time>
      </trkpt>
      <trkpt lat="47.65438" lon="6.16527">
        <ele>230.8</ele>
        <time>2021-02-23T10:26:41Z</time>
      </trkpt>
      <trkpt lat="47.65424" lon="6.16525">
        <ele>230.3</ele>
        <time>2021-02-23T10:26:43Z</time>
      </trkpt>
      <trkpt lat="47.65419" lon="6.16524">
        <ele>230.1</ele>
        <time>2021-02-23T10:26:44Z</time>
      </trkpt>
      <trkpt lat="47.65414" lon="6.16523">
        <ele>229.9</ele>
        <time>2021-02-23T10:26:45Z</time>
      </trkpt>
      <trkpt lat="47.65409" lon="6.16522">
        <ele>229.9</ele>
        <time>2021-02-23T10:26:46Z</time>
      </trkpt>
      <trkpt lat="47.65403" lon="6.16521">
        <ele>229.8</ele>
        <time>2021-02-23T10:26:46Z</time>
      </trkpt>
      <trkpt lat="47.65398" lon="6.1652">
        <ele>229.7</ele>
        <time>2021-02-23T10:26:47Z</time>
      </trkpt>
      <trkpt lat="47.65393" lon="6.16519">
        <ele>229.7</ele>
        <time>2021-02-23T10:26:48Z</time>
      </trkpt>
      <trkpt lat="47.65388" lon="6.16518">
        <ele>229.6</ele>
        <time>2021-02-23T10:26:49Z</time>
      </trkpt>
      <trkpt lat="47.65383" lon="6.16517">
        <ele>229.6</ele>
        <time>2021-02-23T10:26:50Z</time>
      </trkpt>
      <trkpt lat="47.65378" lon="6.16516">
        <ele>229.5</ele>
        <time>2021-02-23T10:26:51Z</time>
      </trkpt>
      <trkpt lat="47.65373" lon="6.16515">
        <ele>229.5</ele>
        <time>2021-02-23T10:26:52Z</time>
      </trkpt>
      <trkpt lat="47.65368" lon="6.16514">
        <ele>229.5</ele>
        <time>2021-02-23T10:26:53Z</time>
      </trkpt>
      <trkpt lat="47.65363" lon="6.16513">
        <ele>229.5</ele>
        <time>2021-02-23T10:26:54Z</time>
      </trkpt>
      <trkpt lat="47.65358" lon="6.16512">
        <ele>229.4</ele>
        <time>2021-02-23T10:26:55Z</time>
      </trkpt>
      <trkpt lat="47.65353" lon="6.16511">
        <ele>229.4</ele>
        <time>2021-02-23T10:26:56Z</time>
      </trkpt>
      <trkpt lat="47.65349" lon="6.16511">
        <ele>229.4</ele>
        <time>2021-02-23T10:26:57Z</time>
      </trkpt>
      <trkpt lat="47.65344" lon="6.1651">
        <ele>229.4</ele>
        <time>2021-02-23T10:26:58Z</time>
      </trkpt>
      <trkpt lat="47.65339" lon="6.16509">
        <ele>229.4</ele>
        <time>2021-02-23T10:26:59Z</time>
      </trkpt>
      <trkpt lat="47.65334" lon="6.16508">
        <ele>229.4</ele>
        <time>2021-02-23T10:27:00Z</time>
      </trkpt>
      <trkpt lat="47.6533" lon="6.16507">
        <ele>229.4</ele>
        <time>2021-02-23T10:27:01Z</time>
      </trkpt>
      <trkpt lat="47.65325" lon="6.16506">
        <ele>229.5</ele>
        <time>2021-02-23T10:27:02Z</time>
      </trkpt>
      <trkpt lat="47.6532" lon="6.16505">
        <ele>229.6</ele>
        <time>2021-02-23T10:27:03Z</time>
      </trkpt>
      <trkpt lat="47.65315" lon="6.16505">
        <ele>229.7</ele>
        <time>2021-02-23T10:27:04Z</time>
      </trkpt>
      <trkpt lat="47.65311" lon="6.16504">
        <ele>229.7</ele>
        <time>2021-02-23T10:27:05Z</time>
      </trkpt>
      <trkpt lat="47.65306" lon="6.16503">
        <ele>229.8</ele>
        <time>2021-02-23T10:27:06Z</time>
      </trkpt>
      <trkpt lat="47.65301" lon="6.16502">
        <ele>229.9</ele>
        <time>2021-02-23T10:27:07Z</time>
      </trkpt>
      <trkpt lat="47.65297" lon="6.16501">
        <ele>229.9</ele>
        <time>2021-02-23T10:27:08Z</time>
      </trkpt>
      <trkpt lat="47.65292" lon="6.165">
        <ele>230</ele>
        <time>2021-02-23T10:27:09Z</time>
      </trkpt>
      <trkpt lat="47.65288" lon="6.165">
        <ele>230.1</ele>
        <time>2021-02-23T10:27:10Z</time>
      </trkpt>
      <trkpt lat="47.65283" lon="6.16499">
        <ele>230.2</ele>
        <time>2021-02-23T10:27:11Z</time>
      </trkpt>
      <trkpt lat="47.65278" lon="6.16498">
        <ele>230.3</ele>
        <time>2021-02-23T10:27:12Z</time>
      </trkpt>
      <trkpt lat="47.65274" lon="6.16497">
        <ele>230.3</ele>
        <time>2021-02-23T10:27:13Z</time>
      </trkpt>
      <trkpt lat="47.65269" lon="6.16496">
        <ele>230.4</ele>
        <time>2021-02-23T10:27:14Z</time>
      </trkpt>
      <trkpt lat="47.65264" lon="6.16495">
        <ele>230.5</ele>
        <time>2021-02-23T10:27:15Z</time>
      </trkpt>
      <trkpt lat="47.6526" lon="6.16494">
        <ele>230.6</ele>
        <time>2021-02-23T10:27:16Z</time>
      </trkpt>
      <trkpt lat="47.65255" lon="6.16493">
        <ele>230.6</ele>
        <time>2021-02-23T10:27:17Z</time>
      </trkpt>
      <trkpt lat="47.65251" lon="6.16492">
        <ele>230.7</ele>
        <time>2021-02-23T10:27:18Z</time>
      </trkpt>
      <trkpt lat="47.65242" lon="6.1649">
        <ele>230.9</ele>
        <time>2021-02-23T10:27:20Z</time>
      </trkpt>
      <trkpt lat="47.65233" lon="6.16489">
        <ele>231.1</ele>
        <time>2021-02-23T10:27:22Z</time>
      </trkpt>
      <trkpt lat="47.65225" lon="6.16487">
        <ele>231.3</ele>
        <time>2021-02-23T10:27:24Z</time>
      </trkpt>
      <trkpt lat="47.65218" lon="6.16486">
        <ele>231.5</ele>
        <time>2021-02-23T10:27:26Z</time>
      </trkpt>
      <trkpt lat="47.65211" lon="6.16485">
        <ele>231.7</ele>
        <time>2021-02-23T10:27:28Z</time>
      </trkpt>
      <trkpt lat="47.65203" lon="6.16483">
        <ele>231.9</ele>
        <time>2021-02-23T10:27:30Z</time>
      </trkpt>
      <trkpt lat="47.6519" lon="6.16482">
        <ele>232.2</ele>
        <time>2021-02-23T10:27:32Z</time>
      </trkpt>
      <trkpt lat="47.65185" lon="6.16481">
        <ele>232.3</ele>
        <time>2021-02-23T10:27:34Z</time>
      </trkpt>
      <trkpt lat="47.65179" lon="6.16479">
        <ele>232.4</ele>
        <time>2021-02-23T10:27:36Z</time>
      </trkpt>
      <trkpt lat="47.65175" lon="6.16478">
        <ele>232.4</ele>
        <time>2021-02-23T10:27:41Z</time>
      </trkpt>
      <trkpt lat="47.65168" lon="6.16476">
        <ele>232.5</ele>
        <time>2021-02-23T10:27:41Z</time>
      </trkpt>
      <trkpt lat="47.65163" lon="6.16475">
        <ele>232.5</ele>
        <time>2021-02-23T10:27:45Z</time>
      </trkpt>
      <trkpt lat="47.65157" lon="6.16473">
        <ele>232.6</ele>
        <time>2021-02-23T10:27:45Z</time>
      </trkpt>
      <trkpt lat="47.65152" lon="6.16472">
        <ele>232.6</ele>
        <time>2021-02-23T10:27:49Z</time>
      </trkpt>
      <trkpt lat="47.65145" lon="6.16471">
        <ele>232.7</ele>
        <time>2021-02-23T10:27:51Z</time>
      </trkpt>
      <trkpt lat="47.65139" lon="6.1647">
        <ele>232.8</ele>
        <time>2021-02-23T10:27:53Z</time>
      </trkpt>
      <trkpt lat="47.65132" lon="6.16469">
        <ele>232.9</ele>
        <time>2021-02-23T10:27:55Z</time>
      </trkpt>
      <trkpt lat="47.65127" lon="6.16468">
        <ele>232.9</ele>
        <time>2021-02-23T10:27:57Z</time>
      </trkpt>
      <trkpt lat="47.65116" lon="6.16466">
        <ele>233.1</ele>
        <time>2021-02-23T10:28:00Z</time>
      </trkpt>
      <trkpt lat="47.65105" lon="6.16464">
        <ele>233.2</ele>
        <time>2021-02-23T10:28:03Z</time>
      </trkpt>
      <trkpt lat="47.65095" lon="6.16462">
        <ele>233.4</ele>
        <time>2021-02-23T10:28:06Z</time>
      </trkpt>
      <trkpt lat="47.65083" lon="6.1646">
        <ele>233.6</ele>
        <time>2021-02-23T10:28:07Z</time>
      </trkpt>
      <trkpt lat="47.65077" lon="6.16459">
        <ele>233.7</ele>
        <time>2021-02-23T10:28:09Z</time>
      </trkpt>
      <trkpt lat="47.65071" lon="6.16458">
        <ele>233.9</ele>
        <time>2021-02-23T10:28:11Z</time>
      </trkpt>
      <trkpt lat="47.65064" lon="6.16456">
        <ele>234</ele>
        <time>2021-02-23T10:28:13Z</time>
      </trkpt>
      <trkpt lat="47.65058" lon="6.16455">
        <ele>234.2</ele>
        <time>2021-02-23T10:28:15Z</time>
      </trkpt>
      <trkpt lat="47.65051" lon="6.16454">
        <ele>234.4</ele>
        <time>2021-02-23T10:28:19Z</time>
      </trkpt>
      <trkpt lat="47.65044" lon="6.16452">
        <ele>234.6</ele>
        <time>2021-02-23T10:28:19Z</time>
      </trkpt>
      <trkpt lat="47.65038" lon="6.16451">
        <ele>234.8</ele>
        <time>2021-02-23T10:28:21Z</time>
      </trkpt>
      <trkpt lat="47.65031" lon="6.16449">
        <ele>235.1</ele>
        <time>2021-02-23T10:28:23Z</time>
      </trkpt>
      <trkpt lat="47.65026" lon="6.16448">
        <ele>235.3</ele>
        <time>2021-02-23T10:28:27Z</time>
      </trkpt>
      <trkpt lat="47.65019" lon="6.16447">
        <ele>235.5</ele>
        <time>2021-02-23T10:28:29Z</time>
      </trkpt>
      <trkpt lat="47.65007" lon="6.16445">
        <ele>236</ele>
        <time>2021-02-23T10:28:30Z</time>
      </trkpt>
      <trkpt lat="47.65" lon="6.16444">
        <ele>236.4</ele>
        <time>2021-02-23T10:28:32Z</time>
      </trkpt>
      <trkpt lat="47.64994" lon="6.16443">
        <ele>236.4</ele>
        <time>2021-02-23T10:28:35Z</time>
      </trkpt>
      <trkpt lat="47.64988" lon="6.16443">
        <ele>236.5</ele>
        <time>2021-02-23T10:28:35Z</time>
      </trkpt>
      <trkpt lat="47.64981" lon="6.16441">
        <ele>236.7</ele>
        <time>2021-02-23T10:28:39Z</time>
      </trkpt>
      <trkpt lat="47.64976" lon="6.16441">
        <ele>236.8</ele>
        <time>2021-02-23T10:28:40Z</time>
      </trkpt>
      <trkpt lat="47.6496" lon="6.16439">
        <ele>237.1</ele>
        <time>2021-02-23T10:28:41Z</time>
      </trkpt>
      <trkpt lat="47.64956" lon="6.16438">
        <ele>237.2</ele>
        <time>2021-02-23T10:28:42Z</time>
      </trkpt>
      <trkpt lat="47.64951" lon="6.16437">
        <ele>237.3</ele>
        <time>2021-02-23T10:28:43Z</time>
      </trkpt>
      <trkpt lat="47.64946" lon="6.16436">
        <ele>237.4</ele>
        <time>2021-02-23T10:28:44Z</time>
      </trkpt>
      <trkpt lat="47.64942" lon="6.16435">
        <ele>237.5</ele>
        <time>2021-02-23T10:28:45Z</time>
      </trkpt>
      <trkpt lat="47.64937" lon="6.16434">
        <ele>237.6</ele>
        <time>2021-02-23T10:28:48Z</time>
      </trkpt>
      <trkpt lat="47.64922" lon="6.16432">
        <ele>238</ele>
        <time>2021-02-23T10:28:51Z</time>
      </trkpt>
      <trkpt lat="47.64912" lon="6.1643">
        <ele>238.3</ele>
        <time>2021-02-23T10:28:51Z</time>
      </trkpt>
      <trkpt lat="47.64907" lon="6.16429">
        <ele>238.5</ele>
        <time>2021-02-23T10:28:52Z</time>
      </trkpt>
      <trkpt lat="47.64902" lon="6.16429">
        <ele>238.7</ele>
        <time>2021-02-23T10:28:53Z</time>
      </trkpt>
      <trkpt lat="47.64893" lon="6.16427">
        <ele>239</ele>
        <time>2021-02-23T10:28:55Z</time>
      </trkpt>
      <trkpt lat="47.64888" lon="6.16426">
        <ele>239.2</ele>
        <time>2021-02-23T10:28:58Z</time>
      </trkpt>
      <trkpt lat="47.64883" lon="6.16425">
        <ele>239.4</ele>
        <time>2021-02-23T10:29:00Z</time>
      </trkpt>
      <trkpt lat="47.64868" lon="6.16423">
        <ele>239.8</ele>
        <time>2021-02-23T10:29:01Z</time>
      </trkpt>
      <trkpt lat="47.6486" lon="6.16421">
        <ele>240.1</ele>
        <time>2021-02-23T10:29:03Z</time>
      </trkpt>
      <trkpt lat="47.64852" lon="6.1642">
        <ele>240.4</ele>
        <time>2021-02-23T10:29:05Z</time>
      </trkpt>
      <trkpt lat="47.64844" lon="6.16419">
        <ele>240.6</ele>
        <time>2021-02-23T10:29:07Z</time>
      </trkpt>
      <trkpt lat="47.64839" lon="6.16417">
        <ele>240.8</ele>
        <time>2021-02-23T10:29:11Z</time>
      </trkpt>
      <trkpt lat="47.6483" lon="6.16416">
        <ele>240.9</ele>
        <time>2021-02-23T10:29:11Z</time>
      </trkpt>
      <trkpt lat="47.64824" lon="6.16415">
        <ele>240.8</ele>
        <time>2021-02-23T10:29:15Z</time>
      </trkpt>
      <trkpt lat="47.64812" lon="6.16412">
        <ele>240.5</ele>
        <time>2021-02-23T10:29:16Z</time>
      </trkpt>
      <trkpt lat="47.64805" lon="6.16411">
        <ele>240.4</ele>
        <time>2021-02-23T10:29:20Z</time>
      </trkpt>
      <trkpt lat="47.64798" lon="6.16409">
        <ele>240.2</ele>
        <time>2021-02-23T10:29:22Z</time>
      </trkpt>
      <trkpt lat="47.64792" lon="6.16408">
        <ele>240.1</ele>
        <time>2021-02-23T10:29:23Z</time>
      </trkpt>
      <trkpt lat="47.64786" lon="6.16407">
        <ele>239.9</ele>
        <time>2021-02-23T10:29:24Z</time>
      </trkpt>
      <trkpt lat="47.64778" lon="6.16405">
        <ele>239.7</ele>
        <time>2021-02-23T10:29:24Z</time>
      </trkpt>
      <trkpt lat="47.64773" lon="6.16404">
        <ele>239.6</ele>
        <time>2021-02-23T10:29:25Z</time>
      </trkpt>
      <trkpt lat="47.64766" lon="6.16403">
        <ele>239.4</ele>
        <time>2021-02-23T10:29:26Z</time>
      </trkpt>
      <trkpt lat="47.6476" lon="6.16402">
        <ele>239.3</ele>
        <time>2021-02-23T10:29:27Z</time>
      </trkpt>
      <trkpt lat="47.64755" lon="6.16401">
        <ele>239.1</ele>
        <time>2021-02-23T10:29:28Z</time>
      </trkpt>
      <trkpt lat="47.64749" lon="6.164">
        <ele>239</ele>
        <time>2021-02-23T10:29:29Z</time>
      </trkpt>
      <trkpt lat="47.64743" lon="6.16399">
        <ele>238.7</ele>
        <time>2021-02-23T10:29:30Z</time>
      </trkpt>
      <trkpt lat="47.64737" lon="6.16398">
        <ele>238.4</ele>
        <time>2021-02-23T10:29:31Z</time>
      </trkpt>
      <trkpt lat="47.6473" lon="6.16397">
        <ele>238.2</ele>
        <time>2021-02-23T10:29:32Z</time>
      </trkpt>
      <trkpt lat="47.64723" lon="6.16396">
        <ele>237.9</ele>
        <time>2021-02-23T10:29:33Z</time>
      </trkpt>
      <trkpt lat="47.64716" lon="6.16395">
        <ele>237.6</ele>
        <time>2021-02-23T10:29:34Z</time>
      </trkpt>
      <trkpt lat="47.64709" lon="6.16394">
        <ele>237.3</ele>
        <time>2021-02-23T10:29:35Z</time>
      </trkpt>
      <trkpt lat="47.64702" lon="6.16393">
        <ele>236.9</ele>
        <time>2021-02-23T10:29:36Z</time>
      </trkpt>
      <trkpt lat="47.64695" lon="6.16393">
        <ele>236.6</ele>
        <time>2021-02-23T10:29:37Z</time>
      </trkpt>
      <trkpt lat="47.64688" lon="6.16392">
        <ele>236.3</ele>
        <time>2021-02-23T10:29:38Z</time>
      </trkpt>
      <trkpt lat="47.64681" lon="6.16391">
        <ele>236</ele>
        <time>2021-02-23T10:29:39Z</time>
      </trkpt>
      <trkpt lat="47.64674" lon="6.1639">
        <ele>235.7</ele>
        <time>2021-02-23T10:29:40Z</time>
      </trkpt>
      <trkpt lat="47.64667" lon="6.16389">
        <ele>235.4</ele>
        <time>2021-02-23T10:29:41Z</time>
      </trkpt>
      <trkpt lat="47.6466" lon="6.16388">
        <ele>235.2</ele>
        <time>2021-02-23T10:29:42Z</time>
      </trkpt>
      <trkpt lat="47.64653" lon="6.16386">
        <ele>235.1</ele>
        <time>2021-02-23T10:29:43Z</time>
      </trkpt>
      <trkpt lat="47.64646" lon="6.16385">
        <ele>234.9</ele>
        <time>2021-02-23T10:29:44Z</time>
      </trkpt>
      <trkpt lat="47.64639" lon="6.16384">
        <ele>234.8</ele>
        <time>2021-02-23T10:29:45Z</time>
      </trkpt>
      <trkpt lat="47.64632" lon="6.16383">
        <ele>234.7</ele>
        <time>2021-02-23T10:29:46Z</time>
      </trkpt>
      <trkpt lat="47.64625" lon="6.16382">
        <ele>234.6</ele>
        <time>2021-02-23T10:29:47Z</time>
      </trkpt>
      <trkpt lat="47.64619" lon="6.16381">
        <ele>234.5</ele>
        <time>2021-02-23T10:29:48Z</time>
      </trkpt>
      <trkpt lat="47.64612" lon="6.1638">
        <ele>234.4</ele>
        <time>2021-02-23T10:29:49Z</time>
      </trkpt>
      <trkpt lat="47.64605" lon="6.16378">
        <ele>234.3</ele>
        <time>2021-02-23T10:29:50Z</time>
      </trkpt>
      <trkpt lat="47.64598" lon="6.16377">
        <ele>234.2</ele>
        <time>2021-02-23T10:29:51Z</time>
      </trkpt>
      <trkpt lat="47.64591" lon="6.16375">
        <ele>234.1</ele>
        <time>2021-02-23T10:29:52Z</time>
      </trkpt>
      <trkpt lat="47.64584" lon="6.16374">
        <ele>234</ele>
        <time>2021-02-23T10:29:53Z</time>
      </trkpt>
      <trkpt lat="47.64578" lon="6.16373">
        <ele>234</ele>
        <time>2021-02-23T10:29:54Z</time>
      </trkpt>
      <trkpt lat="47.64571" lon="6.16371">
        <ele>234</ele>
        <time>2021-02-23T10:29:55Z</time>
      </trkpt>
      <trkpt lat="47.64565" lon="6.1637">
        <ele>234</ele>
        <time>2021-02-23T10:29:56Z</time>
      </trkpt>
      <trkpt lat="47.64559" lon="6.16369">
        <ele>234</ele>
        <time>2021-02-23T10:29:57Z</time>
      </trkpt>
      <trkpt lat="47.64554" lon="6.16368">
        <ele>234.1</ele>
        <time>2021-02-23T10:29:58Z</time>
      </trkpt>
      <trkpt lat="47.64548" lon="6.16366">
        <ele>234.1</ele>
        <time>2021-02-23T10:29:59Z</time>
      </trkpt>
      <trkpt lat="47.64543" lon="6.16365">
        <ele>234.1</ele>
        <time>2021-02-23T10:30:00Z</time>
      </trkpt>
      <trkpt lat="47.64537" lon="6.16364">
        <ele>234.1</ele>
        <time>2021-02-23T10:30:01Z</time>
      </trkpt>
      <trkpt lat="47.64532" lon="6.16363">
        <ele>234.2</ele>
        <time>2021-02-23T10:30:02Z</time>
      </trkpt>
      <trkpt lat="47.64526" lon="6.16362">
        <ele>234.2</ele>
        <time>2021-02-23T10:30:03Z</time>
      </trkpt>
      <trkpt lat="47.64521" lon="6.16361">
        <ele>234.3</ele>
        <time>2021-02-23T10:30:04Z</time>
      </trkpt>
      <trkpt lat="47.64515" lon="6.1636">
        <ele>234.3</ele>
        <time>2021-02-23T10:30:05Z</time>
      </trkpt>
      <trkpt lat="47.64509" lon="6.16359">
        <ele>234.3</ele>
        <time>2021-02-23T10:30:06Z</time>
      </trkpt>
      <trkpt lat="47.64504" lon="6.16358">
        <ele>234.4</ele>
        <time>2021-02-23T10:30:07Z</time>
      </trkpt>
      <trkpt lat="47.64499" lon="6.16357">
        <ele>234.4</ele>
        <time>2021-02-23T10:30:08Z</time>
      </trkpt>
      <trkpt lat="47.64493" lon="6.16356">
        <ele>234.4</ele>
        <time>2021-02-23T10:30:09Z</time>
      </trkpt>
      <trkpt lat="47.64488" lon="6.16355">
        <ele>234.4</ele>
        <time>2021-02-23T10:30:10Z</time>
      </trkpt>
      <trkpt lat="47.64483" lon="6.16354">
        <ele>234.4</ele>
        <time>2021-02-23T10:30:11Z</time>
      </trkpt>
      <trkpt lat="47.64477" lon="6.16353">
        <ele>234.4</ele>
        <time>2021-02-23T10:30:12Z</time>
      </trkpt>
      <trkpt lat="47.64472" lon="6.16352">
        <ele>234.4</ele>
        <time>2021-02-23T10:30:13Z</time>
      </trkpt>
      <trkpt lat="47.64466" lon="6.16351">
        <ele>234.3</ele>
        <time>2021-02-23T10:30:14Z</time>
      </trkpt>
      <trkpt lat="47.64461" lon="6.1635">
        <ele>234.3</ele>
        <time>2021-02-23T10:30:15Z</time>
      </trkpt>
      <trkpt lat="47.64456" lon="6.16348">
        <ele>234.3</ele>
        <time>2021-02-23T10:30:16Z</time>
      </trkpt>
      <trkpt lat="47.64451" lon="6.16346">
        <ele>234.3</ele>
        <time>2021-02-23T10:30:17Z</time>
      </trkpt>
      <trkpt lat="47.64446" lon="6.16343">
        <ele>234.3</ele>
        <time>2021-02-23T10:30:18Z</time>
      </trkpt>
      <trkpt lat="47.64441" lon="6.1634">
        <ele>234.2</ele>
        <time>2021-02-23T10:30:19Z</time>
      </trkpt>
      <trkpt lat="47.64437" lon="6.16337">
        <ele>234.2</ele>
        <time>2021-02-23T10:30:20Z</time>
      </trkpt>
      <trkpt lat="47.64433" lon="6.16333">
        <ele>234.2</ele>
        <time>2021-02-23T10:30:21Z</time>
      </trkpt>
      <trkpt lat="47.6443" lon="6.16328">
        <ele>234</ele>
        <time>2021-02-23T10:30:22Z</time>
      </trkpt>
      <trkpt lat="47.64429" lon="6.16317">
        <ele>233.7</ele>
        <time>2021-02-23T10:30:24Z</time>
      </trkpt>
      <trkpt lat="47.64426" lon="6.16306">
        <ele>233.4</ele>
        <time>2021-02-23T10:30:26Z</time>
      </trkpt>
      <trkpt lat="47.64419" lon="6.16299">
        <ele>233.2</ele>
        <time>2021-02-23T10:30:28Z</time>
      </trkpt>
      <trkpt lat="47.64409" lon="6.16299">
        <ele>233.4</ele>
        <time>2021-02-23T10:30:30Z</time>
      </trkpt>
      <trkpt lat="47.64405" lon="6.16306">
        <ele>233.6</ele>
        <time>2021-02-23T10:30:32Z</time>
      </trkpt>
      <trkpt lat="47.64401" lon="6.16314">
        <ele>233.9</ele>
        <time>2021-02-23T10:30:34Z</time>
      </trkpt>
      <trkpt lat="47.64395" lon="6.16323">
        <ele>234.3</ele>
        <time>2021-02-23T10:30:36Z</time>
      </trkpt>
      <trkpt lat="47.6439" lon="6.16326">
        <ele>234.5</ele>
        <time>2021-02-23T10:30:37Z</time>
      </trkpt>
      <trkpt lat="47.64384" lon="6.16329">
        <ele>234.7</ele>
        <time>2021-02-23T10:30:38Z</time>
      </trkpt>
      <trkpt lat="47.64379" lon="6.16331">
        <ele>234.8</ele>
        <time>2021-02-23T10:30:39Z</time>
      </trkpt>
      <trkpt lat="47.64375" lon="6.16333">
        <ele>235</ele>
        <time>2021-02-23T10:30:40Z</time>
      </trkpt>
      <trkpt lat="47.6437" lon="6.16337">
        <ele>235.1</ele>
        <time>2021-02-23T10:30:41Z</time>
      </trkpt>
      <trkpt lat="47.64366" lon="6.16342">
        <ele>235.2</ele>
        <time>2021-02-23T10:30:42Z</time>
      </trkpt>
      <trkpt lat="47.64359" lon="6.16351">
        <ele>235.2</ele>
        <time>2021-02-23T10:30:44Z</time>
      </trkpt>
      <trkpt lat="47.64356" lon="6.16359">
        <ele>235.2</ele>
        <time>2021-02-23T10:30:45Z</time>
      </trkpt>
      <trkpt lat="47.64352" lon="6.16368">
        <ele>235.2</ele>
        <time>2021-02-23T10:30:46Z</time>
      </trkpt>
      <trkpt lat="47.6435" lon="6.16378">
        <ele>235.2</ele>
        <time>2021-02-23T10:30:47Z</time>
      </trkpt>
      <trkpt lat="47.64347" lon="6.16387">
        <ele>235.1</ele>
        <time>2021-02-23T10:30:48Z</time>
      </trkpt>
      <trkpt lat="47.64345" lon="6.16396">
        <ele>235.1</ele>
        <time>2021-02-23T10:30:49Z</time>
      </trkpt>
      <trkpt lat="47.64342" lon="6.16406">
        <ele>235</ele>
        <time>2021-02-23T10:30:50Z</time>
      </trkpt>
      <trkpt lat="47.6434" lon="6.16415">
        <ele>234.9</ele>
        <time>2021-02-23T10:30:51Z</time>
      </trkpt>
      <trkpt lat="47.64337" lon="6.16424">
        <ele>234.9</ele>
        <time>2021-02-23T10:30:52Z</time>
      </trkpt>
      <trkpt lat="47.64335" lon="6.16434">
        <ele>235</ele>
        <time>2021-02-23T10:30:53Z</time>
      </trkpt>
      <trkpt lat="47.64332" lon="6.16443">
        <ele>235.1</ele>
        <time>2021-02-23T10:30:54Z</time>
      </trkpt>
      <trkpt lat="47.64329" lon="6.16452">
        <ele>235.2</ele>
        <time>2021-02-23T10:30:55Z</time>
      </trkpt>
      <trkpt lat="47.64327" lon="6.16462">
        <ele>235.3</ele>
        <time>2021-02-23T10:30:56Z</time>
      </trkpt>
      <trkpt lat="47.64324" lon="6.16471">
        <ele>235.4</ele>
        <time>2021-02-23T10:30:57Z</time>
      </trkpt>
      <trkpt lat="47.64322" lon="6.1648">
        <ele>235.5</ele>
        <time>2021-02-23T10:30:58Z</time>
      </trkpt>
      <trkpt lat="47.6432" lon="6.16489">
        <ele>235.5</ele>
        <time>2021-02-23T10:30:59Z</time>
      </trkpt>
      <trkpt lat="47.64318" lon="6.16498">
        <ele>235.6</ele>
        <time>2021-02-23T10:31:00Z</time>
      </trkpt>
      <trkpt lat="47.64316" lon="6.16506">
        <ele>235.6</ele>
        <time>2021-02-23T10:31:01Z</time>
      </trkpt>
      <trkpt lat="47.64314" lon="6.16514">
        <ele>235.7</ele>
        <time>2021-02-23T10:31:02Z</time>
      </trkpt>
      <trkpt lat="47.64311" lon="6.16522">
        <ele>235.8</ele>
        <time>2021-02-23T10:31:03Z</time>
      </trkpt>
      <trkpt lat="47.64309" lon="6.16529">
        <ele>235.9</ele>
        <time>2021-02-23T10:31:04Z</time>
      </trkpt>
      <trkpt lat="47.64307" lon="6.16536">
        <ele>235.9</ele>
        <time>2021-02-23T10:31:05Z</time>
      </trkpt>
      <trkpt lat="47.64305" lon="6.16542">
        <ele>236</ele>
        <time>2021-02-23T10:31:06Z</time>
      </trkpt>
      <trkpt lat="47.64302" lon="6.16554">
        <ele>236.1</ele>
        <time>2021-02-23T10:31:08Z</time>
      </trkpt>
      <trkpt lat="47.64299" lon="6.16564">
        <ele>236.2</ele>
        <time>2021-02-23T10:31:10Z</time>
      </trkpt>
      <trkpt lat="47.64296" lon="6.16573">
        <ele>236.3</ele>
        <time>2021-02-23T10:31:12Z</time>
      </trkpt>
      <trkpt lat="47.64295" lon="6.1658">
        <ele>236.4</ele>
        <time>2021-02-23T10:31:13Z</time>
      </trkpt>
      <trkpt lat="47.64293" lon="6.16586">
        <ele>236.5</ele>
        <time>2021-02-23T10:31:14Z</time>
      </trkpt>
      <trkpt lat="47.6429" lon="6.16598">
        <ele>236.7</ele>
        <time>2021-02-23T10:31:16Z</time>
      </trkpt>
      <trkpt lat="47.64296" lon="6.16608">
        <ele>236.6</ele>
        <time>2021-02-23T10:31:19Z</time>
      </trkpt>
      <trkpt lat="47.64294" lon="6.16614">
        <ele>236.8</ele>
        <time>2021-02-23T10:31:21Z</time>
      </trkpt>
      <trkpt lat="47.64291" lon="6.16618">
        <ele>237</ele>
        <time>2021-02-23T10:31:22Z</time>
      </trkpt>
      <trkpt lat="47.64287" lon="6.16624">
        <ele>237.2</ele>
        <time>2021-02-23T10:31:23Z</time>
      </trkpt>
      <trkpt lat="47.64282" lon="6.16632">
        <ele>237.4</ele>
        <time>2021-02-23T10:31:25Z</time>
      </trkpt>
      <trkpt lat="47.64276" lon="6.16646">
        <ele>237.8</ele>
        <time>2021-02-23T10:31:28Z</time>
      </trkpt>
      <trkpt lat="47.64272" lon="6.16655">
        <ele>238</ele>
        <time>2021-02-23T10:31:30Z</time>
      </trkpt>
      <trkpt lat="47.6427" lon="6.16662">
        <ele>238.2</ele>
        <time>2021-02-23T10:31:32Z</time>
      </trkpt>
      <trkpt lat="47.64267" lon="6.16672">
        <ele>238.4</ele>
        <time>2021-02-23T10:31:34Z</time>
      </trkpt>
      <trkpt lat="47.64265" lon="6.16681">
        <ele>238.4</ele>
        <time>2021-02-23T10:31:34Z</time>
      </trkpt>
      <trkpt lat="47.64263" lon="6.1669">
        <ele>238.5</ele>
        <time>2021-02-23T10:31:36Z</time>
      </trkpt>
      <trkpt lat="47.6426" lon="6.16699">
        <ele>238.6</ele>
        <time>2021-02-23T10:31:38Z</time>
      </trkpt>
      <trkpt lat="47.64257" lon="6.16705">
        <ele>238.7</ele>
        <time>2021-02-23T10:31:40Z</time>
      </trkpt>
      <trkpt lat="47.64254" lon="6.16713">
        <ele>238.8</ele>
        <time>2021-02-23T10:31:43Z</time>
      </trkpt>
      <trkpt lat="47.64253" lon="6.16721">
        <ele>238.9</ele>
        <time>2021-02-23T10:31:48Z</time>
      </trkpt>
      <trkpt lat="47.64252" lon="6.16728">
        <ele>238.9</ele>
        <time>2021-02-23T10:31:50Z</time>
      </trkpt>
      <trkpt lat="47.64251" lon="6.16736">
        <ele>239</ele>
        <time>2021-02-23T10:31:50Z</time>
      </trkpt>
      <trkpt lat="47.64249" lon="6.16743">
        <ele>239</ele>
        <time>2021-02-23T10:31:52Z</time>
      </trkpt>
      <trkpt lat="47.64247" lon="6.1675">
        <ele>239</ele>
        <time>2021-02-23T10:31:56Z</time>
      </trkpt>
      <trkpt lat="47.64245" lon="6.1676">
        <ele>238.8</ele>
        <time>2021-02-23T10:31:56Z</time>
      </trkpt>
      <trkpt lat="47.64243" lon="6.16766">
        <ele>238.7</ele>
        <time>2021-02-23T10:32:00Z</time>
      </trkpt>
      <trkpt lat="47.64239" lon="6.16781">
        <ele>238.4</ele>
        <time>2021-02-23T10:32:01Z</time>
      </trkpt>
      <trkpt lat="47.64237" lon="6.16791">
        <ele>238.2</ele>
        <time>2021-02-23T10:32:03Z</time>
      </trkpt>
      <trkpt lat="47.64235" lon="6.168">
        <ele>238.1</ele>
        <time>2021-02-23T10:32:05Z</time>
      </trkpt>
      <trkpt lat="47.64233" lon="6.16812">
        <ele>238</ele>
        <time>2021-02-23T10:32:10Z</time>
      </trkpt>
      <trkpt lat="47.64231" lon="6.16819">
        <ele>237.9</ele>
        <time>2021-02-23T10:32:12Z</time>
      </trkpt>
      <trkpt lat="47.64229" lon="6.16829">
        <ele>237.8</ele>
        <time>2021-02-23T10:32:14Z</time>
      </trkpt>
      <trkpt lat="47.64227" lon="6.16836">
        <ele>237.7</ele>
        <time>2021-02-23T10:32:16Z</time>
      </trkpt>
      <trkpt lat="47.64226" lon="6.16845">
        <ele>237.6</ele>
        <time>2021-02-23T10:32:18Z</time>
      </trkpt>
      <trkpt lat="47.64223" lon="6.16856">
        <ele>237.4</ele>
        <time>2021-02-23T10:32:20Z</time>
      </trkpt>
      <trkpt lat="47.64222" lon="6.16864">
        <ele>237.3</ele>
        <time>2021-02-23T10:32:22Z</time>
      </trkpt>
      <trkpt lat="47.64217" lon="6.16878">
        <ele>237.1</ele>
        <time>2021-02-23T10:32:25Z</time>
      </trkpt>
      <trkpt lat="47.64215" lon="6.16891">
        <ele>236.9</ele>
        <time>2021-02-23T10:32:25Z</time>
      </trkpt>
      <trkpt lat="47.64212" lon="6.16902">
        <ele>236.7</ele>
        <time>2021-02-23T10:32:27Z</time>
      </trkpt>
      <trkpt lat="47.6421" lon="6.16911">
        <ele>236.6</ele>
        <time>2021-02-23T10:32:31Z</time>
      </trkpt>
      <trkpt lat="47.64207" lon="6.16921">
        <ele>236.4</ele>
        <time>2021-02-23T10:32:33Z</time>
      </trkpt>
      <trkpt lat="47.64205" lon="6.16928">
        <ele>236.3</ele>
        <time>2021-02-23T10:32:34Z</time>
      </trkpt>
      <trkpt lat="47.64202" lon="6.16942">
        <ele>236</ele>
        <time>2021-02-23T10:32:34Z</time>
      </trkpt>
      <trkpt lat="47.642" lon="6.16949">
        <ele>235.9</ele>
        <time>2021-02-23T10:32:35Z</time>
      </trkpt>
      <trkpt lat="47.64198" lon="6.16956">
        <ele>235.7</ele>
        <time>2021-02-23T10:32:36Z</time>
      </trkpt>
      <trkpt lat="47.64196" lon="6.16964">
        <ele>235.6</ele>
        <time>2021-02-23T10:32:37Z</time>
      </trkpt>
      <trkpt lat="47.64195" lon="6.16971">
        <ele>235.5</ele>
        <time>2021-02-23T10:32:38Z</time>
      </trkpt>
      <trkpt lat="47.64193" lon="6.16979">
        <ele>235.3</ele>
        <time>2021-02-23T10:32:39Z</time>
      </trkpt>
      <trkpt lat="47.64191" lon="6.16987">
        <ele>235.2</ele>
        <time>2021-02-23T10:32:40Z</time>
      </trkpt>
      <trkpt lat="47.64189" lon="6.16995">
        <ele>235.1</ele>
        <time>2021-02-23T10:32:41Z</time>
      </trkpt>
      <trkpt lat="47.64187" lon="6.17003">
        <ele>234.8</ele>
        <time>2021-02-23T10:32:42Z</time>
      </trkpt>
      <trkpt lat="47.64185" lon="6.17011">
        <ele>234.4</ele>
        <time>2021-02-23T10:32:43Z</time>
      </trkpt>
      <trkpt lat="47.64183" lon="6.17019">
        <ele>233.9</ele>
        <time>2021-02-23T10:32:44Z</time>
      </trkpt>
      <trkpt lat="47.64181" lon="6.17027">
        <ele>233.4</ele>
        <time>2021-02-23T10:32:45Z</time>
      </trkpt>
      <trkpt lat="47.64179" lon="6.17036">
        <ele>232.9</ele>
        <time>2021-02-23T10:32:46Z</time>
      </trkpt>
      <trkpt lat="47.64177" lon="6.17044">
        <ele>232.4</ele>
        <time>2021-02-23T10:32:47Z</time>
      </trkpt>
      <trkpt lat="47.64175" lon="6.17052">
        <ele>231.9</ele>
        <time>2021-02-23T10:32:48Z</time>
      </trkpt>
      <trkpt lat="47.64173" lon="6.17061">
        <ele>231.4</ele>
        <time>2021-02-23T10:32:49Z</time>
      </trkpt>
      <trkpt lat="47.64171" lon="6.17069">
        <ele>230.9</ele>
        <time>2021-02-23T10:32:50Z</time>
      </trkpt>
      <trkpt lat="47.64169" lon="6.17077">
        <ele>230.3</ele>
        <time>2021-02-23T10:32:51Z</time>
      </trkpt>
      <trkpt lat="47.64166" lon="6.17086">
        <ele>229.8</ele>
        <time>2021-02-23T10:32:52Z</time>
      </trkpt>
      <trkpt lat="47.64164" lon="6.17095">
        <ele>229.1</ele>
        <time>2021-02-23T10:32:53Z</time>
      </trkpt>
      <trkpt lat="47.64162" lon="6.17104">
        <ele>228.4</ele>
        <time>2021-02-23T10:32:54Z</time>
      </trkpt>
      <trkpt lat="47.6416" lon="6.17113">
        <ele>227.6</ele>
        <time>2021-02-23T10:32:55Z</time>
      </trkpt>
      <trkpt lat="47.64157" lon="6.17123">
        <ele>227</ele>
        <time>2021-02-23T10:32:56Z</time>
      </trkpt>
      <trkpt lat="47.64155" lon="6.17132">
        <ele>226.3</ele>
        <time>2021-02-23T10:32:57Z</time>
      </trkpt>
      <trkpt lat="47.64153" lon="6.17141">
        <ele>225.6</ele>
        <time>2021-02-23T10:32:58Z</time>
      </trkpt>
      <trkpt lat="47.64151" lon="6.17151">
        <ele>225</ele>
        <time>2021-02-23T10:32:59Z</time>
      </trkpt>
      <trkpt lat="47.64149" lon="6.1716">
        <ele>224.4</ele>
        <time>2021-02-23T10:33:00Z</time>
      </trkpt>
      <trkpt lat="47.64148" lon="6.17169">
        <ele>223.9</ele>
        <time>2021-02-23T10:33:01Z</time>
      </trkpt>
      <trkpt lat="47.64146" lon="6.17178">
        <ele>223.8</ele>
        <time>2021-02-23T10:33:02Z</time>
      </trkpt>
      <trkpt lat="47.64144" lon="6.17186">
        <ele>223.7</ele>
        <time>2021-02-23T10:33:03Z</time>
      </trkpt>
      <trkpt lat="47.64142" lon="6.17194">
        <ele>223.6</ele>
        <time>2021-02-23T10:33:04Z</time>
      </trkpt>
      <trkpt lat="47.6414" lon="6.17202">
        <ele>223.6</ele>
        <time>2021-02-23T10:33:05Z</time>
      </trkpt>
      <trkpt lat="47.64139" lon="6.1721">
        <ele>223.5</ele>
        <time>2021-02-23T10:33:06Z</time>
      </trkpt>
      <trkpt lat="47.64136" lon="6.17217">
        <ele>223.4</ele>
        <time>2021-02-23T10:33:07Z</time>
      </trkpt>
      <trkpt lat="47.64134" lon="6.17224">
        <ele>223.3</ele>
        <time>2021-02-23T10:33:08Z</time>
      </trkpt>
      <trkpt lat="47.64132" lon="6.17232">
        <ele>223.2</ele>
        <time>2021-02-23T10:33:09Z</time>
      </trkpt>
      <trkpt lat="47.6413" lon="6.17239">
        <ele>223.1</ele>
        <time>2021-02-23T10:33:10Z</time>
      </trkpt>
      <trkpt lat="47.64128" lon="6.17246">
        <ele>223</ele>
        <time>2021-02-23T10:33:11Z</time>
      </trkpt>
      <trkpt lat="47.64125" lon="6.17253">
        <ele>222.9</ele>
        <time>2021-02-23T10:33:12Z</time>
      </trkpt>
      <trkpt lat="47.64122" lon="6.17259">
        <ele>222.7</ele>
        <time>2021-02-23T10:33:13Z</time>
      </trkpt>
      <trkpt lat="47.6412" lon="6.17265">
        <ele>222.5</ele>
        <time>2021-02-23T10:33:14Z</time>
      </trkpt>
      <trkpt lat="47.64117" lon="6.17272">
        <ele>222.3</ele>
        <time>2021-02-23T10:33:15Z</time>
      </trkpt>
      <trkpt lat="47.64114" lon="6.17278">
        <ele>222.1</ele>
        <time>2021-02-23T10:33:16Z</time>
      </trkpt>
      <trkpt lat="47.64111" lon="6.17283">
        <ele>221.9</ele>
        <time>2021-02-23T10:33:17Z</time>
      </trkpt>
      <trkpt lat="47.64108" lon="6.17289">
        <ele>221.7</ele>
        <time>2021-02-23T10:33:18Z</time>
      </trkpt>
      <trkpt lat="47.64105" lon="6.17294">
        <ele>221.5</ele>
        <time>2021-02-23T10:33:19Z</time>
      </trkpt>
      <trkpt lat="47.64102" lon="6.173">
        <ele>221.3</ele>
        <time>2021-02-23T10:33:20Z</time>
      </trkpt>
      <trkpt lat="47.64099" lon="6.17305">
        <ele>221.1</ele>
        <time>2021-02-23T10:33:21Z</time>
      </trkpt>
      <trkpt lat="47.64096" lon="6.17311">
        <ele>220.9</ele>
        <time>2021-02-23T10:33:22Z</time>
      </trkpt>
      <trkpt lat="47.64093" lon="6.17316">
        <ele>220.7</ele>
        <time>2021-02-23T10:33:23Z</time>
      </trkpt>
      <trkpt lat="47.6409" lon="6.17321">
        <ele>220.5</ele>
        <time>2021-02-23T10:33:24Z</time>
      </trkpt>
      <trkpt lat="47.64087" lon="6.17326">
        <ele>220.3</ele>
        <time>2021-02-23T10:33:25Z</time>
      </trkpt>
      <trkpt lat="47.64081" lon="6.17334">
        <ele>220</ele>
        <time>2021-02-23T10:33:27Z</time>
      </trkpt>
      <trkpt lat="47.64074" lon="6.17342">
        <ele>219.9</ele>
        <time>2021-02-23T10:33:29Z</time>
      </trkpt>
      <trkpt lat="47.64067" lon="6.1735">
        <ele>219.8</ele>
        <time>2021-02-23T10:33:31Z</time>
      </trkpt>
      <trkpt lat="47.6406" lon="6.17357">
        <ele>219.7</ele>
        <time>2021-02-23T10:33:33Z</time>
      </trkpt>
      <trkpt lat="47.64056" lon="6.17361">
        <ele>219.7</ele>
        <time>2021-02-23T10:33:34Z</time>
      </trkpt>
      <trkpt lat="47.64052" lon="6.17365">
        <ele>219.6</ele>
        <time>2021-02-23T10:33:35Z</time>
      </trkpt>
      <trkpt lat="47.64047" lon="6.17368">
        <ele>219.6</ele>
        <time>2021-02-23T10:33:36Z</time>
      </trkpt>
      <trkpt lat="47.64043" lon="6.17372">
        <ele>219.6</ele>
        <time>2021-02-23T10:33:37Z</time>
      </trkpt>
      <trkpt lat="47.64038" lon="6.17375">
        <ele>219.6</ele>
        <time>2021-02-23T10:33:38Z</time>
      </trkpt>
      <trkpt lat="47.64034" lon="6.17378">
        <ele>219.6</ele>
        <time>2021-02-23T10:33:39Z</time>
      </trkpt>
      <trkpt lat="47.64029" lon="6.17381">
        <ele>219.6</ele>
        <time>2021-02-23T10:33:40Z</time>
      </trkpt>
      <trkpt lat="47.64025" lon="6.17384">
        <ele>219.6</ele>
        <time>2021-02-23T10:33:41Z</time>
      </trkpt>
      <trkpt lat="47.64021" lon="6.17387">
        <ele>219.6</ele>
        <time>2021-02-23T10:33:42Z</time>
      </trkpt>
      <trkpt lat="47.64016" lon="6.17389">
        <ele>219.6</ele>
        <time>2021-02-23T10:33:43Z</time>
      </trkpt>
      <trkpt lat="47.64012" lon="6.17392">
        <ele>219.6</ele>
        <time>2021-02-23T10:33:44Z</time>
      </trkpt>
      <trkpt lat="47.64004" lon="6.17398">
        <ele>219.6</ele>
        <time>2021-02-23T10:33:46Z</time>
      </trkpt>
      <trkpt lat="47.63996" lon="6.17403">
        <ele>219.4</ele>
        <time>2021-02-23T10:33:48Z</time>
      </trkpt>
      <trkpt lat="47.63992" lon="6.17409">
        <ele>219.1</ele>
        <time>2021-02-23T10:33:50Z</time>
      </trkpt>
      <trkpt lat="47.63992" lon="6.17417">
        <ele>218.8</ele>
        <time>2021-02-23T10:33:52Z</time>
      </trkpt>
      <trkpt lat="47.63995" lon="6.17425">
        <ele>218.9</ele>
        <time>2021-02-23T10:33:54Z</time>
      </trkpt>
      <trkpt lat="47.64" lon="6.17429">
        <ele>219</ele>
        <time>2021-02-23T10:33:56Z</time>
      </trkpt>
      <trkpt lat="47.64005" lon="6.1743">
        <ele>218.9</ele>
        <time>2021-02-23T10:33:57Z</time>
      </trkpt>
      <trkpt lat="47.64008" lon="6.17437">
        <ele>218.8</ele>
        <time>2021-02-23T10:33:59Z</time>
      </trkpt>
      <trkpt lat="47.64013" lon="6.17446">
        <ele>218.7</ele>
        <time>2021-02-23T10:34:03Z</time>
      </trkpt>
      <trkpt lat="47.64019" lon="6.17453">
        <ele>218.5</ele>
        <time>2021-02-23T10:34:03Z</time>
      </trkpt>
      <trkpt lat="47.64024" lon="6.17459">
        <ele>218.4</ele>
        <time>2021-02-23T10:34:07Z</time>
      </trkpt>
      <trkpt lat="47.64029" lon="6.17466">
        <ele>218.3</ele>
        <time>2021-02-23T10:34:09Z</time>
      </trkpt>
      <trkpt lat="47.64033" lon="6.17474">
        <ele>218.2</ele>
        <time>2021-02-23T10:34:09Z</time>
      </trkpt>
      <trkpt lat="47.64037" lon="6.17479">
        <ele>218.1</ele>
        <time>2021-02-23T10:34:13Z</time>
      </trkpt>
      <trkpt lat="47.64045" lon="6.17491">
        <ele>217.9</ele>
        <time>2021-02-23T10:34:16Z</time>
      </trkpt>
      <trkpt lat="47.64052" lon="6.17501">
        <ele>217.7</ele>
        <time>2021-02-23T10:34:16Z</time>
      </trkpt>
      <trkpt lat="47.64058" lon="6.17509">
        <ele>217.5</ele>
        <time>2021-02-23T10:34:20Z</time>
      </trkpt>
      <trkpt lat="47.64062" lon="6.17514">
        <ele>217.3</ele>
        <time>2021-02-23T10:34:21Z</time>
      </trkpt>
      <trkpt lat="47.6407" lon="6.17524">
        <ele>217</ele>
        <time>2021-02-23T10:34:21Z</time>
      </trkpt>
      <trkpt lat="47.64077" lon="6.17533">
        <ele>216.8</ele>
        <time>2021-02-23T10:34:25Z</time>
      </trkpt>
      <trkpt lat="47.64083" lon="6.17541">
        <ele>216.5</ele>
        <time>2021-02-23T10:34:27Z</time>
      </trkpt>
      <trkpt lat="47.64087" lon="6.17546">
        <ele>216.5</ele>
        <time>2021-02-23T10:34:28Z</time>
      </trkpt>
      <trkpt lat="47.64093" lon="6.17553">
        <ele>216.6</ele>
        <time>2021-02-23T10:34:30Z</time>
      </trkpt>
      <trkpt lat="47.64102" lon="6.17566">
        <ele>216.8</ele>
        <time>2021-02-23T10:34:33Z</time>
      </trkpt>
      <trkpt lat="47.64106" lon="6.17571">
        <ele>216.8</ele>
        <time>2021-02-23T10:34:34Z</time>
      </trkpt>
      <trkpt lat="47.64114" lon="6.17583">
        <ele>217.1</ele>
        <time>2021-02-23T10:34:37Z</time>
      </trkpt>
      <trkpt lat="47.64122" lon="6.17594">
        <ele>217.3</ele>
        <time>2021-02-23T10:34:40Z</time>
      </trkpt>
      <trkpt lat="47.64127" lon="6.17602">
        <ele>217.5</ele>
        <time>2021-02-23T10:34:42Z</time>
      </trkpt>
      <trkpt lat="47.64133" lon="6.1761">
        <ele>217.6</ele>
        <time>2021-02-23T10:34:42Z</time>
      </trkpt>
      <trkpt lat="47.64137" lon="6.17616">
        <ele>217.7</ele>
        <time>2021-02-23T10:34:46Z</time>
      </trkpt>
      <trkpt lat="47.64147" lon="6.17629">
        <ele>217.9</ele>
        <time>2021-02-23T10:34:49Z</time>
      </trkpt>
      <trkpt lat="47.64152" lon="6.17636">
        <ele>217.9</ele>
        <time>2021-02-23T10:34:51Z</time>
      </trkpt>
      <trkpt lat="47.64157" lon="6.17642">
        <ele>218</ele>
        <time>2021-02-23T10:34:53Z</time>
      </trkpt>
      <trkpt lat="47.64161" lon="6.17648">
        <ele>218.1</ele>
        <time>2021-02-23T10:34:55Z</time>
      </trkpt>
      <trkpt lat="47.64165" lon="6.17653">
        <ele>218.1</ele>
        <time>2021-02-23T10:34:56Z</time>
      </trkpt>
      <trkpt lat="47.6417" lon="6.1766">
        <ele>218.2</ele>
        <time>2021-02-23T10:34:56Z</time>
      </trkpt>
      <trkpt lat="47.64175" lon="6.17667">
        <ele>218.2</ele>
        <time>2021-02-23T10:35:00Z</time>
      </trkpt>
      <trkpt lat="47.6418" lon="6.17674">
        <ele>218.1</ele>
        <time>2021-02-23T10:35:00Z</time>
      </trkpt>
      <trkpt lat="47.64186" lon="6.17681">
        <ele>217.9</ele>
        <time>2021-02-23T10:35:04Z</time>
      </trkpt>
      <trkpt lat="47.64191" lon="6.17688">
        <ele>217.8</ele>
        <time>2021-02-23T10:35:04Z</time>
      </trkpt>
      <trkpt lat="47.64196" lon="6.17695">
        <ele>217.7</ele>
        <time>2021-02-23T10:35:06Z</time>
      </trkpt>
      <trkpt lat="47.64202" lon="6.17701">
        <ele>217.6</ele>
        <time>2021-02-23T10:35:10Z</time>
      </trkpt>
      <trkpt lat="47.64207" lon="6.17708">
        <ele>217.5</ele>
        <time>2021-02-23T10:35:10Z</time>
      </trkpt>
      <trkpt lat="47.64212" lon="6.17715">
        <ele>217.4</ele>
        <time>2021-02-23T10:35:14Z</time>
      </trkpt>
      <trkpt lat="47.64217" lon="6.17721">
        <ele>217.3</ele>
        <time>2021-02-23T10:35:16Z</time>
      </trkpt>
      <trkpt lat="47.64221" lon="6.17727">
        <ele>217.1</ele>
        <time>2021-02-23T10:35:18Z</time>
      </trkpt>
      <trkpt lat="47.64228" lon="6.17734">
        <ele>217</ele>
        <time>2021-02-23T10:35:18Z</time>
      </trkpt>
      <trkpt lat="47.64232" lon="6.1774">
        <ele>216.9</ele>
        <time>2021-02-23T10:35:22Z</time>
      </trkpt>
      <trkpt lat="47.64238" lon="6.17746">
        <ele>216.9</ele>
        <time>2021-02-23T10:35:24Z</time>
      </trkpt>
      <trkpt lat="47.64244" lon="6.17751">
        <ele>216.9</ele>
        <time>2021-02-23T10:35:26Z</time>
      </trkpt>
      <trkpt lat="47.64248" lon="6.17754">
        <ele>217</ele>
        <time>2021-02-23T10:35:28Z</time>
      </trkpt>
      <trkpt lat="47.64258" lon="6.1776">
        <ele>217.5</ele>
        <time>2021-02-23T10:35:29Z</time>
      </trkpt>
      <trkpt lat="47.64263" lon="6.17764">
        <ele>217.7</ele>
        <time>2021-02-23T10:35:31Z</time>
      </trkpt>
      <trkpt lat="47.64269" lon="6.17767">
        <ele>218</ele>
        <time>2021-02-23T10:35:33Z</time>
      </trkpt>
      <trkpt lat="47.64276" lon="6.17771">
        <ele>218.3</ele>
        <time>2021-02-23T10:35:35Z</time>
      </trkpt>
      <trkpt lat="47.64283" lon="6.17775">
        <ele>218.5</ele>
        <time>2021-02-23T10:35:37Z</time>
      </trkpt>
      <trkpt lat="47.64289" lon="6.17778">
        <ele>218.7</ele>
        <time>2021-02-23T10:35:39Z</time>
      </trkpt>
      <trkpt lat="47.64295" lon="6.17782">
        <ele>218.9</ele>
        <time>2021-02-23T10:35:41Z</time>
      </trkpt>
      <trkpt lat="47.64302" lon="6.17786">
        <ele>219.1</ele>
        <time>2021-02-23T10:35:43Z</time>
      </trkpt>
      <trkpt lat="47.64308" lon="6.17789">
        <ele>219.3</ele>
        <time>2021-02-23T10:35:45Z</time>
      </trkpt>
      <trkpt lat="47.64316" lon="6.17793">
        <ele>219.5</ele>
        <time>2021-02-23T10:35:47Z</time>
      </trkpt>
      <trkpt lat="47.64322" lon="6.17797">
        <ele>219.6</ele>
        <time>2021-02-23T10:35:49Z</time>
      </trkpt>
      <trkpt lat="47.64329" lon="6.17801">
        <ele>219.7</ele>
        <time>2021-02-23T10:35:51Z</time>
      </trkpt>
      <trkpt lat="47.64335" lon="6.17804">
        <ele>219.7</ele>
        <time>2021-02-23T10:35:53Z</time>
      </trkpt>
      <trkpt lat="47.64341" lon="6.17808">
        <ele>219.7</ele>
        <time>2021-02-23T10:35:55Z</time>
      </trkpt>
      <trkpt lat="47.64347" lon="6.17812">
        <ele>219.7</ele>
        <time>2021-02-23T10:35:57Z</time>
      </trkpt>
      <trkpt lat="47.64352" lon="6.17816">
        <ele>219.7</ele>
        <time>2021-02-23T10:35:59Z</time>
      </trkpt>
      <trkpt lat="47.64356" lon="6.1782">
        <ele>219.7</ele>
        <time>2021-02-23T10:36:01Z</time>
      </trkpt>
      <trkpt lat="47.64358" lon="6.17826">
        <ele>219.7</ele>
        <time>2021-02-23T10:36:03Z</time>
      </trkpt>
      <trkpt lat="47.64357" lon="6.17836">
        <ele>219.6</ele>
        <time>2021-02-23T10:36:06Z</time>
      </trkpt>
      <trkpt lat="47.64359" lon="6.17845">
        <ele>219.7</ele>
        <time>2021-02-23T10:36:09Z</time>
      </trkpt>
      <trkpt lat="47.64364" lon="6.1785">
        <ele>219.9</ele>
        <time>2021-02-23T10:36:11Z</time>
      </trkpt>
      <trkpt lat="47.64369" lon="6.17856">
        <ele>220</ele>
        <time>2021-02-23T10:36:13Z</time>
      </trkpt>
      <trkpt lat="47.64374" lon="6.17863">
        <ele>220.2</ele>
        <time>2021-02-23T10:36:15Z</time>
      </trkpt>
      <trkpt lat="47.64378" lon="6.17869">
        <ele>220.3</ele>
        <time>2021-02-23T10:36:17Z</time>
      </trkpt>
      <trkpt lat="47.64382" lon="6.17875">
        <ele>220.4</ele>
        <time>2021-02-23T10:36:19Z</time>
      </trkpt>
      <trkpt lat="47.64387" lon="6.1788">
        <ele>220.5</ele>
        <time>2021-02-23T10:36:21Z</time>
      </trkpt>
      <trkpt lat="47.6439" lon="6.17885">
        <ele>220.6</ele>
        <time>2021-02-23T10:36:23Z</time>
      </trkpt>
      <trkpt lat="47.64393" lon="6.17892">
        <ele>220.6</ele>
        <time>2021-02-23T10:36:25Z</time>
      </trkpt>
      <trkpt lat="47.64396" lon="6.17898">
        <ele>220.7</ele>
        <time>2021-02-23T10:36:27Z</time>
      </trkpt>
      <trkpt lat="47.64399" lon="6.17904">
        <ele>220.8</ele>
        <time>2021-02-23T10:36:29Z</time>
      </trkpt>
      <trkpt lat="47.64402" lon="6.17911">
        <ele>220.8</ele>
        <time>2021-02-23T10:36:31Z</time>
      </trkpt>
      <trkpt lat="47.64406" lon="6.17917">
        <ele>220.9</ele>
        <time>2021-02-23T10:36:33Z</time>
      </trkpt>
      <trkpt lat="47.64409" lon="6.17923">
        <ele>221</ele>
        <time>2021-02-23T10:36:35Z</time>
      </trkpt>
      <trkpt lat="47.64412" lon="6.17929">
        <ele>221.1</ele>
        <time>2021-02-23T10:36:37Z</time>
      </trkpt>
      <trkpt lat="47.64415" lon="6.17935">
        <ele>221.2</ele>
        <time>2021-02-23T10:36:39Z</time>
      </trkpt>
      <trkpt lat="47.64418" lon="6.17941">
        <ele>221.3</ele>
        <time>2021-02-23T10:36:41Z</time>
      </trkpt>
      <trkpt lat="47.64421" lon="6.17947">
        <ele>221.4</ele>
        <time>2021-02-23T10:36:43Z</time>
      </trkpt>
      <trkpt lat="47.64425" lon="6.17954">
        <ele>221.5</ele>
        <time>2021-02-23T10:36:45Z</time>
      </trkpt>
      <trkpt lat="47.64428" lon="6.1796">
        <ele>221.7</ele>
        <time>2021-02-23T10:36:47Z</time>
      </trkpt>
      <trkpt lat="47.64432" lon="6.17965">
        <ele>221.8</ele>
        <time>2021-02-23T10:36:49Z</time>
      </trkpt>
      <trkpt lat="47.64436" lon="6.1797">
        <ele>221.9</ele>
        <time>2021-02-23T10:36:51Z</time>
      </trkpt>
      <trkpt lat="47.6444" lon="6.17977">
        <ele>222</ele>
        <time>2021-02-23T10:36:53Z</time>
      </trkpt>
      <trkpt lat="47.64445" lon="6.17987">
        <ele>222.2</ele>
        <time>2021-02-23T10:36:55Z</time>
      </trkpt>
      <trkpt lat="47.6445" lon="6.17998">
        <ele>222.4</ele>
        <time>2021-02-23T10:36:57Z</time>
      </trkpt>
      <trkpt lat="47.64455" lon="6.18008">
        <ele>222.5</ele>
        <time>2021-02-23T10:36:59Z</time>
      </trkpt>
      <trkpt lat="47.64461" lon="6.18017">
        <ele>222.6</ele>
        <time>2021-02-23T10:37:01Z</time>
      </trkpt>
      <trkpt lat="47.64466" lon="6.18024">
        <ele>222.7</ele>
        <time>2021-02-23T10:37:03Z</time>
      </trkpt>
      <trkpt lat="47.6447" lon="6.1803">
        <ele>222.8</ele>
        <time>2021-02-23T10:37:05Z</time>
      </trkpt>
      <trkpt lat="47.64474" lon="6.18035">
        <ele>222.8</ele>
        <time>2021-02-23T10:37:08Z</time>
      </trkpt>
      <trkpt lat="47.6448" lon="6.18041">
        <ele>222.9</ele>
        <time>2021-02-23T10:37:11Z</time>
      </trkpt>
      <trkpt lat="47.64485" lon="6.18045">
        <ele>222.9</ele>
        <time>2021-02-23T10:37:14Z</time>
      </trkpt>
      <trkpt lat="47.6449" lon="6.18048">
        <ele>222.9</ele>
        <time>2021-02-23T10:37:16Z</time>
      </trkpt>
      <trkpt lat="47.64495" lon="6.1805">
        <ele>223</ele>
        <time>2021-02-23T10:37:18Z</time>
      </trkpt>
      <trkpt lat="47.64503" lon="6.18052">
        <ele>223.5</ele>
        <time>2021-02-23T10:37:20Z</time>
      </trkpt>
      <trkpt lat="47.64509" lon="6.18058">
        <ele>224.6</ele>
        <time>2021-02-23T10:37:22Z</time>
      </trkpt>
      <trkpt lat="47.64512" lon="6.1807">
        <ele>225.2</ele>
        <time>2021-02-23T10:37:24Z</time>
      </trkpt>
      <trkpt lat="47.64508" lon="6.18083">
        <ele>224.7</ele>
        <time>2021-02-23T10:37:26Z</time>
      </trkpt>
      <trkpt lat="47.64506" lon="6.18091">
        <ele>224.4</ele>
        <time>2021-02-23T10:37:27Z</time>
      </trkpt>
      <trkpt lat="47.64502" lon="6.18103">
        <ele>223.9</ele>
        <time>2021-02-23T10:37:29Z</time>
      </trkpt>
      <trkpt lat="47.645" lon="6.1811">
        <ele>223.7</ele>
        <time>2021-02-23T10:37:30Z</time>
      </trkpt>
      <trkpt lat="47.64498" lon="6.18118">
        <ele>223.8</ele>
        <time>2021-02-23T10:37:31Z</time>
      </trkpt>
      <trkpt lat="47.64497" lon="6.18127">
        <ele>224</ele>
        <time>2021-02-23T10:37:35Z</time>
      </trkpt>
      <trkpt lat="47.64494" lon="6.18138">
        <ele>224.2</ele>
        <time>2021-02-23T10:37:36Z</time>
      </trkpt>
      <trkpt lat="47.64493" lon="6.18149">
        <ele>224.5</ele>
        <time>2021-02-23T10:37:36Z</time>
      </trkpt>
      <trkpt lat="47.64494" lon="6.18157">
        <ele>224.6</ele>
        <time>2021-02-23T10:37:39Z</time>
      </trkpt>
      <trkpt lat="47.64496" lon="6.18167">
        <ele>224.9</ele>
        <time>2021-02-23T10:37:41Z</time>
      </trkpt>
      <trkpt lat="47.64499" lon="6.18189">
        <ele>226.6</ele>
        <time>2021-02-23T10:37:44Z</time>
      </trkpt>
      <trkpt lat="47.64497" lon="6.18201">
        <ele>227.3</ele>
        <time>2021-02-23T10:37:46Z</time>
      </trkpt>
      <trkpt lat="47.64495" lon="6.1821">
        <ele>227.8</ele>
        <time>2021-02-23T10:37:48Z</time>
      </trkpt>
      <trkpt lat="47.64491" lon="6.18219">
        <ele>228.1</ele>
        <time>2021-02-23T10:37:50Z</time>
      </trkpt>
      <trkpt lat="47.64485" lon="6.18232">
        <ele>228.4</ele>
        <time>2021-02-23T10:37:53Z</time>
      </trkpt>
      <trkpt lat="47.64482" lon="6.18239">
        <ele>228.4</ele>
        <time>2021-02-23T10:37:55Z</time>
      </trkpt>
      <trkpt lat="47.64479" lon="6.18245">
        <ele>228.5</ele>
        <time>2021-02-23T10:37:56Z</time>
      </trkpt>
      <trkpt lat="47.64472" lon="6.1826">
        <ele>229.3</ele>
        <time>2021-02-23T10:37:59Z</time>
      </trkpt>
      <trkpt lat="47.64467" lon="6.18268">
        <ele>229.6</ele>
        <time>2021-02-23T10:38:01Z</time>
      </trkpt>
      <trkpt lat="47.64458" lon="6.18278">
        <ele>229.7</ele>
        <time>2021-02-23T10:38:04Z</time>
      </trkpt>
      <trkpt lat="47.64454" lon="6.18283">
        <ele>229.7</ele>
        <time>2021-02-23T10:38:06Z</time>
      </trkpt>
      <trkpt lat="47.64449" lon="6.1829">
        <ele>229.7</ele>
        <time>2021-02-23T10:38:08Z</time>
      </trkpt>
      <trkpt lat="47.64444" lon="6.18297">
        <ele>229.6</ele>
        <time>2021-02-23T10:38:10Z</time>
      </trkpt>
      <trkpt lat="47.64437" lon="6.18301">
        <ele>228.9</ele>
        <time>2021-02-23T10:38:11Z</time>
      </trkpt>
      <trkpt lat="47.64432" lon="6.18297">
        <ele>227.7</ele>
        <time>2021-02-23T10:38:14Z</time>
      </trkpt>
      <trkpt lat="47.64429" lon="6.18291">
        <ele>226.8</ele>
        <time>2021-02-23T10:38:15Z</time>
      </trkpt>
      <trkpt lat="47.64426" lon="6.18273">
        <ele>224.9</ele>
        <time>2021-02-23T10:38:17Z</time>
      </trkpt>
      <trkpt lat="47.64423" lon="6.18265">
        <ele>223.8</ele>
        <time>2021-02-23T10:38:19Z</time>
      </trkpt>
      <trkpt lat="47.6442" lon="6.18275">
        <ele>224.2</ele>
        <time>2021-02-23T10:38:22Z</time>
      </trkpt>
      <trkpt lat="47.6442" lon="6.18282">
        <ele>224.7</ele>
        <time>2021-02-23T10:38:26Z</time>
      </trkpt>
      <trkpt lat="47.64419" lon="6.18275">
        <ele>224.1</ele>
        <time>2021-02-23T10:39:01Z</time>
      </trkpt>
      <trkpt lat="47.64421" lon="6.18281">
        <ele>224.8</ele>
        <time>2021-02-23T10:39:28Z</time>
      </trkpt>
      <trkpt lat="47.64423" lon="6.18291">
        <ele>225.9</ele>
        <time>2021-02-23T10:39:33Z</time>
      </trkpt>
      <trkpt lat="47.64428" lon="6.18298">
        <ele>227.2</ele>
        <time>2021-02-23T10:39:35Z</time>
      </trkpt>
      <trkpt lat="47.64433" lon="6.18303">
        <ele>228.5</ele>
        <time>2021-02-23T10:39:36Z</time>
      </trkpt>
      <trkpt lat="47.64437" lon="6.18313">
        <ele>230</ele>
        <time>2021-02-23T10:39:40Z</time>
      </trkpt>
      <trkpt lat="47.64438" lon="6.18321">
        <ele>230.9</ele>
        <time>2021-02-23T10:39:42Z</time>
      </trkpt>
      <trkpt lat="47.64436" lon="6.18327">
        <ele>231.2</ele>
        <time>2021-02-23T10:39:45Z</time>
      </trkpt>
    </trkseg>
  </trk>
</gpx>